<?xml version="1.0" encoding="UTF-8" standalone="no" ?>
<gpx xmlns="http://www.topografix.com/GPX/1/1" xmlns:xsi="http://www.w3.org/2001/XMLSchema-instance" xsi:schemaLocation="http://www.topografix.com/GPX/1/1 http://www.topografix.com/GPX/1/1/gpx.xsd" version="1.1" creator="VisuGPX - https://www.visugpx.com">
  <metadata>
    <name>Les Glières 02 par les Ollières</name>
  </metadata>
  <trk>
    <name><![CDATA[Sortie Vélo Avec Pascal the Boss et Joffrey.]]></name>
    <extensions>
      <line xmlns="http://www.topografix.com/GPX/gpx_style/0/2">
        <color>0000FF</color>
        <width>4</width>
      </line>
    </extensions>
    <trkseg>
      <trkpt lat="46.05468" lon="6.36644">
        <ele>515.8</ele>
        <time>2021-03-27T12:43:56Z</time>
      </trkpt>
      <trkpt lat="46.05468" lon="6.36644">
        <ele>515.8</ele>
        <time>2021-03-27T12:43:56Z</time>
      </trkpt>
      <trkpt lat="46.0547" lon="6.36646">
        <ele>515.4</ele>
        <time>2021-03-27T12:43:55Z</time>
      </trkpt>
      <trkpt lat="46.05474" lon="6.36649">
        <ele>514.4</ele>
        <time>2021-03-27T12:43:53Z</time>
      </trkpt>
      <trkpt lat="46.05476" lon="6.36649">
        <ele>514.2</ele>
        <time>2021-03-27T12:43:52Z</time>
      </trkpt>
      <trkpt lat="46.0548" lon="6.36648">
        <ele>513.4</ele>
        <time>2021-03-27T12:43:50Z</time>
      </trkpt>
      <trkpt lat="46.05483" lon="6.36647">
        <ele>513</ele>
        <time>2021-03-27T12:43:49Z</time>
      </trkpt>
      <trkpt lat="46.05487" lon="6.36647">
        <ele>512</ele>
        <time>2021-03-27T12:43:47Z</time>
      </trkpt>
      <trkpt lat="46.05489" lon="6.36649">
        <ele>511.8</ele>
        <time>2021-03-27T12:43:46Z</time>
      </trkpt>
      <trkpt lat="46.05492" lon="6.36652">
        <ele>511</ele>
        <time>2021-03-27T12:43:44Z</time>
      </trkpt>
      <trkpt lat="46.05493" lon="6.36654">
        <ele>510.6</ele>
        <time>2021-03-27T12:43:43Z</time>
      </trkpt>
      <trkpt lat="46.05495" lon="6.36658">
        <ele>509.8</ele>
        <time>2021-03-27T12:43:41Z</time>
      </trkpt>
      <trkpt lat="46.05496" lon="6.3666">
        <ele>509.4</ele>
        <time>2021-03-27T12:43:40Z</time>
      </trkpt>
      <trkpt lat="46.05499" lon="6.36666">
        <ele>508.6</ele>
        <time>2021-03-27T12:43:38Z</time>
      </trkpt>
      <trkpt lat="46.055" lon="6.36668">
        <ele>508.2</ele>
        <time>2021-03-27T12:43:37Z</time>
      </trkpt>
      <trkpt lat="46.05503" lon="6.36672">
        <ele>507.4</ele>
        <time>2021-03-27T12:43:35Z</time>
      </trkpt>
      <trkpt lat="46.05504" lon="6.36675">
        <ele>507.2</ele>
        <time>2021-03-27T12:43:34Z</time>
      </trkpt>
      <trkpt lat="46.05506" lon="6.36678">
        <ele>506.2</ele>
        <time>2021-03-27T12:43:32Z</time>
      </trkpt>
      <trkpt lat="46.05508" lon="6.3668">
        <ele>505.8</ele>
        <time>2021-03-27T12:43:31Z</time>
      </trkpt>
      <trkpt lat="46.0551" lon="6.36684">
        <ele>504.6</ele>
        <time>2021-03-27T12:43:29Z</time>
      </trkpt>
      <trkpt lat="46.05511" lon="6.36685">
        <ele>504.2</ele>
        <time>2021-03-27T12:43:28Z</time>
      </trkpt>
      <trkpt lat="46.05515" lon="6.36688">
        <ele>503.6</ele>
        <time>2021-03-27T12:43:26Z</time>
      </trkpt>
      <trkpt lat="46.05517" lon="6.3669">
        <ele>503.4</ele>
        <time>2021-03-27T12:43:25Z</time>
      </trkpt>
      <trkpt lat="46.05519" lon="6.36691">
        <ele>502.8</ele>
        <time>2021-03-27T12:43:24Z</time>
      </trkpt>
      <trkpt lat="46.05521" lon="6.36691">
        <ele>502.8</ele>
        <time>2021-03-27T12:43:23Z</time>
      </trkpt>
      <trkpt lat="46.05523" lon="6.3669">
        <ele>502.6</ele>
        <time>2021-03-27T12:43:22Z</time>
      </trkpt>
      <trkpt lat="46.05525" lon="6.36688">
        <ele>502.6</ele>
        <time>2021-03-27T12:43:21Z</time>
      </trkpt>
      <trkpt lat="46.05527" lon="6.36685">
        <ele>502.6</ele>
        <time>2021-03-27T12:43:20Z</time>
      </trkpt>
      <trkpt lat="46.05528" lon="6.36681">
        <ele>502.6</ele>
        <time>2021-03-27T12:43:19Z</time>
      </trkpt>
      <trkpt lat="46.05529" lon="6.36676">
        <ele>502.6</ele>
        <time>2021-03-27T12:43:18Z</time>
      </trkpt>
      <trkpt lat="46.0553" lon="6.36671">
        <ele>502.6</ele>
        <time>2021-03-27T12:43:17Z</time>
      </trkpt>
      <trkpt lat="46.0553" lon="6.36666">
        <ele>502.6</ele>
        <time>2021-03-27T12:43:16Z</time>
      </trkpt>
      <trkpt lat="46.0553" lon="6.36661">
        <ele>502.2</ele>
        <time>2021-03-27T12:43:15Z</time>
      </trkpt>
      <trkpt lat="46.05531" lon="6.36655">
        <ele>502</ele>
        <time>2021-03-27T12:43:14Z</time>
      </trkpt>
      <trkpt lat="46.05531" lon="6.3665">
        <ele>502</ele>
        <time>2021-03-27T12:43:13Z</time>
      </trkpt>
      <trkpt lat="46.05532" lon="6.36638">
        <ele>501.6</ele>
        <time>2021-03-27T12:43:11Z</time>
      </trkpt>
      <trkpt lat="46.05533" lon="6.36632">
        <ele>501.4</ele>
        <time>2021-03-27T12:43:10Z</time>
      </trkpt>
      <trkpt lat="46.05533" lon="6.3662">
        <ele>501.2</ele>
        <time>2021-03-27T12:43:08Z</time>
      </trkpt>
      <trkpt lat="46.05533" lon="6.36614">
        <ele>501.2</ele>
        <time>2021-03-27T12:43:07Z</time>
      </trkpt>
      <trkpt lat="46.05534" lon="6.36603">
        <ele>500.6</ele>
        <time>2021-03-27T12:43:05Z</time>
      </trkpt>
      <trkpt lat="46.05534" lon="6.36597">
        <ele>500.4</ele>
        <time>2021-03-27T12:43:04Z</time>
      </trkpt>
      <trkpt lat="46.05535" lon="6.36586">
        <ele>500</ele>
        <time>2021-03-27T12:43:02Z</time>
      </trkpt>
      <trkpt lat="46.05536" lon="6.3658">
        <ele>499.8</ele>
        <time>2021-03-27T12:43:01Z</time>
      </trkpt>
      <trkpt lat="46.05536" lon="6.36574">
        <ele>499.6</ele>
        <time>2021-03-27T12:43:00Z</time>
      </trkpt>
      <trkpt lat="46.05537" lon="6.36568">
        <ele>499.4</ele>
        <time>2021-03-27T12:42:59Z</time>
      </trkpt>
      <trkpt lat="46.05537" lon="6.36563">
        <ele>499.2</ele>
        <time>2021-03-27T12:42:58Z</time>
      </trkpt>
      <trkpt lat="46.05538" lon="6.36558">
        <ele>498.8</ele>
        <time>2021-03-27T12:42:57Z</time>
      </trkpt>
      <trkpt lat="46.05538" lon="6.36553">
        <ele>498.6</ele>
        <time>2021-03-27T12:42:56Z</time>
      </trkpt>
      <trkpt lat="46.05538" lon="6.36548">
        <ele>498.6</ele>
        <time>2021-03-27T12:42:55Z</time>
      </trkpt>
      <trkpt lat="46.05539" lon="6.36542">
        <ele>498.6</ele>
        <time>2021-03-27T12:42:54Z</time>
      </trkpt>
      <trkpt lat="46.05539" lon="6.36537">
        <ele>498.4</ele>
        <time>2021-03-27T12:42:53Z</time>
      </trkpt>
      <trkpt lat="46.05539" lon="6.36531">
        <ele>498.2</ele>
        <time>2021-03-27T12:42:52Z</time>
      </trkpt>
      <trkpt lat="46.0554" lon="6.36525">
        <ele>498</ele>
        <time>2021-03-27T12:42:51Z</time>
      </trkpt>
      <trkpt lat="46.0554" lon="6.36519">
        <ele>497.8</ele>
        <time>2021-03-27T12:42:50Z</time>
      </trkpt>
      <trkpt lat="46.05541" lon="6.36513">
        <ele>497.6</ele>
        <time>2021-03-27T12:42:49Z</time>
      </trkpt>
      <trkpt lat="46.05542" lon="6.36508">
        <ele>497.6</ele>
        <time>2021-03-27T12:42:48Z</time>
      </trkpt>
      <trkpt lat="46.05544" lon="6.36502">
        <ele>497.4</ele>
        <time>2021-03-27T12:42:47Z</time>
      </trkpt>
      <trkpt lat="46.05546" lon="6.36497">
        <ele>497.2</ele>
        <time>2021-03-27T12:42:46Z</time>
      </trkpt>
      <trkpt lat="46.0555" lon="6.36494">
        <ele>497</ele>
        <time>2021-03-27T12:42:45Z</time>
      </trkpt>
      <trkpt lat="46.05553" lon="6.36492">
        <ele>496.6</ele>
        <time>2021-03-27T12:42:44Z</time>
      </trkpt>
      <trkpt lat="46.05557" lon="6.36492">
        <ele>496.4</ele>
        <time>2021-03-27T12:42:43Z</time>
      </trkpt>
      <trkpt lat="46.0556" lon="6.36492">
        <ele>496.2</ele>
        <time>2021-03-27T12:42:42Z</time>
      </trkpt>
      <trkpt lat="46.05563" lon="6.36492">
        <ele>496</ele>
        <time>2021-03-27T12:42:41Z</time>
      </trkpt>
      <trkpt lat="46.05566" lon="6.36492">
        <ele>495.8</ele>
        <time>2021-03-27T12:42:40Z</time>
      </trkpt>
      <trkpt lat="46.05568" lon="6.3649">
        <ele>495.4</ele>
        <time>2021-03-27T12:42:39Z</time>
      </trkpt>
      <trkpt lat="46.05571" lon="6.36487">
        <ele>495.2</ele>
        <time>2021-03-27T12:42:38Z</time>
      </trkpt>
      <trkpt lat="46.05573" lon="6.36483">
        <ele>495.2</ele>
        <time>2021-03-27T12:42:37Z</time>
      </trkpt>
      <trkpt lat="46.05574" lon="6.36478">
        <ele>494.8</ele>
        <time>2021-03-27T12:42:36Z</time>
      </trkpt>
      <trkpt lat="46.05575" lon="6.36473">
        <ele>494.4</ele>
        <time>2021-03-27T12:42:35Z</time>
      </trkpt>
      <trkpt lat="46.05575" lon="6.36468">
        <ele>494.2</ele>
        <time>2021-03-27T12:42:34Z</time>
      </trkpt>
      <trkpt lat="46.05575" lon="6.36463">
        <ele>494</ele>
        <time>2021-03-27T12:42:33Z</time>
      </trkpt>
      <trkpt lat="46.05575" lon="6.36457">
        <ele>493.8</ele>
        <time>2021-03-27T12:42:32Z</time>
      </trkpt>
      <trkpt lat="46.05576" lon="6.36452">
        <ele>493.8</ele>
        <time>2021-03-27T12:42:31Z</time>
      </trkpt>
      <trkpt lat="46.05576" lon="6.36447">
        <ele>493.6</ele>
        <time>2021-03-27T12:42:30Z</time>
      </trkpt>
      <trkpt lat="46.05577" lon="6.36441">
        <ele>493.4</ele>
        <time>2021-03-27T12:42:29Z</time>
      </trkpt>
      <trkpt lat="46.05577" lon="6.36436">
        <ele>493.2</ele>
        <time>2021-03-27T12:42:28Z</time>
      </trkpt>
      <trkpt lat="46.05578" lon="6.36431">
        <ele>493</ele>
        <time>2021-03-27T12:42:27Z</time>
      </trkpt>
      <trkpt lat="46.05578" lon="6.36426">
        <ele>492.6</ele>
        <time>2021-03-27T12:42:26Z</time>
      </trkpt>
      <trkpt lat="46.05579" lon="6.36421">
        <ele>492.4</ele>
        <time>2021-03-27T12:42:25Z</time>
      </trkpt>
      <trkpt lat="46.0558" lon="6.36416">
        <ele>492</ele>
        <time>2021-03-27T12:42:24Z</time>
      </trkpt>
      <trkpt lat="46.0558" lon="6.36411">
        <ele>491.8</ele>
        <time>2021-03-27T12:42:23Z</time>
      </trkpt>
      <trkpt lat="46.05581" lon="6.36406">
        <ele>491.4</ele>
        <time>2021-03-27T12:42:22Z</time>
      </trkpt>
      <trkpt lat="46.05582" lon="6.36401">
        <ele>491</ele>
        <time>2021-03-27T12:42:21Z</time>
      </trkpt>
      <trkpt lat="46.05583" lon="6.36396">
        <ele>490.8</ele>
        <time>2021-03-27T12:42:20Z</time>
      </trkpt>
      <trkpt lat="46.05584" lon="6.36391">
        <ele>490.6</ele>
        <time>2021-03-27T12:42:19Z</time>
      </trkpt>
      <trkpt lat="46.05585" lon="6.36386">
        <ele>490.6</ele>
        <time>2021-03-27T12:42:18Z</time>
      </trkpt>
      <trkpt lat="46.05585" lon="6.36382">
        <ele>490.2</ele>
        <time>2021-03-27T12:42:17Z</time>
      </trkpt>
      <trkpt lat="46.05586" lon="6.36377">
        <ele>490</ele>
        <time>2021-03-27T12:42:16Z</time>
      </trkpt>
      <trkpt lat="46.05587" lon="6.36373">
        <ele>489.8</ele>
        <time>2021-03-27T12:42:15Z</time>
      </trkpt>
      <trkpt lat="46.05588" lon="6.36368">
        <ele>489.6</ele>
        <time>2021-03-27T12:42:14Z</time>
      </trkpt>
      <trkpt lat="46.05588" lon="6.36364">
        <ele>489.4</ele>
        <time>2021-03-27T12:42:13Z</time>
      </trkpt>
      <trkpt lat="46.05589" lon="6.36359">
        <ele>488.8</ele>
        <time>2021-03-27T12:42:12Z</time>
      </trkpt>
      <trkpt lat="46.05589" lon="6.36355">
        <ele>488.8</ele>
        <time>2021-03-27T12:42:11Z</time>
      </trkpt>
      <trkpt lat="46.0559" lon="6.3635">
        <ele>488.2</ele>
        <time>2021-03-27T12:42:10Z</time>
      </trkpt>
      <trkpt lat="46.05591" lon="6.36345">
        <ele>487.6</ele>
        <time>2021-03-27T12:42:09Z</time>
      </trkpt>
      <trkpt lat="46.05591" lon="6.3634">
        <ele>487.4</ele>
        <time>2021-03-27T12:42:08Z</time>
      </trkpt>
      <trkpt lat="46.05593" lon="6.36335">
        <ele>487</ele>
        <time>2021-03-27T12:42:07Z</time>
      </trkpt>
      <trkpt lat="46.05594" lon="6.36331">
        <ele>486.4</ele>
        <time>2021-03-27T12:42:06Z</time>
      </trkpt>
      <trkpt lat="46.05596" lon="6.36327">
        <ele>485.8</ele>
        <time>2021-03-27T12:42:05Z</time>
      </trkpt>
      <trkpt lat="46.05599" lon="6.36324">
        <ele>485.6</ele>
        <time>2021-03-27T12:42:04Z</time>
      </trkpt>
      <trkpt lat="46.05601" lon="6.36322">
        <ele>485.2</ele>
        <time>2021-03-27T12:42:03Z</time>
      </trkpt>
      <trkpt lat="46.05604" lon="6.36321">
        <ele>484.6</ele>
        <time>2021-03-27T12:42:02Z</time>
      </trkpt>
      <trkpt lat="46.05606" lon="6.3632">
        <ele>484.2</ele>
        <time>2021-03-27T12:42:01Z</time>
      </trkpt>
      <trkpt lat="46.05609" lon="6.36321">
        <ele>483.4</ele>
        <time>2021-03-27T12:42:00Z</time>
      </trkpt>
      <trkpt lat="46.05612" lon="6.36321">
        <ele>482.8</ele>
        <time>2021-03-27T12:41:59Z</time>
      </trkpt>
      <trkpt lat="46.05615" lon="6.36322">
        <ele>482.6</ele>
        <time>2021-03-27T12:41:58Z</time>
      </trkpt>
      <trkpt lat="46.05618" lon="6.36323">
        <ele>482.4</ele>
        <time>2021-03-27T12:41:57Z</time>
      </trkpt>
      <trkpt lat="46.05621" lon="6.36324">
        <ele>482.2</ele>
        <time>2021-03-27T12:41:56Z</time>
      </trkpt>
      <trkpt lat="46.05628" lon="6.36327">
        <ele>482.4</ele>
        <time>2021-03-27T12:41:54Z</time>
      </trkpt>
      <trkpt lat="46.05633" lon="6.36329">
        <ele>482.2</ele>
        <time>2021-03-27T12:41:53Z</time>
      </trkpt>
      <trkpt lat="46.05637" lon="6.36331">
        <ele>482.2</ele>
        <time>2021-03-27T12:41:52Z</time>
      </trkpt>
      <trkpt lat="46.05642" lon="6.36332">
        <ele>482</ele>
        <time>2021-03-27T12:41:51Z</time>
      </trkpt>
      <trkpt lat="46.05647" lon="6.36334">
        <ele>482</ele>
        <time>2021-03-27T12:41:50Z</time>
      </trkpt>
      <trkpt lat="46.05652" lon="6.36335">
        <ele>482</ele>
        <time>2021-03-27T12:41:49Z</time>
      </trkpt>
      <trkpt lat="46.05657" lon="6.36336">
        <ele>481.8</ele>
        <time>2021-03-27T12:41:48Z</time>
      </trkpt>
      <trkpt lat="46.05663" lon="6.36337">
        <ele>481.6</ele>
        <time>2021-03-27T12:41:47Z</time>
      </trkpt>
      <trkpt lat="46.05669" lon="6.36338">
        <ele>481.6</ele>
        <time>2021-03-27T12:41:46Z</time>
      </trkpt>
      <trkpt lat="46.05675" lon="6.36339">
        <ele>481.4</ele>
        <time>2021-03-27T12:41:45Z</time>
      </trkpt>
      <trkpt lat="46.0568" lon="6.36339">
        <ele>481.4</ele>
        <time>2021-03-27T12:41:44Z</time>
      </trkpt>
      <trkpt lat="46.05686" lon="6.36339">
        <ele>481.2</ele>
        <time>2021-03-27T12:41:43Z</time>
      </trkpt>
      <trkpt lat="46.05692" lon="6.36339">
        <ele>481</ele>
        <time>2021-03-27T12:41:42Z</time>
      </trkpt>
      <trkpt lat="46.05699" lon="6.36339">
        <ele>481</ele>
        <time>2021-03-27T12:41:41Z</time>
      </trkpt>
      <trkpt lat="46.05705" lon="6.3634">
        <ele>480.8</ele>
        <time>2021-03-27T12:41:40Z</time>
      </trkpt>
      <trkpt lat="46.05711" lon="6.3634">
        <ele>480.4</ele>
        <time>2021-03-27T12:41:39Z</time>
      </trkpt>
      <trkpt lat="46.05717" lon="6.36341">
        <ele>480.4</ele>
        <time>2021-03-27T12:41:38Z</time>
      </trkpt>
      <trkpt lat="46.05722" lon="6.36341">
        <ele>480.4</ele>
        <time>2021-03-27T12:41:37Z</time>
      </trkpt>
      <trkpt lat="46.05728" lon="6.3634">
        <ele>480.4</ele>
        <time>2021-03-27T12:41:36Z</time>
      </trkpt>
      <trkpt lat="46.05734" lon="6.36339">
        <ele>480.2</ele>
        <time>2021-03-27T12:41:35Z</time>
      </trkpt>
      <trkpt lat="46.0574" lon="6.36339">
        <ele>480.4</ele>
        <time>2021-03-27T12:41:34Z</time>
      </trkpt>
      <trkpt lat="46.05746" lon="6.36338">
        <ele>480.2</ele>
        <time>2021-03-27T12:41:33Z</time>
      </trkpt>
      <trkpt lat="46.05752" lon="6.36337">
        <ele>480.2</ele>
        <time>2021-03-27T12:41:32Z</time>
      </trkpt>
      <trkpt lat="46.05759" lon="6.36337">
        <ele>480.2</ele>
        <time>2021-03-27T12:41:31Z</time>
      </trkpt>
      <trkpt lat="46.05765" lon="6.36335">
        <ele>480.2</ele>
        <time>2021-03-27T12:41:30Z</time>
      </trkpt>
      <trkpt lat="46.05771" lon="6.36334">
        <ele>480.2</ele>
        <time>2021-03-27T12:41:29Z</time>
      </trkpt>
      <trkpt lat="46.05777" lon="6.36333">
        <ele>480.2</ele>
        <time>2021-03-27T12:41:28Z</time>
      </trkpt>
      <trkpt lat="46.05783" lon="6.36333">
        <ele>480</ele>
        <time>2021-03-27T12:41:27Z</time>
      </trkpt>
      <trkpt lat="46.05789" lon="6.36332">
        <ele>480.2</ele>
        <time>2021-03-27T12:41:26Z</time>
      </trkpt>
      <trkpt lat="46.05795" lon="6.36331">
        <ele>480.2</ele>
        <time>2021-03-27T12:41:25Z</time>
      </trkpt>
      <trkpt lat="46.05801" lon="6.36331">
        <ele>480.2</ele>
        <time>2021-03-27T12:41:24Z</time>
      </trkpt>
      <trkpt lat="46.05807" lon="6.36331">
        <ele>480.2</ele>
        <time>2021-03-27T12:41:23Z</time>
      </trkpt>
      <trkpt lat="46.05813" lon="6.36331">
        <ele>480</ele>
        <time>2021-03-27T12:41:22Z</time>
      </trkpt>
      <trkpt lat="46.05819" lon="6.36331">
        <ele>480</ele>
        <time>2021-03-27T12:41:21Z</time>
      </trkpt>
      <trkpt lat="46.05825" lon="6.36331">
        <ele>480</ele>
        <time>2021-03-27T12:41:20Z</time>
      </trkpt>
      <trkpt lat="46.05831" lon="6.36331">
        <ele>480</ele>
        <time>2021-03-27T12:41:19Z</time>
      </trkpt>
      <trkpt lat="46.05837" lon="6.36331">
        <ele>480</ele>
        <time>2021-03-27T12:41:18Z</time>
      </trkpt>
      <trkpt lat="46.05843" lon="6.36331">
        <ele>480</ele>
        <time>2021-03-27T12:41:17Z</time>
      </trkpt>
      <trkpt lat="46.05849" lon="6.36331">
        <ele>480</ele>
        <time>2021-03-27T12:41:16Z</time>
      </trkpt>
      <trkpt lat="46.05855" lon="6.36331">
        <ele>480.2</ele>
        <time>2021-03-27T12:41:15Z</time>
      </trkpt>
      <trkpt lat="46.0586" lon="6.36331">
        <ele>480</ele>
        <time>2021-03-27T12:41:14Z</time>
      </trkpt>
      <trkpt lat="46.05865" lon="6.3633">
        <ele>480.2</ele>
        <time>2021-03-27T12:41:13Z</time>
      </trkpt>
      <trkpt lat="46.0587" lon="6.36331">
        <ele>480.2</ele>
        <time>2021-03-27T12:41:12Z</time>
      </trkpt>
      <trkpt lat="46.05875" lon="6.36331">
        <ele>480.4</ele>
        <time>2021-03-27T12:41:11Z</time>
      </trkpt>
      <trkpt lat="46.0588" lon="6.36332">
        <ele>480.2</ele>
        <time>2021-03-27T12:41:10Z</time>
      </trkpt>
      <trkpt lat="46.05884" lon="6.36334">
        <ele>480.2</ele>
        <time>2021-03-27T12:41:09Z</time>
      </trkpt>
      <trkpt lat="46.05888" lon="6.36337">
        <ele>480.4</ele>
        <time>2021-03-27T12:41:08Z</time>
      </trkpt>
      <trkpt lat="46.05891" lon="6.36343">
        <ele>480.2</ele>
        <time>2021-03-27T12:41:07Z</time>
      </trkpt>
      <trkpt lat="46.05893" lon="6.3635">
        <ele>480.2</ele>
        <time>2021-03-27T12:41:06Z</time>
      </trkpt>
      <trkpt lat="46.05895" lon="6.36358">
        <ele>480</ele>
        <time>2021-03-27T12:41:05Z</time>
      </trkpt>
      <trkpt lat="46.05898" lon="6.36365">
        <ele>480</ele>
        <time>2021-03-27T12:41:04Z</time>
      </trkpt>
      <trkpt lat="46.05902" lon="6.36371">
        <ele>480.2</ele>
        <time>2021-03-27T12:41:03Z</time>
      </trkpt>
      <trkpt lat="46.05906" lon="6.36377">
        <ele>480</ele>
        <time>2021-03-27T12:41:02Z</time>
      </trkpt>
      <trkpt lat="46.05912" lon="6.36381">
        <ele>480</ele>
        <time>2021-03-27T12:41:01Z</time>
      </trkpt>
      <trkpt lat="46.05917" lon="6.36385">
        <ele>480.2</ele>
        <time>2021-03-27T12:41:00Z</time>
      </trkpt>
      <trkpt lat="46.05922" lon="6.36389">
        <ele>480</ele>
        <time>2021-03-27T12:40:59Z</time>
      </trkpt>
      <trkpt lat="46.05927" lon="6.36392">
        <ele>479.8</ele>
        <time>2021-03-27T12:40:58Z</time>
      </trkpt>
      <trkpt lat="46.05932" lon="6.36393">
        <ele>479.6</ele>
        <time>2021-03-27T12:40:57Z</time>
      </trkpt>
      <trkpt lat="46.05937" lon="6.36395">
        <ele>479.4</ele>
        <time>2021-03-27T12:40:56Z</time>
      </trkpt>
      <trkpt lat="46.05943" lon="6.36397">
        <ele>479.4</ele>
        <time>2021-03-27T12:40:55Z</time>
      </trkpt>
      <trkpt lat="46.05947" lon="6.36396">
        <ele>479.4</ele>
        <time>2021-03-27T12:40:54Z</time>
      </trkpt>
      <trkpt lat="46.05952" lon="6.36394">
        <ele>479.2</ele>
        <time>2021-03-27T12:40:53Z</time>
      </trkpt>
      <trkpt lat="46.05955" lon="6.36388">
        <ele>479.2</ele>
        <time>2021-03-27T12:40:52Z</time>
      </trkpt>
      <trkpt lat="46.05957" lon="6.3638">
        <ele>479</ele>
        <time>2021-03-27T12:40:51Z</time>
      </trkpt>
      <trkpt lat="46.05958" lon="6.36372">
        <ele>479</ele>
        <time>2021-03-27T12:40:50Z</time>
      </trkpt>
      <trkpt lat="46.0596" lon="6.36365">
        <ele>479</ele>
        <time>2021-03-27T12:40:49Z</time>
      </trkpt>
      <trkpt lat="46.05963" lon="6.36359">
        <ele>478.8</ele>
        <time>2021-03-27T12:40:48Z</time>
      </trkpt>
      <trkpt lat="46.05968" lon="6.36355">
        <ele>479</ele>
        <time>2021-03-27T12:40:47Z</time>
      </trkpt>
      <trkpt lat="46.05974" lon="6.36352">
        <ele>478.8</ele>
        <time>2021-03-27T12:40:46Z</time>
      </trkpt>
      <trkpt lat="46.05979" lon="6.36351">
        <ele>478.8</ele>
        <time>2021-03-27T12:40:45Z</time>
      </trkpt>
      <trkpt lat="46.05985" lon="6.3635">
        <ele>478.8</ele>
        <time>2021-03-27T12:40:44Z</time>
      </trkpt>
      <trkpt lat="46.0599" lon="6.3635">
        <ele>478.8</ele>
        <time>2021-03-27T12:40:43Z</time>
      </trkpt>
      <trkpt lat="46.05996" lon="6.36351">
        <ele>478.8</ele>
        <time>2021-03-27T12:40:42Z</time>
      </trkpt>
      <trkpt lat="46.06001" lon="6.36352">
        <ele>478.8</ele>
        <time>2021-03-27T12:40:41Z</time>
      </trkpt>
      <trkpt lat="46.06007" lon="6.36353">
        <ele>478.8</ele>
        <time>2021-03-27T12:40:40Z</time>
      </trkpt>
      <trkpt lat="46.06014" lon="6.36354">
        <ele>478.6</ele>
        <time>2021-03-27T12:40:39Z</time>
      </trkpt>
      <trkpt lat="46.0602" lon="6.36355">
        <ele>478.8</ele>
        <time>2021-03-27T12:40:38Z</time>
      </trkpt>
      <trkpt lat="46.06027" lon="6.36356">
        <ele>478.8</ele>
        <time>2021-03-27T12:40:37Z</time>
      </trkpt>
      <trkpt lat="46.06033" lon="6.36358">
        <ele>478.6</ele>
        <time>2021-03-27T12:40:36Z</time>
      </trkpt>
      <trkpt lat="46.0604" lon="6.3636">
        <ele>478.4</ele>
        <time>2021-03-27T12:40:35Z</time>
      </trkpt>
      <trkpt lat="46.06046" lon="6.36361">
        <ele>478.2</ele>
        <time>2021-03-27T12:40:34Z</time>
      </trkpt>
      <trkpt lat="46.06053" lon="6.36363">
        <ele>478.2</ele>
        <time>2021-03-27T12:40:33Z</time>
      </trkpt>
      <trkpt lat="46.0606" lon="6.36364">
        <ele>477.8</ele>
        <time>2021-03-27T12:40:32Z</time>
      </trkpt>
      <trkpt lat="46.06067" lon="6.36365">
        <ele>477.8</ele>
        <time>2021-03-27T12:40:31Z</time>
      </trkpt>
      <trkpt lat="46.06073" lon="6.36367">
        <ele>477.8</ele>
        <time>2021-03-27T12:40:30Z</time>
      </trkpt>
      <trkpt lat="46.0608" lon="6.36367">
        <ele>477.8</ele>
        <time>2021-03-27T12:40:29Z</time>
      </trkpt>
      <trkpt lat="46.06087" lon="6.36368">
        <ele>477.6</ele>
        <time>2021-03-27T12:40:28Z</time>
      </trkpt>
      <trkpt lat="46.06094" lon="6.36369">
        <ele>477.6</ele>
        <time>2021-03-27T12:40:27Z</time>
      </trkpt>
      <trkpt lat="46.06101" lon="6.3637">
        <ele>477.6</ele>
        <time>2021-03-27T12:40:26Z</time>
      </trkpt>
      <trkpt lat="46.06107" lon="6.3637">
        <ele>477.6</ele>
        <time>2021-03-27T12:40:25Z</time>
      </trkpt>
      <trkpt lat="46.06114" lon="6.36371">
        <ele>477.6</ele>
        <time>2021-03-27T12:40:24Z</time>
      </trkpt>
      <trkpt lat="46.06121" lon="6.36371">
        <ele>477.2</ele>
        <time>2021-03-27T12:40:23Z</time>
      </trkpt>
      <trkpt lat="46.06128" lon="6.36372">
        <ele>477.4</ele>
        <time>2021-03-27T12:40:22Z</time>
      </trkpt>
      <trkpt lat="46.06134" lon="6.36372">
        <ele>477.4</ele>
        <time>2021-03-27T12:40:21Z</time>
      </trkpt>
      <trkpt lat="46.06141" lon="6.36373">
        <ele>477.2</ele>
        <time>2021-03-27T12:40:20Z</time>
      </trkpt>
      <trkpt lat="46.06148" lon="6.36373">
        <ele>477.4</ele>
        <time>2021-03-27T12:40:19Z</time>
      </trkpt>
      <trkpt lat="46.06155" lon="6.36372">
        <ele>477.4</ele>
        <time>2021-03-27T12:40:18Z</time>
      </trkpt>
      <trkpt lat="46.06161" lon="6.36371">
        <ele>477.2</ele>
        <time>2021-03-27T12:40:17Z</time>
      </trkpt>
      <trkpt lat="46.06168" lon="6.36369">
        <ele>477.2</ele>
        <time>2021-03-27T12:40:16Z</time>
      </trkpt>
      <trkpt lat="46.06175" lon="6.36368">
        <ele>477.2</ele>
        <time>2021-03-27T12:40:15Z</time>
      </trkpt>
      <trkpt lat="46.06181" lon="6.36368">
        <ele>477</ele>
        <time>2021-03-27T12:40:14Z</time>
      </trkpt>
      <trkpt lat="46.06188" lon="6.36368">
        <ele>476.8</ele>
        <time>2021-03-27T12:40:13Z</time>
      </trkpt>
      <trkpt lat="46.06195" lon="6.3637">
        <ele>477</ele>
        <time>2021-03-27T12:40:12Z</time>
      </trkpt>
      <trkpt lat="46.06202" lon="6.36371">
        <ele>476.8</ele>
        <time>2021-03-27T12:40:11Z</time>
      </trkpt>
      <trkpt lat="46.06208" lon="6.36373">
        <ele>476.8</ele>
        <time>2021-03-27T12:40:10Z</time>
      </trkpt>
      <trkpt lat="46.06215" lon="6.36375">
        <ele>476.4</ele>
        <time>2021-03-27T12:40:09Z</time>
      </trkpt>
      <trkpt lat="46.06222" lon="6.36377">
        <ele>476.4</ele>
        <time>2021-03-27T12:40:08Z</time>
      </trkpt>
      <trkpt lat="46.06229" lon="6.36378">
        <ele>476.2</ele>
        <time>2021-03-27T12:40:07Z</time>
      </trkpt>
      <trkpt lat="46.06235" lon="6.3638">
        <ele>476.2</ele>
        <time>2021-03-27T12:40:06Z</time>
      </trkpt>
      <trkpt lat="46.06242" lon="6.36381">
        <ele>476</ele>
        <time>2021-03-27T12:40:05Z</time>
      </trkpt>
      <trkpt lat="46.06249" lon="6.36383">
        <ele>476.2</ele>
        <time>2021-03-27T12:40:04Z</time>
      </trkpt>
      <trkpt lat="46.06255" lon="6.36385">
        <ele>476</ele>
        <time>2021-03-27T12:40:03Z</time>
      </trkpt>
      <trkpt lat="46.06261" lon="6.36386">
        <ele>476</ele>
        <time>2021-03-27T12:40:02Z</time>
      </trkpt>
      <trkpt lat="46.06267" lon="6.36388">
        <ele>476</ele>
        <time>2021-03-27T12:40:01Z</time>
      </trkpt>
      <trkpt lat="46.06274" lon="6.36389">
        <ele>476</ele>
        <time>2021-03-27T12:40:00Z</time>
      </trkpt>
      <trkpt lat="46.0628" lon="6.36391">
        <ele>475.8</ele>
        <time>2021-03-27T12:39:59Z</time>
      </trkpt>
      <trkpt lat="46.06286" lon="6.36392">
        <ele>475.6</ele>
        <time>2021-03-27T12:39:58Z</time>
      </trkpt>
      <trkpt lat="46.06293" lon="6.36394">
        <ele>475.8</ele>
        <time>2021-03-27T12:39:57Z</time>
      </trkpt>
      <trkpt lat="46.06299" lon="6.36395">
        <ele>475.6</ele>
        <time>2021-03-27T12:39:56Z</time>
      </trkpt>
      <trkpt lat="46.06305" lon="6.36396">
        <ele>475.6</ele>
        <time>2021-03-27T12:39:55Z</time>
      </trkpt>
      <trkpt lat="46.06312" lon="6.36398">
        <ele>475.6</ele>
        <time>2021-03-27T12:39:54Z</time>
      </trkpt>
      <trkpt lat="46.06318" lon="6.36399">
        <ele>475.4</ele>
        <time>2021-03-27T12:39:53Z</time>
      </trkpt>
      <trkpt lat="46.06325" lon="6.36401">
        <ele>475.4</ele>
        <time>2021-03-27T12:39:52Z</time>
      </trkpt>
      <trkpt lat="46.06331" lon="6.36402">
        <ele>475.2</ele>
        <time>2021-03-27T12:39:51Z</time>
      </trkpt>
      <trkpt lat="46.06338" lon="6.36403">
        <ele>475</ele>
        <time>2021-03-27T12:39:50Z</time>
      </trkpt>
      <trkpt lat="46.06344" lon="6.36404">
        <ele>474.8</ele>
        <time>2021-03-27T12:39:49Z</time>
      </trkpt>
      <trkpt lat="46.0635" lon="6.36404">
        <ele>474.6</ele>
        <time>2021-03-27T12:39:48Z</time>
      </trkpt>
      <trkpt lat="46.06356" lon="6.36405">
        <ele>474.4</ele>
        <time>2021-03-27T12:39:47Z</time>
      </trkpt>
      <trkpt lat="46.06362" lon="6.36405">
        <ele>474.4</ele>
        <time>2021-03-27T12:39:46Z</time>
      </trkpt>
      <trkpt lat="46.06369" lon="6.36405">
        <ele>474.2</ele>
        <time>2021-03-27T12:39:45Z</time>
      </trkpt>
      <trkpt lat="46.06375" lon="6.36406">
        <ele>474.2</ele>
        <time>2021-03-27T12:39:44Z</time>
      </trkpt>
      <trkpt lat="46.06381" lon="6.36405">
        <ele>474.2</ele>
        <time>2021-03-27T12:39:43Z</time>
      </trkpt>
      <trkpt lat="46.06387" lon="6.36405">
        <ele>473.8</ele>
        <time>2021-03-27T12:39:42Z</time>
      </trkpt>
      <trkpt lat="46.06393" lon="6.36404">
        <ele>473.8</ele>
        <time>2021-03-27T12:39:41Z</time>
      </trkpt>
      <trkpt lat="46.06399" lon="6.36403">
        <ele>473.6</ele>
        <time>2021-03-27T12:39:40Z</time>
      </trkpt>
      <trkpt lat="46.06406" lon="6.36403">
        <ele>473.8</ele>
        <time>2021-03-27T12:39:39Z</time>
      </trkpt>
      <trkpt lat="46.06412" lon="6.36403">
        <ele>473.6</ele>
        <time>2021-03-27T12:39:38Z</time>
      </trkpt>
      <trkpt lat="46.06419" lon="6.36402">
        <ele>473.4</ele>
        <time>2021-03-27T12:39:37Z</time>
      </trkpt>
      <trkpt lat="46.06425" lon="6.36402">
        <ele>473.4</ele>
        <time>2021-03-27T12:39:36Z</time>
      </trkpt>
      <trkpt lat="46.06432" lon="6.36402">
        <ele>473.2</ele>
        <time>2021-03-27T12:39:35Z</time>
      </trkpt>
      <trkpt lat="46.06438" lon="6.36401">
        <ele>473.2</ele>
        <time>2021-03-27T12:39:34Z</time>
      </trkpt>
      <trkpt lat="46.06445" lon="6.36402">
        <ele>473</ele>
        <time>2021-03-27T12:39:33Z</time>
      </trkpt>
      <trkpt lat="46.06452" lon="6.36402">
        <ele>473</ele>
        <time>2021-03-27T12:39:32Z</time>
      </trkpt>
      <trkpt lat="46.06458" lon="6.36402">
        <ele>472.8</ele>
        <time>2021-03-27T12:39:31Z</time>
      </trkpt>
      <trkpt lat="46.06465" lon="6.36403">
        <ele>472.6</ele>
        <time>2021-03-27T12:39:30Z</time>
      </trkpt>
      <trkpt lat="46.06471" lon="6.36404">
        <ele>472.6</ele>
        <time>2021-03-27T12:39:29Z</time>
      </trkpt>
      <trkpt lat="46.06478" lon="6.36404">
        <ele>472.6</ele>
        <time>2021-03-27T12:39:28Z</time>
      </trkpt>
      <trkpt lat="46.06484" lon="6.36405">
        <ele>472.4</ele>
        <time>2021-03-27T12:39:27Z</time>
      </trkpt>
      <trkpt lat="46.06491" lon="6.36405">
        <ele>472</ele>
        <time>2021-03-27T12:39:26Z</time>
      </trkpt>
      <trkpt lat="46.06498" lon="6.36405">
        <ele>471.4</ele>
        <time>2021-03-27T12:39:25Z</time>
      </trkpt>
      <trkpt lat="46.06504" lon="6.36406">
        <ele>471.2</ele>
        <time>2021-03-27T12:39:24Z</time>
      </trkpt>
      <trkpt lat="46.06511" lon="6.36406">
        <ele>471.2</ele>
        <time>2021-03-27T12:39:23Z</time>
      </trkpt>
      <trkpt lat="46.06518" lon="6.36407">
        <ele>471</ele>
        <time>2021-03-27T12:39:22Z</time>
      </trkpt>
      <trkpt lat="46.06524" lon="6.36407">
        <ele>471</ele>
        <time>2021-03-27T12:39:21Z</time>
      </trkpt>
      <trkpt lat="46.06531" lon="6.36408">
        <ele>470.8</ele>
        <time>2021-03-27T12:39:20Z</time>
      </trkpt>
      <trkpt lat="46.06537" lon="6.36407">
        <ele>470.8</ele>
        <time>2021-03-27T12:39:19Z</time>
      </trkpt>
      <trkpt lat="46.06543" lon="6.36406">
        <ele>470.6</ele>
        <time>2021-03-27T12:39:18Z</time>
      </trkpt>
      <trkpt lat="46.06549" lon="6.36404">
        <ele>470.6</ele>
        <time>2021-03-27T12:39:17Z</time>
      </trkpt>
      <trkpt lat="46.06555" lon="6.36404">
        <ele>470.6</ele>
        <time>2021-03-27T12:39:16Z</time>
      </trkpt>
      <trkpt lat="46.06561" lon="6.36406">
        <ele>470.6</ele>
        <time>2021-03-27T12:39:15Z</time>
      </trkpt>
      <trkpt lat="46.06567" lon="6.3641">
        <ele>470.4</ele>
        <time>2021-03-27T12:39:14Z</time>
      </trkpt>
      <trkpt lat="46.06573" lon="6.36413">
        <ele>470.6</ele>
        <time>2021-03-27T12:39:13Z</time>
      </trkpt>
      <trkpt lat="46.0658" lon="6.36416">
        <ele>470.6</ele>
        <time>2021-03-27T12:39:12Z</time>
      </trkpt>
      <trkpt lat="46.06586" lon="6.36417">
        <ele>470.4</ele>
        <time>2021-03-27T12:39:11Z</time>
      </trkpt>
      <trkpt lat="46.06593" lon="6.36419">
        <ele>470.4</ele>
        <time>2021-03-27T12:39:10Z</time>
      </trkpt>
      <trkpt lat="46.066" lon="6.36422">
        <ele>470.4</ele>
        <time>2021-03-27T12:39:09Z</time>
      </trkpt>
      <trkpt lat="46.06606" lon="6.36424">
        <ele>470.4</ele>
        <time>2021-03-27T12:39:08Z</time>
      </trkpt>
      <trkpt lat="46.06613" lon="6.36425">
        <ele>470.2</ele>
        <time>2021-03-27T12:39:07Z</time>
      </trkpt>
      <trkpt lat="46.06619" lon="6.36427">
        <ele>470.2</ele>
        <time>2021-03-27T12:39:06Z</time>
      </trkpt>
      <trkpt lat="46.06625" lon="6.36428">
        <ele>470</ele>
        <time>2021-03-27T12:39:05Z</time>
      </trkpt>
      <trkpt lat="46.06632" lon="6.36429">
        <ele>470</ele>
        <time>2021-03-27T12:39:04Z</time>
      </trkpt>
      <trkpt lat="46.06638" lon="6.3643">
        <ele>470</ele>
        <time>2021-03-27T12:39:03Z</time>
      </trkpt>
      <trkpt lat="46.06644" lon="6.36431">
        <ele>470</ele>
        <time>2021-03-27T12:39:02Z</time>
      </trkpt>
      <trkpt lat="46.06651" lon="6.36433">
        <ele>469.8</ele>
        <time>2021-03-27T12:39:01Z</time>
      </trkpt>
      <trkpt lat="46.06657" lon="6.36434">
        <ele>469.8</ele>
        <time>2021-03-27T12:39:00Z</time>
      </trkpt>
      <trkpt lat="46.06664" lon="6.36435">
        <ele>469.8</ele>
        <time>2021-03-27T12:38:59Z</time>
      </trkpt>
      <trkpt lat="46.0667" lon="6.36436">
        <ele>469.6</ele>
        <time>2021-03-27T12:38:58Z</time>
      </trkpt>
      <trkpt lat="46.06676" lon="6.36437">
        <ele>469.4</ele>
        <time>2021-03-27T12:38:57Z</time>
      </trkpt>
      <trkpt lat="46.06683" lon="6.36438">
        <ele>469.4</ele>
        <time>2021-03-27T12:38:56Z</time>
      </trkpt>
      <trkpt lat="46.0669" lon="6.36439">
        <ele>469.2</ele>
        <time>2021-03-27T12:38:55Z</time>
      </trkpt>
      <trkpt lat="46.06696" lon="6.3644">
        <ele>469</ele>
        <time>2021-03-27T12:38:54Z</time>
      </trkpt>
      <trkpt lat="46.06703" lon="6.36442">
        <ele>469</ele>
        <time>2021-03-27T12:38:53Z</time>
      </trkpt>
      <trkpt lat="46.06709" lon="6.36443">
        <ele>469</ele>
        <time>2021-03-27T12:38:52Z</time>
      </trkpt>
      <trkpt lat="46.06716" lon="6.36444">
        <ele>469</ele>
        <time>2021-03-27T12:38:51Z</time>
      </trkpt>
      <trkpt lat="46.06722" lon="6.36445">
        <ele>468.8</ele>
        <time>2021-03-27T12:38:50Z</time>
      </trkpt>
      <trkpt lat="46.06728" lon="6.36447">
        <ele>468.8</ele>
        <time>2021-03-27T12:38:49Z</time>
      </trkpt>
      <trkpt lat="46.06735" lon="6.36448">
        <ele>468.6</ele>
        <time>2021-03-27T12:38:48Z</time>
      </trkpt>
      <trkpt lat="46.06741" lon="6.36449">
        <ele>468.6</ele>
        <time>2021-03-27T12:38:47Z</time>
      </trkpt>
      <trkpt lat="46.06748" lon="6.3645">
        <ele>468.6</ele>
        <time>2021-03-27T12:38:46Z</time>
      </trkpt>
      <trkpt lat="46.06754" lon="6.36451">
        <ele>468.6</ele>
        <time>2021-03-27T12:38:45Z</time>
      </trkpt>
      <trkpt lat="46.06761" lon="6.36452">
        <ele>468.4</ele>
        <time>2021-03-27T12:38:44Z</time>
      </trkpt>
      <trkpt lat="46.06767" lon="6.36453">
        <ele>468.4</ele>
        <time>2021-03-27T12:38:43Z</time>
      </trkpt>
      <trkpt lat="46.06774" lon="6.36454">
        <ele>468.4</ele>
        <time>2021-03-27T12:38:42Z</time>
      </trkpt>
      <trkpt lat="46.0678" lon="6.36456">
        <ele>468.2</ele>
        <time>2021-03-27T12:38:41Z</time>
      </trkpt>
      <trkpt lat="46.06787" lon="6.36457">
        <ele>468.2</ele>
        <time>2021-03-27T12:38:40Z</time>
      </trkpt>
      <trkpt lat="46.06793" lon="6.36458">
        <ele>468</ele>
        <time>2021-03-27T12:38:39Z</time>
      </trkpt>
      <trkpt lat="46.06799" lon="6.36459">
        <ele>468</ele>
        <time>2021-03-27T12:38:38Z</time>
      </trkpt>
      <trkpt lat="46.06806" lon="6.3646">
        <ele>468</ele>
        <time>2021-03-27T12:38:37Z</time>
      </trkpt>
      <trkpt lat="46.06812" lon="6.36461">
        <ele>467.8</ele>
        <time>2021-03-27T12:38:36Z</time>
      </trkpt>
      <trkpt lat="46.06819" lon="6.36463">
        <ele>467.8</ele>
        <time>2021-03-27T12:38:35Z</time>
      </trkpt>
      <trkpt lat="46.06825" lon="6.36464">
        <ele>467.6</ele>
        <time>2021-03-27T12:38:34Z</time>
      </trkpt>
      <trkpt lat="46.06831" lon="6.36466">
        <ele>467.6</ele>
        <time>2021-03-27T12:38:33Z</time>
      </trkpt>
      <trkpt lat="46.06838" lon="6.36467">
        <ele>467.6</ele>
        <time>2021-03-27T12:38:32Z</time>
      </trkpt>
      <trkpt lat="46.06844" lon="6.36468">
        <ele>467.6</ele>
        <time>2021-03-27T12:38:31Z</time>
      </trkpt>
      <trkpt lat="46.0685" lon="6.3647">
        <ele>467.4</ele>
        <time>2021-03-27T12:38:30Z</time>
      </trkpt>
      <trkpt lat="46.06857" lon="6.36471">
        <ele>467.6</ele>
        <time>2021-03-27T12:38:29Z</time>
      </trkpt>
      <trkpt lat="46.06863" lon="6.36472">
        <ele>467.6</ele>
        <time>2021-03-27T12:38:28Z</time>
      </trkpt>
      <trkpt lat="46.06869" lon="6.36473">
        <ele>467.4</ele>
        <time>2021-03-27T12:38:27Z</time>
      </trkpt>
      <trkpt lat="46.06875" lon="6.36475">
        <ele>467.4</ele>
        <time>2021-03-27T12:38:26Z</time>
      </trkpt>
      <trkpt lat="46.06882" lon="6.36476">
        <ele>467.6</ele>
        <time>2021-03-27T12:38:25Z</time>
      </trkpt>
      <trkpt lat="46.06888" lon="6.36477">
        <ele>467.6</ele>
        <time>2021-03-27T12:38:24Z</time>
      </trkpt>
      <trkpt lat="46.06894" lon="6.36478">
        <ele>467.6</ele>
        <time>2021-03-27T12:38:23Z</time>
      </trkpt>
      <trkpt lat="46.069" lon="6.36479">
        <ele>467.6</ele>
        <time>2021-03-27T12:38:22Z</time>
      </trkpt>
      <trkpt lat="46.06906" lon="6.3648">
        <ele>467.6</ele>
        <time>2021-03-27T12:38:21Z</time>
      </trkpt>
      <trkpt lat="46.06913" lon="6.36482">
        <ele>467.6</ele>
        <time>2021-03-27T12:38:20Z</time>
      </trkpt>
      <trkpt lat="46.06919" lon="6.36483">
        <ele>467.8</ele>
        <time>2021-03-27T12:38:19Z</time>
      </trkpt>
      <trkpt lat="46.06925" lon="6.36484">
        <ele>467.8</ele>
        <time>2021-03-27T12:38:18Z</time>
      </trkpt>
      <trkpt lat="46.06931" lon="6.36485">
        <ele>467.8</ele>
        <time>2021-03-27T12:38:17Z</time>
      </trkpt>
      <trkpt lat="46.06937" lon="6.36486">
        <ele>468</ele>
        <time>2021-03-27T12:38:16Z</time>
      </trkpt>
      <trkpt lat="46.06944" lon="6.36486">
        <ele>468</ele>
        <time>2021-03-27T12:38:15Z</time>
      </trkpt>
      <trkpt lat="46.0695" lon="6.36487">
        <ele>468</ele>
        <time>2021-03-27T12:38:14Z</time>
      </trkpt>
      <trkpt lat="46.06956" lon="6.36488">
        <ele>468</ele>
        <time>2021-03-27T12:38:13Z</time>
      </trkpt>
      <trkpt lat="46.06963" lon="6.36488">
        <ele>468</ele>
        <time>2021-03-27T12:38:12Z</time>
      </trkpt>
      <trkpt lat="46.06969" lon="6.36489">
        <ele>468</ele>
        <time>2021-03-27T12:38:11Z</time>
      </trkpt>
      <trkpt lat="46.06975" lon="6.36489">
        <ele>468</ele>
        <time>2021-03-27T12:38:10Z</time>
      </trkpt>
      <trkpt lat="46.06981" lon="6.3649">
        <ele>467.8</ele>
        <time>2021-03-27T12:38:09Z</time>
      </trkpt>
      <trkpt lat="46.06987" lon="6.3649">
        <ele>468.2</ele>
        <time>2021-03-27T12:38:08Z</time>
      </trkpt>
      <trkpt lat="46.06993" lon="6.3649">
        <ele>468</ele>
        <time>2021-03-27T12:38:07Z</time>
      </trkpt>
      <trkpt lat="46.06999" lon="6.36491">
        <ele>468.2</ele>
        <time>2021-03-27T12:38:06Z</time>
      </trkpt>
      <trkpt lat="46.07004" lon="6.36491">
        <ele>468</ele>
        <time>2021-03-27T12:38:05Z</time>
      </trkpt>
      <trkpt lat="46.07009" lon="6.36492">
        <ele>468</ele>
        <time>2021-03-27T12:38:04Z</time>
      </trkpt>
      <trkpt lat="46.07015" lon="6.36492">
        <ele>468.2</ele>
        <time>2021-03-27T12:38:03Z</time>
      </trkpt>
      <trkpt lat="46.07019" lon="6.36492">
        <ele>468</ele>
        <time>2021-03-27T12:38:02Z</time>
      </trkpt>
      <trkpt lat="46.07024" lon="6.36493">
        <ele>468.2</ele>
        <time>2021-03-27T12:38:01Z</time>
      </trkpt>
      <trkpt lat="46.07029" lon="6.36493">
        <ele>468.2</ele>
        <time>2021-03-27T12:38:00Z</time>
      </trkpt>
      <trkpt lat="46.07033" lon="6.36494">
        <ele>468.2</ele>
        <time>2021-03-27T12:37:59Z</time>
      </trkpt>
      <trkpt lat="46.07037" lon="6.36494">
        <ele>468.2</ele>
        <time>2021-03-27T12:37:58Z</time>
      </trkpt>
      <trkpt lat="46.0704" lon="6.36494">
        <ele>468.2</ele>
        <time>2021-03-27T12:37:57Z</time>
      </trkpt>
      <trkpt lat="46.07043" lon="6.36495">
        <ele>468.4</ele>
        <time>2021-03-27T12:37:56Z</time>
      </trkpt>
      <trkpt lat="46.07046" lon="6.36495">
        <ele>468.2</ele>
        <time>2021-03-27T12:37:55Z</time>
      </trkpt>
      <trkpt lat="46.07048" lon="6.36495">
        <ele>468.4</ele>
        <time>2021-03-27T12:37:54Z</time>
      </trkpt>
      <trkpt lat="46.0705" lon="6.36496">
        <ele>468.2</ele>
        <time>2021-03-27T12:37:53Z</time>
      </trkpt>
      <trkpt lat="46.07051" lon="6.36496">
        <ele>468.2</ele>
        <time>2021-03-27T12:37:52Z</time>
      </trkpt>
      <trkpt lat="46.07053" lon="6.36496">
        <ele>468.4</ele>
        <time>2021-03-27T12:37:51Z</time>
      </trkpt>
      <trkpt lat="46.07053" lon="6.36496">
        <ele>468.4</ele>
        <time>2021-03-27T12:37:50Z</time>
      </trkpt>
      <trkpt lat="46.07054" lon="6.36496">
        <ele>468.2</ele>
        <time>2021-03-27T12:37:49Z</time>
      </trkpt>
      <trkpt lat="46.07054" lon="6.36496">
        <ele>468.4</ele>
        <time>2021-03-27T12:37:48Z</time>
      </trkpt>
      <trkpt lat="46.07055" lon="6.36495">
        <ele>468.2</ele>
        <time>2021-03-27T12:37:47Z</time>
      </trkpt>
      <trkpt lat="46.07055" lon="6.36494">
        <ele>468.2</ele>
        <time>2021-03-27T12:37:46Z</time>
      </trkpt>
      <trkpt lat="46.07056" lon="6.36493">
        <ele>468.4</ele>
        <time>2021-03-27T12:37:45Z</time>
      </trkpt>
      <trkpt lat="46.07056" lon="6.36493">
        <ele>468.2</ele>
        <time>2021-03-27T12:37:44Z</time>
      </trkpt>
      <trkpt lat="46.07056" lon="6.36493">
        <ele>468.4</ele>
        <time>2021-03-27T12:37:43Z</time>
      </trkpt>
      <trkpt lat="46.07056" lon="6.36493">
        <ele>468.2</ele>
        <time>2021-03-27T12:37:42Z</time>
      </trkpt>
      <trkpt lat="46.07056" lon="6.36493">
        <ele>468.2</ele>
        <time>2021-03-27T12:37:41Z</time>
      </trkpt>
      <trkpt lat="46.07056" lon="6.36493">
        <ele>468.4</ele>
        <time>2021-03-27T12:37:40Z</time>
      </trkpt>
      <trkpt lat="46.07056" lon="6.36493">
        <ele>468.4</ele>
        <time>2021-03-27T12:37:39Z</time>
      </trkpt>
      <trkpt lat="46.07056" lon="6.36493">
        <ele>468.4</ele>
        <time>2021-03-27T12:37:38Z</time>
      </trkpt>
      <trkpt lat="46.07056" lon="6.36493">
        <ele>468.4</ele>
        <time>2021-03-27T12:37:37Z</time>
      </trkpt>
      <trkpt lat="46.07056" lon="6.36493">
        <ele>468.4</ele>
        <time>2021-03-27T12:37:36Z</time>
      </trkpt>
      <trkpt lat="46.07056" lon="6.36493">
        <ele>468.4</ele>
        <time>2021-03-27T12:37:35Z</time>
      </trkpt>
      <trkpt lat="46.07056" lon="6.36493">
        <ele>468.4</ele>
        <time>2021-03-27T12:37:34Z</time>
      </trkpt>
      <trkpt lat="46.07056" lon="6.36493">
        <ele>468.4</ele>
        <time>2021-03-27T12:37:33Z</time>
      </trkpt>
      <trkpt lat="46.07056" lon="6.36493">
        <ele>468.4</ele>
        <time>2021-03-27T12:37:32Z</time>
      </trkpt>
      <trkpt lat="46.07056" lon="6.36493">
        <ele>468.2</ele>
        <time>2021-03-27T12:37:31Z</time>
      </trkpt>
      <trkpt lat="46.07056" lon="6.36493">
        <ele>468.2</ele>
        <time>2021-03-27T12:37:30Z</time>
      </trkpt>
      <trkpt lat="46.07056" lon="6.36493">
        <ele>468.2</ele>
        <time>2021-03-27T12:37:29Z</time>
      </trkpt>
      <trkpt lat="46.07056" lon="6.36493">
        <ele>468.4</ele>
        <time>2021-03-27T12:37:28Z</time>
      </trkpt>
      <trkpt lat="46.07056" lon="6.36493">
        <ele>468.2</ele>
        <time>2021-03-27T12:37:27Z</time>
      </trkpt>
      <trkpt lat="46.07056" lon="6.36493">
        <ele>468.4</ele>
        <time>2021-03-27T12:37:26Z</time>
      </trkpt>
      <trkpt lat="46.07056" lon="6.36493">
        <ele>468.2</ele>
        <time>2021-03-27T12:37:25Z</time>
      </trkpt>
      <trkpt lat="46.07056" lon="6.36493">
        <ele>468.2</ele>
        <time>2021-03-27T12:37:24Z</time>
      </trkpt>
      <trkpt lat="46.07056" lon="6.36493">
        <ele>468</ele>
        <time>2021-03-27T12:37:23Z</time>
      </trkpt>
      <trkpt lat="46.07056" lon="6.36493">
        <ele>468</ele>
        <time>2021-03-27T12:37:22Z</time>
      </trkpt>
      <trkpt lat="46.07056" lon="6.36493">
        <ele>468</ele>
        <time>2021-03-27T12:37:21Z</time>
      </trkpt>
      <trkpt lat="46.07056" lon="6.36493">
        <ele>468.2</ele>
        <time>2021-03-27T12:37:20Z</time>
      </trkpt>
      <trkpt lat="46.07056" lon="6.36493">
        <ele>468.2</ele>
        <time>2021-03-27T12:37:19Z</time>
      </trkpt>
      <trkpt lat="46.07056" lon="6.36493">
        <ele>468</ele>
        <time>2021-03-27T12:37:18Z</time>
      </trkpt>
      <trkpt lat="46.07056" lon="6.36493">
        <ele>468</ele>
        <time>2021-03-27T12:37:17Z</time>
      </trkpt>
      <trkpt lat="46.07056" lon="6.36493">
        <ele>468</ele>
        <time>2021-03-27T12:37:16Z</time>
      </trkpt>
      <trkpt lat="46.07056" lon="6.36493">
        <ele>468</ele>
        <time>2021-03-27T12:37:15Z</time>
      </trkpt>
      <trkpt lat="46.07056" lon="6.36493">
        <ele>468</ele>
        <time>2021-03-27T12:37:14Z</time>
      </trkpt>
      <trkpt lat="46.07056" lon="6.36493">
        <ele>468</ele>
        <time>2021-03-27T12:37:13Z</time>
      </trkpt>
      <trkpt lat="46.07056" lon="6.36493">
        <ele>468</ele>
        <time>2021-03-27T12:37:12Z</time>
      </trkpt>
      <trkpt lat="46.07056" lon="6.36493">
        <ele>468.2</ele>
        <time>2021-03-27T12:37:11Z</time>
      </trkpt>
      <trkpt lat="46.07056" lon="6.36493">
        <ele>468</ele>
        <time>2021-03-27T12:37:10Z</time>
      </trkpt>
      <trkpt lat="46.07056" lon="6.36493">
        <ele>468</ele>
        <time>2021-03-27T12:37:09Z</time>
      </trkpt>
      <trkpt lat="46.07056" lon="6.36493">
        <ele>468.2</ele>
        <time>2021-03-27T12:37:08Z</time>
      </trkpt>
      <trkpt lat="46.07056" lon="6.36493">
        <ele>468.2</ele>
        <time>2021-03-27T12:37:07Z</time>
      </trkpt>
      <trkpt lat="46.07056" lon="6.36493">
        <ele>468.2</ele>
        <time>2021-03-27T12:37:06Z</time>
      </trkpt>
      <trkpt lat="46.07056" lon="6.36493">
        <ele>468.2</ele>
        <time>2021-03-27T12:37:05Z</time>
      </trkpt>
      <trkpt lat="46.07056" lon="6.36493">
        <ele>468.2</ele>
        <time>2021-03-27T12:37:04Z</time>
      </trkpt>
      <trkpt lat="46.07056" lon="6.36493">
        <ele>468</ele>
        <time>2021-03-27T12:37:03Z</time>
      </trkpt>
      <trkpt lat="46.07056" lon="6.36493">
        <ele>468.2</ele>
        <time>2021-03-27T12:37:02Z</time>
      </trkpt>
      <trkpt lat="46.07056" lon="6.36493">
        <ele>468.2</ele>
        <time>2021-03-27T12:37:01Z</time>
      </trkpt>
      <trkpt lat="46.07056" lon="6.36493">
        <ele>468.4</ele>
        <time>2021-03-27T12:37:00Z</time>
      </trkpt>
      <trkpt lat="46.07056" lon="6.36493">
        <ele>468.2</ele>
        <time>2021-03-27T12:36:59Z</time>
      </trkpt>
      <trkpt lat="46.07056" lon="6.36493">
        <ele>468.2</ele>
        <time>2021-03-27T12:36:58Z</time>
      </trkpt>
      <trkpt lat="46.07056" lon="6.36493">
        <ele>468.2</ele>
        <time>2021-03-27T12:36:57Z</time>
      </trkpt>
      <trkpt lat="46.07056" lon="6.36493">
        <ele>468.2</ele>
        <time>2021-03-27T12:36:56Z</time>
      </trkpt>
      <trkpt lat="46.07056" lon="6.36493">
        <ele>468.2</ele>
        <time>2021-03-27T12:36:55Z</time>
      </trkpt>
      <trkpt lat="46.07056" lon="6.36493">
        <ele>468.4</ele>
        <time>2021-03-27T12:36:54Z</time>
      </trkpt>
      <trkpt lat="46.07056" lon="6.36493">
        <ele>468.2</ele>
        <time>2021-03-27T12:36:53Z</time>
      </trkpt>
      <trkpt lat="46.07056" lon="6.36493">
        <ele>468</ele>
        <time>2021-03-27T12:36:52Z</time>
      </trkpt>
      <trkpt lat="46.07056" lon="6.36493">
        <ele>468</ele>
        <time>2021-03-27T12:36:51Z</time>
      </trkpt>
      <trkpt lat="46.07056" lon="6.36493">
        <ele>468.2</ele>
        <time>2021-03-27T12:36:50Z</time>
      </trkpt>
      <trkpt lat="46.07056" lon="6.36493">
        <ele>468</ele>
        <time>2021-03-27T12:36:49Z</time>
      </trkpt>
      <trkpt lat="46.07056" lon="6.36493">
        <ele>468</ele>
        <time>2021-03-27T12:36:48Z</time>
      </trkpt>
      <trkpt lat="46.07056" lon="6.36493">
        <ele>468</ele>
        <time>2021-03-27T12:36:47Z</time>
      </trkpt>
      <trkpt lat="46.07056" lon="6.36493">
        <ele>468</ele>
        <time>2021-03-27T12:36:46Z</time>
      </trkpt>
      <trkpt lat="46.07056" lon="6.36493">
        <ele>468</ele>
        <time>2021-03-27T12:36:45Z</time>
      </trkpt>
      <trkpt lat="46.07056" lon="6.36493">
        <ele>468</ele>
        <time>2021-03-27T12:36:44Z</time>
      </trkpt>
      <trkpt lat="46.07056" lon="6.36493">
        <ele>468</ele>
        <time>2021-03-27T12:36:43Z</time>
      </trkpt>
      <trkpt lat="46.07056" lon="6.36493">
        <ele>468</ele>
        <time>2021-03-27T12:36:42Z</time>
      </trkpt>
      <trkpt lat="46.07056" lon="6.36493">
        <ele>468</ele>
        <time>2021-03-27T12:36:41Z</time>
      </trkpt>
      <trkpt lat="46.07056" lon="6.36493">
        <ele>468.2</ele>
        <time>2021-03-27T12:36:40Z</time>
      </trkpt>
      <trkpt lat="46.07056" lon="6.36493">
        <ele>468</ele>
        <time>2021-03-27T12:36:39Z</time>
      </trkpt>
      <trkpt lat="46.07056" lon="6.36493">
        <ele>468</ele>
        <time>2021-03-27T12:36:38Z</time>
      </trkpt>
      <trkpt lat="46.07056" lon="6.36493">
        <ele>468</ele>
        <time>2021-03-27T12:36:37Z</time>
      </trkpt>
      <trkpt lat="46.07056" lon="6.36493">
        <ele>468</ele>
        <time>2021-03-27T12:36:36Z</time>
      </trkpt>
      <trkpt lat="46.07056" lon="6.36493">
        <ele>468</ele>
        <time>2021-03-27T12:36:35Z</time>
      </trkpt>
      <trkpt lat="46.07056" lon="6.36493">
        <ele>468.2</ele>
        <time>2021-03-27T12:36:34Z</time>
      </trkpt>
      <trkpt lat="46.07056" lon="6.36493">
        <ele>468.2</ele>
        <time>2021-03-27T12:36:33Z</time>
      </trkpt>
      <trkpt lat="46.07056" lon="6.36493">
        <ele>468.2</ele>
        <time>2021-03-27T12:36:32Z</time>
      </trkpt>
      <trkpt lat="46.07056" lon="6.36493">
        <ele>468.2</ele>
        <time>2021-03-27T12:36:31Z</time>
      </trkpt>
      <trkpt lat="46.07056" lon="6.36493">
        <ele>468.2</ele>
        <time>2021-03-27T12:36:30Z</time>
      </trkpt>
      <trkpt lat="46.07056" lon="6.36493">
        <ele>468.2</ele>
        <time>2021-03-27T12:36:29Z</time>
      </trkpt>
      <trkpt lat="46.07056" lon="6.36493">
        <ele>468.2</ele>
        <time>2021-03-27T12:36:28Z</time>
      </trkpt>
      <trkpt lat="46.07056" lon="6.36493">
        <ele>468.2</ele>
        <time>2021-03-27T12:36:27Z</time>
      </trkpt>
      <trkpt lat="46.07056" lon="6.36493">
        <ele>468.2</ele>
        <time>2021-03-27T12:36:26Z</time>
      </trkpt>
      <trkpt lat="46.07056" lon="6.36493">
        <ele>468.4</ele>
        <time>2021-03-27T12:36:25Z</time>
      </trkpt>
      <trkpt lat="46.07056" lon="6.36493">
        <ele>468.2</ele>
        <time>2021-03-27T12:36:24Z</time>
      </trkpt>
      <trkpt lat="46.07056" lon="6.36493">
        <ele>468.2</ele>
        <time>2021-03-27T12:36:23Z</time>
      </trkpt>
      <trkpt lat="46.07056" lon="6.36493">
        <ele>468.2</ele>
        <time>2021-03-27T12:36:22Z</time>
      </trkpt>
      <trkpt lat="46.07056" lon="6.36493">
        <ele>468.2</ele>
        <time>2021-03-27T12:36:21Z</time>
      </trkpt>
      <trkpt lat="46.07056" lon="6.36493">
        <ele>468.2</ele>
        <time>2021-03-27T12:36:20Z</time>
      </trkpt>
      <trkpt lat="46.07056" lon="6.36493">
        <ele>468.4</ele>
        <time>2021-03-27T12:36:19Z</time>
      </trkpt>
      <trkpt lat="46.07056" lon="6.36493">
        <ele>468.4</ele>
        <time>2021-03-27T12:36:18Z</time>
      </trkpt>
      <trkpt lat="46.07056" lon="6.36493">
        <ele>468.2</ele>
        <time>2021-03-27T12:36:17Z</time>
      </trkpt>
      <trkpt lat="46.07056" lon="6.36493">
        <ele>468.2</ele>
        <time>2021-03-27T12:36:16Z</time>
      </trkpt>
      <trkpt lat="46.07056" lon="6.36493">
        <ele>468.2</ele>
        <time>2021-03-27T12:36:15Z</time>
      </trkpt>
      <trkpt lat="46.07056" lon="6.36493">
        <ele>468.4</ele>
        <time>2021-03-27T12:36:14Z</time>
      </trkpt>
      <trkpt lat="46.07056" lon="6.36493">
        <ele>468.2</ele>
        <time>2021-03-27T12:36:13Z</time>
      </trkpt>
      <trkpt lat="46.07056" lon="6.36493">
        <ele>468.2</ele>
        <time>2021-03-27T12:36:12Z</time>
      </trkpt>
      <trkpt lat="46.07056" lon="6.36493">
        <ele>468.2</ele>
        <time>2021-03-27T12:36:11Z</time>
      </trkpt>
      <trkpt lat="46.07056" lon="6.36493">
        <ele>468.2</ele>
        <time>2021-03-27T12:36:10Z</time>
      </trkpt>
      <trkpt lat="46.07056" lon="6.36493">
        <ele>468.2</ele>
        <time>2021-03-27T12:36:09Z</time>
      </trkpt>
      <trkpt lat="46.07056" lon="6.36493">
        <ele>468.2</ele>
        <time>2021-03-27T12:36:08Z</time>
      </trkpt>
      <trkpt lat="46.07056" lon="6.36493">
        <ele>468.2</ele>
        <time>2021-03-27T12:36:07Z</time>
      </trkpt>
      <trkpt lat="46.07056" lon="6.36493">
        <ele>468.2</ele>
        <time>2021-03-27T12:36:06Z</time>
      </trkpt>
      <trkpt lat="46.07056" lon="6.36493">
        <ele>468.2</ele>
        <time>2021-03-27T12:36:05Z</time>
      </trkpt>
      <trkpt lat="46.07056" lon="6.36493">
        <ele>468.2</ele>
        <time>2021-03-27T12:36:04Z</time>
      </trkpt>
      <trkpt lat="46.07056" lon="6.36493">
        <ele>468</ele>
        <time>2021-03-27T12:36:03Z</time>
      </trkpt>
      <trkpt lat="46.07056" lon="6.36493">
        <ele>468</ele>
        <time>2021-03-27T12:36:02Z</time>
      </trkpt>
      <trkpt lat="46.07056" lon="6.36493">
        <ele>468.2</ele>
        <time>2021-03-27T12:36:01Z</time>
      </trkpt>
      <trkpt lat="46.07056" lon="6.36493">
        <ele>468.2</ele>
        <time>2021-03-27T12:36:00Z</time>
      </trkpt>
      <trkpt lat="46.07056" lon="6.36493">
        <ele>468</ele>
        <time>2021-03-27T12:35:59Z</time>
      </trkpt>
      <trkpt lat="46.07056" lon="6.36493">
        <ele>468</ele>
        <time>2021-03-27T12:35:58Z</time>
      </trkpt>
      <trkpt lat="46.07056" lon="6.36493">
        <ele>468.2</ele>
        <time>2021-03-27T12:35:57Z</time>
      </trkpt>
      <trkpt lat="46.07056" lon="6.36493">
        <ele>468.2</ele>
        <time>2021-03-27T12:35:56Z</time>
      </trkpt>
      <trkpt lat="46.07056" lon="6.36493">
        <ele>468.2</ele>
        <time>2021-03-27T12:35:55Z</time>
      </trkpt>
      <trkpt lat="46.07056" lon="6.36493">
        <ele>468</ele>
        <time>2021-03-27T12:35:54Z</time>
      </trkpt>
      <trkpt lat="46.07056" lon="6.36493">
        <ele>468.2</ele>
        <time>2021-03-27T12:35:53Z</time>
      </trkpt>
      <trkpt lat="46.07056" lon="6.36493">
        <ele>468.2</ele>
        <time>2021-03-27T12:35:52Z</time>
      </trkpt>
      <trkpt lat="46.07056" lon="6.36493">
        <ele>468</ele>
        <time>2021-03-27T12:35:51Z</time>
      </trkpt>
      <trkpt lat="46.07056" lon="6.36493">
        <ele>468.2</ele>
        <time>2021-03-27T12:35:50Z</time>
      </trkpt>
      <trkpt lat="46.07056" lon="6.36493">
        <ele>468</ele>
        <time>2021-03-27T12:35:49Z</time>
      </trkpt>
      <trkpt lat="46.07056" lon="6.36493">
        <ele>468.2</ele>
        <time>2021-03-27T12:35:48Z</time>
      </trkpt>
      <trkpt lat="46.07056" lon="6.36493">
        <ele>468.2</ele>
        <time>2021-03-27T12:35:47Z</time>
      </trkpt>
      <trkpt lat="46.07056" lon="6.36493">
        <ele>468.2</ele>
        <time>2021-03-27T12:35:46Z</time>
      </trkpt>
      <trkpt lat="46.07056" lon="6.36493">
        <ele>468.2</ele>
        <time>2021-03-27T12:35:45Z</time>
      </trkpt>
      <trkpt lat="46.07056" lon="6.36493">
        <ele>468.2</ele>
        <time>2021-03-27T12:35:44Z</time>
      </trkpt>
      <trkpt lat="46.07056" lon="6.36493">
        <ele>468.2</ele>
        <time>2021-03-27T12:35:43Z</time>
      </trkpt>
      <trkpt lat="46.07056" lon="6.36493">
        <ele>468.2</ele>
        <time>2021-03-27T12:35:42Z</time>
      </trkpt>
      <trkpt lat="46.07056" lon="6.36493">
        <ele>468.2</ele>
        <time>2021-03-27T12:35:41Z</time>
      </trkpt>
      <trkpt lat="46.07056" lon="6.36493">
        <ele>468.2</ele>
        <time>2021-03-27T12:35:40Z</time>
      </trkpt>
      <trkpt lat="46.07056" lon="6.36493">
        <ele>468.2</ele>
        <time>2021-03-27T12:35:39Z</time>
      </trkpt>
      <trkpt lat="46.07056" lon="6.36493">
        <ele>468.4</ele>
        <time>2021-03-27T12:35:38Z</time>
      </trkpt>
      <trkpt lat="46.07056" lon="6.36493">
        <ele>468.2</ele>
        <time>2021-03-27T12:35:37Z</time>
      </trkpt>
      <trkpt lat="46.07056" lon="6.36493">
        <ele>468.2</ele>
        <time>2021-03-27T12:35:36Z</time>
      </trkpt>
      <trkpt lat="46.07056" lon="6.36493">
        <ele>468.2</ele>
        <time>2021-03-27T12:35:35Z</time>
      </trkpt>
      <trkpt lat="46.07056" lon="6.36493">
        <ele>468.2</ele>
        <time>2021-03-27T12:35:34Z</time>
      </trkpt>
      <trkpt lat="46.07056" lon="6.36493">
        <ele>468.2</ele>
        <time>2021-03-27T12:35:33Z</time>
      </trkpt>
      <trkpt lat="46.07056" lon="6.36493">
        <ele>468.2</ele>
        <time>2021-03-27T12:35:32Z</time>
      </trkpt>
      <trkpt lat="46.07056" lon="6.36493">
        <ele>468.4</ele>
        <time>2021-03-27T12:35:31Z</time>
      </trkpt>
      <trkpt lat="46.07056" lon="6.36493">
        <ele>468.4</ele>
        <time>2021-03-27T12:35:30Z</time>
      </trkpt>
      <trkpt lat="46.07056" lon="6.36493">
        <ele>468.2</ele>
        <time>2021-03-27T12:35:29Z</time>
      </trkpt>
      <trkpt lat="46.07056" lon="6.36493">
        <ele>468.2</ele>
        <time>2021-03-27T12:35:28Z</time>
      </trkpt>
      <trkpt lat="46.07056" lon="6.36493">
        <ele>468.2</ele>
        <time>2021-03-27T12:35:27Z</time>
      </trkpt>
      <trkpt lat="46.07056" lon="6.36493">
        <ele>468.2</ele>
        <time>2021-03-27T12:35:26Z</time>
      </trkpt>
      <trkpt lat="46.07056" lon="6.36493">
        <ele>468.2</ele>
        <time>2021-03-27T12:35:25Z</time>
      </trkpt>
      <trkpt lat="46.07056" lon="6.36493">
        <ele>468</ele>
        <time>2021-03-27T12:35:24Z</time>
      </trkpt>
      <trkpt lat="46.07056" lon="6.36493">
        <ele>468</ele>
        <time>2021-03-27T12:35:23Z</time>
      </trkpt>
      <trkpt lat="46.07056" lon="6.36493">
        <ele>468</ele>
        <time>2021-03-27T12:35:22Z</time>
      </trkpt>
      <trkpt lat="46.07056" lon="6.36493">
        <ele>468</ele>
        <time>2021-03-27T12:35:21Z</time>
      </trkpt>
      <trkpt lat="46.07056" lon="6.36493">
        <ele>468</ele>
        <time>2021-03-27T12:35:20Z</time>
      </trkpt>
      <trkpt lat="46.07056" lon="6.36493">
        <ele>467.8</ele>
        <time>2021-03-27T12:35:19Z</time>
      </trkpt>
      <trkpt lat="46.07056" lon="6.36493">
        <ele>467.8</ele>
        <time>2021-03-27T12:35:18Z</time>
      </trkpt>
      <trkpt lat="46.07056" lon="6.36493">
        <ele>467.8</ele>
        <time>2021-03-27T12:35:17Z</time>
      </trkpt>
      <trkpt lat="46.07056" lon="6.36493">
        <ele>467.8</ele>
        <time>2021-03-27T12:35:16Z</time>
      </trkpt>
      <trkpt lat="46.07056" lon="6.36493">
        <ele>467.8</ele>
        <time>2021-03-27T12:35:15Z</time>
      </trkpt>
      <trkpt lat="46.07056" lon="6.36493">
        <ele>467.8</ele>
        <time>2021-03-27T12:35:14Z</time>
      </trkpt>
      <trkpt lat="46.07056" lon="6.36493">
        <ele>467.8</ele>
        <time>2021-03-27T12:35:13Z</time>
      </trkpt>
      <trkpt lat="46.07056" lon="6.36493">
        <ele>467.8</ele>
        <time>2021-03-27T12:35:12Z</time>
      </trkpt>
      <trkpt lat="46.07056" lon="6.36493">
        <ele>467.6</ele>
        <time>2021-03-27T12:35:11Z</time>
      </trkpt>
      <trkpt lat="46.07056" lon="6.36493">
        <ele>467.8</ele>
        <time>2021-03-27T12:35:10Z</time>
      </trkpt>
      <trkpt lat="46.07056" lon="6.36493">
        <ele>467.8</ele>
        <time>2021-03-27T12:35:09Z</time>
      </trkpt>
      <trkpt lat="46.07056" lon="6.36493">
        <ele>467.8</ele>
        <time>2021-03-27T12:35:08Z</time>
      </trkpt>
      <trkpt lat="46.07056" lon="6.36493">
        <ele>467.6</ele>
        <time>2021-03-27T12:35:07Z</time>
      </trkpt>
      <trkpt lat="46.07056" lon="6.36493">
        <ele>467.6</ele>
        <time>2021-03-27T12:35:06Z</time>
      </trkpt>
      <trkpt lat="46.07056" lon="6.36493">
        <ele>467.6</ele>
        <time>2021-03-27T12:35:05Z</time>
      </trkpt>
      <trkpt lat="46.07056" lon="6.36493">
        <ele>467.8</ele>
        <time>2021-03-27T12:35:04Z</time>
      </trkpt>
      <trkpt lat="46.07056" lon="6.36493">
        <ele>467.6</ele>
        <time>2021-03-27T12:35:03Z</time>
      </trkpt>
      <trkpt lat="46.07056" lon="6.36493">
        <ele>467.8</ele>
        <time>2021-03-27T12:35:02Z</time>
      </trkpt>
      <trkpt lat="46.07056" lon="6.36493">
        <ele>467.6</ele>
        <time>2021-03-27T12:35:01Z</time>
      </trkpt>
      <trkpt lat="46.07056" lon="6.36493">
        <ele>467.8</ele>
        <time>2021-03-27T12:35:00Z</time>
      </trkpt>
      <trkpt lat="46.07056" lon="6.36493">
        <ele>467.8</ele>
        <time>2021-03-27T12:34:59Z</time>
      </trkpt>
      <trkpt lat="46.07056" lon="6.36493">
        <ele>467.8</ele>
        <time>2021-03-27T12:34:58Z</time>
      </trkpt>
      <trkpt lat="46.07056" lon="6.36493">
        <ele>467.6</ele>
        <time>2021-03-27T12:34:57Z</time>
      </trkpt>
      <trkpt lat="46.07056" lon="6.36493">
        <ele>467.6</ele>
        <time>2021-03-27T12:34:56Z</time>
      </trkpt>
      <trkpt lat="46.07056" lon="6.36493">
        <ele>467.8</ele>
        <time>2021-03-27T12:34:55Z</time>
      </trkpt>
      <trkpt lat="46.07056" lon="6.36493">
        <ele>467.8</ele>
        <time>2021-03-27T12:34:54Z</time>
      </trkpt>
      <trkpt lat="46.07056" lon="6.36493">
        <ele>467.6</ele>
        <time>2021-03-27T12:34:53Z</time>
      </trkpt>
      <trkpt lat="46.07056" lon="6.36493">
        <ele>467.8</ele>
        <time>2021-03-27T12:34:52Z</time>
      </trkpt>
      <trkpt lat="46.07056" lon="6.36493">
        <ele>467.8</ele>
        <time>2021-03-27T12:34:51Z</time>
      </trkpt>
      <trkpt lat="46.07056" lon="6.36493">
        <ele>467.6</ele>
        <time>2021-03-27T12:34:50Z</time>
      </trkpt>
      <trkpt lat="46.07056" lon="6.36493">
        <ele>467.8</ele>
        <time>2021-03-27T12:34:49Z</time>
      </trkpt>
      <trkpt lat="46.07056" lon="6.36493">
        <ele>467.8</ele>
        <time>2021-03-27T12:34:48Z</time>
      </trkpt>
      <trkpt lat="46.07056" lon="6.36493">
        <ele>468</ele>
        <time>2021-03-27T12:34:47Z</time>
      </trkpt>
      <trkpt lat="46.07056" lon="6.36493">
        <ele>468</ele>
        <time>2021-03-27T12:34:46Z</time>
      </trkpt>
      <trkpt lat="46.07056" lon="6.36493">
        <ele>468</ele>
        <time>2021-03-27T12:34:45Z</time>
      </trkpt>
      <trkpt lat="46.07056" lon="6.36493">
        <ele>467.8</ele>
        <time>2021-03-27T12:34:44Z</time>
      </trkpt>
      <trkpt lat="46.07056" lon="6.36493">
        <ele>468</ele>
        <time>2021-03-27T12:34:43Z</time>
      </trkpt>
      <trkpt lat="46.07056" lon="6.36493">
        <ele>468</ele>
        <time>2021-03-27T12:34:42Z</time>
      </trkpt>
      <trkpt lat="46.07056" lon="6.36493">
        <ele>468</ele>
        <time>2021-03-27T12:34:41Z</time>
      </trkpt>
      <trkpt lat="46.07056" lon="6.36493">
        <ele>468</ele>
        <time>2021-03-27T12:34:40Z</time>
      </trkpt>
      <trkpt lat="46.07056" lon="6.36493">
        <ele>468</ele>
        <time>2021-03-27T12:34:39Z</time>
      </trkpt>
      <trkpt lat="46.07056" lon="6.36493">
        <ele>468</ele>
        <time>2021-03-27T12:34:38Z</time>
      </trkpt>
      <trkpt lat="46.07056" lon="6.36493">
        <ele>468.2</ele>
        <time>2021-03-27T12:34:37Z</time>
      </trkpt>
      <trkpt lat="46.07056" lon="6.36493">
        <ele>468.2</ele>
        <time>2021-03-27T12:34:36Z</time>
      </trkpt>
      <trkpt lat="46.07056" lon="6.36493">
        <ele>468.2</ele>
        <time>2021-03-27T12:34:35Z</time>
      </trkpt>
      <trkpt lat="46.07056" lon="6.36493">
        <ele>468</ele>
        <time>2021-03-27T12:34:34Z</time>
      </trkpt>
      <trkpt lat="46.07056" lon="6.36493">
        <ele>468.2</ele>
        <time>2021-03-27T12:34:33Z</time>
      </trkpt>
      <trkpt lat="46.07056" lon="6.36493">
        <ele>468.2</ele>
        <time>2021-03-27T12:34:32Z</time>
      </trkpt>
      <trkpt lat="46.07056" lon="6.36493">
        <ele>468.2</ele>
        <time>2021-03-27T12:34:31Z</time>
      </trkpt>
      <trkpt lat="46.07056" lon="6.36493">
        <ele>468.2</ele>
        <time>2021-03-27T12:34:30Z</time>
      </trkpt>
      <trkpt lat="46.07056" lon="6.36493">
        <ele>468</ele>
        <time>2021-03-27T12:34:29Z</time>
      </trkpt>
      <trkpt lat="46.07056" lon="6.36493">
        <ele>468.2</ele>
        <time>2021-03-27T12:34:28Z</time>
      </trkpt>
      <trkpt lat="46.07056" lon="6.36493">
        <ele>468</ele>
        <time>2021-03-27T12:34:27Z</time>
      </trkpt>
      <trkpt lat="46.07056" lon="6.36493">
        <ele>468.2</ele>
        <time>2021-03-27T12:34:26Z</time>
      </trkpt>
      <trkpt lat="46.07056" lon="6.36493">
        <ele>468</ele>
        <time>2021-03-27T12:34:25Z</time>
      </trkpt>
      <trkpt lat="46.07055" lon="6.36493">
        <ele>468</ele>
        <time>2021-03-27T12:34:24Z</time>
      </trkpt>
      <trkpt lat="46.07055" lon="6.36493">
        <ele>468.2</ele>
        <time>2021-03-27T12:34:23Z</time>
      </trkpt>
      <trkpt lat="46.07055" lon="6.36493">
        <ele>468</ele>
        <time>2021-03-27T12:34:22Z</time>
      </trkpt>
      <trkpt lat="46.07055" lon="6.36493">
        <ele>468</ele>
        <time>2021-03-27T12:34:21Z</time>
      </trkpt>
      <trkpt lat="46.07055" lon="6.36493">
        <ele>467.8</ele>
        <time>2021-03-27T12:34:20Z</time>
      </trkpt>
      <trkpt lat="46.07055" lon="6.36493">
        <ele>467.8</ele>
        <time>2021-03-27T12:34:19Z</time>
      </trkpt>
      <trkpt lat="46.07055" lon="6.36493">
        <ele>467.6</ele>
        <time>2021-03-27T12:34:18Z</time>
      </trkpt>
      <trkpt lat="46.07055" lon="6.36493">
        <ele>467.4</ele>
        <time>2021-03-27T12:34:17Z</time>
      </trkpt>
      <trkpt lat="46.07055" lon="6.36492">
        <ele>467</ele>
        <time>2021-03-27T12:34:16Z</time>
      </trkpt>
      <trkpt lat="46.07055" lon="6.36492">
        <ele>467.2</ele>
        <time>2021-03-27T12:34:15Z</time>
      </trkpt>
      <trkpt lat="46.07055" lon="6.36493">
        <ele>467</ele>
        <time>2021-03-27T12:34:14Z</time>
      </trkpt>
      <trkpt lat="46.07055" lon="6.36493">
        <ele>467</ele>
        <time>2021-03-27T12:34:13Z</time>
      </trkpt>
      <trkpt lat="46.07055" lon="6.36493">
        <ele>466.8</ele>
        <time>2021-03-27T12:34:12Z</time>
      </trkpt>
      <trkpt lat="46.07055" lon="6.36493">
        <ele>466.6</ele>
        <time>2021-03-27T12:34:11Z</time>
      </trkpt>
      <trkpt lat="46.07055" lon="6.36493">
        <ele>466.4</ele>
        <time>2021-03-27T12:34:10Z</time>
      </trkpt>
      <trkpt lat="46.07055" lon="6.36493">
        <ele>466.4</ele>
        <time>2021-03-27T12:34:09Z</time>
      </trkpt>
      <trkpt lat="46.07055" lon="6.36493">
        <ele>466.2</ele>
        <time>2021-03-27T12:34:08Z</time>
      </trkpt>
      <trkpt lat="46.07057" lon="6.36494">
        <ele>466</ele>
        <time>2021-03-27T12:34:07Z</time>
      </trkpt>
      <trkpt lat="46.07061" lon="6.36495">
        <ele>465.8</ele>
        <time>2021-03-27T12:34:06Z</time>
      </trkpt>
      <trkpt lat="46.07066" lon="6.36496">
        <ele>465.8</ele>
        <time>2021-03-27T12:34:05Z</time>
      </trkpt>
      <trkpt lat="46.07072" lon="6.36498">
        <ele>465.8</ele>
        <time>2021-03-27T12:34:04Z</time>
      </trkpt>
      <trkpt lat="46.07078" lon="6.36499">
        <ele>465.8</ele>
        <time>2021-03-27T12:34:03Z</time>
      </trkpt>
      <trkpt lat="46.07084" lon="6.36499">
        <ele>465.8</ele>
        <time>2021-03-27T12:34:02Z</time>
      </trkpt>
      <trkpt lat="46.07091" lon="6.365">
        <ele>465.6</ele>
        <time>2021-03-27T12:34:01Z</time>
      </trkpt>
      <trkpt lat="46.07098" lon="6.365">
        <ele>465.6</ele>
        <time>2021-03-27T12:34:00Z</time>
      </trkpt>
      <trkpt lat="46.07104" lon="6.365">
        <ele>465.4</ele>
        <time>2021-03-27T12:33:59Z</time>
      </trkpt>
      <trkpt lat="46.0711" lon="6.36499">
        <ele>465.4</ele>
        <time>2021-03-27T12:33:58Z</time>
      </trkpt>
      <trkpt lat="46.07115" lon="6.36496">
        <ele>465.2</ele>
        <time>2021-03-27T12:33:57Z</time>
      </trkpt>
      <trkpt lat="46.0712" lon="6.36493">
        <ele>465.2</ele>
        <time>2021-03-27T12:33:56Z</time>
      </trkpt>
      <trkpt lat="46.07126" lon="6.36491">
        <ele>465</ele>
        <time>2021-03-27T12:33:55Z</time>
      </trkpt>
      <trkpt lat="46.07131" lon="6.36492">
        <ele>464.8</ele>
        <time>2021-03-27T12:33:54Z</time>
      </trkpt>
      <trkpt lat="46.07136" lon="6.36495">
        <ele>464.2</ele>
        <time>2021-03-27T12:33:53Z</time>
      </trkpt>
      <trkpt lat="46.07141" lon="6.36499">
        <ele>464.2</ele>
        <time>2021-03-27T12:33:52Z</time>
      </trkpt>
      <trkpt lat="46.07145" lon="6.36505">
        <ele>463.8</ele>
        <time>2021-03-27T12:33:51Z</time>
      </trkpt>
      <trkpt lat="46.07149" lon="6.3651">
        <ele>463.8</ele>
        <time>2021-03-27T12:33:50Z</time>
      </trkpt>
      <trkpt lat="46.07154" lon="6.36515">
        <ele>463.4</ele>
        <time>2021-03-27T12:33:49Z</time>
      </trkpt>
      <trkpt lat="46.07159" lon="6.36518">
        <ele>463.2</ele>
        <time>2021-03-27T12:33:48Z</time>
      </trkpt>
      <trkpt lat="46.07164" lon="6.3652">
        <ele>463.2</ele>
        <time>2021-03-27T12:33:47Z</time>
      </trkpt>
      <trkpt lat="46.0717" lon="6.36522">
        <ele>463.2</ele>
        <time>2021-03-27T12:33:46Z</time>
      </trkpt>
      <trkpt lat="46.07176" lon="6.36523">
        <ele>463.2</ele>
        <time>2021-03-27T12:33:45Z</time>
      </trkpt>
      <trkpt lat="46.07182" lon="6.36524">
        <ele>463</ele>
        <time>2021-03-27T12:33:44Z</time>
      </trkpt>
      <trkpt lat="46.07188" lon="6.36525">
        <ele>463</ele>
        <time>2021-03-27T12:33:43Z</time>
      </trkpt>
      <trkpt lat="46.07194" lon="6.36526">
        <ele>462.8</ele>
        <time>2021-03-27T12:33:42Z</time>
      </trkpt>
      <trkpt lat="46.07199" lon="6.36527">
        <ele>462.8</ele>
        <time>2021-03-27T12:33:41Z</time>
      </trkpt>
      <trkpt lat="46.07205" lon="6.36528">
        <ele>462.2</ele>
        <time>2021-03-27T12:33:40Z</time>
      </trkpt>
      <trkpt lat="46.07211" lon="6.36529">
        <ele>462.2</ele>
        <time>2021-03-27T12:33:39Z</time>
      </trkpt>
      <trkpt lat="46.07217" lon="6.3653">
        <ele>462</ele>
        <time>2021-03-27T12:33:38Z</time>
      </trkpt>
      <trkpt lat="46.07223" lon="6.36532">
        <ele>461.6</ele>
        <time>2021-03-27T12:33:37Z</time>
      </trkpt>
      <trkpt lat="46.07229" lon="6.36533">
        <ele>461.4</ele>
        <time>2021-03-27T12:33:36Z</time>
      </trkpt>
      <trkpt lat="46.07235" lon="6.36534">
        <ele>461.2</ele>
        <time>2021-03-27T12:33:35Z</time>
      </trkpt>
      <trkpt lat="46.07241" lon="6.36535">
        <ele>461.2</ele>
        <time>2021-03-27T12:33:34Z</time>
      </trkpt>
      <trkpt lat="46.07247" lon="6.36536">
        <ele>461.2</ele>
        <time>2021-03-27T12:33:33Z</time>
      </trkpt>
      <trkpt lat="46.07253" lon="6.36537">
        <ele>461</ele>
        <time>2021-03-27T12:33:32Z</time>
      </trkpt>
      <trkpt lat="46.07259" lon="6.36538">
        <ele>461</ele>
        <time>2021-03-27T12:33:31Z</time>
      </trkpt>
      <trkpt lat="46.07265" lon="6.3654">
        <ele>460.8</ele>
        <time>2021-03-27T12:33:30Z</time>
      </trkpt>
      <trkpt lat="46.07271" lon="6.36541">
        <ele>460.6</ele>
        <time>2021-03-27T12:33:29Z</time>
      </trkpt>
      <trkpt lat="46.07277" lon="6.36542">
        <ele>460.4</ele>
        <time>2021-03-27T12:33:28Z</time>
      </trkpt>
      <trkpt lat="46.07284" lon="6.36543">
        <ele>460.4</ele>
        <time>2021-03-27T12:33:27Z</time>
      </trkpt>
      <trkpt lat="46.0729" lon="6.36544">
        <ele>460.2</ele>
        <time>2021-03-27T12:33:26Z</time>
      </trkpt>
      <trkpt lat="46.07296" lon="6.36545">
        <ele>460.2</ele>
        <time>2021-03-27T12:33:25Z</time>
      </trkpt>
      <trkpt lat="46.07302" lon="6.36546">
        <ele>460</ele>
        <time>2021-03-27T12:33:24Z</time>
      </trkpt>
      <trkpt lat="46.07309" lon="6.36547">
        <ele>460</ele>
        <time>2021-03-27T12:33:23Z</time>
      </trkpt>
      <trkpt lat="46.07315" lon="6.36548">
        <ele>460</ele>
        <time>2021-03-27T12:33:22Z</time>
      </trkpt>
      <trkpt lat="46.07321" lon="6.36549">
        <ele>460</ele>
        <time>2021-03-27T12:33:21Z</time>
      </trkpt>
      <trkpt lat="46.07328" lon="6.3655">
        <ele>460</ele>
        <time>2021-03-27T12:33:20Z</time>
      </trkpt>
      <trkpt lat="46.07334" lon="6.36552">
        <ele>460</ele>
        <time>2021-03-27T12:33:19Z</time>
      </trkpt>
      <trkpt lat="46.07341" lon="6.36553">
        <ele>459.8</ele>
        <time>2021-03-27T12:33:18Z</time>
      </trkpt>
      <trkpt lat="46.07347" lon="6.36555">
        <ele>459.6</ele>
        <time>2021-03-27T12:33:17Z</time>
      </trkpt>
      <trkpt lat="46.07354" lon="6.36556">
        <ele>459.8</ele>
        <time>2021-03-27T12:33:16Z</time>
      </trkpt>
      <trkpt lat="46.0736" lon="6.36558">
        <ele>459.8</ele>
        <time>2021-03-27T12:33:15Z</time>
      </trkpt>
      <trkpt lat="46.07367" lon="6.36559">
        <ele>459.6</ele>
        <time>2021-03-27T12:33:14Z</time>
      </trkpt>
      <trkpt lat="46.07374" lon="6.36561">
        <ele>459.4</ele>
        <time>2021-03-27T12:33:13Z</time>
      </trkpt>
      <trkpt lat="46.0738" lon="6.36563">
        <ele>459.2</ele>
        <time>2021-03-27T12:33:12Z</time>
      </trkpt>
      <trkpt lat="46.07387" lon="6.36565">
        <ele>459.2</ele>
        <time>2021-03-27T12:33:11Z</time>
      </trkpt>
      <trkpt lat="46.07394" lon="6.36567">
        <ele>459.2</ele>
        <time>2021-03-27T12:33:10Z</time>
      </trkpt>
      <trkpt lat="46.074" lon="6.36569">
        <ele>459.2</ele>
        <time>2021-03-27T12:33:09Z</time>
      </trkpt>
      <trkpt lat="46.07407" lon="6.36571">
        <ele>459</ele>
        <time>2021-03-27T12:33:08Z</time>
      </trkpt>
      <trkpt lat="46.07413" lon="6.36573">
        <ele>458.8</ele>
        <time>2021-03-27T12:33:07Z</time>
      </trkpt>
      <trkpt lat="46.0742" lon="6.36575">
        <ele>458.6</ele>
        <time>2021-03-27T12:33:06Z</time>
      </trkpt>
      <trkpt lat="46.07427" lon="6.36577">
        <ele>458.8</ele>
        <time>2021-03-27T12:33:05Z</time>
      </trkpt>
      <trkpt lat="46.07434" lon="6.36579">
        <ele>458.6</ele>
        <time>2021-03-27T12:33:04Z</time>
      </trkpt>
      <trkpt lat="46.0744" lon="6.36581">
        <ele>458.4</ele>
        <time>2021-03-27T12:33:03Z</time>
      </trkpt>
      <trkpt lat="46.07447" lon="6.36583">
        <ele>458.4</ele>
        <time>2021-03-27T12:33:02Z</time>
      </trkpt>
      <trkpt lat="46.07454" lon="6.36585">
        <ele>458.4</ele>
        <time>2021-03-27T12:33:01Z</time>
      </trkpt>
      <trkpt lat="46.0746" lon="6.36587">
        <ele>458.4</ele>
        <time>2021-03-27T12:33:00Z</time>
      </trkpt>
      <trkpt lat="46.07467" lon="6.36589">
        <ele>458</ele>
        <time>2021-03-27T12:32:59Z</time>
      </trkpt>
      <trkpt lat="46.07474" lon="6.36591">
        <ele>458</ele>
        <time>2021-03-27T12:32:58Z</time>
      </trkpt>
      <trkpt lat="46.0748" lon="6.36593">
        <ele>457.8</ele>
        <time>2021-03-27T12:32:57Z</time>
      </trkpt>
      <trkpt lat="46.07487" lon="6.36595">
        <ele>457.6</ele>
        <time>2021-03-27T12:32:56Z</time>
      </trkpt>
      <trkpt lat="46.07493" lon="6.36596">
        <ele>457.4</ele>
        <time>2021-03-27T12:32:55Z</time>
      </trkpt>
      <trkpt lat="46.07499" lon="6.36598">
        <ele>457.4</ele>
        <time>2021-03-27T12:32:54Z</time>
      </trkpt>
      <trkpt lat="46.07505" lon="6.366">
        <ele>457.4</ele>
        <time>2021-03-27T12:32:53Z</time>
      </trkpt>
      <trkpt lat="46.07511" lon="6.36602">
        <ele>457.4</ele>
        <time>2021-03-27T12:32:52Z</time>
      </trkpt>
      <trkpt lat="46.07517" lon="6.36604">
        <ele>457.4</ele>
        <time>2021-03-27T12:32:51Z</time>
      </trkpt>
      <trkpt lat="46.07524" lon="6.36605">
        <ele>457.4</ele>
        <time>2021-03-27T12:32:50Z</time>
      </trkpt>
      <trkpt lat="46.07531" lon="6.36607">
        <ele>457.4</ele>
        <time>2021-03-27T12:32:49Z</time>
      </trkpt>
      <trkpt lat="46.07537" lon="6.36609">
        <ele>457.4</ele>
        <time>2021-03-27T12:32:48Z</time>
      </trkpt>
      <trkpt lat="46.07544" lon="6.3661">
        <ele>457.4</ele>
        <time>2021-03-27T12:32:47Z</time>
      </trkpt>
      <trkpt lat="46.07551" lon="6.36612">
        <ele>457.4</ele>
        <time>2021-03-27T12:32:46Z</time>
      </trkpt>
      <trkpt lat="46.07558" lon="6.36614">
        <ele>457.6</ele>
        <time>2021-03-27T12:32:45Z</time>
      </trkpt>
      <trkpt lat="46.07564" lon="6.36616">
        <ele>457.6</ele>
        <time>2021-03-27T12:32:44Z</time>
      </trkpt>
      <trkpt lat="46.07571" lon="6.36618">
        <ele>457.6</ele>
        <time>2021-03-27T12:32:43Z</time>
      </trkpt>
      <trkpt lat="46.07578" lon="6.3662">
        <ele>457.8</ele>
        <time>2021-03-27T12:32:42Z</time>
      </trkpt>
      <trkpt lat="46.07585" lon="6.36622">
        <ele>458</ele>
        <time>2021-03-27T12:32:41Z</time>
      </trkpt>
      <trkpt lat="46.07592" lon="6.36625">
        <ele>458.4</ele>
        <time>2021-03-27T12:32:40Z</time>
      </trkpt>
      <trkpt lat="46.07598" lon="6.36628">
        <ele>458.6</ele>
        <time>2021-03-27T12:32:39Z</time>
      </trkpt>
      <trkpt lat="46.07605" lon="6.3663">
        <ele>458.8</ele>
        <time>2021-03-27T12:32:38Z</time>
      </trkpt>
      <trkpt lat="46.07612" lon="6.36629">
        <ele>459</ele>
        <time>2021-03-27T12:32:37Z</time>
      </trkpt>
      <trkpt lat="46.07618" lon="6.36625">
        <ele>459</ele>
        <time>2021-03-27T12:32:36Z</time>
      </trkpt>
      <trkpt lat="46.07624" lon="6.36618">
        <ele>459.2</ele>
        <time>2021-03-27T12:32:35Z</time>
      </trkpt>
      <trkpt lat="46.07628" lon="6.36608">
        <ele>459.2</ele>
        <time>2021-03-27T12:32:34Z</time>
      </trkpt>
      <trkpt lat="46.07632" lon="6.36598">
        <ele>459.4</ele>
        <time>2021-03-27T12:32:33Z</time>
      </trkpt>
      <trkpt lat="46.07636" lon="6.36587">
        <ele>459.4</ele>
        <time>2021-03-27T12:32:32Z</time>
      </trkpt>
      <trkpt lat="46.07639" lon="6.36576">
        <ele>459.4</ele>
        <time>2021-03-27T12:32:31Z</time>
      </trkpt>
      <trkpt lat="46.07643" lon="6.36566">
        <ele>459.4</ele>
        <time>2021-03-27T12:32:30Z</time>
      </trkpt>
      <trkpt lat="46.07647" lon="6.36555">
        <ele>459.6</ele>
        <time>2021-03-27T12:32:29Z</time>
      </trkpt>
      <trkpt lat="46.0765" lon="6.36545">
        <ele>459.4</ele>
        <time>2021-03-27T12:32:28Z</time>
      </trkpt>
      <trkpt lat="46.07652" lon="6.36534">
        <ele>459.6</ele>
        <time>2021-03-27T12:32:27Z</time>
      </trkpt>
      <trkpt lat="46.07654" lon="6.36522">
        <ele>459.4</ele>
        <time>2021-03-27T12:32:26Z</time>
      </trkpt>
      <trkpt lat="46.07654" lon="6.36511">
        <ele>459.4</ele>
        <time>2021-03-27T12:32:25Z</time>
      </trkpt>
      <trkpt lat="46.07655" lon="6.36499">
        <ele>459.4</ele>
        <time>2021-03-27T12:32:24Z</time>
      </trkpt>
      <trkpt lat="46.07655" lon="6.36488">
        <ele>459.4</ele>
        <time>2021-03-27T12:32:23Z</time>
      </trkpt>
      <trkpt lat="46.07655" lon="6.36476">
        <ele>459.6</ele>
        <time>2021-03-27T12:32:22Z</time>
      </trkpt>
      <trkpt lat="46.07654" lon="6.36465">
        <ele>459.4</ele>
        <time>2021-03-27T12:32:21Z</time>
      </trkpt>
      <trkpt lat="46.07653" lon="6.36454">
        <ele>459.6</ele>
        <time>2021-03-27T12:32:20Z</time>
      </trkpt>
      <trkpt lat="46.07651" lon="6.36443">
        <ele>459.6</ele>
        <time>2021-03-27T12:32:19Z</time>
      </trkpt>
      <trkpt lat="46.07649" lon="6.36432">
        <ele>459.4</ele>
        <time>2021-03-27T12:32:18Z</time>
      </trkpt>
      <trkpt lat="46.07646" lon="6.36422">
        <ele>459.4</ele>
        <time>2021-03-27T12:32:17Z</time>
      </trkpt>
      <trkpt lat="46.07643" lon="6.36412">
        <ele>459.4</ele>
        <time>2021-03-27T12:32:16Z</time>
      </trkpt>
      <trkpt lat="46.0764" lon="6.36402">
        <ele>459.2</ele>
        <time>2021-03-27T12:32:15Z</time>
      </trkpt>
      <trkpt lat="46.07637" lon="6.36392">
        <ele>459.2</ele>
        <time>2021-03-27T12:32:14Z</time>
      </trkpt>
      <trkpt lat="46.07635" lon="6.36382">
        <ele>459.2</ele>
        <time>2021-03-27T12:32:13Z</time>
      </trkpt>
      <trkpt lat="46.07633" lon="6.36372">
        <ele>459</ele>
        <time>2021-03-27T12:32:12Z</time>
      </trkpt>
      <trkpt lat="46.07632" lon="6.36362">
        <ele>459</ele>
        <time>2021-03-27T12:32:11Z</time>
      </trkpt>
      <trkpt lat="46.07632" lon="6.36351">
        <ele>458.8</ele>
        <time>2021-03-27T12:32:10Z</time>
      </trkpt>
      <trkpt lat="46.07631" lon="6.36341">
        <ele>459</ele>
        <time>2021-03-27T12:32:09Z</time>
      </trkpt>
      <trkpt lat="46.07631" lon="6.36331">
        <ele>458.8</ele>
        <time>2021-03-27T12:32:08Z</time>
      </trkpt>
      <trkpt lat="46.07631" lon="6.36321">
        <ele>458.8</ele>
        <time>2021-03-27T12:32:07Z</time>
      </trkpt>
      <trkpt lat="46.07631" lon="6.36311">
        <ele>458.8</ele>
        <time>2021-03-27T12:32:06Z</time>
      </trkpt>
      <trkpt lat="46.07631" lon="6.36301">
        <ele>458.8</ele>
        <time>2021-03-27T12:32:05Z</time>
      </trkpt>
      <trkpt lat="46.07632" lon="6.36291">
        <ele>458.8</ele>
        <time>2021-03-27T12:32:04Z</time>
      </trkpt>
      <trkpt lat="46.07633" lon="6.36281">
        <ele>458.6</ele>
        <time>2021-03-27T12:32:03Z</time>
      </trkpt>
      <trkpt lat="46.07634" lon="6.36271">
        <ele>458.6</ele>
        <time>2021-03-27T12:32:02Z</time>
      </trkpt>
      <trkpt lat="46.07635" lon="6.36261">
        <ele>458.4</ele>
        <time>2021-03-27T12:32:01Z</time>
      </trkpt>
      <trkpt lat="46.07637" lon="6.36251">
        <ele>458.4</ele>
        <time>2021-03-27T12:32:00Z</time>
      </trkpt>
      <trkpt lat="46.07639" lon="6.36241">
        <ele>458.4</ele>
        <time>2021-03-27T12:31:59Z</time>
      </trkpt>
      <trkpt lat="46.0764" lon="6.36232">
        <ele>458.4</ele>
        <time>2021-03-27T12:31:58Z</time>
      </trkpt>
      <trkpt lat="46.07641" lon="6.36222">
        <ele>458.2</ele>
        <time>2021-03-27T12:31:57Z</time>
      </trkpt>
      <trkpt lat="46.07642" lon="6.36212">
        <ele>458.2</ele>
        <time>2021-03-27T12:31:56Z</time>
      </trkpt>
      <trkpt lat="46.07644" lon="6.36202">
        <ele>458.2</ele>
        <time>2021-03-27T12:31:55Z</time>
      </trkpt>
      <trkpt lat="46.07645" lon="6.36192">
        <ele>458</ele>
        <time>2021-03-27T12:31:54Z</time>
      </trkpt>
      <trkpt lat="46.07647" lon="6.36182">
        <ele>458</ele>
        <time>2021-03-27T12:31:53Z</time>
      </trkpt>
      <trkpt lat="46.07648" lon="6.36173">
        <ele>458</ele>
        <time>2021-03-27T12:31:52Z</time>
      </trkpt>
      <trkpt lat="46.0765" lon="6.36163">
        <ele>457.8</ele>
        <time>2021-03-27T12:31:51Z</time>
      </trkpt>
      <trkpt lat="46.07651" lon="6.36154">
        <ele>458</ele>
        <time>2021-03-27T12:31:50Z</time>
      </trkpt>
      <trkpt lat="46.07653" lon="6.36144">
        <ele>457.6</ele>
        <time>2021-03-27T12:31:49Z</time>
      </trkpt>
      <trkpt lat="46.07655" lon="6.36135">
        <ele>457.6</ele>
        <time>2021-03-27T12:31:48Z</time>
      </trkpt>
      <trkpt lat="46.07657" lon="6.36126">
        <ele>457.4</ele>
        <time>2021-03-27T12:31:47Z</time>
      </trkpt>
      <trkpt lat="46.07659" lon="6.36117">
        <ele>457.2</ele>
        <time>2021-03-27T12:31:46Z</time>
      </trkpt>
      <trkpt lat="46.0766" lon="6.36109">
        <ele>457</ele>
        <time>2021-03-27T12:31:45Z</time>
      </trkpt>
      <trkpt lat="46.07663" lon="6.361">
        <ele>456.8</ele>
        <time>2021-03-27T12:31:44Z</time>
      </trkpt>
      <trkpt lat="46.07665" lon="6.36092">
        <ele>456.8</ele>
        <time>2021-03-27T12:31:43Z</time>
      </trkpt>
      <trkpt lat="46.07671" lon="6.36076">
        <ele>456.4</ele>
        <time>2021-03-27T12:31:41Z</time>
      </trkpt>
      <trkpt lat="46.07674" lon="6.36068">
        <ele>456.4</ele>
        <time>2021-03-27T12:31:40Z</time>
      </trkpt>
      <trkpt lat="46.07677" lon="6.36062">
        <ele>456.4</ele>
        <time>2021-03-27T12:31:39Z</time>
      </trkpt>
      <trkpt lat="46.07681" lon="6.36058">
        <ele>456.2</ele>
        <time>2021-03-27T12:31:38Z</time>
      </trkpt>
      <trkpt lat="46.07685" lon="6.36056">
        <ele>456.2</ele>
        <time>2021-03-27T12:31:37Z</time>
      </trkpt>
      <trkpt lat="46.0769" lon="6.36057">
        <ele>456.4</ele>
        <time>2021-03-27T12:31:36Z</time>
      </trkpt>
      <trkpt lat="46.07695" lon="6.36059">
        <ele>456.2</ele>
        <time>2021-03-27T12:31:35Z</time>
      </trkpt>
      <trkpt lat="46.077" lon="6.36062">
        <ele>456.2</ele>
        <time>2021-03-27T12:31:34Z</time>
      </trkpt>
      <trkpt lat="46.07706" lon="6.36064">
        <ele>456</ele>
        <time>2021-03-27T12:31:33Z</time>
      </trkpt>
      <trkpt lat="46.07711" lon="6.36066">
        <ele>456.2</ele>
        <time>2021-03-27T12:31:32Z</time>
      </trkpt>
      <trkpt lat="46.07717" lon="6.36068">
        <ele>456</ele>
        <time>2021-03-27T12:31:31Z</time>
      </trkpt>
      <trkpt lat="46.07723" lon="6.3607">
        <ele>456</ele>
        <time>2021-03-27T12:31:30Z</time>
      </trkpt>
      <trkpt lat="46.07729" lon="6.36072">
        <ele>455.8</ele>
        <time>2021-03-27T12:31:29Z</time>
      </trkpt>
      <trkpt lat="46.07735" lon="6.36075">
        <ele>455.6</ele>
        <time>2021-03-27T12:31:28Z</time>
      </trkpt>
      <trkpt lat="46.07741" lon="6.36077">
        <ele>455.6</ele>
        <time>2021-03-27T12:31:27Z</time>
      </trkpt>
      <trkpt lat="46.07747" lon="6.36079">
        <ele>455.2</ele>
        <time>2021-03-27T12:31:26Z</time>
      </trkpt>
      <trkpt lat="46.07753" lon="6.36081">
        <ele>455.2</ele>
        <time>2021-03-27T12:31:25Z</time>
      </trkpt>
      <trkpt lat="46.07758" lon="6.36083">
        <ele>455.2</ele>
        <time>2021-03-27T12:31:24Z</time>
      </trkpt>
      <trkpt lat="46.07764" lon="6.36086">
        <ele>455.2</ele>
        <time>2021-03-27T12:31:23Z</time>
      </trkpt>
      <trkpt lat="46.0777" lon="6.36088">
        <ele>455</ele>
        <time>2021-03-27T12:31:22Z</time>
      </trkpt>
      <trkpt lat="46.07775" lon="6.3609">
        <ele>455.2</ele>
        <time>2021-03-27T12:31:21Z</time>
      </trkpt>
      <trkpt lat="46.07781" lon="6.36092">
        <ele>455</ele>
        <time>2021-03-27T12:31:20Z</time>
      </trkpt>
      <trkpt lat="46.07787" lon="6.36094">
        <ele>454.8</ele>
        <time>2021-03-27T12:31:19Z</time>
      </trkpt>
      <trkpt lat="46.07792" lon="6.36096">
        <ele>454.8</ele>
        <time>2021-03-27T12:31:18Z</time>
      </trkpt>
      <trkpt lat="46.07798" lon="6.36099">
        <ele>454.8</ele>
        <time>2021-03-27T12:31:17Z</time>
      </trkpt>
      <trkpt lat="46.07803" lon="6.36101">
        <ele>454.8</ele>
        <time>2021-03-27T12:31:16Z</time>
      </trkpt>
      <trkpt lat="46.07808" lon="6.36104">
        <ele>454.8</ele>
        <time>2021-03-27T12:31:15Z</time>
      </trkpt>
      <trkpt lat="46.07814" lon="6.36106">
        <ele>454.8</ele>
        <time>2021-03-27T12:31:14Z</time>
      </trkpt>
      <trkpt lat="46.07819" lon="6.36107">
        <ele>454.6</ele>
        <time>2021-03-27T12:31:13Z</time>
      </trkpt>
      <trkpt lat="46.07825" lon="6.36109">
        <ele>454.4</ele>
        <time>2021-03-27T12:31:12Z</time>
      </trkpt>
      <trkpt lat="46.0783" lon="6.36111">
        <ele>454.4</ele>
        <time>2021-03-27T12:31:11Z</time>
      </trkpt>
      <trkpt lat="46.07836" lon="6.36113">
        <ele>454.4</ele>
        <time>2021-03-27T12:31:10Z</time>
      </trkpt>
      <trkpt lat="46.07841" lon="6.36115">
        <ele>454.4</ele>
        <time>2021-03-27T12:31:09Z</time>
      </trkpt>
      <trkpt lat="46.07846" lon="6.36117">
        <ele>454.2</ele>
        <time>2021-03-27T12:31:08Z</time>
      </trkpt>
      <trkpt lat="46.07851" lon="6.3612">
        <ele>454</ele>
        <time>2021-03-27T12:31:07Z</time>
      </trkpt>
      <trkpt lat="46.07856" lon="6.36122">
        <ele>453.8</ele>
        <time>2021-03-27T12:31:06Z</time>
      </trkpt>
      <trkpt lat="46.07861" lon="6.36125">
        <ele>453.8</ele>
        <time>2021-03-27T12:31:05Z</time>
      </trkpt>
      <trkpt lat="46.07866" lon="6.36128">
        <ele>453.6</ele>
        <time>2021-03-27T12:31:04Z</time>
      </trkpt>
      <trkpt lat="46.07871" lon="6.36131">
        <ele>453</ele>
        <time>2021-03-27T12:31:03Z</time>
      </trkpt>
      <trkpt lat="46.07875" lon="6.36134">
        <ele>452.6</ele>
        <time>2021-03-27T12:31:02Z</time>
      </trkpt>
      <trkpt lat="46.0788" lon="6.36137">
        <ele>452.2</ele>
        <time>2021-03-27T12:31:01Z</time>
      </trkpt>
      <trkpt lat="46.07884" lon="6.36141">
        <ele>452</ele>
        <time>2021-03-27T12:31:00Z</time>
      </trkpt>
      <trkpt lat="46.07888" lon="6.36144">
        <ele>451.8</ele>
        <time>2021-03-27T12:30:59Z</time>
      </trkpt>
      <trkpt lat="46.07893" lon="6.36147">
        <ele>451.8</ele>
        <time>2021-03-27T12:30:58Z</time>
      </trkpt>
      <trkpt lat="46.07897" lon="6.36151">
        <ele>451.6</ele>
        <time>2021-03-27T12:30:57Z</time>
      </trkpt>
      <trkpt lat="46.07901" lon="6.36154">
        <ele>451.2</ele>
        <time>2021-03-27T12:30:56Z</time>
      </trkpt>
      <trkpt lat="46.07905" lon="6.36157">
        <ele>450.8</ele>
        <time>2021-03-27T12:30:55Z</time>
      </trkpt>
      <trkpt lat="46.07909" lon="6.3616">
        <ele>450.6</ele>
        <time>2021-03-27T12:30:54Z</time>
      </trkpt>
      <trkpt lat="46.07913" lon="6.36163">
        <ele>450</ele>
        <time>2021-03-27T12:30:53Z</time>
      </trkpt>
      <trkpt lat="46.07917" lon="6.36166">
        <ele>449.6</ele>
        <time>2021-03-27T12:30:52Z</time>
      </trkpt>
      <trkpt lat="46.07922" lon="6.36169">
        <ele>449.2</ele>
        <time>2021-03-27T12:30:51Z</time>
      </trkpt>
      <trkpt lat="46.07926" lon="6.36172">
        <ele>448.6</ele>
        <time>2021-03-27T12:30:50Z</time>
      </trkpt>
      <trkpt lat="46.0793" lon="6.36175">
        <ele>448</ele>
        <time>2021-03-27T12:30:49Z</time>
      </trkpt>
      <trkpt lat="46.07934" lon="6.36178">
        <ele>447.6</ele>
        <time>2021-03-27T12:30:48Z</time>
      </trkpt>
      <trkpt lat="46.07938" lon="6.36181">
        <ele>447.4</ele>
        <time>2021-03-27T12:30:47Z</time>
      </trkpt>
      <trkpt lat="46.07942" lon="6.36185">
        <ele>447.2</ele>
        <time>2021-03-27T12:30:46Z</time>
      </trkpt>
      <trkpt lat="46.07947" lon="6.36188">
        <ele>447</ele>
        <time>2021-03-27T12:30:45Z</time>
      </trkpt>
      <trkpt lat="46.07951" lon="6.36192">
        <ele>446.6</ele>
        <time>2021-03-27T12:30:44Z</time>
      </trkpt>
      <trkpt lat="46.07955" lon="6.36196">
        <ele>446.8</ele>
        <time>2021-03-27T12:30:43Z</time>
      </trkpt>
      <trkpt lat="46.0796" lon="6.362">
        <ele>446.6</ele>
        <time>2021-03-27T12:30:42Z</time>
      </trkpt>
      <trkpt lat="46.07965" lon="6.36205">
        <ele>446.6</ele>
        <time>2021-03-27T12:30:41Z</time>
      </trkpt>
      <trkpt lat="46.07969" lon="6.3621">
        <ele>446.6</ele>
        <time>2021-03-27T12:30:40Z</time>
      </trkpt>
      <trkpt lat="46.07973" lon="6.36216">
        <ele>446.4</ele>
        <time>2021-03-27T12:30:39Z</time>
      </trkpt>
      <trkpt lat="46.07978" lon="6.36222">
        <ele>446.6</ele>
        <time>2021-03-27T12:30:38Z</time>
      </trkpt>
      <trkpt lat="46.07983" lon="6.36228">
        <ele>446.2</ele>
        <time>2021-03-27T12:30:37Z</time>
      </trkpt>
      <trkpt lat="46.07987" lon="6.36234">
        <ele>446.2</ele>
        <time>2021-03-27T12:30:36Z</time>
      </trkpt>
      <trkpt lat="46.07992" lon="6.36241">
        <ele>446</ele>
        <time>2021-03-27T12:30:35Z</time>
      </trkpt>
      <trkpt lat="46.07996" lon="6.36248">
        <ele>445.8</ele>
        <time>2021-03-27T12:30:34Z</time>
      </trkpt>
      <trkpt lat="46.08001" lon="6.36256">
        <ele>445.8</ele>
        <time>2021-03-27T12:30:33Z</time>
      </trkpt>
      <trkpt lat="46.08005" lon="6.36264">
        <ele>445.8</ele>
        <time>2021-03-27T12:30:32Z</time>
      </trkpt>
      <trkpt lat="46.08009" lon="6.36272">
        <ele>445.6</ele>
        <time>2021-03-27T12:30:31Z</time>
      </trkpt>
      <trkpt lat="46.08013" lon="6.3628">
        <ele>445.6</ele>
        <time>2021-03-27T12:30:30Z</time>
      </trkpt>
      <trkpt lat="46.08017" lon="6.36288">
        <ele>445.6</ele>
        <time>2021-03-27T12:30:29Z</time>
      </trkpt>
      <trkpt lat="46.08021" lon="6.36296">
        <ele>445.6</ele>
        <time>2021-03-27T12:30:28Z</time>
      </trkpt>
      <trkpt lat="46.08025" lon="6.36304">
        <ele>445.6</ele>
        <time>2021-03-27T12:30:27Z</time>
      </trkpt>
      <trkpt lat="46.08029" lon="6.36312">
        <ele>445.6</ele>
        <time>2021-03-27T12:30:26Z</time>
      </trkpt>
      <trkpt lat="46.08034" lon="6.3632">
        <ele>445.8</ele>
        <time>2021-03-27T12:30:25Z</time>
      </trkpt>
      <trkpt lat="46.08038" lon="6.36329">
        <ele>446</ele>
        <time>2021-03-27T12:30:24Z</time>
      </trkpt>
      <trkpt lat="46.08042" lon="6.36337">
        <ele>446</ele>
        <time>2021-03-27T12:30:23Z</time>
      </trkpt>
      <trkpt lat="46.08047" lon="6.36345">
        <ele>446.2</ele>
        <time>2021-03-27T12:30:22Z</time>
      </trkpt>
      <trkpt lat="46.08052" lon="6.36352">
        <ele>446</ele>
        <time>2021-03-27T12:30:21Z</time>
      </trkpt>
      <trkpt lat="46.08057" lon="6.3636">
        <ele>446</ele>
        <time>2021-03-27T12:30:20Z</time>
      </trkpt>
      <trkpt lat="46.08063" lon="6.36367">
        <ele>446</ele>
        <time>2021-03-27T12:30:19Z</time>
      </trkpt>
      <trkpt lat="46.08069" lon="6.36373">
        <ele>446</ele>
        <time>2021-03-27T12:30:18Z</time>
      </trkpt>
      <trkpt lat="46.08076" lon="6.36378">
        <ele>446.2</ele>
        <time>2021-03-27T12:30:17Z</time>
      </trkpt>
      <trkpt lat="46.08082" lon="6.36382">
        <ele>446.2</ele>
        <time>2021-03-27T12:30:16Z</time>
      </trkpt>
      <trkpt lat="46.0809" lon="6.36386">
        <ele>446</ele>
        <time>2021-03-27T12:30:15Z</time>
      </trkpt>
      <trkpt lat="46.08097" lon="6.36387">
        <ele>446</ele>
        <time>2021-03-27T12:30:14Z</time>
      </trkpt>
      <trkpt lat="46.08105" lon="6.36388">
        <ele>446.2</ele>
        <time>2021-03-27T12:30:13Z</time>
      </trkpt>
      <trkpt lat="46.08112" lon="6.36388">
        <ele>446.2</ele>
        <time>2021-03-27T12:30:12Z</time>
      </trkpt>
      <trkpt lat="46.0812" lon="6.36387">
        <ele>446.2</ele>
        <time>2021-03-27T12:30:11Z</time>
      </trkpt>
      <trkpt lat="46.08127" lon="6.36387">
        <ele>446.2</ele>
        <time>2021-03-27T12:30:10Z</time>
      </trkpt>
      <trkpt lat="46.08135" lon="6.36386">
        <ele>446</ele>
        <time>2021-03-27T12:30:09Z</time>
      </trkpt>
      <trkpt lat="46.08142" lon="6.36386">
        <ele>445.8</ele>
        <time>2021-03-27T12:30:08Z</time>
      </trkpt>
      <trkpt lat="46.0815" lon="6.36386">
        <ele>445.6</ele>
        <time>2021-03-27T12:30:07Z</time>
      </trkpt>
      <trkpt lat="46.08158" lon="6.36386">
        <ele>445.6</ele>
        <time>2021-03-27T12:30:06Z</time>
      </trkpt>
      <trkpt lat="46.08165" lon="6.36386">
        <ele>445.6</ele>
        <time>2021-03-27T12:30:05Z</time>
      </trkpt>
      <trkpt lat="46.08172" lon="6.36385">
        <ele>445.6</ele>
        <time>2021-03-27T12:30:04Z</time>
      </trkpt>
      <trkpt lat="46.08179" lon="6.36384">
        <ele>445.4</ele>
        <time>2021-03-27T12:30:03Z</time>
      </trkpt>
      <trkpt lat="46.08186" lon="6.36384">
        <ele>445.4</ele>
        <time>2021-03-27T12:30:02Z</time>
      </trkpt>
      <trkpt lat="46.08193" lon="6.36385">
        <ele>445.4</ele>
        <time>2021-03-27T12:30:01Z</time>
      </trkpt>
      <trkpt lat="46.082" lon="6.36386">
        <ele>445.4</ele>
        <time>2021-03-27T12:30:00Z</time>
      </trkpt>
      <trkpt lat="46.08206" lon="6.36387">
        <ele>445.4</ele>
        <time>2021-03-27T12:29:59Z</time>
      </trkpt>
      <trkpt lat="46.08213" lon="6.3639">
        <ele>445.4</ele>
        <time>2021-03-27T12:29:58Z</time>
      </trkpt>
      <trkpt lat="46.08219" lon="6.36394">
        <ele>445.4</ele>
        <time>2021-03-27T12:29:57Z</time>
      </trkpt>
      <trkpt lat="46.08225" lon="6.36399">
        <ele>445.4</ele>
        <time>2021-03-27T12:29:56Z</time>
      </trkpt>
      <trkpt lat="46.0823" lon="6.36404">
        <ele>445.4</ele>
        <time>2021-03-27T12:29:55Z</time>
      </trkpt>
      <trkpt lat="46.08236" lon="6.36409">
        <ele>445.4</ele>
        <time>2021-03-27T12:29:54Z</time>
      </trkpt>
      <trkpt lat="46.08242" lon="6.36414">
        <ele>445.2</ele>
        <time>2021-03-27T12:29:53Z</time>
      </trkpt>
      <trkpt lat="46.08247" lon="6.36419">
        <ele>445.2</ele>
        <time>2021-03-27T12:29:52Z</time>
      </trkpt>
      <trkpt lat="46.08253" lon="6.36425">
        <ele>445.4</ele>
        <time>2021-03-27T12:29:51Z</time>
      </trkpt>
      <trkpt lat="46.08258" lon="6.3643">
        <ele>445.2</ele>
        <time>2021-03-27T12:29:50Z</time>
      </trkpt>
      <trkpt lat="46.08264" lon="6.36435">
        <ele>445.4</ele>
        <time>2021-03-27T12:29:49Z</time>
      </trkpt>
      <trkpt lat="46.08269" lon="6.3644">
        <ele>445.4</ele>
        <time>2021-03-27T12:29:48Z</time>
      </trkpt>
      <trkpt lat="46.08274" lon="6.36445">
        <ele>445.4</ele>
        <time>2021-03-27T12:29:47Z</time>
      </trkpt>
      <trkpt lat="46.08279" lon="6.3645">
        <ele>445.4</ele>
        <time>2021-03-27T12:29:46Z</time>
      </trkpt>
      <trkpt lat="46.08284" lon="6.36455">
        <ele>445.6</ele>
        <time>2021-03-27T12:29:45Z</time>
      </trkpt>
      <trkpt lat="46.08289" lon="6.36459">
        <ele>445.8</ele>
        <time>2021-03-27T12:29:44Z</time>
      </trkpt>
      <trkpt lat="46.08294" lon="6.36463">
        <ele>445.8</ele>
        <time>2021-03-27T12:29:43Z</time>
      </trkpt>
      <trkpt lat="46.08298" lon="6.36468">
        <ele>446</ele>
        <time>2021-03-27T12:29:42Z</time>
      </trkpt>
      <trkpt lat="46.08302" lon="6.36471">
        <ele>446.2</ele>
        <time>2021-03-27T12:29:41Z</time>
      </trkpt>
      <trkpt lat="46.08306" lon="6.36475">
        <ele>446.2</ele>
        <time>2021-03-27T12:29:40Z</time>
      </trkpt>
      <trkpt lat="46.0831" lon="6.36479">
        <ele>446.2</ele>
        <time>2021-03-27T12:29:39Z</time>
      </trkpt>
      <trkpt lat="46.08313" lon="6.36482">
        <ele>446.4</ele>
        <time>2021-03-27T12:29:38Z</time>
      </trkpt>
      <trkpt lat="46.08315" lon="6.36486">
        <ele>446.2</ele>
        <time>2021-03-27T12:29:37Z</time>
      </trkpt>
      <trkpt lat="46.08317" lon="6.3649">
        <ele>446.4</ele>
        <time>2021-03-27T12:29:36Z</time>
      </trkpt>
      <trkpt lat="46.08317" lon="6.36494">
        <ele>446.4</ele>
        <time>2021-03-27T12:29:35Z</time>
      </trkpt>
      <trkpt lat="46.08316" lon="6.36498">
        <ele>446.4</ele>
        <time>2021-03-27T12:29:34Z</time>
      </trkpt>
      <trkpt lat="46.08314" lon="6.36502">
        <ele>446.4</ele>
        <time>2021-03-27T12:29:33Z</time>
      </trkpt>
      <trkpt lat="46.08313" lon="6.36502">
        <ele>446.4</ele>
        <time>2021-03-27T12:29:32Z</time>
      </trkpt>
      <trkpt lat="46.08311" lon="6.36502">
        <ele>446.4</ele>
        <time>2021-03-27T12:29:31Z</time>
      </trkpt>
      <trkpt lat="46.08311" lon="6.36501">
        <ele>446.4</ele>
        <time>2021-03-27T12:29:30Z</time>
      </trkpt>
      <trkpt lat="46.08311" lon="6.36501">
        <ele>446.6</ele>
        <time>2021-03-27T12:29:29Z</time>
      </trkpt>
      <trkpt lat="46.08311" lon="6.36501">
        <ele>446.6</ele>
        <time>2021-03-27T12:29:28Z</time>
      </trkpt>
      <trkpt lat="46.08311" lon="6.36501">
        <ele>446.4</ele>
        <time>2021-03-27T12:29:27Z</time>
      </trkpt>
      <trkpt lat="46.08311" lon="6.36501">
        <ele>446.4</ele>
        <time>2021-03-27T12:29:26Z</time>
      </trkpt>
      <trkpt lat="46.08311" lon="6.36501">
        <ele>446.4</ele>
        <time>2021-03-27T12:29:25Z</time>
      </trkpt>
      <trkpt lat="46.08311" lon="6.36501">
        <ele>446.4</ele>
        <time>2021-03-27T12:29:24Z</time>
      </trkpt>
      <trkpt lat="46.08311" lon="6.36501">
        <ele>446.6</ele>
        <time>2021-03-27T12:29:23Z</time>
      </trkpt>
      <trkpt lat="46.08311" lon="6.36501">
        <ele>446.4</ele>
        <time>2021-03-27T12:29:22Z</time>
      </trkpt>
      <trkpt lat="46.08311" lon="6.36501">
        <ele>446.4</ele>
        <time>2021-03-27T12:29:21Z</time>
      </trkpt>
      <trkpt lat="46.08311" lon="6.36501">
        <ele>446.4</ele>
        <time>2021-03-27T12:29:20Z</time>
      </trkpt>
      <trkpt lat="46.08311" lon="6.36502">
        <ele>446.4</ele>
        <time>2021-03-27T12:29:19Z</time>
      </trkpt>
      <trkpt lat="46.08311" lon="6.36502">
        <ele>446.4</ele>
        <time>2021-03-27T12:29:18Z</time>
      </trkpt>
      <trkpt lat="46.08311" lon="6.36502">
        <ele>446.4</ele>
        <time>2021-03-27T12:29:17Z</time>
      </trkpt>
      <trkpt lat="46.08311" lon="6.36502">
        <ele>446.4</ele>
        <time>2021-03-27T12:29:16Z</time>
      </trkpt>
      <trkpt lat="46.08311" lon="6.36502">
        <ele>446.4</ele>
        <time>2021-03-27T12:29:15Z</time>
      </trkpt>
      <trkpt lat="46.08311" lon="6.36502">
        <ele>446.4</ele>
        <time>2021-03-27T12:29:14Z</time>
      </trkpt>
      <trkpt lat="46.0831" lon="6.36502">
        <ele>446.4</ele>
        <time>2021-03-27T12:29:13Z</time>
      </trkpt>
      <trkpt lat="46.0831" lon="6.36502">
        <ele>446.2</ele>
        <time>2021-03-27T12:29:12Z</time>
      </trkpt>
      <trkpt lat="46.0831" lon="6.36502">
        <ele>446.4</ele>
        <time>2021-03-27T12:29:11Z</time>
      </trkpt>
      <trkpt lat="46.0831" lon="6.36502">
        <ele>446.2</ele>
        <time>2021-03-27T12:29:10Z</time>
      </trkpt>
      <trkpt lat="46.0831" lon="6.36503">
        <ele>446.2</ele>
        <time>2021-03-27T12:29:09Z</time>
      </trkpt>
      <trkpt lat="46.0831" lon="6.36503">
        <ele>446.2</ele>
        <time>2021-03-27T12:29:08Z</time>
      </trkpt>
      <trkpt lat="46.0831" lon="6.36503">
        <ele>446.2</ele>
        <time>2021-03-27T12:29:07Z</time>
      </trkpt>
      <trkpt lat="46.0831" lon="6.36503">
        <ele>446.2</ele>
        <time>2021-03-27T12:29:06Z</time>
      </trkpt>
      <trkpt lat="46.0831" lon="6.36503">
        <ele>446.2</ele>
        <time>2021-03-27T12:29:05Z</time>
      </trkpt>
      <trkpt lat="46.0831" lon="6.36503">
        <ele>446.2</ele>
        <time>2021-03-27T12:29:04Z</time>
      </trkpt>
      <trkpt lat="46.0831" lon="6.36503">
        <ele>446.4</ele>
        <time>2021-03-27T12:29:03Z</time>
      </trkpt>
      <trkpt lat="46.0831" lon="6.36503">
        <ele>446.2</ele>
        <time>2021-03-27T12:29:02Z</time>
      </trkpt>
      <trkpt lat="46.0831" lon="6.36503">
        <ele>446.2</ele>
        <time>2021-03-27T12:29:01Z</time>
      </trkpt>
      <trkpt lat="46.0831" lon="6.36503">
        <ele>446.2</ele>
        <time>2021-03-27T12:29:00Z</time>
      </trkpt>
      <trkpt lat="46.0831" lon="6.36503">
        <ele>446.2</ele>
        <time>2021-03-27T12:28:59Z</time>
      </trkpt>
      <trkpt lat="46.0831" lon="6.36503">
        <ele>446</ele>
        <time>2021-03-27T12:28:58Z</time>
      </trkpt>
      <trkpt lat="46.0831" lon="6.36504">
        <ele>446</ele>
        <time>2021-03-27T12:28:57Z</time>
      </trkpt>
      <trkpt lat="46.0831" lon="6.36504">
        <ele>445.8</ele>
        <time>2021-03-27T12:28:56Z</time>
      </trkpt>
      <trkpt lat="46.0831" lon="6.36504">
        <ele>445.4</ele>
        <time>2021-03-27T12:28:55Z</time>
      </trkpt>
      <trkpt lat="46.0831" lon="6.36504">
        <ele>445.4</ele>
        <time>2021-03-27T12:28:54Z</time>
      </trkpt>
      <trkpt lat="46.0831" lon="6.36504">
        <ele>445</ele>
        <time>2021-03-27T12:28:53Z</time>
      </trkpt>
      <trkpt lat="46.08309" lon="6.36504">
        <ele>445</ele>
        <time>2021-03-27T12:28:52Z</time>
      </trkpt>
      <trkpt lat="46.08309" lon="6.36503">
        <ele>445</ele>
        <time>2021-03-27T12:28:51Z</time>
      </trkpt>
      <trkpt lat="46.0831" lon="6.365">
        <ele>445</ele>
        <time>2021-03-27T12:28:50Z</time>
      </trkpt>
      <trkpt lat="46.08311" lon="6.36496">
        <ele>445</ele>
        <time>2021-03-27T12:28:49Z</time>
      </trkpt>
      <trkpt lat="46.08313" lon="6.36492">
        <ele>444.8</ele>
        <time>2021-03-27T12:28:48Z</time>
      </trkpt>
      <trkpt lat="46.08316" lon="6.36489">
        <ele>444.8</ele>
        <time>2021-03-27T12:28:47Z</time>
      </trkpt>
      <trkpt lat="46.0832" lon="6.36485">
        <ele>444.6</ele>
        <time>2021-03-27T12:28:46Z</time>
      </trkpt>
      <trkpt lat="46.08324" lon="6.3648">
        <ele>444.6</ele>
        <time>2021-03-27T12:28:45Z</time>
      </trkpt>
      <trkpt lat="46.08328" lon="6.36472">
        <ele>444.6</ele>
        <time>2021-03-27T12:28:44Z</time>
      </trkpt>
      <trkpt lat="46.08332" lon="6.36464">
        <ele>444.6</ele>
        <time>2021-03-27T12:28:43Z</time>
      </trkpt>
      <trkpt lat="46.08336" lon="6.36456">
        <ele>444.4</ele>
        <time>2021-03-27T12:28:42Z</time>
      </trkpt>
      <trkpt lat="46.0834" lon="6.36448">
        <ele>444.4</ele>
        <time>2021-03-27T12:28:41Z</time>
      </trkpt>
      <trkpt lat="46.08344" lon="6.36439">
        <ele>444.4</ele>
        <time>2021-03-27T12:28:40Z</time>
      </trkpt>
      <trkpt lat="46.08349" lon="6.3643">
        <ele>444.4</ele>
        <time>2021-03-27T12:28:39Z</time>
      </trkpt>
      <trkpt lat="46.08353" lon="6.36421">
        <ele>444.4</ele>
        <time>2021-03-27T12:28:38Z</time>
      </trkpt>
      <trkpt lat="46.08358" lon="6.36411">
        <ele>444.4</ele>
        <time>2021-03-27T12:28:37Z</time>
      </trkpt>
      <trkpt lat="46.08363" lon="6.36401">
        <ele>444.4</ele>
        <time>2021-03-27T12:28:36Z</time>
      </trkpt>
      <trkpt lat="46.08367" lon="6.36392">
        <ele>444.4</ele>
        <time>2021-03-27T12:28:35Z</time>
      </trkpt>
      <trkpt lat="46.08372" lon="6.36382">
        <ele>444.6</ele>
        <time>2021-03-27T12:28:34Z</time>
      </trkpt>
      <trkpt lat="46.08377" lon="6.36372">
        <ele>444.4</ele>
        <time>2021-03-27T12:28:33Z</time>
      </trkpt>
      <trkpt lat="46.08381" lon="6.36362">
        <ele>444.4</ele>
        <time>2021-03-27T12:28:32Z</time>
      </trkpt>
      <trkpt lat="46.08386" lon="6.36352">
        <ele>444.4</ele>
        <time>2021-03-27T12:28:31Z</time>
      </trkpt>
      <trkpt lat="46.08391" lon="6.36343">
        <ele>444.2</ele>
        <time>2021-03-27T12:28:30Z</time>
      </trkpt>
      <trkpt lat="46.08396" lon="6.36333">
        <ele>444.2</ele>
        <time>2021-03-27T12:28:29Z</time>
      </trkpt>
      <trkpt lat="46.084" lon="6.36324">
        <ele>444.2</ele>
        <time>2021-03-27T12:28:28Z</time>
      </trkpt>
      <trkpt lat="46.08405" lon="6.36315">
        <ele>444</ele>
        <time>2021-03-27T12:28:27Z</time>
      </trkpt>
      <trkpt lat="46.08409" lon="6.36306">
        <ele>444.2</ele>
        <time>2021-03-27T12:28:26Z</time>
      </trkpt>
      <trkpt lat="46.08414" lon="6.36297">
        <ele>444.2</ele>
        <time>2021-03-27T12:28:25Z</time>
      </trkpt>
      <trkpt lat="46.08418" lon="6.36287">
        <ele>444.2</ele>
        <time>2021-03-27T12:28:24Z</time>
      </trkpt>
      <trkpt lat="46.08423" lon="6.36277">
        <ele>444</ele>
        <time>2021-03-27T12:28:23Z</time>
      </trkpt>
      <trkpt lat="46.08428" lon="6.36267">
        <ele>444</ele>
        <time>2021-03-27T12:28:22Z</time>
      </trkpt>
      <trkpt lat="46.08433" lon="6.36257">
        <ele>444</ele>
        <time>2021-03-27T12:28:21Z</time>
      </trkpt>
      <trkpt lat="46.08438" lon="6.36248">
        <ele>444</ele>
        <time>2021-03-27T12:28:20Z</time>
      </trkpt>
      <trkpt lat="46.08442" lon="6.36238">
        <ele>444</ele>
        <time>2021-03-27T12:28:19Z</time>
      </trkpt>
      <trkpt lat="46.08447" lon="6.36228">
        <ele>444</ele>
        <time>2021-03-27T12:28:18Z</time>
      </trkpt>
      <trkpt lat="46.08452" lon="6.36218">
        <ele>444</ele>
        <time>2021-03-27T12:28:17Z</time>
      </trkpt>
      <trkpt lat="46.08457" lon="6.36208">
        <ele>444</ele>
        <time>2021-03-27T12:28:16Z</time>
      </trkpt>
      <trkpt lat="46.08461" lon="6.36199">
        <ele>443.8</ele>
        <time>2021-03-27T12:28:15Z</time>
      </trkpt>
      <trkpt lat="46.08466" lon="6.36189">
        <ele>444</ele>
        <time>2021-03-27T12:28:14Z</time>
      </trkpt>
      <trkpt lat="46.08471" lon="6.36179">
        <ele>444</ele>
        <time>2021-03-27T12:28:13Z</time>
      </trkpt>
      <trkpt lat="46.08476" lon="6.3617">
        <ele>444.2</ele>
        <time>2021-03-27T12:28:12Z</time>
      </trkpt>
      <trkpt lat="46.0848" lon="6.3616">
        <ele>444.2</ele>
        <time>2021-03-27T12:28:11Z</time>
      </trkpt>
      <trkpt lat="46.08485" lon="6.3615">
        <ele>444.2</ele>
        <time>2021-03-27T12:28:10Z</time>
      </trkpt>
      <trkpt lat="46.0849" lon="6.3614">
        <ele>444.4</ele>
        <time>2021-03-27T12:28:09Z</time>
      </trkpt>
      <trkpt lat="46.08495" lon="6.3613">
        <ele>444.2</ele>
        <time>2021-03-27T12:28:08Z</time>
      </trkpt>
      <trkpt lat="46.085" lon="6.3612">
        <ele>444.4</ele>
        <time>2021-03-27T12:28:07Z</time>
      </trkpt>
      <trkpt lat="46.08505" lon="6.3611">
        <ele>444.6</ele>
        <time>2021-03-27T12:28:06Z</time>
      </trkpt>
      <trkpt lat="46.0851" lon="6.361">
        <ele>444.4</ele>
        <time>2021-03-27T12:28:05Z</time>
      </trkpt>
      <trkpt lat="46.08515" lon="6.3609">
        <ele>444.6</ele>
        <time>2021-03-27T12:28:04Z</time>
      </trkpt>
      <trkpt lat="46.0852" lon="6.3608">
        <ele>444.4</ele>
        <time>2021-03-27T12:28:03Z</time>
      </trkpt>
      <trkpt lat="46.08524" lon="6.36071">
        <ele>444.6</ele>
        <time>2021-03-27T12:28:02Z</time>
      </trkpt>
      <trkpt lat="46.08529" lon="6.36061">
        <ele>444.6</ele>
        <time>2021-03-27T12:28:01Z</time>
      </trkpt>
      <trkpt lat="46.08534" lon="6.36051">
        <ele>444.6</ele>
        <time>2021-03-27T12:28:00Z</time>
      </trkpt>
      <trkpt lat="46.08539" lon="6.36041">
        <ele>444.6</ele>
        <time>2021-03-27T12:27:59Z</time>
      </trkpt>
      <trkpt lat="46.08544" lon="6.36031">
        <ele>444.4</ele>
        <time>2021-03-27T12:27:58Z</time>
      </trkpt>
      <trkpt lat="46.08549" lon="6.36021">
        <ele>444.6</ele>
        <time>2021-03-27T12:27:57Z</time>
      </trkpt>
      <trkpt lat="46.08554" lon="6.36011">
        <ele>444.4</ele>
        <time>2021-03-27T12:27:56Z</time>
      </trkpt>
      <trkpt lat="46.08559" lon="6.36002">
        <ele>444.4</ele>
        <time>2021-03-27T12:27:55Z</time>
      </trkpt>
      <trkpt lat="46.08563" lon="6.35992">
        <ele>444.6</ele>
        <time>2021-03-27T12:27:54Z</time>
      </trkpt>
      <trkpt lat="46.08568" lon="6.35982">
        <ele>444.6</ele>
        <time>2021-03-27T12:27:53Z</time>
      </trkpt>
      <trkpt lat="46.08573" lon="6.35972">
        <ele>444.6</ele>
        <time>2021-03-27T12:27:52Z</time>
      </trkpt>
      <trkpt lat="46.08578" lon="6.35962">
        <ele>444.6</ele>
        <time>2021-03-27T12:27:51Z</time>
      </trkpt>
      <trkpt lat="46.08583" lon="6.35953">
        <ele>444.4</ele>
        <time>2021-03-27T12:27:50Z</time>
      </trkpt>
      <trkpt lat="46.08588" lon="6.35943">
        <ele>444.4</ele>
        <time>2021-03-27T12:27:49Z</time>
      </trkpt>
      <trkpt lat="46.08593" lon="6.35933">
        <ele>444.4</ele>
        <time>2021-03-27T12:27:48Z</time>
      </trkpt>
      <trkpt lat="46.08597" lon="6.35924">
        <ele>444.4</ele>
        <time>2021-03-27T12:27:47Z</time>
      </trkpt>
      <trkpt lat="46.08602" lon="6.35914">
        <ele>444.2</ele>
        <time>2021-03-27T12:27:46Z</time>
      </trkpt>
      <trkpt lat="46.08607" lon="6.35904">
        <ele>444.2</ele>
        <time>2021-03-27T12:27:45Z</time>
      </trkpt>
      <trkpt lat="46.08612" lon="6.35894">
        <ele>444.2</ele>
        <time>2021-03-27T12:27:44Z</time>
      </trkpt>
      <trkpt lat="46.08617" lon="6.35884">
        <ele>444.2</ele>
        <time>2021-03-27T12:27:43Z</time>
      </trkpt>
      <trkpt lat="46.08622" lon="6.35874">
        <ele>444.2</ele>
        <time>2021-03-27T12:27:42Z</time>
      </trkpt>
      <trkpt lat="46.08626" lon="6.35865">
        <ele>444.4</ele>
        <time>2021-03-27T12:27:41Z</time>
      </trkpt>
      <trkpt lat="46.08631" lon="6.35855">
        <ele>444.2</ele>
        <time>2021-03-27T12:27:40Z</time>
      </trkpt>
      <trkpt lat="46.08636" lon="6.35845">
        <ele>444.2</ele>
        <time>2021-03-27T12:27:39Z</time>
      </trkpt>
      <trkpt lat="46.0864" lon="6.35835">
        <ele>444.2</ele>
        <time>2021-03-27T12:27:38Z</time>
      </trkpt>
      <trkpt lat="46.08645" lon="6.35825">
        <ele>444.2</ele>
        <time>2021-03-27T12:27:37Z</time>
      </trkpt>
      <trkpt lat="46.08649" lon="6.35815">
        <ele>444.4</ele>
        <time>2021-03-27T12:27:36Z</time>
      </trkpt>
      <trkpt lat="46.08654" lon="6.35805">
        <ele>444.4</ele>
        <time>2021-03-27T12:27:35Z</time>
      </trkpt>
      <trkpt lat="46.08658" lon="6.35794">
        <ele>444.6</ele>
        <time>2021-03-27T12:27:34Z</time>
      </trkpt>
      <trkpt lat="46.08663" lon="6.35784">
        <ele>444.8</ele>
        <time>2021-03-27T12:27:33Z</time>
      </trkpt>
      <trkpt lat="46.08667" lon="6.35774">
        <ele>444.8</ele>
        <time>2021-03-27T12:27:32Z</time>
      </trkpt>
      <trkpt lat="46.08671" lon="6.35764">
        <ele>444.8</ele>
        <time>2021-03-27T12:27:31Z</time>
      </trkpt>
      <trkpt lat="46.08676" lon="6.35753">
        <ele>444.8</ele>
        <time>2021-03-27T12:27:30Z</time>
      </trkpt>
      <trkpt lat="46.08681" lon="6.35742">
        <ele>445</ele>
        <time>2021-03-27T12:27:29Z</time>
      </trkpt>
      <trkpt lat="46.08685" lon="6.35732">
        <ele>445.2</ele>
        <time>2021-03-27T12:27:28Z</time>
      </trkpt>
      <trkpt lat="46.0869" lon="6.35721">
        <ele>445.2</ele>
        <time>2021-03-27T12:27:27Z</time>
      </trkpt>
      <trkpt lat="46.08695" lon="6.3571">
        <ele>445.4</ele>
        <time>2021-03-27T12:27:26Z</time>
      </trkpt>
      <trkpt lat="46.08699" lon="6.35699">
        <ele>445.4</ele>
        <time>2021-03-27T12:27:25Z</time>
      </trkpt>
      <trkpt lat="46.08704" lon="6.35689">
        <ele>445.4</ele>
        <time>2021-03-27T12:27:24Z</time>
      </trkpt>
      <trkpt lat="46.08709" lon="6.35678">
        <ele>445.4</ele>
        <time>2021-03-27T12:27:23Z</time>
      </trkpt>
      <trkpt lat="46.08713" lon="6.35667">
        <ele>445.6</ele>
        <time>2021-03-27T12:27:22Z</time>
      </trkpt>
      <trkpt lat="46.08718" lon="6.35657">
        <ele>445.4</ele>
        <time>2021-03-27T12:27:21Z</time>
      </trkpt>
      <trkpt lat="46.08723" lon="6.35646">
        <ele>445.6</ele>
        <time>2021-03-27T12:27:20Z</time>
      </trkpt>
      <trkpt lat="46.08727" lon="6.35635">
        <ele>445.6</ele>
        <time>2021-03-27T12:27:19Z</time>
      </trkpt>
      <trkpt lat="46.08731" lon="6.35624">
        <ele>445.4</ele>
        <time>2021-03-27T12:27:18Z</time>
      </trkpt>
      <trkpt lat="46.08735" lon="6.35613">
        <ele>445.4</ele>
        <time>2021-03-27T12:27:17Z</time>
      </trkpt>
      <trkpt lat="46.08738" lon="6.35602">
        <ele>445.4</ele>
        <time>2021-03-27T12:27:16Z</time>
      </trkpt>
      <trkpt lat="46.08742" lon="6.35591">
        <ele>445.4</ele>
        <time>2021-03-27T12:27:15Z</time>
      </trkpt>
      <trkpt lat="46.08746" lon="6.3558">
        <ele>445.2</ele>
        <time>2021-03-27T12:27:14Z</time>
      </trkpt>
      <trkpt lat="46.08749" lon="6.35568">
        <ele>445.2</ele>
        <time>2021-03-27T12:27:13Z</time>
      </trkpt>
      <trkpt lat="46.08753" lon="6.35557">
        <ele>445.2</ele>
        <time>2021-03-27T12:27:12Z</time>
      </trkpt>
      <trkpt lat="46.08757" lon="6.35546">
        <ele>445.2</ele>
        <time>2021-03-27T12:27:11Z</time>
      </trkpt>
      <trkpt lat="46.08761" lon="6.35535">
        <ele>445.2</ele>
        <time>2021-03-27T12:27:10Z</time>
      </trkpt>
      <trkpt lat="46.08765" lon="6.35524">
        <ele>445</ele>
        <time>2021-03-27T12:27:09Z</time>
      </trkpt>
      <trkpt lat="46.08769" lon="6.35512">
        <ele>445.2</ele>
        <time>2021-03-27T12:27:08Z</time>
      </trkpt>
      <trkpt lat="46.08773" lon="6.355">
        <ele>445</ele>
        <time>2021-03-27T12:27:07Z</time>
      </trkpt>
      <trkpt lat="46.08777" lon="6.35489">
        <ele>444.8</ele>
        <time>2021-03-27T12:27:06Z</time>
      </trkpt>
      <trkpt lat="46.0878" lon="6.35477">
        <ele>445</ele>
        <time>2021-03-27T12:27:05Z</time>
      </trkpt>
      <trkpt lat="46.08784" lon="6.35466">
        <ele>445</ele>
        <time>2021-03-27T12:27:04Z</time>
      </trkpt>
      <trkpt lat="46.08789" lon="6.35457">
        <ele>445</ele>
        <time>2021-03-27T12:27:03Z</time>
      </trkpt>
      <trkpt lat="46.08795" lon="6.35448">
        <ele>445</ele>
        <time>2021-03-27T12:27:02Z</time>
      </trkpt>
      <trkpt lat="46.08801" lon="6.35439">
        <ele>445</ele>
        <time>2021-03-27T12:27:01Z</time>
      </trkpt>
      <trkpt lat="46.08807" lon="6.3543">
        <ele>444.8</ele>
        <time>2021-03-27T12:27:00Z</time>
      </trkpt>
      <trkpt lat="46.08812" lon="6.3542">
        <ele>445</ele>
        <time>2021-03-27T12:26:59Z</time>
      </trkpt>
      <trkpt lat="46.08817" lon="6.3541">
        <ele>445</ele>
        <time>2021-03-27T12:26:58Z</time>
      </trkpt>
      <trkpt lat="46.08823" lon="6.35401">
        <ele>444.8</ele>
        <time>2021-03-27T12:26:57Z</time>
      </trkpt>
      <trkpt lat="46.08829" lon="6.35392">
        <ele>444.8</ele>
        <time>2021-03-27T12:26:56Z</time>
      </trkpt>
      <trkpt lat="46.08834" lon="6.35382">
        <ele>445</ele>
        <time>2021-03-27T12:26:55Z</time>
      </trkpt>
      <trkpt lat="46.0884" lon="6.35373">
        <ele>444.8</ele>
        <time>2021-03-27T12:26:54Z</time>
      </trkpt>
      <trkpt lat="46.08845" lon="6.35364">
        <ele>445</ele>
        <time>2021-03-27T12:26:53Z</time>
      </trkpt>
      <trkpt lat="46.08851" lon="6.35355">
        <ele>444.8</ele>
        <time>2021-03-27T12:26:52Z</time>
      </trkpt>
      <trkpt lat="46.08857" lon="6.35345">
        <ele>445</ele>
        <time>2021-03-27T12:26:51Z</time>
      </trkpt>
      <trkpt lat="46.08862" lon="6.35336">
        <ele>445</ele>
        <time>2021-03-27T12:26:50Z</time>
      </trkpt>
      <trkpt lat="46.08868" lon="6.35327">
        <ele>445</ele>
        <time>2021-03-27T12:26:49Z</time>
      </trkpt>
      <trkpt lat="46.08873" lon="6.35318">
        <ele>444.8</ele>
        <time>2021-03-27T12:26:48Z</time>
      </trkpt>
      <trkpt lat="46.08879" lon="6.35309">
        <ele>445</ele>
        <time>2021-03-27T12:26:47Z</time>
      </trkpt>
      <trkpt lat="46.08884" lon="6.353">
        <ele>445.2</ele>
        <time>2021-03-27T12:26:46Z</time>
      </trkpt>
      <trkpt lat="46.08889" lon="6.35291">
        <ele>445.2</ele>
        <time>2021-03-27T12:26:45Z</time>
      </trkpt>
      <trkpt lat="46.08895" lon="6.35282">
        <ele>444.8</ele>
        <time>2021-03-27T12:26:44Z</time>
      </trkpt>
      <trkpt lat="46.089" lon="6.35273">
        <ele>445</ele>
        <time>2021-03-27T12:26:43Z</time>
      </trkpt>
      <trkpt lat="46.08905" lon="6.35264">
        <ele>445</ele>
        <time>2021-03-27T12:26:42Z</time>
      </trkpt>
      <trkpt lat="46.08911" lon="6.35255">
        <ele>444.8</ele>
        <time>2021-03-27T12:26:41Z</time>
      </trkpt>
      <trkpt lat="46.08916" lon="6.35246">
        <ele>444.8</ele>
        <time>2021-03-27T12:26:40Z</time>
      </trkpt>
      <trkpt lat="46.08921" lon="6.35237">
        <ele>445</ele>
        <time>2021-03-27T12:26:39Z</time>
      </trkpt>
      <trkpt lat="46.08927" lon="6.35228">
        <ele>445</ele>
        <time>2021-03-27T12:26:38Z</time>
      </trkpt>
      <trkpt lat="46.08932" lon="6.35219">
        <ele>445</ele>
        <time>2021-03-27T12:26:37Z</time>
      </trkpt>
      <trkpt lat="46.08937" lon="6.3521">
        <ele>444.8</ele>
        <time>2021-03-27T12:26:36Z</time>
      </trkpt>
      <trkpt lat="46.08942" lon="6.35202">
        <ele>444.8</ele>
        <time>2021-03-27T12:26:35Z</time>
      </trkpt>
      <trkpt lat="46.08948" lon="6.35193">
        <ele>444.8</ele>
        <time>2021-03-27T12:26:34Z</time>
      </trkpt>
      <trkpt lat="46.08953" lon="6.35185">
        <ele>444.8</ele>
        <time>2021-03-27T12:26:33Z</time>
      </trkpt>
      <trkpt lat="46.08958" lon="6.35176">
        <ele>444.8</ele>
        <time>2021-03-27T12:26:32Z</time>
      </trkpt>
      <trkpt lat="46.08963" lon="6.35168">
        <ele>444.6</ele>
        <time>2021-03-27T12:26:31Z</time>
      </trkpt>
      <trkpt lat="46.08968" lon="6.35159">
        <ele>444.6</ele>
        <time>2021-03-27T12:26:30Z</time>
      </trkpt>
      <trkpt lat="46.08973" lon="6.35151">
        <ele>444.6</ele>
        <time>2021-03-27T12:26:29Z</time>
      </trkpt>
      <trkpt lat="46.08979" lon="6.35143">
        <ele>444.6</ele>
        <time>2021-03-27T12:26:28Z</time>
      </trkpt>
      <trkpt lat="46.08984" lon="6.35134">
        <ele>444.6</ele>
        <time>2021-03-27T12:26:27Z</time>
      </trkpt>
      <trkpt lat="46.08989" lon="6.35126">
        <ele>444.4</ele>
        <time>2021-03-27T12:26:26Z</time>
      </trkpt>
      <trkpt lat="46.08994" lon="6.35117">
        <ele>444.4</ele>
        <time>2021-03-27T12:26:25Z</time>
      </trkpt>
      <trkpt lat="46.09" lon="6.35108">
        <ele>444.4</ele>
        <time>2021-03-27T12:26:24Z</time>
      </trkpt>
      <trkpt lat="46.09005" lon="6.35099">
        <ele>444.2</ele>
        <time>2021-03-27T12:26:23Z</time>
      </trkpt>
      <trkpt lat="46.0901" lon="6.35091">
        <ele>444</ele>
        <time>2021-03-27T12:26:22Z</time>
      </trkpt>
      <trkpt lat="46.09016" lon="6.35082">
        <ele>443.8</ele>
        <time>2021-03-27T12:26:21Z</time>
      </trkpt>
      <trkpt lat="46.09021" lon="6.35073">
        <ele>443.8</ele>
        <time>2021-03-27T12:26:20Z</time>
      </trkpt>
      <trkpt lat="46.09026" lon="6.35064">
        <ele>443.6</ele>
        <time>2021-03-27T12:26:19Z</time>
      </trkpt>
      <trkpt lat="46.09031" lon="6.35055">
        <ele>443.8</ele>
        <time>2021-03-27T12:26:18Z</time>
      </trkpt>
      <trkpt lat="46.09036" lon="6.35047">
        <ele>443.6</ele>
        <time>2021-03-27T12:26:17Z</time>
      </trkpt>
      <trkpt lat="46.09041" lon="6.35038">
        <ele>443.6</ele>
        <time>2021-03-27T12:26:16Z</time>
      </trkpt>
      <trkpt lat="46.09046" lon="6.35029">
        <ele>443.2</ele>
        <time>2021-03-27T12:26:15Z</time>
      </trkpt>
      <trkpt lat="46.09052" lon="6.35021">
        <ele>443.4</ele>
        <time>2021-03-27T12:26:14Z</time>
      </trkpt>
      <trkpt lat="46.09057" lon="6.35013">
        <ele>443.2</ele>
        <time>2021-03-27T12:26:13Z</time>
      </trkpt>
      <trkpt lat="46.09062" lon="6.35004">
        <ele>443.2</ele>
        <time>2021-03-27T12:26:12Z</time>
      </trkpt>
      <trkpt lat="46.09067" lon="6.34996">
        <ele>443.2</ele>
        <time>2021-03-27T12:26:11Z</time>
      </trkpt>
      <trkpt lat="46.09072" lon="6.34987">
        <ele>443.2</ele>
        <time>2021-03-27T12:26:10Z</time>
      </trkpt>
      <trkpt lat="46.09077" lon="6.34979">
        <ele>443.2</ele>
        <time>2021-03-27T12:26:09Z</time>
      </trkpt>
      <trkpt lat="46.09082" lon="6.3497">
        <ele>443.2</ele>
        <time>2021-03-27T12:26:08Z</time>
      </trkpt>
      <trkpt lat="46.09087" lon="6.34962">
        <ele>443.2</ele>
        <time>2021-03-27T12:26:07Z</time>
      </trkpt>
      <trkpt lat="46.09092" lon="6.34953">
        <ele>443.2</ele>
        <time>2021-03-27T12:26:06Z</time>
      </trkpt>
      <trkpt lat="46.09097" lon="6.34945">
        <ele>443.2</ele>
        <time>2021-03-27T12:26:05Z</time>
      </trkpt>
      <trkpt lat="46.09102" lon="6.34937">
        <ele>443.2</ele>
        <time>2021-03-27T12:26:04Z</time>
      </trkpt>
      <trkpt lat="46.09108" lon="6.34928">
        <ele>443.2</ele>
        <time>2021-03-27T12:26:03Z</time>
      </trkpt>
      <trkpt lat="46.09113" lon="6.34919">
        <ele>443.4</ele>
        <time>2021-03-27T12:26:02Z</time>
      </trkpt>
      <trkpt lat="46.09118" lon="6.34911">
        <ele>443.4</ele>
        <time>2021-03-27T12:26:01Z</time>
      </trkpt>
      <trkpt lat="46.09123" lon="6.34902">
        <ele>443.2</ele>
        <time>2021-03-27T12:26:00Z</time>
      </trkpt>
      <trkpt lat="46.09128" lon="6.34893">
        <ele>443.4</ele>
        <time>2021-03-27T12:25:59Z</time>
      </trkpt>
      <trkpt lat="46.09133" lon="6.34885">
        <ele>443.2</ele>
        <time>2021-03-27T12:25:58Z</time>
      </trkpt>
      <trkpt lat="46.09139" lon="6.34876">
        <ele>443.4</ele>
        <time>2021-03-27T12:25:57Z</time>
      </trkpt>
      <trkpt lat="46.09144" lon="6.34867">
        <ele>443.4</ele>
        <time>2021-03-27T12:25:56Z</time>
      </trkpt>
      <trkpt lat="46.09149" lon="6.34859">
        <ele>443.2</ele>
        <time>2021-03-27T12:25:55Z</time>
      </trkpt>
      <trkpt lat="46.09154" lon="6.3485">
        <ele>443.4</ele>
        <time>2021-03-27T12:25:54Z</time>
      </trkpt>
      <trkpt lat="46.09159" lon="6.34842">
        <ele>443.4</ele>
        <time>2021-03-27T12:25:53Z</time>
      </trkpt>
      <trkpt lat="46.09165" lon="6.34833">
        <ele>443.4</ele>
        <time>2021-03-27T12:25:52Z</time>
      </trkpt>
      <trkpt lat="46.0917" lon="6.34824">
        <ele>443.2</ele>
        <time>2021-03-27T12:25:51Z</time>
      </trkpt>
      <trkpt lat="46.09175" lon="6.34815">
        <ele>443.2</ele>
        <time>2021-03-27T12:25:50Z</time>
      </trkpt>
      <trkpt lat="46.0918" lon="6.34807">
        <ele>443.2</ele>
        <time>2021-03-27T12:25:49Z</time>
      </trkpt>
      <trkpt lat="46.09186" lon="6.34798">
        <ele>443.2</ele>
        <time>2021-03-27T12:25:48Z</time>
      </trkpt>
      <trkpt lat="46.09191" lon="6.34789">
        <ele>443.2</ele>
        <time>2021-03-27T12:25:47Z</time>
      </trkpt>
      <trkpt lat="46.09196" lon="6.34781">
        <ele>443.2</ele>
        <time>2021-03-27T12:25:46Z</time>
      </trkpt>
      <trkpt lat="46.09201" lon="6.34772">
        <ele>443</ele>
        <time>2021-03-27T12:25:45Z</time>
      </trkpt>
      <trkpt lat="46.09206" lon="6.34763">
        <ele>443</ele>
        <time>2021-03-27T12:25:44Z</time>
      </trkpt>
      <trkpt lat="46.09212" lon="6.34755">
        <ele>443.2</ele>
        <time>2021-03-27T12:25:43Z</time>
      </trkpt>
      <trkpt lat="46.09217" lon="6.34746">
        <ele>443</ele>
        <time>2021-03-27T12:25:42Z</time>
      </trkpt>
      <trkpt lat="46.09222" lon="6.34737">
        <ele>443</ele>
        <time>2021-03-27T12:25:41Z</time>
      </trkpt>
      <trkpt lat="46.09227" lon="6.34729">
        <ele>443</ele>
        <time>2021-03-27T12:25:40Z</time>
      </trkpt>
      <trkpt lat="46.09232" lon="6.3472">
        <ele>443</ele>
        <time>2021-03-27T12:25:39Z</time>
      </trkpt>
      <trkpt lat="46.09237" lon="6.34712">
        <ele>443</ele>
        <time>2021-03-27T12:25:38Z</time>
      </trkpt>
      <trkpt lat="46.09243" lon="6.34703">
        <ele>443</ele>
        <time>2021-03-27T12:25:37Z</time>
      </trkpt>
      <trkpt lat="46.09248" lon="6.34695">
        <ele>443</ele>
        <time>2021-03-27T12:25:36Z</time>
      </trkpt>
      <trkpt lat="46.09253" lon="6.34686">
        <ele>442.8</ele>
        <time>2021-03-27T12:25:35Z</time>
      </trkpt>
      <trkpt lat="46.09258" lon="6.34678">
        <ele>443</ele>
        <time>2021-03-27T12:25:34Z</time>
      </trkpt>
      <trkpt lat="46.09263" lon="6.34669">
        <ele>442.8</ele>
        <time>2021-03-27T12:25:33Z</time>
      </trkpt>
      <trkpt lat="46.09268" lon="6.34661">
        <ele>443</ele>
        <time>2021-03-27T12:25:32Z</time>
      </trkpt>
      <trkpt lat="46.09273" lon="6.34652">
        <ele>442.8</ele>
        <time>2021-03-27T12:25:31Z</time>
      </trkpt>
      <trkpt lat="46.09278" lon="6.34644">
        <ele>442.8</ele>
        <time>2021-03-27T12:25:30Z</time>
      </trkpt>
      <trkpt lat="46.09283" lon="6.34635">
        <ele>443</ele>
        <time>2021-03-27T12:25:29Z</time>
      </trkpt>
      <trkpt lat="46.09289" lon="6.34627">
        <ele>443</ele>
        <time>2021-03-27T12:25:28Z</time>
      </trkpt>
      <trkpt lat="46.09294" lon="6.34618">
        <ele>443</ele>
        <time>2021-03-27T12:25:27Z</time>
      </trkpt>
      <trkpt lat="46.09299" lon="6.3461">
        <ele>443</ele>
        <time>2021-03-27T12:25:26Z</time>
      </trkpt>
      <trkpt lat="46.09304" lon="6.34602">
        <ele>443</ele>
        <time>2021-03-27T12:25:25Z</time>
      </trkpt>
      <trkpt lat="46.09309" lon="6.34593">
        <ele>443</ele>
        <time>2021-03-27T12:25:24Z</time>
      </trkpt>
      <trkpt lat="46.09314" lon="6.34584">
        <ele>443</ele>
        <time>2021-03-27T12:25:23Z</time>
      </trkpt>
      <trkpt lat="46.09319" lon="6.34576">
        <ele>443</ele>
        <time>2021-03-27T12:25:22Z</time>
      </trkpt>
      <trkpt lat="46.09324" lon="6.34567">
        <ele>443.2</ele>
        <time>2021-03-27T12:25:21Z</time>
      </trkpt>
      <trkpt lat="46.0933" lon="6.34559">
        <ele>443</ele>
        <time>2021-03-27T12:25:20Z</time>
      </trkpt>
      <trkpt lat="46.09335" lon="6.3455">
        <ele>443</ele>
        <time>2021-03-27T12:25:19Z</time>
      </trkpt>
      <trkpt lat="46.0934" lon="6.34541">
        <ele>443</ele>
        <time>2021-03-27T12:25:18Z</time>
      </trkpt>
      <trkpt lat="46.09345" lon="6.34533">
        <ele>442.8</ele>
        <time>2021-03-27T12:25:17Z</time>
      </trkpt>
      <trkpt lat="46.0935" lon="6.34524">
        <ele>443</ele>
        <time>2021-03-27T12:25:16Z</time>
      </trkpt>
      <trkpt lat="46.09356" lon="6.34515">
        <ele>443</ele>
        <time>2021-03-27T12:25:15Z</time>
      </trkpt>
      <trkpt lat="46.09361" lon="6.34507">
        <ele>442.8</ele>
        <time>2021-03-27T12:25:14Z</time>
      </trkpt>
      <trkpt lat="46.09366" lon="6.34498">
        <ele>443</ele>
        <time>2021-03-27T12:25:13Z</time>
      </trkpt>
      <trkpt lat="46.09371" lon="6.3449">
        <ele>443</ele>
        <time>2021-03-27T12:25:12Z</time>
      </trkpt>
      <trkpt lat="46.09376" lon="6.34481">
        <ele>442.8</ele>
        <time>2021-03-27T12:25:11Z</time>
      </trkpt>
      <trkpt lat="46.09381" lon="6.34473">
        <ele>442.8</ele>
        <time>2021-03-27T12:25:10Z</time>
      </trkpt>
      <trkpt lat="46.09387" lon="6.34464">
        <ele>442.6</ele>
        <time>2021-03-27T12:25:09Z</time>
      </trkpt>
      <trkpt lat="46.09392" lon="6.34455">
        <ele>442.6</ele>
        <time>2021-03-27T12:25:08Z</time>
      </trkpt>
      <trkpt lat="46.09397" lon="6.34447">
        <ele>442.6</ele>
        <time>2021-03-27T12:25:07Z</time>
      </trkpt>
      <trkpt lat="46.09402" lon="6.34438">
        <ele>442.4</ele>
        <time>2021-03-27T12:25:06Z</time>
      </trkpt>
      <trkpt lat="46.09408" lon="6.34429">
        <ele>442.4</ele>
        <time>2021-03-27T12:25:05Z</time>
      </trkpt>
      <trkpt lat="46.09413" lon="6.34421">
        <ele>442.4</ele>
        <time>2021-03-27T12:25:04Z</time>
      </trkpt>
      <trkpt lat="46.09418" lon="6.34412">
        <ele>442.4</ele>
        <time>2021-03-27T12:25:03Z</time>
      </trkpt>
      <trkpt lat="46.09423" lon="6.34404">
        <ele>442.4</ele>
        <time>2021-03-27T12:25:02Z</time>
      </trkpt>
      <trkpt lat="46.09428" lon="6.34395">
        <ele>442.2</ele>
        <time>2021-03-27T12:25:01Z</time>
      </trkpt>
      <trkpt lat="46.09433" lon="6.34387">
        <ele>442</ele>
        <time>2021-03-27T12:25:00Z</time>
      </trkpt>
      <trkpt lat="46.09438" lon="6.34378">
        <ele>442</ele>
        <time>2021-03-27T12:24:59Z</time>
      </trkpt>
      <trkpt lat="46.09443" lon="6.3437">
        <ele>442</ele>
        <time>2021-03-27T12:24:58Z</time>
      </trkpt>
      <trkpt lat="46.09448" lon="6.34361">
        <ele>442</ele>
        <time>2021-03-27T12:24:57Z</time>
      </trkpt>
      <trkpt lat="46.09453" lon="6.34353">
        <ele>441.8</ele>
        <time>2021-03-27T12:24:56Z</time>
      </trkpt>
      <trkpt lat="46.09457" lon="6.34345">
        <ele>441.8</ele>
        <time>2021-03-27T12:24:55Z</time>
      </trkpt>
      <trkpt lat="46.09462" lon="6.34337">
        <ele>441.6</ele>
        <time>2021-03-27T12:24:54Z</time>
      </trkpt>
      <trkpt lat="46.09467" lon="6.34329">
        <ele>441.4</ele>
        <time>2021-03-27T12:24:53Z</time>
      </trkpt>
      <trkpt lat="46.09472" lon="6.34321">
        <ele>441.2</ele>
        <time>2021-03-27T12:24:52Z</time>
      </trkpt>
      <trkpt lat="46.09478" lon="6.34313">
        <ele>441.4</ele>
        <time>2021-03-27T12:24:51Z</time>
      </trkpt>
      <trkpt lat="46.09483" lon="6.34305">
        <ele>441.2</ele>
        <time>2021-03-27T12:24:50Z</time>
      </trkpt>
      <trkpt lat="46.09488" lon="6.34298">
        <ele>441.2</ele>
        <time>2021-03-27T12:24:49Z</time>
      </trkpt>
      <trkpt lat="46.09493" lon="6.3429">
        <ele>440.8</ele>
        <time>2021-03-27T12:24:48Z</time>
      </trkpt>
      <trkpt lat="46.09498" lon="6.34283">
        <ele>441</ele>
        <time>2021-03-27T12:24:47Z</time>
      </trkpt>
      <trkpt lat="46.09504" lon="6.34276">
        <ele>440.8</ele>
        <time>2021-03-27T12:24:46Z</time>
      </trkpt>
      <trkpt lat="46.09509" lon="6.34269">
        <ele>440.6</ele>
        <time>2021-03-27T12:24:45Z</time>
      </trkpt>
      <trkpt lat="46.09515" lon="6.34262">
        <ele>440.4</ele>
        <time>2021-03-27T12:24:44Z</time>
      </trkpt>
      <trkpt lat="46.09521" lon="6.34256">
        <ele>440.6</ele>
        <time>2021-03-27T12:24:43Z</time>
      </trkpt>
      <trkpt lat="46.09526" lon="6.34249">
        <ele>440.4</ele>
        <time>2021-03-27T12:24:42Z</time>
      </trkpt>
      <trkpt lat="46.09532" lon="6.34242">
        <ele>440.2</ele>
        <time>2021-03-27T12:24:41Z</time>
      </trkpt>
      <trkpt lat="46.09538" lon="6.34236">
        <ele>440</ele>
        <time>2021-03-27T12:24:40Z</time>
      </trkpt>
      <trkpt lat="46.09544" lon="6.34229">
        <ele>440</ele>
        <time>2021-03-27T12:24:39Z</time>
      </trkpt>
      <trkpt lat="46.0955" lon="6.34223">
        <ele>440</ele>
        <time>2021-03-27T12:24:38Z</time>
      </trkpt>
      <trkpt lat="46.09556" lon="6.34217">
        <ele>440</ele>
        <time>2021-03-27T12:24:37Z</time>
      </trkpt>
      <trkpt lat="46.09562" lon="6.34211">
        <ele>440</ele>
        <time>2021-03-27T12:24:36Z</time>
      </trkpt>
      <trkpt lat="46.09569" lon="6.34205">
        <ele>440</ele>
        <time>2021-03-27T12:24:35Z</time>
      </trkpt>
      <trkpt lat="46.09575" lon="6.34199">
        <ele>439.8</ele>
        <time>2021-03-27T12:24:34Z</time>
      </trkpt>
      <trkpt lat="46.09582" lon="6.34193">
        <ele>440</ele>
        <time>2021-03-27T12:24:33Z</time>
      </trkpt>
      <trkpt lat="46.09588" lon="6.34188">
        <ele>440</ele>
        <time>2021-03-27T12:24:32Z</time>
      </trkpt>
      <trkpt lat="46.09595" lon="6.34182">
        <ele>440</ele>
        <time>2021-03-27T12:24:31Z</time>
      </trkpt>
      <trkpt lat="46.09602" lon="6.34177">
        <ele>440</ele>
        <time>2021-03-27T12:24:30Z</time>
      </trkpt>
      <trkpt lat="46.09609" lon="6.34171">
        <ele>440.2</ele>
        <time>2021-03-27T12:24:29Z</time>
      </trkpt>
      <trkpt lat="46.09616" lon="6.34166">
        <ele>440.2</ele>
        <time>2021-03-27T12:24:28Z</time>
      </trkpt>
      <trkpt lat="46.09623" lon="6.3416">
        <ele>440.2</ele>
        <time>2021-03-27T12:24:27Z</time>
      </trkpt>
      <trkpt lat="46.0963" lon="6.34155">
        <ele>440.2</ele>
        <time>2021-03-27T12:24:26Z</time>
      </trkpt>
      <trkpt lat="46.09637" lon="6.34149">
        <ele>440.2</ele>
        <time>2021-03-27T12:24:25Z</time>
      </trkpt>
      <trkpt lat="46.09644" lon="6.34144">
        <ele>440.4</ele>
        <time>2021-03-27T12:24:24Z</time>
      </trkpt>
      <trkpt lat="46.09651" lon="6.34139">
        <ele>440.2</ele>
        <time>2021-03-27T12:24:23Z</time>
      </trkpt>
      <trkpt lat="46.09658" lon="6.34133">
        <ele>440.2</ele>
        <time>2021-03-27T12:24:22Z</time>
      </trkpt>
      <trkpt lat="46.09665" lon="6.34127">
        <ele>440.2</ele>
        <time>2021-03-27T12:24:21Z</time>
      </trkpt>
      <trkpt lat="46.09672" lon="6.34122">
        <ele>440.2</ele>
        <time>2021-03-27T12:24:20Z</time>
      </trkpt>
      <trkpt lat="46.09679" lon="6.34116">
        <ele>440.4</ele>
        <time>2021-03-27T12:24:19Z</time>
      </trkpt>
      <trkpt lat="46.09686" lon="6.34111">
        <ele>440.2</ele>
        <time>2021-03-27T12:24:18Z</time>
      </trkpt>
      <trkpt lat="46.09693" lon="6.34106">
        <ele>440</ele>
        <time>2021-03-27T12:24:17Z</time>
      </trkpt>
      <trkpt lat="46.097" lon="6.34101">
        <ele>440</ele>
        <time>2021-03-27T12:24:16Z</time>
      </trkpt>
      <trkpt lat="46.09707" lon="6.34096">
        <ele>440</ele>
        <time>2021-03-27T12:24:15Z</time>
      </trkpt>
      <trkpt lat="46.09714" lon="6.3409">
        <ele>439.8</ele>
        <time>2021-03-27T12:24:14Z</time>
      </trkpt>
      <trkpt lat="46.09721" lon="6.34085">
        <ele>439.8</ele>
        <time>2021-03-27T12:24:13Z</time>
      </trkpt>
      <trkpt lat="46.09728" lon="6.3408">
        <ele>439.6</ele>
        <time>2021-03-27T12:24:12Z</time>
      </trkpt>
      <trkpt lat="46.09735" lon="6.34075">
        <ele>439.6</ele>
        <time>2021-03-27T12:24:11Z</time>
      </trkpt>
      <trkpt lat="46.09742" lon="6.3407">
        <ele>439.6</ele>
        <time>2021-03-27T12:24:10Z</time>
      </trkpt>
      <trkpt lat="46.09749" lon="6.34065">
        <ele>439.4</ele>
        <time>2021-03-27T12:24:09Z</time>
      </trkpt>
      <trkpt lat="46.09755" lon="6.3406">
        <ele>439.6</ele>
        <time>2021-03-27T12:24:08Z</time>
      </trkpt>
      <trkpt lat="46.09762" lon="6.34055">
        <ele>439.4</ele>
        <time>2021-03-27T12:24:07Z</time>
      </trkpt>
      <trkpt lat="46.09769" lon="6.3405">
        <ele>439.4</ele>
        <time>2021-03-27T12:24:06Z</time>
      </trkpt>
      <trkpt lat="46.09775" lon="6.34045">
        <ele>439.4</ele>
        <time>2021-03-27T12:24:05Z</time>
      </trkpt>
      <trkpt lat="46.09782" lon="6.3404">
        <ele>439.4</ele>
        <time>2021-03-27T12:24:04Z</time>
      </trkpt>
      <trkpt lat="46.09789" lon="6.34035">
        <ele>439.4</ele>
        <time>2021-03-27T12:24:03Z</time>
      </trkpt>
      <trkpt lat="46.09796" lon="6.34029">
        <ele>439.4</ele>
        <time>2021-03-27T12:24:02Z</time>
      </trkpt>
      <trkpt lat="46.09802" lon="6.34024">
        <ele>439.6</ele>
        <time>2021-03-27T12:24:01Z</time>
      </trkpt>
      <trkpt lat="46.09809" lon="6.34019">
        <ele>439.8</ele>
        <time>2021-03-27T12:24:00Z</time>
      </trkpt>
      <trkpt lat="46.09816" lon="6.34014">
        <ele>439.8</ele>
        <time>2021-03-27T12:23:59Z</time>
      </trkpt>
      <trkpt lat="46.09823" lon="6.34009">
        <ele>440</ele>
        <time>2021-03-27T12:23:58Z</time>
      </trkpt>
      <trkpt lat="46.0983" lon="6.34003">
        <ele>440</ele>
        <time>2021-03-27T12:23:57Z</time>
      </trkpt>
      <trkpt lat="46.09837" lon="6.33998">
        <ele>440.2</ele>
        <time>2021-03-27T12:23:56Z</time>
      </trkpt>
      <trkpt lat="46.09845" lon="6.33993">
        <ele>440.4</ele>
        <time>2021-03-27T12:23:55Z</time>
      </trkpt>
      <trkpt lat="46.09852" lon="6.33988">
        <ele>440.8</ele>
        <time>2021-03-27T12:23:54Z</time>
      </trkpt>
      <trkpt lat="46.09859" lon="6.33982">
        <ele>440.8</ele>
        <time>2021-03-27T12:23:53Z</time>
      </trkpt>
      <trkpt lat="46.09866" lon="6.33977">
        <ele>441</ele>
        <time>2021-03-27T12:23:52Z</time>
      </trkpt>
      <trkpt lat="46.09873" lon="6.33971">
        <ele>441</ele>
        <time>2021-03-27T12:23:51Z</time>
      </trkpt>
      <trkpt lat="46.0988" lon="6.33966">
        <ele>441</ele>
        <time>2021-03-27T12:23:50Z</time>
      </trkpt>
      <trkpt lat="46.09887" lon="6.33961">
        <ele>441.2</ele>
        <time>2021-03-27T12:23:49Z</time>
      </trkpt>
      <trkpt lat="46.09894" lon="6.33955">
        <ele>441.2</ele>
        <time>2021-03-27T12:23:48Z</time>
      </trkpt>
      <trkpt lat="46.09901" lon="6.3395">
        <ele>441.2</ele>
        <time>2021-03-27T12:23:47Z</time>
      </trkpt>
      <trkpt lat="46.09908" lon="6.33944">
        <ele>441</ele>
        <time>2021-03-27T12:23:46Z</time>
      </trkpt>
      <trkpt lat="46.09915" lon="6.33939">
        <ele>441.2</ele>
        <time>2021-03-27T12:23:45Z</time>
      </trkpt>
      <trkpt lat="46.09922" lon="6.33934">
        <ele>441</ele>
        <time>2021-03-27T12:23:44Z</time>
      </trkpt>
      <trkpt lat="46.09929" lon="6.33929">
        <ele>441.2</ele>
        <time>2021-03-27T12:23:43Z</time>
      </trkpt>
      <trkpt lat="46.09936" lon="6.33924">
        <ele>441</ele>
        <time>2021-03-27T12:23:42Z</time>
      </trkpt>
      <trkpt lat="46.09943" lon="6.33918">
        <ele>441.2</ele>
        <time>2021-03-27T12:23:41Z</time>
      </trkpt>
      <trkpt lat="46.0995" lon="6.33913">
        <ele>441</ele>
        <time>2021-03-27T12:23:40Z</time>
      </trkpt>
      <trkpt lat="46.09956" lon="6.33908">
        <ele>441.2</ele>
        <time>2021-03-27T12:23:39Z</time>
      </trkpt>
      <trkpt lat="46.09963" lon="6.33903">
        <ele>441.2</ele>
        <time>2021-03-27T12:23:38Z</time>
      </trkpt>
      <trkpt lat="46.0997" lon="6.33898">
        <ele>441.2</ele>
        <time>2021-03-27T12:23:37Z</time>
      </trkpt>
      <trkpt lat="46.09977" lon="6.33893">
        <ele>441.2</ele>
        <time>2021-03-27T12:23:36Z</time>
      </trkpt>
      <trkpt lat="46.09983" lon="6.33888">
        <ele>441.4</ele>
        <time>2021-03-27T12:23:35Z</time>
      </trkpt>
      <trkpt lat="46.0999" lon="6.33883">
        <ele>441.4</ele>
        <time>2021-03-27T12:23:34Z</time>
      </trkpt>
      <trkpt lat="46.09997" lon="6.33878">
        <ele>441.2</ele>
        <time>2021-03-27T12:23:33Z</time>
      </trkpt>
      <trkpt lat="46.10003" lon="6.33873">
        <ele>441.4</ele>
        <time>2021-03-27T12:23:32Z</time>
      </trkpt>
      <trkpt lat="46.1001" lon="6.33869">
        <ele>441.4</ele>
        <time>2021-03-27T12:23:31Z</time>
      </trkpt>
      <trkpt lat="46.10016" lon="6.33864">
        <ele>441.6</ele>
        <time>2021-03-27T12:23:30Z</time>
      </trkpt>
      <trkpt lat="46.10023" lon="6.33859">
        <ele>441.4</ele>
        <time>2021-03-27T12:23:29Z</time>
      </trkpt>
      <trkpt lat="46.10029" lon="6.33855">
        <ele>441.4</ele>
        <time>2021-03-27T12:23:28Z</time>
      </trkpt>
      <trkpt lat="46.10036" lon="6.3385">
        <ele>441.4</ele>
        <time>2021-03-27T12:23:27Z</time>
      </trkpt>
      <trkpt lat="46.10043" lon="6.33846">
        <ele>441.4</ele>
        <time>2021-03-27T12:23:26Z</time>
      </trkpt>
      <trkpt lat="46.1005" lon="6.33841">
        <ele>441.2</ele>
        <time>2021-03-27T12:23:25Z</time>
      </trkpt>
      <trkpt lat="46.10057" lon="6.33837">
        <ele>441.2</ele>
        <time>2021-03-27T12:23:24Z</time>
      </trkpt>
      <trkpt lat="46.10064" lon="6.33833">
        <ele>441</ele>
        <time>2021-03-27T12:23:23Z</time>
      </trkpt>
      <trkpt lat="46.10071" lon="6.33829">
        <ele>440.8</ele>
        <time>2021-03-27T12:23:22Z</time>
      </trkpt>
      <trkpt lat="46.10078" lon="6.33824">
        <ele>440.4</ele>
        <time>2021-03-27T12:23:21Z</time>
      </trkpt>
      <trkpt lat="46.10085" lon="6.3382">
        <ele>440.4</ele>
        <time>2021-03-27T12:23:20Z</time>
      </trkpt>
      <trkpt lat="46.10092" lon="6.33816">
        <ele>440.2</ele>
        <time>2021-03-27T12:23:19Z</time>
      </trkpt>
      <trkpt lat="46.101" lon="6.33812">
        <ele>440.2</ele>
        <time>2021-03-27T12:23:18Z</time>
      </trkpt>
      <trkpt lat="46.10107" lon="6.33808">
        <ele>440.2</ele>
        <time>2021-03-27T12:23:17Z</time>
      </trkpt>
      <trkpt lat="46.10114" lon="6.33804">
        <ele>440.2</ele>
        <time>2021-03-27T12:23:16Z</time>
      </trkpt>
      <trkpt lat="46.10122" lon="6.338">
        <ele>440.2</ele>
        <time>2021-03-27T12:23:15Z</time>
      </trkpt>
      <trkpt lat="46.10129" lon="6.33795">
        <ele>440</ele>
        <time>2021-03-27T12:23:14Z</time>
      </trkpt>
      <trkpt lat="46.10136" lon="6.33791">
        <ele>440</ele>
        <time>2021-03-27T12:23:13Z</time>
      </trkpt>
      <trkpt lat="46.10144" lon="6.33787">
        <ele>440.2</ele>
        <time>2021-03-27T12:23:12Z</time>
      </trkpt>
      <trkpt lat="46.10151" lon="6.33783">
        <ele>440.2</ele>
        <time>2021-03-27T12:23:11Z</time>
      </trkpt>
      <trkpt lat="46.10158" lon="6.33779">
        <ele>440.2</ele>
        <time>2021-03-27T12:23:10Z</time>
      </trkpt>
      <trkpt lat="46.10165" lon="6.33775">
        <ele>440</ele>
        <time>2021-03-27T12:23:09Z</time>
      </trkpt>
      <trkpt lat="46.10172" lon="6.33771">
        <ele>440.2</ele>
        <time>2021-03-27T12:23:08Z</time>
      </trkpt>
      <trkpt lat="46.1018" lon="6.33767">
        <ele>440.2</ele>
        <time>2021-03-27T12:23:07Z</time>
      </trkpt>
      <trkpt lat="46.10187" lon="6.33763">
        <ele>440.2</ele>
        <time>2021-03-27T12:23:06Z</time>
      </trkpt>
      <trkpt lat="46.10195" lon="6.33759">
        <ele>440.2</ele>
        <time>2021-03-27T12:23:05Z</time>
      </trkpt>
      <trkpt lat="46.10202" lon="6.33754">
        <ele>440.4</ele>
        <time>2021-03-27T12:23:04Z</time>
      </trkpt>
      <trkpt lat="46.1021" lon="6.3375">
        <ele>440.6</ele>
        <time>2021-03-27T12:23:03Z</time>
      </trkpt>
      <trkpt lat="46.10218" lon="6.33746">
        <ele>441</ele>
        <time>2021-03-27T12:23:02Z</time>
      </trkpt>
      <trkpt lat="46.10225" lon="6.33741">
        <ele>441.2</ele>
        <time>2021-03-27T12:23:01Z</time>
      </trkpt>
      <trkpt lat="46.10233" lon="6.33737">
        <ele>441.2</ele>
        <time>2021-03-27T12:23:00Z</time>
      </trkpt>
      <trkpt lat="46.10241" lon="6.33732">
        <ele>441.4</ele>
        <time>2021-03-27T12:22:59Z</time>
      </trkpt>
      <trkpt lat="46.1025" lon="6.33727">
        <ele>441.4</ele>
        <time>2021-03-27T12:22:58Z</time>
      </trkpt>
      <trkpt lat="46.10258" lon="6.33722">
        <ele>441.2</ele>
        <time>2021-03-27T12:22:57Z</time>
      </trkpt>
      <trkpt lat="46.10266" lon="6.33716">
        <ele>441.2</ele>
        <time>2021-03-27T12:22:56Z</time>
      </trkpt>
      <trkpt lat="46.10273" lon="6.3371">
        <ele>441.4</ele>
        <time>2021-03-27T12:22:55Z</time>
      </trkpt>
      <trkpt lat="46.10281" lon="6.33704">
        <ele>441.2</ele>
        <time>2021-03-27T12:22:54Z</time>
      </trkpt>
      <trkpt lat="46.10289" lon="6.33698">
        <ele>441.4</ele>
        <time>2021-03-27T12:22:53Z</time>
      </trkpt>
      <trkpt lat="46.10296" lon="6.33691">
        <ele>441.4</ele>
        <time>2021-03-27T12:22:52Z</time>
      </trkpt>
      <trkpt lat="46.10304" lon="6.33683">
        <ele>441.4</ele>
        <time>2021-03-27T12:22:51Z</time>
      </trkpt>
      <trkpt lat="46.10311" lon="6.33676">
        <ele>441.4</ele>
        <time>2021-03-27T12:22:50Z</time>
      </trkpt>
      <trkpt lat="46.10317" lon="6.33668">
        <ele>441.2</ele>
        <time>2021-03-27T12:22:49Z</time>
      </trkpt>
      <trkpt lat="46.10324" lon="6.3366">
        <ele>441.4</ele>
        <time>2021-03-27T12:22:48Z</time>
      </trkpt>
      <trkpt lat="46.1033" lon="6.33652">
        <ele>441.2</ele>
        <time>2021-03-27T12:22:47Z</time>
      </trkpt>
      <trkpt lat="46.10336" lon="6.33644">
        <ele>441.4</ele>
        <time>2021-03-27T12:22:46Z</time>
      </trkpt>
      <trkpt lat="46.10343" lon="6.33636">
        <ele>441.2</ele>
        <time>2021-03-27T12:22:45Z</time>
      </trkpt>
      <trkpt lat="46.10349" lon="6.33628">
        <ele>441.4</ele>
        <time>2021-03-27T12:22:44Z</time>
      </trkpt>
      <trkpt lat="46.10355" lon="6.3362">
        <ele>441.4</ele>
        <time>2021-03-27T12:22:43Z</time>
      </trkpt>
      <trkpt lat="46.10362" lon="6.33613">
        <ele>441.4</ele>
        <time>2021-03-27T12:22:42Z</time>
      </trkpt>
      <trkpt lat="46.10368" lon="6.33605">
        <ele>441.4</ele>
        <time>2021-03-27T12:22:41Z</time>
      </trkpt>
      <trkpt lat="46.10374" lon="6.33597">
        <ele>441.4</ele>
        <time>2021-03-27T12:22:40Z</time>
      </trkpt>
      <trkpt lat="46.1038" lon="6.3359">
        <ele>441.6</ele>
        <time>2021-03-27T12:22:39Z</time>
      </trkpt>
      <trkpt lat="46.10386" lon="6.33582">
        <ele>441.6</ele>
        <time>2021-03-27T12:22:38Z</time>
      </trkpt>
      <trkpt lat="46.10392" lon="6.33574">
        <ele>441.8</ele>
        <time>2021-03-27T12:22:37Z</time>
      </trkpt>
      <trkpt lat="46.10398" lon="6.33565">
        <ele>441.8</ele>
        <time>2021-03-27T12:22:36Z</time>
      </trkpt>
      <trkpt lat="46.10404" lon="6.33556">
        <ele>441.8</ele>
        <time>2021-03-27T12:22:35Z</time>
      </trkpt>
      <trkpt lat="46.1041" lon="6.33548">
        <ele>441.8</ele>
        <time>2021-03-27T12:22:34Z</time>
      </trkpt>
      <trkpt lat="46.10416" lon="6.33539">
        <ele>441.8</ele>
        <time>2021-03-27T12:22:33Z</time>
      </trkpt>
      <trkpt lat="46.10423" lon="6.3353">
        <ele>441.8</ele>
        <time>2021-03-27T12:22:32Z</time>
      </trkpt>
      <trkpt lat="46.10429" lon="6.33522">
        <ele>442</ele>
        <time>2021-03-27T12:22:31Z</time>
      </trkpt>
      <trkpt lat="46.10436" lon="6.33514">
        <ele>442.2</ele>
        <time>2021-03-27T12:22:30Z</time>
      </trkpt>
      <trkpt lat="46.10442" lon="6.33506">
        <ele>442.4</ele>
        <time>2021-03-27T12:22:29Z</time>
      </trkpt>
      <trkpt lat="46.10449" lon="6.33498">
        <ele>442.4</ele>
        <time>2021-03-27T12:22:28Z</time>
      </trkpt>
      <trkpt lat="46.10455" lon="6.3349">
        <ele>442.4</ele>
        <time>2021-03-27T12:22:27Z</time>
      </trkpt>
      <trkpt lat="46.10462" lon="6.33482">
        <ele>442.6</ele>
        <time>2021-03-27T12:22:26Z</time>
      </trkpt>
      <trkpt lat="46.10468" lon="6.33474">
        <ele>442.6</ele>
        <time>2021-03-27T12:22:25Z</time>
      </trkpt>
      <trkpt lat="46.10475" lon="6.33465">
        <ele>443</ele>
        <time>2021-03-27T12:22:24Z</time>
      </trkpt>
      <trkpt lat="46.10481" lon="6.33457">
        <ele>443.4</ele>
        <time>2021-03-27T12:22:23Z</time>
      </trkpt>
      <trkpt lat="46.10487" lon="6.33448">
        <ele>443.4</ele>
        <time>2021-03-27T12:22:22Z</time>
      </trkpt>
      <trkpt lat="46.10493" lon="6.33439">
        <ele>443.6</ele>
        <time>2021-03-27T12:22:21Z</time>
      </trkpt>
      <trkpt lat="46.105" lon="6.3343">
        <ele>443.8</ele>
        <time>2021-03-27T12:22:20Z</time>
      </trkpt>
      <trkpt lat="46.10507" lon="6.33422">
        <ele>444.2</ele>
        <time>2021-03-27T12:22:19Z</time>
      </trkpt>
      <trkpt lat="46.10514" lon="6.33415">
        <ele>445</ele>
        <time>2021-03-27T12:22:18Z</time>
      </trkpt>
      <trkpt lat="46.10522" lon="6.33409">
        <ele>445.4</ele>
        <time>2021-03-27T12:22:17Z</time>
      </trkpt>
      <trkpt lat="46.1053" lon="6.33402">
        <ele>445.6</ele>
        <time>2021-03-27T12:22:16Z</time>
      </trkpt>
      <trkpt lat="46.10537" lon="6.33395">
        <ele>445.4</ele>
        <time>2021-03-27T12:22:15Z</time>
      </trkpt>
      <trkpt lat="46.10544" lon="6.33387">
        <ele>445.6</ele>
        <time>2021-03-27T12:22:14Z</time>
      </trkpt>
      <trkpt lat="46.10551" lon="6.33378">
        <ele>445.6</ele>
        <time>2021-03-27T12:22:13Z</time>
      </trkpt>
      <trkpt lat="46.10558" lon="6.3337">
        <ele>445.4</ele>
        <time>2021-03-27T12:22:12Z</time>
      </trkpt>
      <trkpt lat="46.10564" lon="6.33361">
        <ele>445.6</ele>
        <time>2021-03-27T12:22:11Z</time>
      </trkpt>
      <trkpt lat="46.10571" lon="6.33353">
        <ele>445.6</ele>
        <time>2021-03-27T12:22:10Z</time>
      </trkpt>
      <trkpt lat="46.10577" lon="6.33344">
        <ele>445.6</ele>
        <time>2021-03-27T12:22:09Z</time>
      </trkpt>
      <trkpt lat="46.10584" lon="6.33335">
        <ele>445.6</ele>
        <time>2021-03-27T12:22:08Z</time>
      </trkpt>
      <trkpt lat="46.1059" lon="6.33325">
        <ele>445.2</ele>
        <time>2021-03-27T12:22:07Z</time>
      </trkpt>
      <trkpt lat="46.10596" lon="6.33316">
        <ele>445.2</ele>
        <time>2021-03-27T12:22:06Z</time>
      </trkpt>
      <trkpt lat="46.10602" lon="6.33307">
        <ele>444.8</ele>
        <time>2021-03-27T12:22:05Z</time>
      </trkpt>
      <trkpt lat="46.10608" lon="6.33298">
        <ele>444.6</ele>
        <time>2021-03-27T12:22:04Z</time>
      </trkpt>
      <trkpt lat="46.10613" lon="6.3329">
        <ele>444.4</ele>
        <time>2021-03-27T12:22:03Z</time>
      </trkpt>
      <trkpt lat="46.10619" lon="6.33282">
        <ele>444.2</ele>
        <time>2021-03-27T12:22:02Z</time>
      </trkpt>
      <trkpt lat="46.10624" lon="6.33273">
        <ele>444.2</ele>
        <time>2021-03-27T12:22:01Z</time>
      </trkpt>
      <trkpt lat="46.10629" lon="6.33265">
        <ele>443.8</ele>
        <time>2021-03-27T12:22:00Z</time>
      </trkpt>
      <trkpt lat="46.10633" lon="6.33256">
        <ele>443.6</ele>
        <time>2021-03-27T12:21:59Z</time>
      </trkpt>
      <trkpt lat="46.10638" lon="6.33247">
        <ele>443.8</ele>
        <time>2021-03-27T12:21:58Z</time>
      </trkpt>
      <trkpt lat="46.10642" lon="6.33237">
        <ele>443.8</ele>
        <time>2021-03-27T12:21:57Z</time>
      </trkpt>
      <trkpt lat="46.10646" lon="6.33228">
        <ele>443.8</ele>
        <time>2021-03-27T12:21:56Z</time>
      </trkpt>
      <trkpt lat="46.10651" lon="6.33219">
        <ele>443.8</ele>
        <time>2021-03-27T12:21:55Z</time>
      </trkpt>
      <trkpt lat="46.10655" lon="6.3321">
        <ele>443.8</ele>
        <time>2021-03-27T12:21:54Z</time>
      </trkpt>
      <trkpt lat="46.10658" lon="6.332">
        <ele>443.6</ele>
        <time>2021-03-27T12:21:53Z</time>
      </trkpt>
      <trkpt lat="46.10662" lon="6.3319">
        <ele>443.8</ele>
        <time>2021-03-27T12:21:52Z</time>
      </trkpt>
      <trkpt lat="46.10665" lon="6.3318">
        <ele>443.8</ele>
        <time>2021-03-27T12:21:51Z</time>
      </trkpt>
      <trkpt lat="46.10668" lon="6.3317">
        <ele>443.8</ele>
        <time>2021-03-27T12:21:50Z</time>
      </trkpt>
      <trkpt lat="46.10672" lon="6.3316">
        <ele>443.8</ele>
        <time>2021-03-27T12:21:49Z</time>
      </trkpt>
      <trkpt lat="46.10675" lon="6.33149">
        <ele>443.8</ele>
        <time>2021-03-27T12:21:48Z</time>
      </trkpt>
      <trkpt lat="46.10679" lon="6.33139">
        <ele>444</ele>
        <time>2021-03-27T12:21:47Z</time>
      </trkpt>
      <trkpt lat="46.10682" lon="6.33129">
        <ele>444</ele>
        <time>2021-03-27T12:21:46Z</time>
      </trkpt>
      <trkpt lat="46.10687" lon="6.33118">
        <ele>444</ele>
        <time>2021-03-27T12:21:45Z</time>
      </trkpt>
      <trkpt lat="46.10691" lon="6.33108">
        <ele>444</ele>
        <time>2021-03-27T12:21:44Z</time>
      </trkpt>
      <trkpt lat="46.10695" lon="6.33098">
        <ele>444.2</ele>
        <time>2021-03-27T12:21:43Z</time>
      </trkpt>
      <trkpt lat="46.107" lon="6.33088">
        <ele>444.2</ele>
        <time>2021-03-27T12:21:42Z</time>
      </trkpt>
      <trkpt lat="46.10704" lon="6.33078">
        <ele>444.2</ele>
        <time>2021-03-27T12:21:41Z</time>
      </trkpt>
      <trkpt lat="46.10709" lon="6.33068">
        <ele>444.4</ele>
        <time>2021-03-27T12:21:40Z</time>
      </trkpt>
      <trkpt lat="46.10714" lon="6.33058">
        <ele>444.4</ele>
        <time>2021-03-27T12:21:39Z</time>
      </trkpt>
      <trkpt lat="46.10719" lon="6.33048">
        <ele>444.6</ele>
        <time>2021-03-27T12:21:38Z</time>
      </trkpt>
      <trkpt lat="46.10724" lon="6.33039">
        <ele>444.6</ele>
        <time>2021-03-27T12:21:37Z</time>
      </trkpt>
      <trkpt lat="46.10729" lon="6.3303">
        <ele>444.6</ele>
        <time>2021-03-27T12:21:36Z</time>
      </trkpt>
      <trkpt lat="46.10735" lon="6.33021">
        <ele>444.8</ele>
        <time>2021-03-27T12:21:35Z</time>
      </trkpt>
      <trkpt lat="46.10741" lon="6.33013">
        <ele>444.8</ele>
        <time>2021-03-27T12:21:34Z</time>
      </trkpt>
      <trkpt lat="46.10747" lon="6.33005">
        <ele>445</ele>
        <time>2021-03-27T12:21:33Z</time>
      </trkpt>
      <trkpt lat="46.10753" lon="6.32997">
        <ele>444.8</ele>
        <time>2021-03-27T12:21:32Z</time>
      </trkpt>
      <trkpt lat="46.1076" lon="6.32989">
        <ele>445</ele>
        <time>2021-03-27T12:21:31Z</time>
      </trkpt>
      <trkpt lat="46.10766" lon="6.32982">
        <ele>445</ele>
        <time>2021-03-27T12:21:30Z</time>
      </trkpt>
      <trkpt lat="46.10773" lon="6.32975">
        <ele>445</ele>
        <time>2021-03-27T12:21:29Z</time>
      </trkpt>
      <trkpt lat="46.10779" lon="6.32967">
        <ele>444.8</ele>
        <time>2021-03-27T12:21:28Z</time>
      </trkpt>
      <trkpt lat="46.10786" lon="6.3296">
        <ele>445</ele>
        <time>2021-03-27T12:21:27Z</time>
      </trkpt>
      <trkpt lat="46.10792" lon="6.32952">
        <ele>445</ele>
        <time>2021-03-27T12:21:26Z</time>
      </trkpt>
      <trkpt lat="46.10798" lon="6.32945">
        <ele>444.8</ele>
        <time>2021-03-27T12:21:25Z</time>
      </trkpt>
      <trkpt lat="46.10805" lon="6.32938">
        <ele>444.8</ele>
        <time>2021-03-27T12:21:24Z</time>
      </trkpt>
      <trkpt lat="46.10811" lon="6.32931">
        <ele>444.8</ele>
        <time>2021-03-27T12:21:23Z</time>
      </trkpt>
      <trkpt lat="46.10817" lon="6.32924">
        <ele>444.8</ele>
        <time>2021-03-27T12:21:22Z</time>
      </trkpt>
      <trkpt lat="46.10823" lon="6.32917">
        <ele>444.8</ele>
        <time>2021-03-27T12:21:21Z</time>
      </trkpt>
      <trkpt lat="46.10829" lon="6.3291">
        <ele>444.8</ele>
        <time>2021-03-27T12:21:20Z</time>
      </trkpt>
      <trkpt lat="46.10835" lon="6.32903">
        <ele>444.8</ele>
        <time>2021-03-27T12:21:19Z</time>
      </trkpt>
      <trkpt lat="46.10841" lon="6.32896">
        <ele>444.6</ele>
        <time>2021-03-27T12:21:18Z</time>
      </trkpt>
      <trkpt lat="46.10847" lon="6.32889">
        <ele>444.6</ele>
        <time>2021-03-27T12:21:17Z</time>
      </trkpt>
      <trkpt lat="46.10853" lon="6.32882">
        <ele>444.4</ele>
        <time>2021-03-27T12:21:16Z</time>
      </trkpt>
      <trkpt lat="46.10859" lon="6.32875">
        <ele>444.2</ele>
        <time>2021-03-27T12:21:15Z</time>
      </trkpt>
      <trkpt lat="46.10865" lon="6.32868">
        <ele>444.4</ele>
        <time>2021-03-27T12:21:14Z</time>
      </trkpt>
      <trkpt lat="46.10871" lon="6.32862">
        <ele>444</ele>
        <time>2021-03-27T12:21:13Z</time>
      </trkpt>
      <trkpt lat="46.10877" lon="6.32855">
        <ele>444</ele>
        <time>2021-03-27T12:21:12Z</time>
      </trkpt>
      <trkpt lat="46.10883" lon="6.32848">
        <ele>443.8</ele>
        <time>2021-03-27T12:21:11Z</time>
      </trkpt>
      <trkpt lat="46.10889" lon="6.32841">
        <ele>443.8</ele>
        <time>2021-03-27T12:21:10Z</time>
      </trkpt>
      <trkpt lat="46.10895" lon="6.32835">
        <ele>443.4</ele>
        <time>2021-03-27T12:21:09Z</time>
      </trkpt>
      <trkpt lat="46.10901" lon="6.32828">
        <ele>443.4</ele>
        <time>2021-03-27T12:21:08Z</time>
      </trkpt>
      <trkpt lat="46.10907" lon="6.32821">
        <ele>443.2</ele>
        <time>2021-03-27T12:21:07Z</time>
      </trkpt>
      <trkpt lat="46.10913" lon="6.32814">
        <ele>443</ele>
        <time>2021-03-27T12:21:06Z</time>
      </trkpt>
      <trkpt lat="46.10919" lon="6.32807">
        <ele>442.8</ele>
        <time>2021-03-27T12:21:05Z</time>
      </trkpt>
      <trkpt lat="46.10925" lon="6.328">
        <ele>442.6</ele>
        <time>2021-03-27T12:21:04Z</time>
      </trkpt>
      <trkpt lat="46.10931" lon="6.32794">
        <ele>442.4</ele>
        <time>2021-03-27T12:21:03Z</time>
      </trkpt>
      <trkpt lat="46.10937" lon="6.32787">
        <ele>442.2</ele>
        <time>2021-03-27T12:21:02Z</time>
      </trkpt>
      <trkpt lat="46.10943" lon="6.3278">
        <ele>442.4</ele>
        <time>2021-03-27T12:21:01Z</time>
      </trkpt>
      <trkpt lat="46.10949" lon="6.32773">
        <ele>442.4</ele>
        <time>2021-03-27T12:21:00Z</time>
      </trkpt>
      <trkpt lat="46.10955" lon="6.32766">
        <ele>442.2</ele>
        <time>2021-03-27T12:20:59Z</time>
      </trkpt>
      <trkpt lat="46.10961" lon="6.32758">
        <ele>442.4</ele>
        <time>2021-03-27T12:20:58Z</time>
      </trkpt>
      <trkpt lat="46.10967" lon="6.32751">
        <ele>442.2</ele>
        <time>2021-03-27T12:20:57Z</time>
      </trkpt>
      <trkpt lat="46.10973" lon="6.32743">
        <ele>442.4</ele>
        <time>2021-03-27T12:20:56Z</time>
      </trkpt>
      <trkpt lat="46.10979" lon="6.32735">
        <ele>442.4</ele>
        <time>2021-03-27T12:20:55Z</time>
      </trkpt>
      <trkpt lat="46.10985" lon="6.32727">
        <ele>442.4</ele>
        <time>2021-03-27T12:20:54Z</time>
      </trkpt>
      <trkpt lat="46.10992" lon="6.32719">
        <ele>442.4</ele>
        <time>2021-03-27T12:20:53Z</time>
      </trkpt>
      <trkpt lat="46.10997" lon="6.3271">
        <ele>442.6</ele>
        <time>2021-03-27T12:20:52Z</time>
      </trkpt>
      <trkpt lat="46.11003" lon="6.327">
        <ele>443</ele>
        <time>2021-03-27T12:20:51Z</time>
      </trkpt>
      <trkpt lat="46.11009" lon="6.32691">
        <ele>443</ele>
        <time>2021-03-27T12:20:50Z</time>
      </trkpt>
      <trkpt lat="46.11015" lon="6.32681">
        <ele>443.2</ele>
        <time>2021-03-27T12:20:49Z</time>
      </trkpt>
      <trkpt lat="46.11021" lon="6.32672">
        <ele>443.2</ele>
        <time>2021-03-27T12:20:48Z</time>
      </trkpt>
      <trkpt lat="46.11027" lon="6.32662">
        <ele>443.2</ele>
        <time>2021-03-27T12:20:47Z</time>
      </trkpt>
      <trkpt lat="46.11034" lon="6.32653">
        <ele>443</ele>
        <time>2021-03-27T12:20:46Z</time>
      </trkpt>
      <trkpt lat="46.11041" lon="6.32643">
        <ele>443.2</ele>
        <time>2021-03-27T12:20:45Z</time>
      </trkpt>
      <trkpt lat="46.11048" lon="6.32634">
        <ele>443.4</ele>
        <time>2021-03-27T12:20:44Z</time>
      </trkpt>
      <trkpt lat="46.11055" lon="6.32624">
        <ele>443.4</ele>
        <time>2021-03-27T12:20:43Z</time>
      </trkpt>
      <trkpt lat="46.11062" lon="6.32614">
        <ele>443.4</ele>
        <time>2021-03-27T12:20:42Z</time>
      </trkpt>
      <trkpt lat="46.11069" lon="6.32605">
        <ele>443.4</ele>
        <time>2021-03-27T12:20:41Z</time>
      </trkpt>
      <trkpt lat="46.11076" lon="6.32595">
        <ele>443.4</ele>
        <time>2021-03-27T12:20:40Z</time>
      </trkpt>
      <trkpt lat="46.11083" lon="6.32585">
        <ele>443.4</ele>
        <time>2021-03-27T12:20:39Z</time>
      </trkpt>
      <trkpt lat="46.1109" lon="6.32576">
        <ele>443.4</ele>
        <time>2021-03-27T12:20:38Z</time>
      </trkpt>
      <trkpt lat="46.11098" lon="6.32566">
        <ele>443.4</ele>
        <time>2021-03-27T12:20:37Z</time>
      </trkpt>
      <trkpt lat="46.11105" lon="6.32557">
        <ele>443.2</ele>
        <time>2021-03-27T12:20:36Z</time>
      </trkpt>
      <trkpt lat="46.11112" lon="6.32548">
        <ele>443.2</ele>
        <time>2021-03-27T12:20:35Z</time>
      </trkpt>
      <trkpt lat="46.1112" lon="6.32539">
        <ele>443.4</ele>
        <time>2021-03-27T12:20:34Z</time>
      </trkpt>
      <trkpt lat="46.11127" lon="6.3253">
        <ele>443.6</ele>
        <time>2021-03-27T12:20:33Z</time>
      </trkpt>
      <trkpt lat="46.11134" lon="6.32521">
        <ele>443.8</ele>
        <time>2021-03-27T12:20:32Z</time>
      </trkpt>
      <trkpt lat="46.11141" lon="6.32512">
        <ele>443.8</ele>
        <time>2021-03-27T12:20:31Z</time>
      </trkpt>
      <trkpt lat="46.11148" lon="6.32503">
        <ele>444</ele>
        <time>2021-03-27T12:20:30Z</time>
      </trkpt>
      <trkpt lat="46.11155" lon="6.32493">
        <ele>444.2</ele>
        <time>2021-03-27T12:20:29Z</time>
      </trkpt>
      <trkpt lat="46.11162" lon="6.32484">
        <ele>444.2</ele>
        <time>2021-03-27T12:20:28Z</time>
      </trkpt>
      <trkpt lat="46.11169" lon="6.32475">
        <ele>444.2</ele>
        <time>2021-03-27T12:20:27Z</time>
      </trkpt>
      <trkpt lat="46.11176" lon="6.32466">
        <ele>444.2</ele>
        <time>2021-03-27T12:20:26Z</time>
      </trkpt>
      <trkpt lat="46.11183" lon="6.32457">
        <ele>444.4</ele>
        <time>2021-03-27T12:20:25Z</time>
      </trkpt>
      <trkpt lat="46.1119" lon="6.32448">
        <ele>444.6</ele>
        <time>2021-03-27T12:20:24Z</time>
      </trkpt>
      <trkpt lat="46.11197" lon="6.32439">
        <ele>444.8</ele>
        <time>2021-03-27T12:20:23Z</time>
      </trkpt>
      <trkpt lat="46.11204" lon="6.3243">
        <ele>444.6</ele>
        <time>2021-03-27T12:20:22Z</time>
      </trkpt>
      <trkpt lat="46.11211" lon="6.32421">
        <ele>445</ele>
        <time>2021-03-27T12:20:21Z</time>
      </trkpt>
      <trkpt lat="46.11218" lon="6.32411">
        <ele>445.2</ele>
        <time>2021-03-27T12:20:20Z</time>
      </trkpt>
      <trkpt lat="46.11225" lon="6.32402">
        <ele>445.4</ele>
        <time>2021-03-27T12:20:19Z</time>
      </trkpt>
      <trkpt lat="46.11233" lon="6.32393">
        <ele>446.2</ele>
        <time>2021-03-27T12:20:18Z</time>
      </trkpt>
      <trkpt lat="46.1124" lon="6.32383">
        <ele>447.2</ele>
        <time>2021-03-27T12:20:17Z</time>
      </trkpt>
      <trkpt lat="46.11248" lon="6.32373">
        <ele>448.2</ele>
        <time>2021-03-27T12:20:16Z</time>
      </trkpt>
      <trkpt lat="46.11255" lon="6.32364">
        <ele>448.8</ele>
        <time>2021-03-27T12:20:15Z</time>
      </trkpt>
      <trkpt lat="46.11263" lon="6.32354">
        <ele>449.6</ele>
        <time>2021-03-27T12:20:14Z</time>
      </trkpt>
      <trkpt lat="46.1127" lon="6.32344">
        <ele>449.8</ele>
        <time>2021-03-27T12:20:13Z</time>
      </trkpt>
      <trkpt lat="46.11278" lon="6.32334">
        <ele>450</ele>
        <time>2021-03-27T12:20:12Z</time>
      </trkpt>
      <trkpt lat="46.11286" lon="6.32324">
        <ele>450.2</ele>
        <time>2021-03-27T12:20:11Z</time>
      </trkpt>
      <trkpt lat="46.11293" lon="6.32314">
        <ele>450.6</ele>
        <time>2021-03-27T12:20:10Z</time>
      </trkpt>
      <trkpt lat="46.11301" lon="6.32305">
        <ele>450.8</ele>
        <time>2021-03-27T12:20:09Z</time>
      </trkpt>
      <trkpt lat="46.11308" lon="6.32295">
        <ele>450.8</ele>
        <time>2021-03-27T12:20:08Z</time>
      </trkpt>
      <trkpt lat="46.11316" lon="6.32286">
        <ele>450.8</ele>
        <time>2021-03-27T12:20:07Z</time>
      </trkpt>
      <trkpt lat="46.11323" lon="6.32276">
        <ele>451</ele>
        <time>2021-03-27T12:20:06Z</time>
      </trkpt>
      <trkpt lat="46.1133" lon="6.32267">
        <ele>451</ele>
        <time>2021-03-27T12:20:05Z</time>
      </trkpt>
      <trkpt lat="46.11337" lon="6.32258">
        <ele>451</ele>
        <time>2021-03-27T12:20:04Z</time>
      </trkpt>
      <trkpt lat="46.11343" lon="6.3225">
        <ele>451.4</ele>
        <time>2021-03-27T12:20:03Z</time>
      </trkpt>
      <trkpt lat="46.1135" lon="6.32241">
        <ele>451.4</ele>
        <time>2021-03-27T12:20:02Z</time>
      </trkpt>
      <trkpt lat="46.11356" lon="6.32233">
        <ele>451.4</ele>
        <time>2021-03-27T12:20:01Z</time>
      </trkpt>
      <trkpt lat="46.11363" lon="6.32225">
        <ele>451.4</ele>
        <time>2021-03-27T12:20:00Z</time>
      </trkpt>
      <trkpt lat="46.11369" lon="6.32217">
        <ele>451.8</ele>
        <time>2021-03-27T12:19:59Z</time>
      </trkpt>
      <trkpt lat="46.11375" lon="6.32209">
        <ele>451.6</ele>
        <time>2021-03-27T12:19:58Z</time>
      </trkpt>
      <trkpt lat="46.11381" lon="6.32201">
        <ele>451.8</ele>
        <time>2021-03-27T12:19:57Z</time>
      </trkpt>
      <trkpt lat="46.11387" lon="6.32194">
        <ele>451.6</ele>
        <time>2021-03-27T12:19:56Z</time>
      </trkpt>
      <trkpt lat="46.11392" lon="6.32186">
        <ele>451.8</ele>
        <time>2021-03-27T12:19:55Z</time>
      </trkpt>
      <trkpt lat="46.11398" lon="6.32179">
        <ele>451.6</ele>
        <time>2021-03-27T12:19:54Z</time>
      </trkpt>
      <trkpt lat="46.11403" lon="6.32172">
        <ele>451.6</ele>
        <time>2021-03-27T12:19:53Z</time>
      </trkpt>
      <trkpt lat="46.11409" lon="6.32165">
        <ele>451.6</ele>
        <time>2021-03-27T12:19:52Z</time>
      </trkpt>
      <trkpt lat="46.11414" lon="6.32158">
        <ele>451.8</ele>
        <time>2021-03-27T12:19:51Z</time>
      </trkpt>
      <trkpt lat="46.11419" lon="6.3215">
        <ele>451.8</ele>
        <time>2021-03-27T12:19:50Z</time>
      </trkpt>
      <trkpt lat="46.11424" lon="6.32143">
        <ele>451.8</ele>
        <time>2021-03-27T12:19:49Z</time>
      </trkpt>
      <trkpt lat="46.1143" lon="6.32135">
        <ele>451.8</ele>
        <time>2021-03-27T12:19:48Z</time>
      </trkpt>
      <trkpt lat="46.11436" lon="6.32127">
        <ele>452.2</ele>
        <time>2021-03-27T12:19:47Z</time>
      </trkpt>
      <trkpt lat="46.11442" lon="6.32119">
        <ele>452.2</ele>
        <time>2021-03-27T12:19:46Z</time>
      </trkpt>
      <trkpt lat="46.11448" lon="6.32111">
        <ele>452.4</ele>
        <time>2021-03-27T12:19:45Z</time>
      </trkpt>
      <trkpt lat="46.11454" lon="6.32102">
        <ele>452.6</ele>
        <time>2021-03-27T12:19:44Z</time>
      </trkpt>
      <trkpt lat="46.1146" lon="6.32093">
        <ele>452.8</ele>
        <time>2021-03-27T12:19:43Z</time>
      </trkpt>
      <trkpt lat="46.11466" lon="6.32084">
        <ele>452.8</ele>
        <time>2021-03-27T12:19:42Z</time>
      </trkpt>
      <trkpt lat="46.11472" lon="6.32076">
        <ele>452.8</ele>
        <time>2021-03-27T12:19:41Z</time>
      </trkpt>
      <trkpt lat="46.11479" lon="6.32066">
        <ele>452.8</ele>
        <time>2021-03-27T12:19:40Z</time>
      </trkpt>
      <trkpt lat="46.11485" lon="6.32057">
        <ele>453</ele>
        <time>2021-03-27T12:19:39Z</time>
      </trkpt>
      <trkpt lat="46.11492" lon="6.32047">
        <ele>453</ele>
        <time>2021-03-27T12:19:38Z</time>
      </trkpt>
      <trkpt lat="46.11499" lon="6.32037">
        <ele>452.8</ele>
        <time>2021-03-27T12:19:37Z</time>
      </trkpt>
      <trkpt lat="46.11506" lon="6.32028">
        <ele>452.8</ele>
        <time>2021-03-27T12:19:36Z</time>
      </trkpt>
      <trkpt lat="46.11512" lon="6.32018">
        <ele>452.8</ele>
        <time>2021-03-27T12:19:35Z</time>
      </trkpt>
      <trkpt lat="46.11519" lon="6.32009">
        <ele>452.8</ele>
        <time>2021-03-27T12:19:34Z</time>
      </trkpt>
      <trkpt lat="46.11525" lon="6.32">
        <ele>452.8</ele>
        <time>2021-03-27T12:19:33Z</time>
      </trkpt>
      <trkpt lat="46.11531" lon="6.31991">
        <ele>452.6</ele>
        <time>2021-03-27T12:19:32Z</time>
      </trkpt>
      <trkpt lat="46.11537" lon="6.31982">
        <ele>452.4</ele>
        <time>2021-03-27T12:19:31Z</time>
      </trkpt>
      <trkpt lat="46.11543" lon="6.31974">
        <ele>452.2</ele>
        <time>2021-03-27T12:19:30Z</time>
      </trkpt>
      <trkpt lat="46.11549" lon="6.31966">
        <ele>452</ele>
        <time>2021-03-27T12:19:29Z</time>
      </trkpt>
      <trkpt lat="46.11555" lon="6.31958">
        <ele>452.2</ele>
        <time>2021-03-27T12:19:28Z</time>
      </trkpt>
      <trkpt lat="46.1156" lon="6.3195">
        <ele>452</ele>
        <time>2021-03-27T12:19:27Z</time>
      </trkpt>
      <trkpt lat="46.11565" lon="6.31942">
        <ele>452.2</ele>
        <time>2021-03-27T12:19:26Z</time>
      </trkpt>
      <trkpt lat="46.11571" lon="6.31935">
        <ele>452</ele>
        <time>2021-03-27T12:19:25Z</time>
      </trkpt>
      <trkpt lat="46.11576" lon="6.31928">
        <ele>452</ele>
        <time>2021-03-27T12:19:24Z</time>
      </trkpt>
      <trkpt lat="46.11581" lon="6.3192">
        <ele>452</ele>
        <time>2021-03-27T12:19:23Z</time>
      </trkpt>
      <trkpt lat="46.11587" lon="6.31914">
        <ele>452</ele>
        <time>2021-03-27T12:19:22Z</time>
      </trkpt>
      <trkpt lat="46.11592" lon="6.31907">
        <ele>451.8</ele>
        <time>2021-03-27T12:19:21Z</time>
      </trkpt>
      <trkpt lat="46.11598" lon="6.319">
        <ele>451.8</ele>
        <time>2021-03-27T12:19:20Z</time>
      </trkpt>
      <trkpt lat="46.11604" lon="6.31894">
        <ele>452</ele>
        <time>2021-03-27T12:19:19Z</time>
      </trkpt>
      <trkpt lat="46.1161" lon="6.31887">
        <ele>451.8</ele>
        <time>2021-03-27T12:19:18Z</time>
      </trkpt>
      <trkpt lat="46.11616" lon="6.31881">
        <ele>452</ele>
        <time>2021-03-27T12:19:17Z</time>
      </trkpt>
      <trkpt lat="46.11622" lon="6.31874">
        <ele>451.8</ele>
        <time>2021-03-27T12:19:16Z</time>
      </trkpt>
      <trkpt lat="46.11628" lon="6.31868">
        <ele>452</ele>
        <time>2021-03-27T12:19:15Z</time>
      </trkpt>
      <trkpt lat="46.11635" lon="6.31861">
        <ele>452.2</ele>
        <time>2021-03-27T12:19:14Z</time>
      </trkpt>
      <trkpt lat="46.11642" lon="6.31855">
        <ele>452.2</ele>
        <time>2021-03-27T12:19:13Z</time>
      </trkpt>
      <trkpt lat="46.11648" lon="6.31849">
        <ele>452.2</ele>
        <time>2021-03-27T12:19:12Z</time>
      </trkpt>
      <trkpt lat="46.11656" lon="6.31843">
        <ele>452.4</ele>
        <time>2021-03-27T12:19:11Z</time>
      </trkpt>
      <trkpt lat="46.11663" lon="6.31837">
        <ele>452.4</ele>
        <time>2021-03-27T12:19:10Z</time>
      </trkpt>
      <trkpt lat="46.1167" lon="6.31831">
        <ele>452.6</ele>
        <time>2021-03-27T12:19:09Z</time>
      </trkpt>
      <trkpt lat="46.11678" lon="6.31825">
        <ele>452.6</ele>
        <time>2021-03-27T12:19:08Z</time>
      </trkpt>
      <trkpt lat="46.11686" lon="6.31819">
        <ele>453</ele>
        <time>2021-03-27T12:19:07Z</time>
      </trkpt>
      <trkpt lat="46.11694" lon="6.31813">
        <ele>453.2</ele>
        <time>2021-03-27T12:19:06Z</time>
      </trkpt>
      <trkpt lat="46.11702" lon="6.31807">
        <ele>453.4</ele>
        <time>2021-03-27T12:19:05Z</time>
      </trkpt>
      <trkpt lat="46.11711" lon="6.31801">
        <ele>453.4</ele>
        <time>2021-03-27T12:19:04Z</time>
      </trkpt>
      <trkpt lat="46.1172" lon="6.31794">
        <ele>453.6</ele>
        <time>2021-03-27T12:19:03Z</time>
      </trkpt>
      <trkpt lat="46.11729" lon="6.31788">
        <ele>453.6</ele>
        <time>2021-03-27T12:19:02Z</time>
      </trkpt>
      <trkpt lat="46.11737" lon="6.31781">
        <ele>454</ele>
        <time>2021-03-27T12:19:01Z</time>
      </trkpt>
      <trkpt lat="46.11746" lon="6.31774">
        <ele>454.2</ele>
        <time>2021-03-27T12:19:00Z</time>
      </trkpt>
      <trkpt lat="46.11755" lon="6.31768">
        <ele>454.2</ele>
        <time>2021-03-27T12:18:59Z</time>
      </trkpt>
      <trkpt lat="46.11763" lon="6.31761">
        <ele>454.8</ele>
        <time>2021-03-27T12:18:58Z</time>
      </trkpt>
      <trkpt lat="46.11771" lon="6.31754">
        <ele>455.4</ele>
        <time>2021-03-27T12:18:57Z</time>
      </trkpt>
      <trkpt lat="46.1178" lon="6.31746">
        <ele>456</ele>
        <time>2021-03-27T12:18:56Z</time>
      </trkpt>
      <trkpt lat="46.11788" lon="6.31739">
        <ele>456.8</ele>
        <time>2021-03-27T12:18:55Z</time>
      </trkpt>
      <trkpt lat="46.11796" lon="6.31732">
        <ele>457</ele>
        <time>2021-03-27T12:18:54Z</time>
      </trkpt>
      <trkpt lat="46.11804" lon="6.31724">
        <ele>457.8</ele>
        <time>2021-03-27T12:18:53Z</time>
      </trkpt>
      <trkpt lat="46.11811" lon="6.31717">
        <ele>458.8</ele>
        <time>2021-03-27T12:18:52Z</time>
      </trkpt>
      <trkpt lat="46.11819" lon="6.3171">
        <ele>459.4</ele>
        <time>2021-03-27T12:18:51Z</time>
      </trkpt>
      <trkpt lat="46.11827" lon="6.31703">
        <ele>459.8</ele>
        <time>2021-03-27T12:18:50Z</time>
      </trkpt>
      <trkpt lat="46.11834" lon="6.31696">
        <ele>460.2</ele>
        <time>2021-03-27T12:18:49Z</time>
      </trkpt>
      <trkpt lat="46.1185" lon="6.31682">
        <ele>460.4</ele>
        <time>2021-03-27T12:18:47Z</time>
      </trkpt>
      <trkpt lat="46.11857" lon="6.31675">
        <ele>460.6</ele>
        <time>2021-03-27T12:18:46Z</time>
      </trkpt>
      <trkpt lat="46.11865" lon="6.31668">
        <ele>461</ele>
        <time>2021-03-27T12:18:45Z</time>
      </trkpt>
      <trkpt lat="46.11872" lon="6.31661">
        <ele>461</ele>
        <time>2021-03-27T12:18:44Z</time>
      </trkpt>
      <trkpt lat="46.11879" lon="6.31654">
        <ele>461</ele>
        <time>2021-03-27T12:18:43Z</time>
      </trkpt>
      <trkpt lat="46.11886" lon="6.31647">
        <ele>461.2</ele>
        <time>2021-03-27T12:18:42Z</time>
      </trkpt>
      <trkpt lat="46.11892" lon="6.3164">
        <ele>461.2</ele>
        <time>2021-03-27T12:18:41Z</time>
      </trkpt>
      <trkpt lat="46.11899" lon="6.31633">
        <ele>461.4</ele>
        <time>2021-03-27T12:18:40Z</time>
      </trkpt>
      <trkpt lat="46.11905" lon="6.31626">
        <ele>461.4</ele>
        <time>2021-03-27T12:18:39Z</time>
      </trkpt>
      <trkpt lat="46.11911" lon="6.31619">
        <ele>461.6</ele>
        <time>2021-03-27T12:18:38Z</time>
      </trkpt>
      <trkpt lat="46.11917" lon="6.31612">
        <ele>461.8</ele>
        <time>2021-03-27T12:18:37Z</time>
      </trkpt>
      <trkpt lat="46.11924" lon="6.31605">
        <ele>461.8</ele>
        <time>2021-03-27T12:18:36Z</time>
      </trkpt>
      <trkpt lat="46.1193" lon="6.31598">
        <ele>461.6</ele>
        <time>2021-03-27T12:18:35Z</time>
      </trkpt>
      <trkpt lat="46.11936" lon="6.31591">
        <ele>461.8</ele>
        <time>2021-03-27T12:18:34Z</time>
      </trkpt>
      <trkpt lat="46.11941" lon="6.31584">
        <ele>461.8</ele>
        <time>2021-03-27T12:18:33Z</time>
      </trkpt>
      <trkpt lat="46.11947" lon="6.31577">
        <ele>462</ele>
        <time>2021-03-27T12:18:32Z</time>
      </trkpt>
      <trkpt lat="46.11953" lon="6.3157">
        <ele>462</ele>
        <time>2021-03-27T12:18:31Z</time>
      </trkpt>
      <trkpt lat="46.11959" lon="6.31564">
        <ele>462.4</ele>
        <time>2021-03-27T12:18:30Z</time>
      </trkpt>
      <trkpt lat="46.11964" lon="6.31557">
        <ele>462.8</ele>
        <time>2021-03-27T12:18:29Z</time>
      </trkpt>
      <trkpt lat="46.1197" lon="6.3155">
        <ele>462.8</ele>
        <time>2021-03-27T12:18:28Z</time>
      </trkpt>
      <trkpt lat="46.11976" lon="6.31544">
        <ele>462.8</ele>
        <time>2021-03-27T12:18:27Z</time>
      </trkpt>
      <trkpt lat="46.11982" lon="6.31537">
        <ele>463</ele>
        <time>2021-03-27T12:18:26Z</time>
      </trkpt>
      <trkpt lat="46.11988" lon="6.31531">
        <ele>463</ele>
        <time>2021-03-27T12:18:25Z</time>
      </trkpt>
      <trkpt lat="46.11993" lon="6.31524">
        <ele>463</ele>
        <time>2021-03-27T12:18:24Z</time>
      </trkpt>
      <trkpt lat="46.11999" lon="6.31517">
        <ele>463.2</ele>
        <time>2021-03-27T12:18:23Z</time>
      </trkpt>
      <trkpt lat="46.12005" lon="6.3151">
        <ele>463.2</ele>
        <time>2021-03-27T12:18:22Z</time>
      </trkpt>
      <trkpt lat="46.12011" lon="6.31504">
        <ele>463.2</ele>
        <time>2021-03-27T12:18:21Z</time>
      </trkpt>
      <trkpt lat="46.12017" lon="6.31498">
        <ele>463.4</ele>
        <time>2021-03-27T12:18:20Z</time>
      </trkpt>
      <trkpt lat="46.12022" lon="6.31491">
        <ele>463.4</ele>
        <time>2021-03-27T12:18:19Z</time>
      </trkpt>
      <trkpt lat="46.12028" lon="6.31485">
        <ele>463.4</ele>
        <time>2021-03-27T12:18:18Z</time>
      </trkpt>
      <trkpt lat="46.12033" lon="6.31479">
        <ele>463.4</ele>
        <time>2021-03-27T12:18:17Z</time>
      </trkpt>
      <trkpt lat="46.12038" lon="6.31473">
        <ele>463.4</ele>
        <time>2021-03-27T12:18:16Z</time>
      </trkpt>
      <trkpt lat="46.12043" lon="6.31467">
        <ele>463.4</ele>
        <time>2021-03-27T12:18:15Z</time>
      </trkpt>
      <trkpt lat="46.12048" lon="6.31461">
        <ele>463.4</ele>
        <time>2021-03-27T12:18:14Z</time>
      </trkpt>
      <trkpt lat="46.12052" lon="6.31456">
        <ele>463.6</ele>
        <time>2021-03-27T12:18:13Z</time>
      </trkpt>
      <trkpt lat="46.12056" lon="6.31451">
        <ele>463.6</ele>
        <time>2021-03-27T12:18:12Z</time>
      </trkpt>
      <trkpt lat="46.12061" lon="6.31447">
        <ele>463.8</ele>
        <time>2021-03-27T12:18:11Z</time>
      </trkpt>
      <trkpt lat="46.12065" lon="6.31444">
        <ele>463.8</ele>
        <time>2021-03-27T12:18:10Z</time>
      </trkpt>
      <trkpt lat="46.12071" lon="6.3144">
        <ele>463.8</ele>
        <time>2021-03-27T12:18:09Z</time>
      </trkpt>
      <trkpt lat="46.12076" lon="6.31437">
        <ele>463.8</ele>
        <time>2021-03-27T12:18:08Z</time>
      </trkpt>
      <trkpt lat="46.12082" lon="6.31434">
        <ele>463.8</ele>
        <time>2021-03-27T12:18:07Z</time>
      </trkpt>
      <trkpt lat="46.12088" lon="6.31431">
        <ele>463.8</ele>
        <time>2021-03-27T12:18:06Z</time>
      </trkpt>
      <trkpt lat="46.12095" lon="6.31429">
        <ele>463.8</ele>
        <time>2021-03-27T12:18:05Z</time>
      </trkpt>
      <trkpt lat="46.12101" lon="6.31427">
        <ele>463.8</ele>
        <time>2021-03-27T12:18:04Z</time>
      </trkpt>
      <trkpt lat="46.12108" lon="6.31424">
        <ele>463.8</ele>
        <time>2021-03-27T12:18:03Z</time>
      </trkpt>
      <trkpt lat="46.12114" lon="6.31422">
        <ele>463.8</ele>
        <time>2021-03-27T12:18:02Z</time>
      </trkpt>
      <trkpt lat="46.1212" lon="6.3142">
        <ele>463.6</ele>
        <time>2021-03-27T12:18:01Z</time>
      </trkpt>
      <trkpt lat="46.12126" lon="6.31416">
        <ele>463.6</ele>
        <time>2021-03-27T12:18:00Z</time>
      </trkpt>
      <trkpt lat="46.1213" lon="6.3141">
        <ele>463.4</ele>
        <time>2021-03-27T12:17:59Z</time>
      </trkpt>
      <trkpt lat="46.12133" lon="6.31402">
        <ele>463.2</ele>
        <time>2021-03-27T12:17:58Z</time>
      </trkpt>
      <trkpt lat="46.12133" lon="6.31392">
        <ele>463.2</ele>
        <time>2021-03-27T12:17:57Z</time>
      </trkpt>
      <trkpt lat="46.12133" lon="6.31383">
        <ele>463.4</ele>
        <time>2021-03-27T12:17:56Z</time>
      </trkpt>
      <trkpt lat="46.12134" lon="6.31374">
        <ele>463.4</ele>
        <time>2021-03-27T12:17:55Z</time>
      </trkpt>
      <trkpt lat="46.12136" lon="6.31367">
        <ele>463.2</ele>
        <time>2021-03-27T12:17:54Z</time>
      </trkpt>
      <trkpt lat="46.1214" lon="6.31361">
        <ele>463.4</ele>
        <time>2021-03-27T12:17:53Z</time>
      </trkpt>
      <trkpt lat="46.12146" lon="6.3136">
        <ele>463.2</ele>
        <time>2021-03-27T12:17:52Z</time>
      </trkpt>
      <trkpt lat="46.12152" lon="6.31361">
        <ele>463.4</ele>
        <time>2021-03-27T12:17:51Z</time>
      </trkpt>
      <trkpt lat="46.12157" lon="6.31365">
        <ele>463.4</ele>
        <time>2021-03-27T12:17:50Z</time>
      </trkpt>
      <trkpt lat="46.12163" lon="6.31368">
        <ele>463.4</ele>
        <time>2021-03-27T12:17:49Z</time>
      </trkpt>
      <trkpt lat="46.12169" lon="6.3137">
        <ele>463.2</ele>
        <time>2021-03-27T12:17:48Z</time>
      </trkpt>
      <trkpt lat="46.12176" lon="6.31371">
        <ele>463.2</ele>
        <time>2021-03-27T12:17:47Z</time>
      </trkpt>
      <trkpt lat="46.12182" lon="6.31372">
        <ele>463.2</ele>
        <time>2021-03-27T12:17:46Z</time>
      </trkpt>
      <trkpt lat="46.12195" lon="6.31372">
        <ele>463.2</ele>
        <time>2021-03-27T12:17:44Z</time>
      </trkpt>
      <trkpt lat="46.12201" lon="6.31371">
        <ele>463.2</ele>
        <time>2021-03-27T12:17:43Z</time>
      </trkpt>
      <trkpt lat="46.12207" lon="6.31371">
        <ele>463.2</ele>
        <time>2021-03-27T12:17:42Z</time>
      </trkpt>
      <trkpt lat="46.12214" lon="6.3137">
        <ele>463.2</ele>
        <time>2021-03-27T12:17:41Z</time>
      </trkpt>
      <trkpt lat="46.1222" lon="6.3137">
        <ele>463.2</ele>
        <time>2021-03-27T12:17:40Z</time>
      </trkpt>
      <trkpt lat="46.12226" lon="6.3137">
        <ele>463</ele>
        <time>2021-03-27T12:17:39Z</time>
      </trkpt>
      <trkpt lat="46.12232" lon="6.3137">
        <ele>463</ele>
        <time>2021-03-27T12:17:38Z</time>
      </trkpt>
      <trkpt lat="46.12239" lon="6.3137">
        <ele>463</ele>
        <time>2021-03-27T12:17:37Z</time>
      </trkpt>
      <trkpt lat="46.12251" lon="6.31371">
        <ele>463</ele>
        <time>2021-03-27T12:17:35Z</time>
      </trkpt>
      <trkpt lat="46.12257" lon="6.31371">
        <ele>462.8</ele>
        <time>2021-03-27T12:17:34Z</time>
      </trkpt>
      <trkpt lat="46.12263" lon="6.31371">
        <ele>462.6</ele>
        <time>2021-03-27T12:17:33Z</time>
      </trkpt>
      <trkpt lat="46.12274" lon="6.31371">
        <ele>462.6</ele>
        <time>2021-03-27T12:17:31Z</time>
      </trkpt>
      <trkpt lat="46.1228" lon="6.31371">
        <ele>462.6</ele>
        <time>2021-03-27T12:17:30Z</time>
      </trkpt>
      <trkpt lat="46.12286" lon="6.31371">
        <ele>462.4</ele>
        <time>2021-03-27T12:17:29Z</time>
      </trkpt>
      <trkpt lat="46.12292" lon="6.31371">
        <ele>462.2</ele>
        <time>2021-03-27T12:17:28Z</time>
      </trkpt>
      <trkpt lat="46.12298" lon="6.31371">
        <ele>462.2</ele>
        <time>2021-03-27T12:17:27Z</time>
      </trkpt>
      <trkpt lat="46.12304" lon="6.31371">
        <ele>462.2</ele>
        <time>2021-03-27T12:17:26Z</time>
      </trkpt>
      <trkpt lat="46.1231" lon="6.31372">
        <ele>462</ele>
        <time>2021-03-27T12:17:25Z</time>
      </trkpt>
      <trkpt lat="46.12316" lon="6.31372">
        <ele>462</ele>
        <time>2021-03-27T12:17:24Z</time>
      </trkpt>
      <trkpt lat="46.12327" lon="6.31372">
        <ele>462</ele>
        <time>2021-03-27T12:17:22Z</time>
      </trkpt>
      <trkpt lat="46.12339" lon="6.31372">
        <ele>462</ele>
        <time>2021-03-27T12:17:20Z</time>
      </trkpt>
      <trkpt lat="46.12345" lon="6.31372">
        <ele>461.8</ele>
        <time>2021-03-27T12:17:19Z</time>
      </trkpt>
      <trkpt lat="46.12351" lon="6.31372">
        <ele>461.8</ele>
        <time>2021-03-27T12:17:18Z</time>
      </trkpt>
      <trkpt lat="46.12357" lon="6.31372">
        <ele>461.8</ele>
        <time>2021-03-27T12:17:17Z</time>
      </trkpt>
      <trkpt lat="46.12363" lon="6.31372">
        <ele>461.8</ele>
        <time>2021-03-27T12:17:16Z</time>
      </trkpt>
      <trkpt lat="46.12369" lon="6.31372">
        <ele>461.4</ele>
        <time>2021-03-27T12:17:15Z</time>
      </trkpt>
      <trkpt lat="46.12374" lon="6.31372">
        <ele>461.2</ele>
        <time>2021-03-27T12:17:14Z</time>
      </trkpt>
      <trkpt lat="46.1238" lon="6.31373">
        <ele>461</ele>
        <time>2021-03-27T12:17:13Z</time>
      </trkpt>
      <trkpt lat="46.12386" lon="6.31373">
        <ele>460.8</ele>
        <time>2021-03-27T12:17:12Z</time>
      </trkpt>
      <trkpt lat="46.12392" lon="6.31373">
        <ele>460.6</ele>
        <time>2021-03-27T12:17:11Z</time>
      </trkpt>
      <trkpt lat="46.12398" lon="6.31373">
        <ele>460.4</ele>
        <time>2021-03-27T12:17:10Z</time>
      </trkpt>
      <trkpt lat="46.12403" lon="6.31373">
        <ele>460</ele>
        <time>2021-03-27T12:17:09Z</time>
      </trkpt>
      <trkpt lat="46.12409" lon="6.31373">
        <ele>459.8</ele>
        <time>2021-03-27T12:17:08Z</time>
      </trkpt>
      <trkpt lat="46.12415" lon="6.31373">
        <ele>459.8</ele>
        <time>2021-03-27T12:17:07Z</time>
      </trkpt>
      <trkpt lat="46.1242" lon="6.31373">
        <ele>459.8</ele>
        <time>2021-03-27T12:17:06Z</time>
      </trkpt>
      <trkpt lat="46.12426" lon="6.31373">
        <ele>459.4</ele>
        <time>2021-03-27T12:17:05Z</time>
      </trkpt>
      <trkpt lat="46.12431" lon="6.31373">
        <ele>459.4</ele>
        <time>2021-03-27T12:17:04Z</time>
      </trkpt>
      <trkpt lat="46.12437" lon="6.31373">
        <ele>459.2</ele>
        <time>2021-03-27T12:17:03Z</time>
      </trkpt>
      <trkpt lat="46.12442" lon="6.31373">
        <ele>459.2</ele>
        <time>2021-03-27T12:17:02Z</time>
      </trkpt>
      <trkpt lat="46.12448" lon="6.31373">
        <ele>459</ele>
        <time>2021-03-27T12:17:01Z</time>
      </trkpt>
      <trkpt lat="46.12453" lon="6.31373">
        <ele>458.8</ele>
        <time>2021-03-27T12:17:00Z</time>
      </trkpt>
      <trkpt lat="46.12459" lon="6.31373">
        <ele>458.6</ele>
        <time>2021-03-27T12:16:59Z</time>
      </trkpt>
      <trkpt lat="46.12464" lon="6.31373">
        <ele>458.4</ele>
        <time>2021-03-27T12:16:58Z</time>
      </trkpt>
      <trkpt lat="46.1247" lon="6.31372">
        <ele>458.4</ele>
        <time>2021-03-27T12:16:57Z</time>
      </trkpt>
      <trkpt lat="46.12475" lon="6.31372">
        <ele>458.2</ele>
        <time>2021-03-27T12:16:56Z</time>
      </trkpt>
      <trkpt lat="46.12481" lon="6.31372">
        <ele>457.8</ele>
        <time>2021-03-27T12:16:55Z</time>
      </trkpt>
      <trkpt lat="46.12486" lon="6.31371">
        <ele>457.8</ele>
        <time>2021-03-27T12:16:54Z</time>
      </trkpt>
      <trkpt lat="46.12492" lon="6.31371">
        <ele>457.4</ele>
        <time>2021-03-27T12:16:53Z</time>
      </trkpt>
      <trkpt lat="46.12497" lon="6.3137">
        <ele>457.4</ele>
        <time>2021-03-27T12:16:52Z</time>
      </trkpt>
      <trkpt lat="46.12503" lon="6.31369">
        <ele>457.2</ele>
        <time>2021-03-27T12:16:51Z</time>
      </trkpt>
      <trkpt lat="46.12508" lon="6.31369">
        <ele>457</ele>
        <time>2021-03-27T12:16:50Z</time>
      </trkpt>
      <trkpt lat="46.12513" lon="6.31368">
        <ele>456.8</ele>
        <time>2021-03-27T12:16:49Z</time>
      </trkpt>
      <trkpt lat="46.12518" lon="6.31367">
        <ele>456.6</ele>
        <time>2021-03-27T12:16:48Z</time>
      </trkpt>
      <trkpt lat="46.12523" lon="6.31366">
        <ele>456.4</ele>
        <time>2021-03-27T12:16:47Z</time>
      </trkpt>
      <trkpt lat="46.12528" lon="6.31366">
        <ele>456.2</ele>
        <time>2021-03-27T12:16:46Z</time>
      </trkpt>
      <trkpt lat="46.12534" lon="6.31365">
        <ele>456</ele>
        <time>2021-03-27T12:16:45Z</time>
      </trkpt>
      <trkpt lat="46.12539" lon="6.31364">
        <ele>455.6</ele>
        <time>2021-03-27T12:16:44Z</time>
      </trkpt>
      <trkpt lat="46.12544" lon="6.31363">
        <ele>455.4</ele>
        <time>2021-03-27T12:16:43Z</time>
      </trkpt>
      <trkpt lat="46.1255" lon="6.31362">
        <ele>455</ele>
        <time>2021-03-27T12:16:42Z</time>
      </trkpt>
      <trkpt lat="46.12555" lon="6.31361">
        <ele>454.6</ele>
        <time>2021-03-27T12:16:41Z</time>
      </trkpt>
      <trkpt lat="46.1256" lon="6.31361">
        <ele>454.2</ele>
        <time>2021-03-27T12:16:40Z</time>
      </trkpt>
      <trkpt lat="46.12565" lon="6.3136">
        <ele>454.2</ele>
        <time>2021-03-27T12:16:39Z</time>
      </trkpt>
      <trkpt lat="46.12571" lon="6.31359">
        <ele>454</ele>
        <time>2021-03-27T12:16:38Z</time>
      </trkpt>
      <trkpt lat="46.12576" lon="6.31358">
        <ele>453.8</ele>
        <time>2021-03-27T12:16:37Z</time>
      </trkpt>
      <trkpt lat="46.12581" lon="6.31357">
        <ele>453.6</ele>
        <time>2021-03-27T12:16:36Z</time>
      </trkpt>
      <trkpt lat="46.12587" lon="6.31356">
        <ele>453.4</ele>
        <time>2021-03-27T12:16:35Z</time>
      </trkpt>
      <trkpt lat="46.12592" lon="6.31355">
        <ele>453.2</ele>
        <time>2021-03-27T12:16:34Z</time>
      </trkpt>
      <trkpt lat="46.12597" lon="6.31354">
        <ele>452.8</ele>
        <time>2021-03-27T12:16:33Z</time>
      </trkpt>
      <trkpt lat="46.12603" lon="6.31354">
        <ele>452.4</ele>
        <time>2021-03-27T12:16:32Z</time>
      </trkpt>
      <trkpt lat="46.12608" lon="6.31353">
        <ele>452.2</ele>
        <time>2021-03-27T12:16:31Z</time>
      </trkpt>
      <trkpt lat="46.12614" lon="6.31352">
        <ele>451.8</ele>
        <time>2021-03-27T12:16:30Z</time>
      </trkpt>
      <trkpt lat="46.12619" lon="6.31351">
        <ele>451.6</ele>
        <time>2021-03-27T12:16:29Z</time>
      </trkpt>
      <trkpt lat="46.12625" lon="6.3135">
        <ele>451.4</ele>
        <time>2021-03-27T12:16:28Z</time>
      </trkpt>
      <trkpt lat="46.1263" lon="6.31349">
        <ele>451</ele>
        <time>2021-03-27T12:16:27Z</time>
      </trkpt>
      <trkpt lat="46.12636" lon="6.31349">
        <ele>450.4</ele>
        <time>2021-03-27T12:16:26Z</time>
      </trkpt>
      <trkpt lat="46.12641" lon="6.31348">
        <ele>450.4</ele>
        <time>2021-03-27T12:16:25Z</time>
      </trkpt>
      <trkpt lat="46.12647" lon="6.31347">
        <ele>450.2</ele>
        <time>2021-03-27T12:16:24Z</time>
      </trkpt>
      <trkpt lat="46.12652" lon="6.31346">
        <ele>450.2</ele>
        <time>2021-03-27T12:16:23Z</time>
      </trkpt>
      <trkpt lat="46.12658" lon="6.31345">
        <ele>450.2</ele>
        <time>2021-03-27T12:16:22Z</time>
      </trkpt>
      <trkpt lat="46.12663" lon="6.31344">
        <ele>450</ele>
        <time>2021-03-27T12:16:21Z</time>
      </trkpt>
      <trkpt lat="46.12669" lon="6.31343">
        <ele>450</ele>
        <time>2021-03-27T12:16:20Z</time>
      </trkpt>
      <trkpt lat="46.12675" lon="6.31342">
        <ele>449.8</ele>
        <time>2021-03-27T12:16:19Z</time>
      </trkpt>
      <trkpt lat="46.1268" lon="6.31341">
        <ele>449.6</ele>
        <time>2021-03-27T12:16:18Z</time>
      </trkpt>
      <trkpt lat="46.12686" lon="6.3134">
        <ele>449.4</ele>
        <time>2021-03-27T12:16:17Z</time>
      </trkpt>
      <trkpt lat="46.12692" lon="6.31339">
        <ele>449.4</ele>
        <time>2021-03-27T12:16:16Z</time>
      </trkpt>
      <trkpt lat="46.12698" lon="6.31338">
        <ele>449.4</ele>
        <time>2021-03-27T12:16:15Z</time>
      </trkpt>
      <trkpt lat="46.12704" lon="6.31337">
        <ele>449.2</ele>
        <time>2021-03-27T12:16:14Z</time>
      </trkpt>
      <trkpt lat="46.1271" lon="6.31336">
        <ele>449.2</ele>
        <time>2021-03-27T12:16:13Z</time>
      </trkpt>
      <trkpt lat="46.12716" lon="6.31336">
        <ele>449</ele>
        <time>2021-03-27T12:16:12Z</time>
      </trkpt>
      <trkpt lat="46.12723" lon="6.31335">
        <ele>449</ele>
        <time>2021-03-27T12:16:11Z</time>
      </trkpt>
      <trkpt lat="46.12729" lon="6.31334">
        <ele>449</ele>
        <time>2021-03-27T12:16:10Z</time>
      </trkpt>
      <trkpt lat="46.12735" lon="6.31333">
        <ele>449</ele>
        <time>2021-03-27T12:16:09Z</time>
      </trkpt>
      <trkpt lat="46.12741" lon="6.31332">
        <ele>448.8</ele>
        <time>2021-03-27T12:16:08Z</time>
      </trkpt>
      <trkpt lat="46.12747" lon="6.31331">
        <ele>448.8</ele>
        <time>2021-03-27T12:16:07Z</time>
      </trkpt>
      <trkpt lat="46.12753" lon="6.3133">
        <ele>448.8</ele>
        <time>2021-03-27T12:16:06Z</time>
      </trkpt>
      <trkpt lat="46.1276" lon="6.31329">
        <ele>448.6</ele>
        <time>2021-03-27T12:16:05Z</time>
      </trkpt>
      <trkpt lat="46.12766" lon="6.31328">
        <ele>448.6</ele>
        <time>2021-03-27T12:16:04Z</time>
      </trkpt>
      <trkpt lat="46.12773" lon="6.31327">
        <ele>448.6</ele>
        <time>2021-03-27T12:16:03Z</time>
      </trkpt>
      <trkpt lat="46.12779" lon="6.31326">
        <ele>448.6</ele>
        <time>2021-03-27T12:16:02Z</time>
      </trkpt>
      <trkpt lat="46.12786" lon="6.31325">
        <ele>448.4</ele>
        <time>2021-03-27T12:16:01Z</time>
      </trkpt>
      <trkpt lat="46.12793" lon="6.31324">
        <ele>448.4</ele>
        <time>2021-03-27T12:16:00Z</time>
      </trkpt>
      <trkpt lat="46.128" lon="6.31323">
        <ele>448.4</ele>
        <time>2021-03-27T12:15:59Z</time>
      </trkpt>
      <trkpt lat="46.12806" lon="6.31322">
        <ele>448.4</ele>
        <time>2021-03-27T12:15:58Z</time>
      </trkpt>
      <trkpt lat="46.12813" lon="6.31321">
        <ele>448.4</ele>
        <time>2021-03-27T12:15:57Z</time>
      </trkpt>
      <trkpt lat="46.1282" lon="6.3132">
        <ele>448.2</ele>
        <time>2021-03-27T12:15:56Z</time>
      </trkpt>
      <trkpt lat="46.12826" lon="6.31319">
        <ele>448.2</ele>
        <time>2021-03-27T12:15:55Z</time>
      </trkpt>
      <trkpt lat="46.12833" lon="6.31318">
        <ele>448.2</ele>
        <time>2021-03-27T12:15:54Z</time>
      </trkpt>
      <trkpt lat="46.12839" lon="6.31317">
        <ele>448.2</ele>
        <time>2021-03-27T12:15:53Z</time>
      </trkpt>
      <trkpt lat="46.12853" lon="6.31315">
        <ele>448</ele>
        <time>2021-03-27T12:15:51Z</time>
      </trkpt>
      <trkpt lat="46.12859" lon="6.31314">
        <ele>448</ele>
        <time>2021-03-27T12:15:50Z</time>
      </trkpt>
      <trkpt lat="46.12866" lon="6.31313">
        <ele>447.8</ele>
        <time>2021-03-27T12:15:49Z</time>
      </trkpt>
      <trkpt lat="46.12872" lon="6.31312">
        <ele>447.8</ele>
        <time>2021-03-27T12:15:48Z</time>
      </trkpt>
      <trkpt lat="46.12879" lon="6.31311">
        <ele>447.6</ele>
        <time>2021-03-27T12:15:47Z</time>
      </trkpt>
      <trkpt lat="46.12885" lon="6.3131">
        <ele>447.6</ele>
        <time>2021-03-27T12:15:46Z</time>
      </trkpt>
      <trkpt lat="46.12892" lon="6.31309">
        <ele>447.6</ele>
        <time>2021-03-27T12:15:45Z</time>
      </trkpt>
      <trkpt lat="46.12899" lon="6.31308">
        <ele>447.6</ele>
        <time>2021-03-27T12:15:44Z</time>
      </trkpt>
      <trkpt lat="46.12905" lon="6.31306">
        <ele>447.4</ele>
        <time>2021-03-27T12:15:43Z</time>
      </trkpt>
      <trkpt lat="46.12912" lon="6.31305">
        <ele>447.6</ele>
        <time>2021-03-27T12:15:42Z</time>
      </trkpt>
      <trkpt lat="46.12918" lon="6.31305">
        <ele>447.6</ele>
        <time>2021-03-27T12:15:41Z</time>
      </trkpt>
      <trkpt lat="46.12924" lon="6.31304">
        <ele>447.4</ele>
        <time>2021-03-27T12:15:40Z</time>
      </trkpt>
      <trkpt lat="46.12931" lon="6.31303">
        <ele>447.4</ele>
        <time>2021-03-27T12:15:39Z</time>
      </trkpt>
      <trkpt lat="46.12937" lon="6.31302">
        <ele>447.4</ele>
        <time>2021-03-27T12:15:38Z</time>
      </trkpt>
      <trkpt lat="46.12944" lon="6.31301">
        <ele>447.4</ele>
        <time>2021-03-27T12:15:37Z</time>
      </trkpt>
      <trkpt lat="46.1295" lon="6.313">
        <ele>447.2</ele>
        <time>2021-03-27T12:15:36Z</time>
      </trkpt>
      <trkpt lat="46.12956" lon="6.31299">
        <ele>447.2</ele>
        <time>2021-03-27T12:15:35Z</time>
      </trkpt>
      <trkpt lat="46.12963" lon="6.31298">
        <ele>447.2</ele>
        <time>2021-03-27T12:15:34Z</time>
      </trkpt>
      <trkpt lat="46.12969" lon="6.31297">
        <ele>447</ele>
        <time>2021-03-27T12:15:33Z</time>
      </trkpt>
      <trkpt lat="46.12976" lon="6.31296">
        <ele>447.2</ele>
        <time>2021-03-27T12:15:32Z</time>
      </trkpt>
      <trkpt lat="46.12982" lon="6.31294">
        <ele>447</ele>
        <time>2021-03-27T12:15:31Z</time>
      </trkpt>
      <trkpt lat="46.12989" lon="6.31293">
        <ele>447.2</ele>
        <time>2021-03-27T12:15:30Z</time>
      </trkpt>
      <trkpt lat="46.12996" lon="6.31292">
        <ele>447</ele>
        <time>2021-03-27T12:15:29Z</time>
      </trkpt>
      <trkpt lat="46.13003" lon="6.31291">
        <ele>447</ele>
        <time>2021-03-27T12:15:28Z</time>
      </trkpt>
      <trkpt lat="46.13009" lon="6.3129">
        <ele>447</ele>
        <time>2021-03-27T12:15:27Z</time>
      </trkpt>
      <trkpt lat="46.13016" lon="6.31289">
        <ele>447</ele>
        <time>2021-03-27T12:15:26Z</time>
      </trkpt>
      <trkpt lat="46.13023" lon="6.31288">
        <ele>447</ele>
        <time>2021-03-27T12:15:25Z</time>
      </trkpt>
      <trkpt lat="46.1303" lon="6.31287">
        <ele>447</ele>
        <time>2021-03-27T12:15:24Z</time>
      </trkpt>
      <trkpt lat="46.13036" lon="6.31286">
        <ele>447</ele>
        <time>2021-03-27T12:15:23Z</time>
      </trkpt>
      <trkpt lat="46.13043" lon="6.31285">
        <ele>447</ele>
        <time>2021-03-27T12:15:22Z</time>
      </trkpt>
      <trkpt lat="46.1305" lon="6.31284">
        <ele>447</ele>
        <time>2021-03-27T12:15:21Z</time>
      </trkpt>
      <trkpt lat="46.13056" lon="6.31283">
        <ele>447</ele>
        <time>2021-03-27T12:15:20Z</time>
      </trkpt>
      <trkpt lat="46.13062" lon="6.31282">
        <ele>447</ele>
        <time>2021-03-27T12:15:19Z</time>
      </trkpt>
      <trkpt lat="46.13069" lon="6.31281">
        <ele>447</ele>
        <time>2021-03-27T12:15:18Z</time>
      </trkpt>
      <trkpt lat="46.13075" lon="6.3128">
        <ele>447</ele>
        <time>2021-03-27T12:15:17Z</time>
      </trkpt>
      <trkpt lat="46.13081" lon="6.31279">
        <ele>447.2</ele>
        <time>2021-03-27T12:15:16Z</time>
      </trkpt>
      <trkpt lat="46.13088" lon="6.31278">
        <ele>447.2</ele>
        <time>2021-03-27T12:15:15Z</time>
      </trkpt>
      <trkpt lat="46.13094" lon="6.31277">
        <ele>447.2</ele>
        <time>2021-03-27T12:15:14Z</time>
      </trkpt>
      <trkpt lat="46.131" lon="6.31276">
        <ele>447.2</ele>
        <time>2021-03-27T12:15:13Z</time>
      </trkpt>
      <trkpt lat="46.13106" lon="6.31275">
        <ele>447.6</ele>
        <time>2021-03-27T12:15:12Z</time>
      </trkpt>
      <trkpt lat="46.13112" lon="6.31274">
        <ele>447.4</ele>
        <time>2021-03-27T12:15:11Z</time>
      </trkpt>
      <trkpt lat="46.13118" lon="6.31273">
        <ele>447.4</ele>
        <time>2021-03-27T12:15:10Z</time>
      </trkpt>
      <trkpt lat="46.13124" lon="6.31272">
        <ele>447.6</ele>
        <time>2021-03-27T12:15:09Z</time>
      </trkpt>
      <trkpt lat="46.1313" lon="6.31271">
        <ele>447.6</ele>
        <time>2021-03-27T12:15:08Z</time>
      </trkpt>
      <trkpt lat="46.13136" lon="6.3127">
        <ele>447.4</ele>
        <time>2021-03-27T12:15:07Z</time>
      </trkpt>
      <trkpt lat="46.13142" lon="6.31269">
        <ele>447.6</ele>
        <time>2021-03-27T12:15:06Z</time>
      </trkpt>
      <trkpt lat="46.13149" lon="6.31268">
        <ele>447.6</ele>
        <time>2021-03-27T12:15:05Z</time>
      </trkpt>
      <trkpt lat="46.13155" lon="6.31267">
        <ele>447.6</ele>
        <time>2021-03-27T12:15:04Z</time>
      </trkpt>
      <trkpt lat="46.13161" lon="6.31267">
        <ele>447.6</ele>
        <time>2021-03-27T12:15:03Z</time>
      </trkpt>
      <trkpt lat="46.13167" lon="6.31266">
        <ele>447.2</ele>
        <time>2021-03-27T12:15:02Z</time>
      </trkpt>
      <trkpt lat="46.13173" lon="6.31265">
        <ele>447.4</ele>
        <time>2021-03-27T12:15:01Z</time>
      </trkpt>
      <trkpt lat="46.13179" lon="6.31264">
        <ele>447</ele>
        <time>2021-03-27T12:15:00Z</time>
      </trkpt>
      <trkpt lat="46.13184" lon="6.31263">
        <ele>446.6</ele>
        <time>2021-03-27T12:14:59Z</time>
      </trkpt>
      <trkpt lat="46.1319" lon="6.31262">
        <ele>446.2</ele>
        <time>2021-03-27T12:14:58Z</time>
      </trkpt>
      <trkpt lat="46.13196" lon="6.31261">
        <ele>446</ele>
        <time>2021-03-27T12:14:57Z</time>
      </trkpt>
      <trkpt lat="46.13201" lon="6.3126">
        <ele>445.6</ele>
        <time>2021-03-27T12:14:56Z</time>
      </trkpt>
      <trkpt lat="46.13207" lon="6.3126">
        <ele>445.4</ele>
        <time>2021-03-27T12:14:55Z</time>
      </trkpt>
      <trkpt lat="46.13212" lon="6.31259">
        <ele>445.4</ele>
        <time>2021-03-27T12:14:54Z</time>
      </trkpt>
      <trkpt lat="46.13217" lon="6.31258">
        <ele>445</ele>
        <time>2021-03-27T12:14:53Z</time>
      </trkpt>
      <trkpt lat="46.13222" lon="6.31258">
        <ele>444.8</ele>
        <time>2021-03-27T12:14:52Z</time>
      </trkpt>
      <trkpt lat="46.13227" lon="6.31258">
        <ele>444.8</ele>
        <time>2021-03-27T12:14:51Z</time>
      </trkpt>
      <trkpt lat="46.13231" lon="6.31258">
        <ele>444.6</ele>
        <time>2021-03-27T12:14:50Z</time>
      </trkpt>
      <trkpt lat="46.13236" lon="6.31258">
        <ele>444.4</ele>
        <time>2021-03-27T12:14:49Z</time>
      </trkpt>
      <trkpt lat="46.1324" lon="6.31258">
        <ele>444.4</ele>
        <time>2021-03-27T12:14:48Z</time>
      </trkpt>
      <trkpt lat="46.13245" lon="6.31259">
        <ele>444.2</ele>
        <time>2021-03-27T12:14:47Z</time>
      </trkpt>
      <trkpt lat="46.13249" lon="6.3126">
        <ele>444</ele>
        <time>2021-03-27T12:14:46Z</time>
      </trkpt>
      <trkpt lat="46.13253" lon="6.3126">
        <ele>443.6</ele>
        <time>2021-03-27T12:14:45Z</time>
      </trkpt>
      <trkpt lat="46.13257" lon="6.31262">
        <ele>443.4</ele>
        <time>2021-03-27T12:14:44Z</time>
      </trkpt>
      <trkpt lat="46.13261" lon="6.31263">
        <ele>442.8</ele>
        <time>2021-03-27T12:14:43Z</time>
      </trkpt>
      <trkpt lat="46.13265" lon="6.31264">
        <ele>442.6</ele>
        <time>2021-03-27T12:14:42Z</time>
      </trkpt>
      <trkpt lat="46.13269" lon="6.31265">
        <ele>442.4</ele>
        <time>2021-03-27T12:14:41Z</time>
      </trkpt>
      <trkpt lat="46.13274" lon="6.31267">
        <ele>442</ele>
        <time>2021-03-27T12:14:40Z</time>
      </trkpt>
      <trkpt lat="46.13278" lon="6.31268">
        <ele>442</ele>
        <time>2021-03-27T12:14:39Z</time>
      </trkpt>
      <trkpt lat="46.13282" lon="6.31269">
        <ele>441.8</ele>
        <time>2021-03-27T12:14:38Z</time>
      </trkpt>
      <trkpt lat="46.13286" lon="6.3127">
        <ele>441.6</ele>
        <time>2021-03-27T12:14:37Z</time>
      </trkpt>
      <trkpt lat="46.1329" lon="6.31271">
        <ele>441.2</ele>
        <time>2021-03-27T12:14:36Z</time>
      </trkpt>
      <trkpt lat="46.13294" lon="6.31272">
        <ele>441</ele>
        <time>2021-03-27T12:14:35Z</time>
      </trkpt>
      <trkpt lat="46.13298" lon="6.31273">
        <ele>440.8</ele>
        <time>2021-03-27T12:14:34Z</time>
      </trkpt>
      <trkpt lat="46.13302" lon="6.31273">
        <ele>440.8</ele>
        <time>2021-03-27T12:14:33Z</time>
      </trkpt>
      <trkpt lat="46.13306" lon="6.31273">
        <ele>440.6</ele>
        <time>2021-03-27T12:14:32Z</time>
      </trkpt>
      <trkpt lat="46.13311" lon="6.31273">
        <ele>440.6</ele>
        <time>2021-03-27T12:14:31Z</time>
      </trkpt>
      <trkpt lat="46.13315" lon="6.31272">
        <ele>440.6</ele>
        <time>2021-03-27T12:14:30Z</time>
      </trkpt>
      <trkpt lat="46.13319" lon="6.31271">
        <ele>440.4</ele>
        <time>2021-03-27T12:14:29Z</time>
      </trkpt>
      <trkpt lat="46.13322" lon="6.31269">
        <ele>440.4</ele>
        <time>2021-03-27T12:14:28Z</time>
      </trkpt>
      <trkpt lat="46.13325" lon="6.31266">
        <ele>440.4</ele>
        <time>2021-03-27T12:14:27Z</time>
      </trkpt>
      <trkpt lat="46.13325" lon="6.31263">
        <ele>440.2</ele>
        <time>2021-03-27T12:14:26Z</time>
      </trkpt>
      <trkpt lat="46.13325" lon="6.31259">
        <ele>440.2</ele>
        <time>2021-03-27T12:14:25Z</time>
      </trkpt>
      <trkpt lat="46.13324" lon="6.31255">
        <ele>440</ele>
        <time>2021-03-27T12:14:24Z</time>
      </trkpt>
      <trkpt lat="46.13322" lon="6.31252">
        <ele>440</ele>
        <time>2021-03-27T12:14:23Z</time>
      </trkpt>
      <trkpt lat="46.1332" lon="6.31248">
        <ele>439.8</ele>
        <time>2021-03-27T12:14:22Z</time>
      </trkpt>
      <trkpt lat="46.13317" lon="6.31245">
        <ele>439.8</ele>
        <time>2021-03-27T12:14:21Z</time>
      </trkpt>
      <trkpt lat="46.13316" lon="6.31242">
        <ele>439.6</ele>
        <time>2021-03-27T12:14:20Z</time>
      </trkpt>
      <trkpt lat="46.13316" lon="6.3124">
        <ele>439.4</ele>
        <time>2021-03-27T12:14:19Z</time>
      </trkpt>
      <trkpt lat="46.13318" lon="6.31239">
        <ele>439.2</ele>
        <time>2021-03-27T12:14:18Z</time>
      </trkpt>
      <trkpt lat="46.1332" lon="6.31242">
        <ele>438.6</ele>
        <time>2021-03-27T12:14:17Z</time>
      </trkpt>
      <trkpt lat="46.13325" lon="6.31251">
        <ele>438</ele>
        <time>2021-03-27T12:14:15Z</time>
      </trkpt>
      <trkpt lat="46.13328" lon="6.31255">
        <ele>438</ele>
        <time>2021-03-27T12:14:14Z</time>
      </trkpt>
      <trkpt lat="46.13331" lon="6.31258">
        <ele>437.8</ele>
        <time>2021-03-27T12:14:13Z</time>
      </trkpt>
      <trkpt lat="46.13336" lon="6.3126">
        <ele>438</ele>
        <time>2021-03-27T12:14:12Z</time>
      </trkpt>
      <trkpt lat="46.13341" lon="6.31261">
        <ele>438</ele>
        <time>2021-03-27T12:14:11Z</time>
      </trkpt>
      <trkpt lat="46.13347" lon="6.3126">
        <ele>437.8</ele>
        <time>2021-03-27T12:14:10Z</time>
      </trkpt>
      <trkpt lat="46.13353" lon="6.31259">
        <ele>437.8</ele>
        <time>2021-03-27T12:14:09Z</time>
      </trkpt>
      <trkpt lat="46.13359" lon="6.31256">
        <ele>438</ele>
        <time>2021-03-27T12:14:08Z</time>
      </trkpt>
      <trkpt lat="46.13366" lon="6.31254">
        <ele>438</ele>
        <time>2021-03-27T12:14:07Z</time>
      </trkpt>
      <trkpt lat="46.13372" lon="6.31251">
        <ele>437.8</ele>
        <time>2021-03-27T12:14:06Z</time>
      </trkpt>
      <trkpt lat="46.13386" lon="6.31244">
        <ele>438</ele>
        <time>2021-03-27T12:14:04Z</time>
      </trkpt>
      <trkpt lat="46.13394" lon="6.31241">
        <ele>438.2</ele>
        <time>2021-03-27T12:14:03Z</time>
      </trkpt>
      <trkpt lat="46.13402" lon="6.31237">
        <ele>438.4</ele>
        <time>2021-03-27T12:14:02Z</time>
      </trkpt>
      <trkpt lat="46.13411" lon="6.31233">
        <ele>438.6</ele>
        <time>2021-03-27T12:14:01Z</time>
      </trkpt>
      <trkpt lat="46.13421" lon="6.31229">
        <ele>439</ele>
        <time>2021-03-27T12:14:00Z</time>
      </trkpt>
      <trkpt lat="46.1343" lon="6.31224">
        <ele>439.4</ele>
        <time>2021-03-27T12:13:59Z</time>
      </trkpt>
      <trkpt lat="46.1344" lon="6.3122">
        <ele>439.8</ele>
        <time>2021-03-27T12:13:58Z</time>
      </trkpt>
      <trkpt lat="46.1345" lon="6.31215">
        <ele>440.6</ele>
        <time>2021-03-27T12:13:57Z</time>
      </trkpt>
      <trkpt lat="46.1346" lon="6.3121">
        <ele>441</ele>
        <time>2021-03-27T12:13:56Z</time>
      </trkpt>
      <trkpt lat="46.13469" lon="6.31206">
        <ele>441</ele>
        <time>2021-03-27T12:13:55Z</time>
      </trkpt>
      <trkpt lat="46.13479" lon="6.31201">
        <ele>441.2</ele>
        <time>2021-03-27T12:13:54Z</time>
      </trkpt>
      <trkpt lat="46.13489" lon="6.31197">
        <ele>441.6</ele>
        <time>2021-03-27T12:13:53Z</time>
      </trkpt>
      <trkpt lat="46.13498" lon="6.31193">
        <ele>441.8</ele>
        <time>2021-03-27T12:13:52Z</time>
      </trkpt>
      <trkpt lat="46.13507" lon="6.31189">
        <ele>442.8</ele>
        <time>2021-03-27T12:13:51Z</time>
      </trkpt>
      <trkpt lat="46.13517" lon="6.31187">
        <ele>443.2</ele>
        <time>2021-03-27T12:13:50Z</time>
      </trkpt>
      <trkpt lat="46.13526" lon="6.31186">
        <ele>443.4</ele>
        <time>2021-03-27T12:13:49Z</time>
      </trkpt>
      <trkpt lat="46.13536" lon="6.31187">
        <ele>443.6</ele>
        <time>2021-03-27T12:13:48Z</time>
      </trkpt>
      <trkpt lat="46.13545" lon="6.3119">
        <ele>443.8</ele>
        <time>2021-03-27T12:13:47Z</time>
      </trkpt>
      <trkpt lat="46.13554" lon="6.31194">
        <ele>444.4</ele>
        <time>2021-03-27T12:13:46Z</time>
      </trkpt>
      <trkpt lat="46.13562" lon="6.312">
        <ele>444.6</ele>
        <time>2021-03-27T12:13:45Z</time>
      </trkpt>
      <trkpt lat="46.13569" lon="6.31206">
        <ele>444.8</ele>
        <time>2021-03-27T12:13:44Z</time>
      </trkpt>
      <trkpt lat="46.13576" lon="6.31214">
        <ele>445</ele>
        <time>2021-03-27T12:13:43Z</time>
      </trkpt>
      <trkpt lat="46.13583" lon="6.31221">
        <ele>445.4</ele>
        <time>2021-03-27T12:13:42Z</time>
      </trkpt>
      <trkpt lat="46.1359" lon="6.31229">
        <ele>446</ele>
        <time>2021-03-27T12:13:41Z</time>
      </trkpt>
      <trkpt lat="46.13597" lon="6.31237">
        <ele>446.4</ele>
        <time>2021-03-27T12:13:40Z</time>
      </trkpt>
      <trkpt lat="46.13604" lon="6.31245">
        <ele>446.6</ele>
        <time>2021-03-27T12:13:39Z</time>
      </trkpt>
      <trkpt lat="46.1361" lon="6.31253">
        <ele>446.6</ele>
        <time>2021-03-27T12:13:38Z</time>
      </trkpt>
      <trkpt lat="46.13617" lon="6.31261">
        <ele>446.8</ele>
        <time>2021-03-27T12:13:37Z</time>
      </trkpt>
      <trkpt lat="46.13623" lon="6.31268">
        <ele>447</ele>
        <time>2021-03-27T12:13:36Z</time>
      </trkpt>
      <trkpt lat="46.1363" lon="6.31276">
        <ele>446.8</ele>
        <time>2021-03-27T12:13:35Z</time>
      </trkpt>
      <trkpt lat="46.13636" lon="6.31284">
        <ele>447</ele>
        <time>2021-03-27T12:13:34Z</time>
      </trkpt>
      <trkpt lat="46.13642" lon="6.31292">
        <ele>447</ele>
        <time>2021-03-27T12:13:33Z</time>
      </trkpt>
      <trkpt lat="46.13648" lon="6.31299">
        <ele>447.2</ele>
        <time>2021-03-27T12:13:32Z</time>
      </trkpt>
      <trkpt lat="46.13654" lon="6.31307">
        <ele>447.4</ele>
        <time>2021-03-27T12:13:31Z</time>
      </trkpt>
      <trkpt lat="46.1366" lon="6.31314">
        <ele>447.6</ele>
        <time>2021-03-27T12:13:30Z</time>
      </trkpt>
      <trkpt lat="46.13665" lon="6.31321">
        <ele>448</ele>
        <time>2021-03-27T12:13:29Z</time>
      </trkpt>
      <trkpt lat="46.1367" lon="6.31327">
        <ele>448.2</ele>
        <time>2021-03-27T12:13:28Z</time>
      </trkpt>
      <trkpt lat="46.13675" lon="6.3133">
        <ele>448.6</ele>
        <time>2021-03-27T12:13:27Z</time>
      </trkpt>
      <trkpt lat="46.1368" lon="6.3133">
        <ele>449</ele>
        <time>2021-03-27T12:13:26Z</time>
      </trkpt>
      <trkpt lat="46.13685" lon="6.31326">
        <ele>450</ele>
        <time>2021-03-27T12:13:25Z</time>
      </trkpt>
      <trkpt lat="46.1369" lon="6.3132">
        <ele>451.6</ele>
        <time>2021-03-27T12:13:24Z</time>
      </trkpt>
      <trkpt lat="46.13696" lon="6.31312">
        <ele>453.4</ele>
        <time>2021-03-27T12:13:23Z</time>
      </trkpt>
      <trkpt lat="46.13702" lon="6.31303">
        <ele>455.6</ele>
        <time>2021-03-27T12:13:22Z</time>
      </trkpt>
      <trkpt lat="46.13708" lon="6.31294">
        <ele>457.4</ele>
        <time>2021-03-27T12:13:21Z</time>
      </trkpt>
      <trkpt lat="46.13715" lon="6.31284">
        <ele>458.6</ele>
        <time>2021-03-27T12:13:20Z</time>
      </trkpt>
      <trkpt lat="46.13722" lon="6.31273">
        <ele>458.8</ele>
        <time>2021-03-27T12:13:19Z</time>
      </trkpt>
      <trkpt lat="46.1373" lon="6.31261">
        <ele>459.2</ele>
        <time>2021-03-27T12:13:18Z</time>
      </trkpt>
      <trkpt lat="46.13738" lon="6.31249">
        <ele>459.6</ele>
        <time>2021-03-27T12:13:17Z</time>
      </trkpt>
      <trkpt lat="46.13746" lon="6.31236">
        <ele>460.2</ele>
        <time>2021-03-27T12:13:16Z</time>
      </trkpt>
      <trkpt lat="46.13753" lon="6.31223">
        <ele>461.4</ele>
        <time>2021-03-27T12:13:15Z</time>
      </trkpt>
      <trkpt lat="46.13759" lon="6.3121">
        <ele>462</ele>
        <time>2021-03-27T12:13:14Z</time>
      </trkpt>
      <trkpt lat="46.13765" lon="6.31198">
        <ele>462.8</ele>
        <time>2021-03-27T12:13:13Z</time>
      </trkpt>
      <trkpt lat="46.1377" lon="6.31187">
        <ele>463.4</ele>
        <time>2021-03-27T12:13:12Z</time>
      </trkpt>
      <trkpt lat="46.13775" lon="6.31175">
        <ele>464.4</ele>
        <time>2021-03-27T12:13:11Z</time>
      </trkpt>
      <trkpt lat="46.13779" lon="6.31164">
        <ele>464.8</ele>
        <time>2021-03-27T12:13:10Z</time>
      </trkpt>
      <trkpt lat="46.13784" lon="6.31152">
        <ele>466</ele>
        <time>2021-03-27T12:13:09Z</time>
      </trkpt>
      <trkpt lat="46.13788" lon="6.3114">
        <ele>466.2</ele>
        <time>2021-03-27T12:13:08Z</time>
      </trkpt>
      <trkpt lat="46.13792" lon="6.31128">
        <ele>466.6</ele>
        <time>2021-03-27T12:13:07Z</time>
      </trkpt>
      <trkpt lat="46.13796" lon="6.31115">
        <ele>466.8</ele>
        <time>2021-03-27T12:13:06Z</time>
      </trkpt>
      <trkpt lat="46.138" lon="6.31103">
        <ele>467.2</ele>
        <time>2021-03-27T12:13:05Z</time>
      </trkpt>
      <trkpt lat="46.13804" lon="6.31091">
        <ele>467.2</ele>
        <time>2021-03-27T12:13:04Z</time>
      </trkpt>
      <trkpt lat="46.13808" lon="6.31079">
        <ele>467.4</ele>
        <time>2021-03-27T12:13:03Z</time>
      </trkpt>
      <trkpt lat="46.13812" lon="6.31069">
        <ele>467.4</ele>
        <time>2021-03-27T12:13:02Z</time>
      </trkpt>
      <trkpt lat="46.13816" lon="6.31059">
        <ele>467.4</ele>
        <time>2021-03-27T12:13:01Z</time>
      </trkpt>
      <trkpt lat="46.1382" lon="6.31049">
        <ele>467.4</ele>
        <time>2021-03-27T12:13:00Z</time>
      </trkpt>
      <trkpt lat="46.13824" lon="6.3104">
        <ele>467.6</ele>
        <time>2021-03-27T12:12:59Z</time>
      </trkpt>
      <trkpt lat="46.13828" lon="6.31031">
        <ele>467.6</ele>
        <time>2021-03-27T12:12:58Z</time>
      </trkpt>
      <trkpt lat="46.13832" lon="6.31022">
        <ele>467.4</ele>
        <time>2021-03-27T12:12:57Z</time>
      </trkpt>
      <trkpt lat="46.13837" lon="6.31015">
        <ele>467.4</ele>
        <time>2021-03-27T12:12:56Z</time>
      </trkpt>
      <trkpt lat="46.13841" lon="6.31009">
        <ele>467.4</ele>
        <time>2021-03-27T12:12:55Z</time>
      </trkpt>
      <trkpt lat="46.13846" lon="6.31002">
        <ele>467.4</ele>
        <time>2021-03-27T12:12:54Z</time>
      </trkpt>
      <trkpt lat="46.13851" lon="6.30995">
        <ele>467.6</ele>
        <time>2021-03-27T12:12:53Z</time>
      </trkpt>
      <trkpt lat="46.13856" lon="6.30989">
        <ele>467.6</ele>
        <time>2021-03-27T12:12:52Z</time>
      </trkpt>
      <trkpt lat="46.13861" lon="6.30982">
        <ele>467.6</ele>
        <time>2021-03-27T12:12:51Z</time>
      </trkpt>
      <trkpt lat="46.13866" lon="6.30976">
        <ele>467.6</ele>
        <time>2021-03-27T12:12:50Z</time>
      </trkpt>
      <trkpt lat="46.13871" lon="6.30969">
        <ele>467.6</ele>
        <time>2021-03-27T12:12:49Z</time>
      </trkpt>
      <trkpt lat="46.13876" lon="6.30963">
        <ele>467.6</ele>
        <time>2021-03-27T12:12:48Z</time>
      </trkpt>
      <trkpt lat="46.13881" lon="6.30956">
        <ele>467.6</ele>
        <time>2021-03-27T12:12:47Z</time>
      </trkpt>
      <trkpt lat="46.13886" lon="6.30949">
        <ele>467.6</ele>
        <time>2021-03-27T12:12:46Z</time>
      </trkpt>
      <trkpt lat="46.13891" lon="6.30942">
        <ele>467.6</ele>
        <time>2021-03-27T12:12:45Z</time>
      </trkpt>
      <trkpt lat="46.13896" lon="6.30935">
        <ele>467.4</ele>
        <time>2021-03-27T12:12:44Z</time>
      </trkpt>
      <trkpt lat="46.13901" lon="6.30928">
        <ele>467.4</ele>
        <time>2021-03-27T12:12:43Z</time>
      </trkpt>
      <trkpt lat="46.13905" lon="6.30921">
        <ele>467.4</ele>
        <time>2021-03-27T12:12:42Z</time>
      </trkpt>
      <trkpt lat="46.1391" lon="6.30913">
        <ele>467.2</ele>
        <time>2021-03-27T12:12:41Z</time>
      </trkpt>
      <trkpt lat="46.13915" lon="6.30906">
        <ele>467</ele>
        <time>2021-03-27T12:12:40Z</time>
      </trkpt>
      <trkpt lat="46.13919" lon="6.30898">
        <ele>466.8</ele>
        <time>2021-03-27T12:12:39Z</time>
      </trkpt>
      <trkpt lat="46.13924" lon="6.30891">
        <ele>467</ele>
        <time>2021-03-27T12:12:38Z</time>
      </trkpt>
      <trkpt lat="46.13928" lon="6.30884">
        <ele>467</ele>
        <time>2021-03-27T12:12:37Z</time>
      </trkpt>
      <trkpt lat="46.13933" lon="6.30877">
        <ele>467</ele>
        <time>2021-03-27T12:12:36Z</time>
      </trkpt>
      <trkpt lat="46.13939" lon="6.30872">
        <ele>466.8</ele>
        <time>2021-03-27T12:12:35Z</time>
      </trkpt>
      <trkpt lat="46.13944" lon="6.30867">
        <ele>466.8</ele>
        <time>2021-03-27T12:12:34Z</time>
      </trkpt>
      <trkpt lat="46.1395" lon="6.30864">
        <ele>466.8</ele>
        <time>2021-03-27T12:12:33Z</time>
      </trkpt>
      <trkpt lat="46.13956" lon="6.30861">
        <ele>466.8</ele>
        <time>2021-03-27T12:12:32Z</time>
      </trkpt>
      <trkpt lat="46.13962" lon="6.3086">
        <ele>466.8</ele>
        <time>2021-03-27T12:12:31Z</time>
      </trkpt>
      <trkpt lat="46.13968" lon="6.30857">
        <ele>466.8</ele>
        <time>2021-03-27T12:12:30Z</time>
      </trkpt>
      <trkpt lat="46.13974" lon="6.30854">
        <ele>466.6</ele>
        <time>2021-03-27T12:12:29Z</time>
      </trkpt>
      <trkpt lat="46.13979" lon="6.30849">
        <ele>466.6</ele>
        <time>2021-03-27T12:12:28Z</time>
      </trkpt>
      <trkpt lat="46.13983" lon="6.30843">
        <ele>466.6</ele>
        <time>2021-03-27T12:12:27Z</time>
      </trkpt>
      <trkpt lat="46.13987" lon="6.30835">
        <ele>466.8</ele>
        <time>2021-03-27T12:12:26Z</time>
      </trkpt>
      <trkpt lat="46.13991" lon="6.30826">
        <ele>466.6</ele>
        <time>2021-03-27T12:12:25Z</time>
      </trkpt>
      <trkpt lat="46.13995" lon="6.30818">
        <ele>466.6</ele>
        <time>2021-03-27T12:12:24Z</time>
      </trkpt>
      <trkpt lat="46.13998" lon="6.30809">
        <ele>466.6</ele>
        <time>2021-03-27T12:12:23Z</time>
      </trkpt>
      <trkpt lat="46.14001" lon="6.30801">
        <ele>466.6</ele>
        <time>2021-03-27T12:12:22Z</time>
      </trkpt>
      <trkpt lat="46.14004" lon="6.30793">
        <ele>466.4</ele>
        <time>2021-03-27T12:12:21Z</time>
      </trkpt>
      <trkpt lat="46.14008" lon="6.30785">
        <ele>466.2</ele>
        <time>2021-03-27T12:12:20Z</time>
      </trkpt>
      <trkpt lat="46.14012" lon="6.3078">
        <ele>466.4</ele>
        <time>2021-03-27T12:12:19Z</time>
      </trkpt>
      <trkpt lat="46.14017" lon="6.30778">
        <ele>466.2</ele>
        <time>2021-03-27T12:12:18Z</time>
      </trkpt>
      <trkpt lat="46.14022" lon="6.30779">
        <ele>466.2</ele>
        <time>2021-03-27T12:12:17Z</time>
      </trkpt>
      <trkpt lat="46.14027" lon="6.30784">
        <ele>466.2</ele>
        <time>2021-03-27T12:12:16Z</time>
      </trkpt>
      <trkpt lat="46.14032" lon="6.30788">
        <ele>466</ele>
        <time>2021-03-27T12:12:15Z</time>
      </trkpt>
      <trkpt lat="46.14037" lon="6.30793">
        <ele>466.2</ele>
        <time>2021-03-27T12:12:14Z</time>
      </trkpt>
      <trkpt lat="46.14042" lon="6.30798">
        <ele>466.2</ele>
        <time>2021-03-27T12:12:13Z</time>
      </trkpt>
      <trkpt lat="46.14047" lon="6.30802">
        <ele>466.2</ele>
        <time>2021-03-27T12:12:12Z</time>
      </trkpt>
      <trkpt lat="46.14053" lon="6.30806">
        <ele>466.2</ele>
        <time>2021-03-27T12:12:11Z</time>
      </trkpt>
      <trkpt lat="46.14058" lon="6.3081">
        <ele>466.2</ele>
        <time>2021-03-27T12:12:10Z</time>
      </trkpt>
      <trkpt lat="46.14063" lon="6.30813">
        <ele>466.2</ele>
        <time>2021-03-27T12:12:09Z</time>
      </trkpt>
      <trkpt lat="46.14069" lon="6.30815">
        <ele>466.2</ele>
        <time>2021-03-27T12:12:08Z</time>
      </trkpt>
      <trkpt lat="46.14076" lon="6.30817">
        <ele>466.2</ele>
        <time>2021-03-27T12:12:07Z</time>
      </trkpt>
      <trkpt lat="46.14081" lon="6.30819">
        <ele>466</ele>
        <time>2021-03-27T12:12:06Z</time>
      </trkpt>
      <trkpt lat="46.14087" lon="6.30819">
        <ele>466.2</ele>
        <time>2021-03-27T12:12:05Z</time>
      </trkpt>
      <trkpt lat="46.14092" lon="6.30817">
        <ele>466</ele>
        <time>2021-03-27T12:12:04Z</time>
      </trkpt>
      <trkpt lat="46.14095" lon="6.30811">
        <ele>466.2</ele>
        <time>2021-03-27T12:12:03Z</time>
      </trkpt>
      <trkpt lat="46.14098" lon="6.30804">
        <ele>466.2</ele>
        <time>2021-03-27T12:12:02Z</time>
      </trkpt>
      <trkpt lat="46.141" lon="6.30797">
        <ele>466</ele>
        <time>2021-03-27T12:12:01Z</time>
      </trkpt>
      <trkpt lat="46.14103" lon="6.3079">
        <ele>465.8</ele>
        <time>2021-03-27T12:12:00Z</time>
      </trkpt>
      <trkpt lat="46.14106" lon="6.30784">
        <ele>465.6</ele>
        <time>2021-03-27T12:11:59Z</time>
      </trkpt>
      <trkpt lat="46.1411" lon="6.30777">
        <ele>465.6</ele>
        <time>2021-03-27T12:11:58Z</time>
      </trkpt>
      <trkpt lat="46.14114" lon="6.30771">
        <ele>465.4</ele>
        <time>2021-03-27T12:11:57Z</time>
      </trkpt>
      <trkpt lat="46.14118" lon="6.30766">
        <ele>465.4</ele>
        <time>2021-03-27T12:11:56Z</time>
      </trkpt>
      <trkpt lat="46.14122" lon="6.30761">
        <ele>465.2</ele>
        <time>2021-03-27T12:11:55Z</time>
      </trkpt>
      <trkpt lat="46.14127" lon="6.30755">
        <ele>465.2</ele>
        <time>2021-03-27T12:11:54Z</time>
      </trkpt>
      <trkpt lat="46.14132" lon="6.30751">
        <ele>465</ele>
        <time>2021-03-27T12:11:53Z</time>
      </trkpt>
      <trkpt lat="46.14138" lon="6.30746">
        <ele>464.8</ele>
        <time>2021-03-27T12:11:52Z</time>
      </trkpt>
      <trkpt lat="46.14142" lon="6.30743">
        <ele>464.2</ele>
        <time>2021-03-27T12:11:51Z</time>
      </trkpt>
      <trkpt lat="46.14147" lon="6.30739">
        <ele>464.2</ele>
        <time>2021-03-27T12:11:50Z</time>
      </trkpt>
      <trkpt lat="46.14152" lon="6.30736">
        <ele>463.6</ele>
        <time>2021-03-27T12:11:49Z</time>
      </trkpt>
      <trkpt lat="46.14157" lon="6.30734">
        <ele>463.2</ele>
        <time>2021-03-27T12:11:48Z</time>
      </trkpt>
      <trkpt lat="46.14162" lon="6.30732">
        <ele>462.8</ele>
        <time>2021-03-27T12:11:47Z</time>
      </trkpt>
      <trkpt lat="46.14167" lon="6.30731">
        <ele>462.4</ele>
        <time>2021-03-27T12:11:46Z</time>
      </trkpt>
      <trkpt lat="46.14172" lon="6.30729">
        <ele>461.8</ele>
        <time>2021-03-27T12:11:45Z</time>
      </trkpt>
      <trkpt lat="46.14177" lon="6.30727">
        <ele>461.8</ele>
        <time>2021-03-27T12:11:44Z</time>
      </trkpt>
      <trkpt lat="46.14182" lon="6.30725">
        <ele>461.6</ele>
        <time>2021-03-27T12:11:43Z</time>
      </trkpt>
      <trkpt lat="46.14187" lon="6.30723">
        <ele>461.4</ele>
        <time>2021-03-27T12:11:42Z</time>
      </trkpt>
      <trkpt lat="46.14192" lon="6.30721">
        <ele>461.4</ele>
        <time>2021-03-27T12:11:41Z</time>
      </trkpt>
      <trkpt lat="46.14197" lon="6.30719">
        <ele>461.4</ele>
        <time>2021-03-27T12:11:40Z</time>
      </trkpt>
      <trkpt lat="46.14202" lon="6.30717">
        <ele>461.2</ele>
        <time>2021-03-27T12:11:39Z</time>
      </trkpt>
      <trkpt lat="46.14208" lon="6.30715">
        <ele>461</ele>
        <time>2021-03-27T12:11:38Z</time>
      </trkpt>
      <trkpt lat="46.14213" lon="6.30712">
        <ele>461</ele>
        <time>2021-03-27T12:11:37Z</time>
      </trkpt>
      <trkpt lat="46.14218" lon="6.30709">
        <ele>460.8</ele>
        <time>2021-03-27T12:11:36Z</time>
      </trkpt>
      <trkpt lat="46.14223" lon="6.30707">
        <ele>460.6</ele>
        <time>2021-03-27T12:11:35Z</time>
      </trkpt>
      <trkpt lat="46.14229" lon="6.30703">
        <ele>460.4</ele>
        <time>2021-03-27T12:11:34Z</time>
      </trkpt>
      <trkpt lat="46.14233" lon="6.307">
        <ele>460</ele>
        <time>2021-03-27T12:11:33Z</time>
      </trkpt>
      <trkpt lat="46.14238" lon="6.30695">
        <ele>460</ele>
        <time>2021-03-27T12:11:32Z</time>
      </trkpt>
      <trkpt lat="46.14243" lon="6.30691">
        <ele>459.8</ele>
        <time>2021-03-27T12:11:31Z</time>
      </trkpt>
      <trkpt lat="46.14247" lon="6.30686">
        <ele>459.8</ele>
        <time>2021-03-27T12:11:30Z</time>
      </trkpt>
      <trkpt lat="46.14252" lon="6.30681">
        <ele>459.8</ele>
        <time>2021-03-27T12:11:29Z</time>
      </trkpt>
      <trkpt lat="46.14256" lon="6.30676">
        <ele>459.6</ele>
        <time>2021-03-27T12:11:28Z</time>
      </trkpt>
      <trkpt lat="46.1426" lon="6.30672">
        <ele>459.2</ele>
        <time>2021-03-27T12:11:27Z</time>
      </trkpt>
      <trkpt lat="46.14264" lon="6.30667">
        <ele>459.2</ele>
        <time>2021-03-27T12:11:26Z</time>
      </trkpt>
      <trkpt lat="46.14268" lon="6.30662">
        <ele>459</ele>
        <time>2021-03-27T12:11:25Z</time>
      </trkpt>
      <trkpt lat="46.14272" lon="6.30657">
        <ele>459</ele>
        <time>2021-03-27T12:11:24Z</time>
      </trkpt>
      <trkpt lat="46.14276" lon="6.30652">
        <ele>459</ele>
        <time>2021-03-27T12:11:23Z</time>
      </trkpt>
      <trkpt lat="46.1428" lon="6.30647">
        <ele>459</ele>
        <time>2021-03-27T12:11:22Z</time>
      </trkpt>
      <trkpt lat="46.14284" lon="6.30642">
        <ele>459</ele>
        <time>2021-03-27T12:11:21Z</time>
      </trkpt>
      <trkpt lat="46.14288" lon="6.30636">
        <ele>458.8</ele>
        <time>2021-03-27T12:11:20Z</time>
      </trkpt>
      <trkpt lat="46.14292" lon="6.30631">
        <ele>459</ele>
        <time>2021-03-27T12:11:19Z</time>
      </trkpt>
      <trkpt lat="46.14297" lon="6.30626">
        <ele>458.8</ele>
        <time>2021-03-27T12:11:18Z</time>
      </trkpt>
      <trkpt lat="46.14301" lon="6.30622">
        <ele>458.8</ele>
        <time>2021-03-27T12:11:17Z</time>
      </trkpt>
      <trkpt lat="46.14305" lon="6.30617">
        <ele>458.6</ele>
        <time>2021-03-27T12:11:16Z</time>
      </trkpt>
      <trkpt lat="46.1431" lon="6.30612">
        <ele>458.6</ele>
        <time>2021-03-27T12:11:15Z</time>
      </trkpt>
      <trkpt lat="46.14314" lon="6.30607">
        <ele>458.6</ele>
        <time>2021-03-27T12:11:14Z</time>
      </trkpt>
      <trkpt lat="46.14319" lon="6.30603">
        <ele>458.6</ele>
        <time>2021-03-27T12:11:13Z</time>
      </trkpt>
      <trkpt lat="46.14323" lon="6.30598">
        <ele>458.4</ele>
        <time>2021-03-27T12:11:12Z</time>
      </trkpt>
      <trkpt lat="46.14328" lon="6.30594">
        <ele>458.2</ele>
        <time>2021-03-27T12:11:11Z</time>
      </trkpt>
      <trkpt lat="46.14334" lon="6.3059">
        <ele>458.2</ele>
        <time>2021-03-27T12:11:10Z</time>
      </trkpt>
      <trkpt lat="46.14339" lon="6.30586">
        <ele>458</ele>
        <time>2021-03-27T12:11:09Z</time>
      </trkpt>
      <trkpt lat="46.14344" lon="6.30582">
        <ele>458</ele>
        <time>2021-03-27T12:11:08Z</time>
      </trkpt>
      <trkpt lat="46.14349" lon="6.30577">
        <ele>457.6</ele>
        <time>2021-03-27T12:11:07Z</time>
      </trkpt>
      <trkpt lat="46.14354" lon="6.30573">
        <ele>457.4</ele>
        <time>2021-03-27T12:11:06Z</time>
      </trkpt>
      <trkpt lat="46.14359" lon="6.30568">
        <ele>456.8</ele>
        <time>2021-03-27T12:11:05Z</time>
      </trkpt>
      <trkpt lat="46.14364" lon="6.30564">
        <ele>456.8</ele>
        <time>2021-03-27T12:11:04Z</time>
      </trkpt>
      <trkpt lat="46.14369" lon="6.3056">
        <ele>456.4</ele>
        <time>2021-03-27T12:11:03Z</time>
      </trkpt>
      <trkpt lat="46.14374" lon="6.30555">
        <ele>456.2</ele>
        <time>2021-03-27T12:11:02Z</time>
      </trkpt>
      <trkpt lat="46.14379" lon="6.3055">
        <ele>456</ele>
        <time>2021-03-27T12:11:01Z</time>
      </trkpt>
      <trkpt lat="46.14383" lon="6.30546">
        <ele>456</ele>
        <time>2021-03-27T12:11:00Z</time>
      </trkpt>
      <trkpt lat="46.14388" lon="6.30542">
        <ele>455.6</ele>
        <time>2021-03-27T12:10:59Z</time>
      </trkpt>
      <trkpt lat="46.14393" lon="6.30539">
        <ele>455.2</ele>
        <time>2021-03-27T12:10:58Z</time>
      </trkpt>
      <trkpt lat="46.14397" lon="6.30536">
        <ele>454.8</ele>
        <time>2021-03-27T12:10:57Z</time>
      </trkpt>
      <trkpt lat="46.14402" lon="6.30535">
        <ele>454.6</ele>
        <time>2021-03-27T12:10:56Z</time>
      </trkpt>
      <trkpt lat="46.14406" lon="6.30535">
        <ele>454</ele>
        <time>2021-03-27T12:10:55Z</time>
      </trkpt>
      <trkpt lat="46.14411" lon="6.30536">
        <ele>453.8</ele>
        <time>2021-03-27T12:10:54Z</time>
      </trkpt>
      <trkpt lat="46.14416" lon="6.30537">
        <ele>453.4</ele>
        <time>2021-03-27T12:10:53Z</time>
      </trkpt>
      <trkpt lat="46.1442" lon="6.3054">
        <ele>452.4</ele>
        <time>2021-03-27T12:10:52Z</time>
      </trkpt>
      <trkpt lat="46.14425" lon="6.30543">
        <ele>451.6</ele>
        <time>2021-03-27T12:10:51Z</time>
      </trkpt>
      <trkpt lat="46.14429" lon="6.30546">
        <ele>450.8</ele>
        <time>2021-03-27T12:10:50Z</time>
      </trkpt>
      <trkpt lat="46.14433" lon="6.30549">
        <ele>450.2</ele>
        <time>2021-03-27T12:10:49Z</time>
      </trkpt>
      <trkpt lat="46.14438" lon="6.30553">
        <ele>450</ele>
        <time>2021-03-27T12:10:48Z</time>
      </trkpt>
      <trkpt lat="46.14442" lon="6.30557">
        <ele>449.6</ele>
        <time>2021-03-27T12:10:47Z</time>
      </trkpt>
      <trkpt lat="46.14446" lon="6.30561">
        <ele>449.6</ele>
        <time>2021-03-27T12:10:46Z</time>
      </trkpt>
      <trkpt lat="46.1445" lon="6.30566">
        <ele>449.4</ele>
        <time>2021-03-27T12:10:45Z</time>
      </trkpt>
      <trkpt lat="46.14455" lon="6.3057">
        <ele>449.6</ele>
        <time>2021-03-27T12:10:44Z</time>
      </trkpt>
      <trkpt lat="46.1446" lon="6.30575">
        <ele>449.6</ele>
        <time>2021-03-27T12:10:43Z</time>
      </trkpt>
      <trkpt lat="46.14465" lon="6.30581">
        <ele>449.6</ele>
        <time>2021-03-27T12:10:42Z</time>
      </trkpt>
      <trkpt lat="46.14471" lon="6.30587">
        <ele>449.6</ele>
        <time>2021-03-27T12:10:41Z</time>
      </trkpt>
      <trkpt lat="46.14478" lon="6.30592">
        <ele>449.6</ele>
        <time>2021-03-27T12:10:40Z</time>
      </trkpt>
      <trkpt lat="46.14486" lon="6.30597">
        <ele>449.6</ele>
        <time>2021-03-27T12:10:39Z</time>
      </trkpt>
      <trkpt lat="46.14494" lon="6.306">
        <ele>449.6</ele>
        <time>2021-03-27T12:10:38Z</time>
      </trkpt>
      <trkpt lat="46.14503" lon="6.30601">
        <ele>450</ele>
        <time>2021-03-27T12:10:37Z</time>
      </trkpt>
      <trkpt lat="46.14512" lon="6.30599">
        <ele>450</ele>
        <time>2021-03-27T12:10:36Z</time>
      </trkpt>
      <trkpt lat="46.14522" lon="6.30595">
        <ele>450.4</ele>
        <time>2021-03-27T12:10:35Z</time>
      </trkpt>
      <trkpt lat="46.1453" lon="6.30589">
        <ele>451</ele>
        <time>2021-03-27T12:10:34Z</time>
      </trkpt>
      <trkpt lat="46.14539" lon="6.30581">
        <ele>451.8</ele>
        <time>2021-03-27T12:10:33Z</time>
      </trkpt>
      <trkpt lat="46.14547" lon="6.30572">
        <ele>452.6</ele>
        <time>2021-03-27T12:10:32Z</time>
      </trkpt>
      <trkpt lat="46.14555" lon="6.30563">
        <ele>453.4</ele>
        <time>2021-03-27T12:10:31Z</time>
      </trkpt>
      <trkpt lat="46.14562" lon="6.30553">
        <ele>453.8</ele>
        <time>2021-03-27T12:10:30Z</time>
      </trkpt>
      <trkpt lat="46.14569" lon="6.30542">
        <ele>454.2</ele>
        <time>2021-03-27T12:10:29Z</time>
      </trkpt>
      <trkpt lat="46.14576" lon="6.30531">
        <ele>454.8</ele>
        <time>2021-03-27T12:10:28Z</time>
      </trkpt>
      <trkpt lat="46.14583" lon="6.30521">
        <ele>455.8</ele>
        <time>2021-03-27T12:10:27Z</time>
      </trkpt>
      <trkpt lat="46.14591" lon="6.30511">
        <ele>456.8</ele>
        <time>2021-03-27T12:10:26Z</time>
      </trkpt>
      <trkpt lat="46.14599" lon="6.30504">
        <ele>457.2</ele>
        <time>2021-03-27T12:10:25Z</time>
      </trkpt>
      <trkpt lat="46.14608" lon="6.305">
        <ele>457.4</ele>
        <time>2021-03-27T12:10:24Z</time>
      </trkpt>
      <trkpt lat="46.14618" lon="6.30499">
        <ele>458</ele>
        <time>2021-03-27T12:10:23Z</time>
      </trkpt>
      <trkpt lat="46.14627" lon="6.30501">
        <ele>458.2</ele>
        <time>2021-03-27T12:10:22Z</time>
      </trkpt>
      <trkpt lat="46.14636" lon="6.30504">
        <ele>458.2</ele>
        <time>2021-03-27T12:10:21Z</time>
      </trkpt>
      <trkpt lat="46.14646" lon="6.30507">
        <ele>458.6</ele>
        <time>2021-03-27T12:10:20Z</time>
      </trkpt>
      <trkpt lat="46.14655" lon="6.3051">
        <ele>459.2</ele>
        <time>2021-03-27T12:10:19Z</time>
      </trkpt>
      <trkpt lat="46.14664" lon="6.30513">
        <ele>459</ele>
        <time>2021-03-27T12:10:18Z</time>
      </trkpt>
      <trkpt lat="46.14673" lon="6.30516">
        <ele>459</ele>
        <time>2021-03-27T12:10:17Z</time>
      </trkpt>
      <trkpt lat="46.14682" lon="6.30519">
        <ele>459.2</ele>
        <time>2021-03-27T12:10:16Z</time>
      </trkpt>
      <trkpt lat="46.14691" lon="6.30522">
        <ele>459.2</ele>
        <time>2021-03-27T12:10:15Z</time>
      </trkpt>
      <trkpt lat="46.147" lon="6.30525">
        <ele>459.2</ele>
        <time>2021-03-27T12:10:14Z</time>
      </trkpt>
      <trkpt lat="46.14708" lon="6.30527">
        <ele>459</ele>
        <time>2021-03-27T12:10:13Z</time>
      </trkpt>
      <trkpt lat="46.14716" lon="6.3053">
        <ele>459</ele>
        <time>2021-03-27T12:10:12Z</time>
      </trkpt>
      <trkpt lat="46.14724" lon="6.30532">
        <ele>459</ele>
        <time>2021-03-27T12:10:11Z</time>
      </trkpt>
      <trkpt lat="46.14732" lon="6.30534">
        <ele>459</ele>
        <time>2021-03-27T12:10:10Z</time>
      </trkpt>
      <trkpt lat="46.1474" lon="6.30536">
        <ele>458.8</ele>
        <time>2021-03-27T12:10:09Z</time>
      </trkpt>
      <trkpt lat="46.14747" lon="6.30538">
        <ele>458.6</ele>
        <time>2021-03-27T12:10:08Z</time>
      </trkpt>
      <trkpt lat="46.14754" lon="6.3054">
        <ele>458.8</ele>
        <time>2021-03-27T12:10:07Z</time>
      </trkpt>
      <trkpt lat="46.14762" lon="6.30542">
        <ele>458.6</ele>
        <time>2021-03-27T12:10:06Z</time>
      </trkpt>
      <trkpt lat="46.14768" lon="6.30544">
        <ele>458.4</ele>
        <time>2021-03-27T12:10:05Z</time>
      </trkpt>
      <trkpt lat="46.14775" lon="6.30546">
        <ele>458.2</ele>
        <time>2021-03-27T12:10:04Z</time>
      </trkpt>
      <trkpt lat="46.14782" lon="6.30548">
        <ele>458.2</ele>
        <time>2021-03-27T12:10:03Z</time>
      </trkpt>
      <trkpt lat="46.14789" lon="6.30551">
        <ele>458.2</ele>
        <time>2021-03-27T12:10:02Z</time>
      </trkpt>
      <trkpt lat="46.14795" lon="6.30554">
        <ele>458</ele>
        <time>2021-03-27T12:10:01Z</time>
      </trkpt>
      <trkpt lat="46.14801" lon="6.30557">
        <ele>457.8</ele>
        <time>2021-03-27T12:10:00Z</time>
      </trkpt>
      <trkpt lat="46.14808" lon="6.30561">
        <ele>457.8</ele>
        <time>2021-03-27T12:09:59Z</time>
      </trkpt>
      <trkpt lat="46.14815" lon="6.30564">
        <ele>457.6</ele>
        <time>2021-03-27T12:09:58Z</time>
      </trkpt>
      <trkpt lat="46.14821" lon="6.30568">
        <ele>457.6</ele>
        <time>2021-03-27T12:09:57Z</time>
      </trkpt>
      <trkpt lat="46.14828" lon="6.30572">
        <ele>457.4</ele>
        <time>2021-03-27T12:09:56Z</time>
      </trkpt>
      <trkpt lat="46.14835" lon="6.30575">
        <ele>457.4</ele>
        <time>2021-03-27T12:09:55Z</time>
      </trkpt>
      <trkpt lat="46.14842" lon="6.30579">
        <ele>457.4</ele>
        <time>2021-03-27T12:09:54Z</time>
      </trkpt>
      <trkpt lat="46.14849" lon="6.30583">
        <ele>457.4</ele>
        <time>2021-03-27T12:09:53Z</time>
      </trkpt>
      <trkpt lat="46.14856" lon="6.30586">
        <ele>457.4</ele>
        <time>2021-03-27T12:09:52Z</time>
      </trkpt>
      <trkpt lat="46.14863" lon="6.3059">
        <ele>457.4</ele>
        <time>2021-03-27T12:09:51Z</time>
      </trkpt>
      <trkpt lat="46.14869" lon="6.30595">
        <ele>457.4</ele>
        <time>2021-03-27T12:09:50Z</time>
      </trkpt>
      <trkpt lat="46.14876" lon="6.30599">
        <ele>457.6</ele>
        <time>2021-03-27T12:09:49Z</time>
      </trkpt>
      <trkpt lat="46.14883" lon="6.30604">
        <ele>457.6</ele>
        <time>2021-03-27T12:09:48Z</time>
      </trkpt>
      <trkpt lat="46.14889" lon="6.30608">
        <ele>457.4</ele>
        <time>2021-03-27T12:09:47Z</time>
      </trkpt>
      <trkpt lat="46.14896" lon="6.30613">
        <ele>457.6</ele>
        <time>2021-03-27T12:09:46Z</time>
      </trkpt>
      <trkpt lat="46.14902" lon="6.30618">
        <ele>457.6</ele>
        <time>2021-03-27T12:09:45Z</time>
      </trkpt>
      <trkpt lat="46.14908" lon="6.30624">
        <ele>457.6</ele>
        <time>2021-03-27T12:09:44Z</time>
      </trkpt>
      <trkpt lat="46.14914" lon="6.3063">
        <ele>457.6</ele>
        <time>2021-03-27T12:09:43Z</time>
      </trkpt>
      <trkpt lat="46.1492" lon="6.30636">
        <ele>457.8</ele>
        <time>2021-03-27T12:09:42Z</time>
      </trkpt>
      <trkpt lat="46.14927" lon="6.30642">
        <ele>457.8</ele>
        <time>2021-03-27T12:09:41Z</time>
      </trkpt>
      <trkpt lat="46.14934" lon="6.30649">
        <ele>458.2</ele>
        <time>2021-03-27T12:09:40Z</time>
      </trkpt>
      <trkpt lat="46.1494" lon="6.30656">
        <ele>458.4</ele>
        <time>2021-03-27T12:09:39Z</time>
      </trkpt>
      <trkpt lat="46.14949" lon="6.30661">
        <ele>458.6</ele>
        <time>2021-03-27T12:09:38Z</time>
      </trkpt>
      <trkpt lat="46.14956" lon="6.30665">
        <ele>459.2</ele>
        <time>2021-03-27T12:09:37Z</time>
      </trkpt>
      <trkpt lat="46.14963" lon="6.30671">
        <ele>459.8</ele>
        <time>2021-03-27T12:09:36Z</time>
      </trkpt>
      <trkpt lat="46.1497" lon="6.30677">
        <ele>460.6</ele>
        <time>2021-03-27T12:09:35Z</time>
      </trkpt>
      <trkpt lat="46.14978" lon="6.30682">
        <ele>461.2</ele>
        <time>2021-03-27T12:09:34Z</time>
      </trkpt>
      <trkpt lat="46.14986" lon="6.30688">
        <ele>462</ele>
        <time>2021-03-27T12:09:33Z</time>
      </trkpt>
      <trkpt lat="46.14994" lon="6.30693">
        <ele>462.2</ele>
        <time>2021-03-27T12:09:32Z</time>
      </trkpt>
      <trkpt lat="46.15003" lon="6.30696">
        <ele>462.6</ele>
        <time>2021-03-27T12:09:31Z</time>
      </trkpt>
      <trkpt lat="46.15012" lon="6.30699">
        <ele>463.4</ele>
        <time>2021-03-27T12:09:30Z</time>
      </trkpt>
      <trkpt lat="46.15021" lon="6.307">
        <ele>463.4</ele>
        <time>2021-03-27T12:09:29Z</time>
      </trkpt>
      <trkpt lat="46.1503" lon="6.307">
        <ele>464</ele>
        <time>2021-03-27T12:09:28Z</time>
      </trkpt>
      <trkpt lat="46.15039" lon="6.30698">
        <ele>465.2</ele>
        <time>2021-03-27T12:09:27Z</time>
      </trkpt>
      <trkpt lat="46.15048" lon="6.30696">
        <ele>466.8</ele>
        <time>2021-03-27T12:09:26Z</time>
      </trkpt>
      <trkpt lat="46.15057" lon="6.30693">
        <ele>468</ele>
        <time>2021-03-27T12:09:25Z</time>
      </trkpt>
      <trkpt lat="46.15066" lon="6.30689">
        <ele>468.8</ele>
        <time>2021-03-27T12:09:24Z</time>
      </trkpt>
      <trkpt lat="46.15075" lon="6.30686">
        <ele>469.6</ele>
        <time>2021-03-27T12:09:23Z</time>
      </trkpt>
      <trkpt lat="46.15085" lon="6.30682">
        <ele>470</ele>
        <time>2021-03-27T12:09:22Z</time>
      </trkpt>
      <trkpt lat="46.15095" lon="6.30679">
        <ele>470.2</ele>
        <time>2021-03-27T12:09:21Z</time>
      </trkpt>
      <trkpt lat="46.15104" lon="6.30676">
        <ele>470.2</ele>
        <time>2021-03-27T12:09:20Z</time>
      </trkpt>
      <trkpt lat="46.15114" lon="6.30676">
        <ele>470.4</ele>
        <time>2021-03-27T12:09:19Z</time>
      </trkpt>
      <trkpt lat="46.15124" lon="6.30678">
        <ele>470.6</ele>
        <time>2021-03-27T12:09:18Z</time>
      </trkpt>
      <trkpt lat="46.15133" lon="6.30682">
        <ele>471.2</ele>
        <time>2021-03-27T12:09:17Z</time>
      </trkpt>
      <trkpt lat="46.15141" lon="6.30688">
        <ele>471.2</ele>
        <time>2021-03-27T12:09:16Z</time>
      </trkpt>
      <trkpt lat="46.15149" lon="6.30696">
        <ele>471.6</ele>
        <time>2021-03-27T12:09:15Z</time>
      </trkpt>
      <trkpt lat="46.15156" lon="6.30704">
        <ele>471.8</ele>
        <time>2021-03-27T12:09:14Z</time>
      </trkpt>
      <trkpt lat="46.15163" lon="6.30712">
        <ele>472.4</ele>
        <time>2021-03-27T12:09:13Z</time>
      </trkpt>
      <trkpt lat="46.1517" lon="6.3072">
        <ele>473</ele>
        <time>2021-03-27T12:09:12Z</time>
      </trkpt>
      <trkpt lat="46.15177" lon="6.30727">
        <ele>473.4</ele>
        <time>2021-03-27T12:09:11Z</time>
      </trkpt>
      <trkpt lat="46.15185" lon="6.30732">
        <ele>473.6</ele>
        <time>2021-03-27T12:09:10Z</time>
      </trkpt>
      <trkpt lat="46.15193" lon="6.30736">
        <ele>473.8</ele>
        <time>2021-03-27T12:09:09Z</time>
      </trkpt>
      <trkpt lat="46.15201" lon="6.30737">
        <ele>473.8</ele>
        <time>2021-03-27T12:09:08Z</time>
      </trkpt>
      <trkpt lat="46.1521" lon="6.30736">
        <ele>474</ele>
        <time>2021-03-27T12:09:07Z</time>
      </trkpt>
      <trkpt lat="46.15218" lon="6.30734">
        <ele>474</ele>
        <time>2021-03-27T12:09:06Z</time>
      </trkpt>
      <trkpt lat="46.15226" lon="6.30731">
        <ele>474.4</ele>
        <time>2021-03-27T12:09:05Z</time>
      </trkpt>
      <trkpt lat="46.15234" lon="6.30729">
        <ele>474.8</ele>
        <time>2021-03-27T12:09:04Z</time>
      </trkpt>
      <trkpt lat="46.15242" lon="6.30727">
        <ele>475.2</ele>
        <time>2021-03-27T12:09:03Z</time>
      </trkpt>
      <trkpt lat="46.1525" lon="6.30724">
        <ele>475.8</ele>
        <time>2021-03-27T12:09:02Z</time>
      </trkpt>
      <trkpt lat="46.15258" lon="6.30722">
        <ele>476</ele>
        <time>2021-03-27T12:09:01Z</time>
      </trkpt>
      <trkpt lat="46.15266" lon="6.30719">
        <ele>476.2</ele>
        <time>2021-03-27T12:09:00Z</time>
      </trkpt>
      <trkpt lat="46.15273" lon="6.30717">
        <ele>476.4</ele>
        <time>2021-03-27T12:08:59Z</time>
      </trkpt>
      <trkpt lat="46.15281" lon="6.30715">
        <ele>476.4</ele>
        <time>2021-03-27T12:08:58Z</time>
      </trkpt>
      <trkpt lat="46.15288" lon="6.30712">
        <ele>476.8</ele>
        <time>2021-03-27T12:08:57Z</time>
      </trkpt>
      <trkpt lat="46.15296" lon="6.3071">
        <ele>477</ele>
        <time>2021-03-27T12:08:56Z</time>
      </trkpt>
      <trkpt lat="46.15303" lon="6.30709">
        <ele>477.4</ele>
        <time>2021-03-27T12:08:55Z</time>
      </trkpt>
      <trkpt lat="46.15311" lon="6.3071">
        <ele>477.6</ele>
        <time>2021-03-27T12:08:54Z</time>
      </trkpt>
      <trkpt lat="46.15318" lon="6.30712">
        <ele>478.2</ele>
        <time>2021-03-27T12:08:53Z</time>
      </trkpt>
      <trkpt lat="46.15326" lon="6.30715">
        <ele>478.2</ele>
        <time>2021-03-27T12:08:52Z</time>
      </trkpt>
      <trkpt lat="46.15333" lon="6.30718">
        <ele>478.4</ele>
        <time>2021-03-27T12:08:51Z</time>
      </trkpt>
      <trkpt lat="46.1534" lon="6.30719">
        <ele>478.4</ele>
        <time>2021-03-27T12:08:50Z</time>
      </trkpt>
      <trkpt lat="46.15347" lon="6.30718">
        <ele>478.6</ele>
        <time>2021-03-27T12:08:49Z</time>
      </trkpt>
      <trkpt lat="46.15352" lon="6.30714">
        <ele>478.4</ele>
        <time>2021-03-27T12:08:48Z</time>
      </trkpt>
      <trkpt lat="46.15358" lon="6.30708">
        <ele>478.6</ele>
        <time>2021-03-27T12:08:47Z</time>
      </trkpt>
      <trkpt lat="46.15364" lon="6.30701">
        <ele>478.6</ele>
        <time>2021-03-27T12:08:46Z</time>
      </trkpt>
      <trkpt lat="46.1537" lon="6.30693">
        <ele>478.6</ele>
        <time>2021-03-27T12:08:45Z</time>
      </trkpt>
      <trkpt lat="46.15376" lon="6.30686">
        <ele>478.6</ele>
        <time>2021-03-27T12:08:44Z</time>
      </trkpt>
      <trkpt lat="46.15381" lon="6.30678">
        <ele>478.6</ele>
        <time>2021-03-27T12:08:43Z</time>
      </trkpt>
      <trkpt lat="46.15386" lon="6.30669">
        <ele>478.6</ele>
        <time>2021-03-27T12:08:42Z</time>
      </trkpt>
      <trkpt lat="46.1539" lon="6.3066">
        <ele>478.6</ele>
        <time>2021-03-27T12:08:41Z</time>
      </trkpt>
      <trkpt lat="46.15394" lon="6.30651">
        <ele>478.4</ele>
        <time>2021-03-27T12:08:40Z</time>
      </trkpt>
      <trkpt lat="46.15397" lon="6.30641">
        <ele>478.4</ele>
        <time>2021-03-27T12:08:39Z</time>
      </trkpt>
      <trkpt lat="46.154" lon="6.3063">
        <ele>478.2</ele>
        <time>2021-03-27T12:08:38Z</time>
      </trkpt>
      <trkpt lat="46.15402" lon="6.3062">
        <ele>478.2</ele>
        <time>2021-03-27T12:08:37Z</time>
      </trkpt>
      <trkpt lat="46.15405" lon="6.3061">
        <ele>478</ele>
        <time>2021-03-27T12:08:36Z</time>
      </trkpt>
      <trkpt lat="46.15407" lon="6.30599">
        <ele>478</ele>
        <time>2021-03-27T12:08:35Z</time>
      </trkpt>
      <trkpt lat="46.1541" lon="6.30589">
        <ele>478</ele>
        <time>2021-03-27T12:08:34Z</time>
      </trkpt>
      <trkpt lat="46.15413" lon="6.30578">
        <ele>477.8</ele>
        <time>2021-03-27T12:08:33Z</time>
      </trkpt>
      <trkpt lat="46.15416" lon="6.30568">
        <ele>477.8</ele>
        <time>2021-03-27T12:08:32Z</time>
      </trkpt>
      <trkpt lat="46.15419" lon="6.30558">
        <ele>477.6</ele>
        <time>2021-03-27T12:08:31Z</time>
      </trkpt>
      <trkpt lat="46.15421" lon="6.30547">
        <ele>477.6</ele>
        <time>2021-03-27T12:08:30Z</time>
      </trkpt>
      <trkpt lat="46.15424" lon="6.30536">
        <ele>477.6</ele>
        <time>2021-03-27T12:08:29Z</time>
      </trkpt>
      <trkpt lat="46.15426" lon="6.30525">
        <ele>477.4</ele>
        <time>2021-03-27T12:08:28Z</time>
      </trkpt>
      <trkpt lat="46.15427" lon="6.30514">
        <ele>477.2</ele>
        <time>2021-03-27T12:08:27Z</time>
      </trkpt>
      <trkpt lat="46.15428" lon="6.30503">
        <ele>477</ele>
        <time>2021-03-27T12:08:26Z</time>
      </trkpt>
      <trkpt lat="46.15429" lon="6.30491">
        <ele>477</ele>
        <time>2021-03-27T12:08:25Z</time>
      </trkpt>
      <trkpt lat="46.1543" lon="6.30479">
        <ele>477.2</ele>
        <time>2021-03-27T12:08:24Z</time>
      </trkpt>
      <trkpt lat="46.15432" lon="6.30467">
        <ele>477.2</ele>
        <time>2021-03-27T12:08:23Z</time>
      </trkpt>
      <trkpt lat="46.15434" lon="6.30456">
        <ele>477.2</ele>
        <time>2021-03-27T12:08:22Z</time>
      </trkpt>
      <trkpt lat="46.15436" lon="6.30444">
        <ele>477.2</ele>
        <time>2021-03-27T12:08:21Z</time>
      </trkpt>
      <trkpt lat="46.15439" lon="6.30433">
        <ele>477</ele>
        <time>2021-03-27T12:08:20Z</time>
      </trkpt>
      <trkpt lat="46.15442" lon="6.30422">
        <ele>477.2</ele>
        <time>2021-03-27T12:08:19Z</time>
      </trkpt>
      <trkpt lat="46.15445" lon="6.30411">
        <ele>477</ele>
        <time>2021-03-27T12:08:18Z</time>
      </trkpt>
      <trkpt lat="46.15448" lon="6.304">
        <ele>477</ele>
        <time>2021-03-27T12:08:17Z</time>
      </trkpt>
      <trkpt lat="46.1545" lon="6.30388">
        <ele>477</ele>
        <time>2021-03-27T12:08:16Z</time>
      </trkpt>
      <trkpt lat="46.15454" lon="6.30377">
        <ele>477</ele>
        <time>2021-03-27T12:08:15Z</time>
      </trkpt>
      <trkpt lat="46.15457" lon="6.30366">
        <ele>477</ele>
        <time>2021-03-27T12:08:14Z</time>
      </trkpt>
      <trkpt lat="46.15459" lon="6.30354">
        <ele>477</ele>
        <time>2021-03-27T12:08:13Z</time>
      </trkpt>
      <trkpt lat="46.15463" lon="6.30342">
        <ele>477</ele>
        <time>2021-03-27T12:08:12Z</time>
      </trkpt>
      <trkpt lat="46.15466" lon="6.3033">
        <ele>476.8</ele>
        <time>2021-03-27T12:08:11Z</time>
      </trkpt>
      <trkpt lat="46.15469" lon="6.30318">
        <ele>476.8</ele>
        <time>2021-03-27T12:08:10Z</time>
      </trkpt>
      <trkpt lat="46.15472" lon="6.30306">
        <ele>476.6</ele>
        <time>2021-03-27T12:08:09Z</time>
      </trkpt>
      <trkpt lat="46.15475" lon="6.30294">
        <ele>476.8</ele>
        <time>2021-03-27T12:08:08Z</time>
      </trkpt>
      <trkpt lat="46.15477" lon="6.30282">
        <ele>476.6</ele>
        <time>2021-03-27T12:08:07Z</time>
      </trkpt>
      <trkpt lat="46.15479" lon="6.3027">
        <ele>476.6</ele>
        <time>2021-03-27T12:08:06Z</time>
      </trkpt>
      <trkpt lat="46.15482" lon="6.30259">
        <ele>476.6</ele>
        <time>2021-03-27T12:08:05Z</time>
      </trkpt>
      <trkpt lat="46.15484" lon="6.30248">
        <ele>476.4</ele>
        <time>2021-03-27T12:08:04Z</time>
      </trkpt>
      <trkpt lat="46.15486" lon="6.30237">
        <ele>476.6</ele>
        <time>2021-03-27T12:08:03Z</time>
      </trkpt>
      <trkpt lat="46.15489" lon="6.30226">
        <ele>476.4</ele>
        <time>2021-03-27T12:08:02Z</time>
      </trkpt>
      <trkpt lat="46.15491" lon="6.30215">
        <ele>476.4</ele>
        <time>2021-03-27T12:08:01Z</time>
      </trkpt>
      <trkpt lat="46.15494" lon="6.30205">
        <ele>476.2</ele>
        <time>2021-03-27T12:08:00Z</time>
      </trkpt>
      <trkpt lat="46.15496" lon="6.30194">
        <ele>476.2</ele>
        <time>2021-03-27T12:07:59Z</time>
      </trkpt>
      <trkpt lat="46.15498" lon="6.30183">
        <ele>476.2</ele>
        <time>2021-03-27T12:07:58Z</time>
      </trkpt>
      <trkpt lat="46.155" lon="6.30173">
        <ele>476</ele>
        <time>2021-03-27T12:07:57Z</time>
      </trkpt>
      <trkpt lat="46.15502" lon="6.30163">
        <ele>476</ele>
        <time>2021-03-27T12:07:56Z</time>
      </trkpt>
      <trkpt lat="46.15504" lon="6.30152">
        <ele>476</ele>
        <time>2021-03-27T12:07:55Z</time>
      </trkpt>
      <trkpt lat="46.15506" lon="6.30141">
        <ele>476</ele>
        <time>2021-03-27T12:07:54Z</time>
      </trkpt>
      <trkpt lat="46.15509" lon="6.30131">
        <ele>475.8</ele>
        <time>2021-03-27T12:07:53Z</time>
      </trkpt>
      <trkpt lat="46.15511" lon="6.30121">
        <ele>475.6</ele>
        <time>2021-03-27T12:07:52Z</time>
      </trkpt>
      <trkpt lat="46.15514" lon="6.3011">
        <ele>475.6</ele>
        <time>2021-03-27T12:07:51Z</time>
      </trkpt>
      <trkpt lat="46.15516" lon="6.301">
        <ele>475.6</ele>
        <time>2021-03-27T12:07:50Z</time>
      </trkpt>
      <trkpt lat="46.15518" lon="6.30089">
        <ele>475.6</ele>
        <time>2021-03-27T12:07:49Z</time>
      </trkpt>
      <trkpt lat="46.15521" lon="6.30078">
        <ele>475.4</ele>
        <time>2021-03-27T12:07:48Z</time>
      </trkpt>
      <trkpt lat="46.15523" lon="6.30067">
        <ele>475.4</ele>
        <time>2021-03-27T12:07:47Z</time>
      </trkpt>
      <trkpt lat="46.15525" lon="6.30057">
        <ele>475.4</ele>
        <time>2021-03-27T12:07:46Z</time>
      </trkpt>
      <trkpt lat="46.15528" lon="6.30046">
        <ele>475.4</ele>
        <time>2021-03-27T12:07:45Z</time>
      </trkpt>
      <trkpt lat="46.1553" lon="6.30035">
        <ele>475.4</ele>
        <time>2021-03-27T12:07:44Z</time>
      </trkpt>
      <trkpt lat="46.15533" lon="6.30024">
        <ele>475.4</ele>
        <time>2021-03-27T12:07:43Z</time>
      </trkpt>
      <trkpt lat="46.15535" lon="6.30012">
        <ele>475.4</ele>
        <time>2021-03-27T12:07:42Z</time>
      </trkpt>
      <trkpt lat="46.15537" lon="6.30001">
        <ele>475.2</ele>
        <time>2021-03-27T12:07:41Z</time>
      </trkpt>
      <trkpt lat="46.1554" lon="6.2999">
        <ele>475.4</ele>
        <time>2021-03-27T12:07:40Z</time>
      </trkpt>
      <trkpt lat="46.15542" lon="6.29978">
        <ele>475.4</ele>
        <time>2021-03-27T12:07:39Z</time>
      </trkpt>
      <trkpt lat="46.15544" lon="6.29967">
        <ele>475.6</ele>
        <time>2021-03-27T12:07:38Z</time>
      </trkpt>
      <trkpt lat="46.15547" lon="6.29955">
        <ele>475.6</ele>
        <time>2021-03-27T12:07:37Z</time>
      </trkpt>
      <trkpt lat="46.1555" lon="6.29943">
        <ele>475.4</ele>
        <time>2021-03-27T12:07:36Z</time>
      </trkpt>
      <trkpt lat="46.15553" lon="6.29931">
        <ele>475.6</ele>
        <time>2021-03-27T12:07:35Z</time>
      </trkpt>
      <trkpt lat="46.15555" lon="6.29919">
        <ele>475.6</ele>
        <time>2021-03-27T12:07:34Z</time>
      </trkpt>
      <trkpt lat="46.15558" lon="6.29907">
        <ele>475.8</ele>
        <time>2021-03-27T12:07:33Z</time>
      </trkpt>
      <trkpt lat="46.15561" lon="6.29895">
        <ele>475.6</ele>
        <time>2021-03-27T12:07:32Z</time>
      </trkpt>
      <trkpt lat="46.15563" lon="6.29883">
        <ele>475.8</ele>
        <time>2021-03-27T12:07:31Z</time>
      </trkpt>
      <trkpt lat="46.15565" lon="6.29871">
        <ele>475.6</ele>
        <time>2021-03-27T12:07:30Z</time>
      </trkpt>
      <trkpt lat="46.15567" lon="6.29859">
        <ele>475.6</ele>
        <time>2021-03-27T12:07:29Z</time>
      </trkpt>
      <trkpt lat="46.15569" lon="6.29847">
        <ele>475.6</ele>
        <time>2021-03-27T12:07:28Z</time>
      </trkpt>
      <trkpt lat="46.15571" lon="6.29835">
        <ele>475.6</ele>
        <time>2021-03-27T12:07:27Z</time>
      </trkpt>
      <trkpt lat="46.15574" lon="6.29824">
        <ele>475.8</ele>
        <time>2021-03-27T12:07:26Z</time>
      </trkpt>
      <trkpt lat="46.15577" lon="6.29813">
        <ele>475.6</ele>
        <time>2021-03-27T12:07:25Z</time>
      </trkpt>
      <trkpt lat="46.1558" lon="6.29802">
        <ele>475.6</ele>
        <time>2021-03-27T12:07:24Z</time>
      </trkpt>
      <trkpt lat="46.15583" lon="6.29791">
        <ele>475.8</ele>
        <time>2021-03-27T12:07:23Z</time>
      </trkpt>
      <trkpt lat="46.15585" lon="6.2978">
        <ele>475.8</ele>
        <time>2021-03-27T12:07:22Z</time>
      </trkpt>
      <trkpt lat="46.15587" lon="6.29769">
        <ele>475.8</ele>
        <time>2021-03-27T12:07:21Z</time>
      </trkpt>
      <trkpt lat="46.1559" lon="6.29759">
        <ele>475.8</ele>
        <time>2021-03-27T12:07:20Z</time>
      </trkpt>
      <trkpt lat="46.15592" lon="6.29748">
        <ele>475.8</ele>
        <time>2021-03-27T12:07:19Z</time>
      </trkpt>
      <trkpt lat="46.15594" lon="6.29737">
        <ele>476.2</ele>
        <time>2021-03-27T12:07:18Z</time>
      </trkpt>
      <trkpt lat="46.15597" lon="6.29726">
        <ele>476.2</ele>
        <time>2021-03-27T12:07:17Z</time>
      </trkpt>
      <trkpt lat="46.15599" lon="6.29715">
        <ele>476.4</ele>
        <time>2021-03-27T12:07:16Z</time>
      </trkpt>
      <trkpt lat="46.15601" lon="6.29704">
        <ele>476.6</ele>
        <time>2021-03-27T12:07:15Z</time>
      </trkpt>
      <trkpt lat="46.15604" lon="6.29693">
        <ele>476.6</ele>
        <time>2021-03-27T12:07:14Z</time>
      </trkpt>
      <trkpt lat="46.15606" lon="6.29682">
        <ele>476.8</ele>
        <time>2021-03-27T12:07:13Z</time>
      </trkpt>
      <trkpt lat="46.15609" lon="6.29671">
        <ele>477</ele>
        <time>2021-03-27T12:07:12Z</time>
      </trkpt>
      <trkpt lat="46.15611" lon="6.29659">
        <ele>477</ele>
        <time>2021-03-27T12:07:11Z</time>
      </trkpt>
      <trkpt lat="46.15613" lon="6.29648">
        <ele>477</ele>
        <time>2021-03-27T12:07:10Z</time>
      </trkpt>
      <trkpt lat="46.15616" lon="6.29637">
        <ele>477.2</ele>
        <time>2021-03-27T12:07:09Z</time>
      </trkpt>
      <trkpt lat="46.15618" lon="6.29625">
        <ele>477</ele>
        <time>2021-03-27T12:07:08Z</time>
      </trkpt>
      <trkpt lat="46.15621" lon="6.29614">
        <ele>477.2</ele>
        <time>2021-03-27T12:07:07Z</time>
      </trkpt>
      <trkpt lat="46.15623" lon="6.29603">
        <ele>477.2</ele>
        <time>2021-03-27T12:07:06Z</time>
      </trkpt>
      <trkpt lat="46.15625" lon="6.29592">
        <ele>477.4</ele>
        <time>2021-03-27T12:07:05Z</time>
      </trkpt>
      <trkpt lat="46.15628" lon="6.2958">
        <ele>477.4</ele>
        <time>2021-03-27T12:07:04Z</time>
      </trkpt>
      <trkpt lat="46.1563" lon="6.29569">
        <ele>477.4</ele>
        <time>2021-03-27T12:07:03Z</time>
      </trkpt>
      <trkpt lat="46.15633" lon="6.29557">
        <ele>477.2</ele>
        <time>2021-03-27T12:07:02Z</time>
      </trkpt>
      <trkpt lat="46.15635" lon="6.29545">
        <ele>477.4</ele>
        <time>2021-03-27T12:07:01Z</time>
      </trkpt>
      <trkpt lat="46.15638" lon="6.29534">
        <ele>477.4</ele>
        <time>2021-03-27T12:07:00Z</time>
      </trkpt>
      <trkpt lat="46.1564" lon="6.29522">
        <ele>477.2</ele>
        <time>2021-03-27T12:06:59Z</time>
      </trkpt>
      <trkpt lat="46.15643" lon="6.29511">
        <ele>477.4</ele>
        <time>2021-03-27T12:06:58Z</time>
      </trkpt>
      <trkpt lat="46.15645" lon="6.295">
        <ele>477.2</ele>
        <time>2021-03-27T12:06:57Z</time>
      </trkpt>
      <trkpt lat="46.15648" lon="6.29488">
        <ele>477.2</ele>
        <time>2021-03-27T12:06:56Z</time>
      </trkpt>
      <trkpt lat="46.1565" lon="6.29477">
        <ele>477.2</ele>
        <time>2021-03-27T12:06:55Z</time>
      </trkpt>
      <trkpt lat="46.15652" lon="6.29466">
        <ele>477.2</ele>
        <time>2021-03-27T12:06:54Z</time>
      </trkpt>
      <trkpt lat="46.15654" lon="6.29454">
        <ele>477.2</ele>
        <time>2021-03-27T12:06:53Z</time>
      </trkpt>
      <trkpt lat="46.15656" lon="6.29443">
        <ele>477.2</ele>
        <time>2021-03-27T12:06:52Z</time>
      </trkpt>
      <trkpt lat="46.15659" lon="6.29432">
        <ele>477</ele>
        <time>2021-03-27T12:06:51Z</time>
      </trkpt>
      <trkpt lat="46.15661" lon="6.29421">
        <ele>476.8</ele>
        <time>2021-03-27T12:06:50Z</time>
      </trkpt>
      <trkpt lat="46.15664" lon="6.2941">
        <ele>476.8</ele>
        <time>2021-03-27T12:06:49Z</time>
      </trkpt>
      <trkpt lat="46.15666" lon="6.29399">
        <ele>476.6</ele>
        <time>2021-03-27T12:06:48Z</time>
      </trkpt>
      <trkpt lat="46.15669" lon="6.29388">
        <ele>476.6</ele>
        <time>2021-03-27T12:06:47Z</time>
      </trkpt>
      <trkpt lat="46.15671" lon="6.29377">
        <ele>476.2</ele>
        <time>2021-03-27T12:06:46Z</time>
      </trkpt>
      <trkpt lat="46.15673" lon="6.29366">
        <ele>476.2</ele>
        <time>2021-03-27T12:06:45Z</time>
      </trkpt>
      <trkpt lat="46.15676" lon="6.29356">
        <ele>475.8</ele>
        <time>2021-03-27T12:06:44Z</time>
      </trkpt>
      <trkpt lat="46.15678" lon="6.29345">
        <ele>475.8</ele>
        <time>2021-03-27T12:06:43Z</time>
      </trkpt>
      <trkpt lat="46.1568" lon="6.29334">
        <ele>475.8</ele>
        <time>2021-03-27T12:06:42Z</time>
      </trkpt>
      <trkpt lat="46.15683" lon="6.29324">
        <ele>475.6</ele>
        <time>2021-03-27T12:06:41Z</time>
      </trkpt>
      <trkpt lat="46.15685" lon="6.29314">
        <ele>475.6</ele>
        <time>2021-03-27T12:06:40Z</time>
      </trkpt>
      <trkpt lat="46.15688" lon="6.29304">
        <ele>475.4</ele>
        <time>2021-03-27T12:06:39Z</time>
      </trkpt>
      <trkpt lat="46.1569" lon="6.29293">
        <ele>475.6</ele>
        <time>2021-03-27T12:06:38Z</time>
      </trkpt>
      <trkpt lat="46.15692" lon="6.29282">
        <ele>475.6</ele>
        <time>2021-03-27T12:06:37Z</time>
      </trkpt>
      <trkpt lat="46.15694" lon="6.29271">
        <ele>475.4</ele>
        <time>2021-03-27T12:06:36Z</time>
      </trkpt>
      <trkpt lat="46.15696" lon="6.29261">
        <ele>475.2</ele>
        <time>2021-03-27T12:06:35Z</time>
      </trkpt>
      <trkpt lat="46.15699" lon="6.2925">
        <ele>475</ele>
        <time>2021-03-27T12:06:34Z</time>
      </trkpt>
      <trkpt lat="46.15701" lon="6.29239">
        <ele>475.2</ele>
        <time>2021-03-27T12:06:33Z</time>
      </trkpt>
      <trkpt lat="46.15703" lon="6.29228">
        <ele>475</ele>
        <time>2021-03-27T12:06:32Z</time>
      </trkpt>
      <trkpt lat="46.15706" lon="6.29217">
        <ele>475</ele>
        <time>2021-03-27T12:06:31Z</time>
      </trkpt>
      <trkpt lat="46.15708" lon="6.29206">
        <ele>475.2</ele>
        <time>2021-03-27T12:06:30Z</time>
      </trkpt>
      <trkpt lat="46.1571" lon="6.29195">
        <ele>475.2</ele>
        <time>2021-03-27T12:06:29Z</time>
      </trkpt>
      <trkpt lat="46.15712" lon="6.29185">
        <ele>475</ele>
        <time>2021-03-27T12:06:28Z</time>
      </trkpt>
      <trkpt lat="46.15714" lon="6.29174">
        <ele>475.2</ele>
        <time>2021-03-27T12:06:27Z</time>
      </trkpt>
      <trkpt lat="46.15717" lon="6.29163">
        <ele>475</ele>
        <time>2021-03-27T12:06:26Z</time>
      </trkpt>
      <trkpt lat="46.15719" lon="6.29152">
        <ele>475.2</ele>
        <time>2021-03-27T12:06:25Z</time>
      </trkpt>
      <trkpt lat="46.15721" lon="6.29141">
        <ele>475</ele>
        <time>2021-03-27T12:06:24Z</time>
      </trkpt>
      <trkpt lat="46.15724" lon="6.2913">
        <ele>475</ele>
        <time>2021-03-27T12:06:23Z</time>
      </trkpt>
      <trkpt lat="46.15726" lon="6.29119">
        <ele>474.8</ele>
        <time>2021-03-27T12:06:22Z</time>
      </trkpt>
      <trkpt lat="46.15728" lon="6.29109">
        <ele>474.8</ele>
        <time>2021-03-27T12:06:21Z</time>
      </trkpt>
      <trkpt lat="46.1573" lon="6.29098">
        <ele>474.8</ele>
        <time>2021-03-27T12:06:20Z</time>
      </trkpt>
      <trkpt lat="46.15732" lon="6.29087">
        <ele>474.6</ele>
        <time>2021-03-27T12:06:19Z</time>
      </trkpt>
      <trkpt lat="46.15735" lon="6.29076">
        <ele>474.6</ele>
        <time>2021-03-27T12:06:18Z</time>
      </trkpt>
      <trkpt lat="46.15737" lon="6.29066">
        <ele>474.6</ele>
        <time>2021-03-27T12:06:17Z</time>
      </trkpt>
      <trkpt lat="46.15739" lon="6.29056">
        <ele>474.8</ele>
        <time>2021-03-27T12:06:16Z</time>
      </trkpt>
      <trkpt lat="46.15741" lon="6.29046">
        <ele>474.8</ele>
        <time>2021-03-27T12:06:15Z</time>
      </trkpt>
      <trkpt lat="46.15744" lon="6.29036">
        <ele>474.8</ele>
        <time>2021-03-27T12:06:14Z</time>
      </trkpt>
      <trkpt lat="46.15746" lon="6.29025">
        <ele>474.8</ele>
        <time>2021-03-27T12:06:13Z</time>
      </trkpt>
      <trkpt lat="46.15748" lon="6.29016">
        <ele>474.8</ele>
        <time>2021-03-27T12:06:12Z</time>
      </trkpt>
      <trkpt lat="46.15751" lon="6.29006">
        <ele>474.6</ele>
        <time>2021-03-27T12:06:11Z</time>
      </trkpt>
      <trkpt lat="46.15753" lon="6.28996">
        <ele>474.4</ele>
        <time>2021-03-27T12:06:10Z</time>
      </trkpt>
      <trkpt lat="46.15755" lon="6.28987">
        <ele>474.6</ele>
        <time>2021-03-27T12:06:09Z</time>
      </trkpt>
      <trkpt lat="46.15757" lon="6.28978">
        <ele>474.4</ele>
        <time>2021-03-27T12:06:08Z</time>
      </trkpt>
      <trkpt lat="46.1576" lon="6.28968">
        <ele>474.2</ele>
        <time>2021-03-27T12:06:07Z</time>
      </trkpt>
      <trkpt lat="46.15762" lon="6.28959">
        <ele>474.2</ele>
        <time>2021-03-27T12:06:06Z</time>
      </trkpt>
      <trkpt lat="46.15764" lon="6.28949">
        <ele>473.8</ele>
        <time>2021-03-27T12:06:05Z</time>
      </trkpt>
      <trkpt lat="46.15766" lon="6.2894">
        <ele>473.4</ele>
        <time>2021-03-27T12:06:04Z</time>
      </trkpt>
      <trkpt lat="46.15768" lon="6.28931">
        <ele>472.6</ele>
        <time>2021-03-27T12:06:03Z</time>
      </trkpt>
      <trkpt lat="46.1577" lon="6.28922">
        <ele>472.6</ele>
        <time>2021-03-27T12:06:02Z</time>
      </trkpt>
      <trkpt lat="46.15772" lon="6.28914">
        <ele>472.4</ele>
        <time>2021-03-27T12:06:01Z</time>
      </trkpt>
      <trkpt lat="46.15773" lon="6.28906">
        <ele>472.6</ele>
        <time>2021-03-27T12:06:00Z</time>
      </trkpt>
      <trkpt lat="46.15775" lon="6.28897">
        <ele>472.6</ele>
        <time>2021-03-27T12:05:59Z</time>
      </trkpt>
      <trkpt lat="46.15777" lon="6.28888">
        <ele>472.2</ele>
        <time>2021-03-27T12:05:58Z</time>
      </trkpt>
      <trkpt lat="46.15778" lon="6.28878">
        <ele>472.4</ele>
        <time>2021-03-27T12:05:57Z</time>
      </trkpt>
      <trkpt lat="46.1578" lon="6.28868">
        <ele>472.4</ele>
        <time>2021-03-27T12:05:56Z</time>
      </trkpt>
      <trkpt lat="46.15783" lon="6.28858">
        <ele>472.4</ele>
        <time>2021-03-27T12:05:55Z</time>
      </trkpt>
      <trkpt lat="46.15786" lon="6.28848">
        <ele>472.6</ele>
        <time>2021-03-27T12:05:54Z</time>
      </trkpt>
      <trkpt lat="46.15788" lon="6.28837">
        <ele>472.6</ele>
        <time>2021-03-27T12:05:53Z</time>
      </trkpt>
      <trkpt lat="46.15791" lon="6.28826">
        <ele>472.6</ele>
        <time>2021-03-27T12:05:52Z</time>
      </trkpt>
      <trkpt lat="46.15793" lon="6.28815">
        <ele>473</ele>
        <time>2021-03-27T12:05:51Z</time>
      </trkpt>
      <trkpt lat="46.15796" lon="6.28803">
        <ele>473.2</ele>
        <time>2021-03-27T12:05:50Z</time>
      </trkpt>
      <trkpt lat="46.15799" lon="6.28791">
        <ele>473.4</ele>
        <time>2021-03-27T12:05:49Z</time>
      </trkpt>
      <trkpt lat="46.15802" lon="6.28779">
        <ele>473.6</ele>
        <time>2021-03-27T12:05:48Z</time>
      </trkpt>
      <trkpt lat="46.15805" lon="6.28767">
        <ele>474</ele>
        <time>2021-03-27T12:05:47Z</time>
      </trkpt>
      <trkpt lat="46.15808" lon="6.28755">
        <ele>474.2</ele>
        <time>2021-03-27T12:05:46Z</time>
      </trkpt>
      <trkpt lat="46.1581" lon="6.28743">
        <ele>474.4</ele>
        <time>2021-03-27T12:05:45Z</time>
      </trkpt>
      <trkpt lat="46.15813" lon="6.28731">
        <ele>474.8</ele>
        <time>2021-03-27T12:05:44Z</time>
      </trkpt>
      <trkpt lat="46.15816" lon="6.28718">
        <ele>475</ele>
        <time>2021-03-27T12:05:43Z</time>
      </trkpt>
      <trkpt lat="46.15819" lon="6.28705">
        <ele>475.2</ele>
        <time>2021-03-27T12:05:42Z</time>
      </trkpt>
      <trkpt lat="46.15822" lon="6.28692">
        <ele>475.4</ele>
        <time>2021-03-27T12:05:41Z</time>
      </trkpt>
      <trkpt lat="46.15825" lon="6.28679">
        <ele>475.6</ele>
        <time>2021-03-27T12:05:40Z</time>
      </trkpt>
      <trkpt lat="46.15828" lon="6.28665">
        <ele>476.2</ele>
        <time>2021-03-27T12:05:39Z</time>
      </trkpt>
      <trkpt lat="46.15831" lon="6.28652">
        <ele>477</ele>
        <time>2021-03-27T12:05:38Z</time>
      </trkpt>
      <trkpt lat="46.15834" lon="6.28639">
        <ele>477.4</ele>
        <time>2021-03-27T12:05:37Z</time>
      </trkpt>
      <trkpt lat="46.15837" lon="6.28626">
        <ele>477.4</ele>
        <time>2021-03-27T12:05:36Z</time>
      </trkpt>
      <trkpt lat="46.1584" lon="6.28612">
        <ele>477.4</ele>
        <time>2021-03-27T12:05:35Z</time>
      </trkpt>
      <trkpt lat="46.15843" lon="6.286">
        <ele>477.6</ele>
        <time>2021-03-27T12:05:34Z</time>
      </trkpt>
      <trkpt lat="46.15845" lon="6.28587">
        <ele>477.6</ele>
        <time>2021-03-27T12:05:33Z</time>
      </trkpt>
      <trkpt lat="46.15848" lon="6.28574">
        <ele>477.8</ele>
        <time>2021-03-27T12:05:32Z</time>
      </trkpt>
      <trkpt lat="46.1585" lon="6.28562">
        <ele>477.8</ele>
        <time>2021-03-27T12:05:31Z</time>
      </trkpt>
      <trkpt lat="46.15853" lon="6.28549">
        <ele>477.8</ele>
        <time>2021-03-27T12:05:30Z</time>
      </trkpt>
      <trkpt lat="46.15856" lon="6.28537">
        <ele>478</ele>
        <time>2021-03-27T12:05:29Z</time>
      </trkpt>
      <trkpt lat="46.15858" lon="6.28524">
        <ele>477.8</ele>
        <time>2021-03-27T12:05:28Z</time>
      </trkpt>
      <trkpt lat="46.15861" lon="6.28512">
        <ele>478</ele>
        <time>2021-03-27T12:05:27Z</time>
      </trkpt>
      <trkpt lat="46.15863" lon="6.285">
        <ele>478.2</ele>
        <time>2021-03-27T12:05:26Z</time>
      </trkpt>
      <trkpt lat="46.15866" lon="6.28488">
        <ele>478.6</ele>
        <time>2021-03-27T12:05:25Z</time>
      </trkpt>
      <trkpt lat="46.15869" lon="6.28476">
        <ele>478.6</ele>
        <time>2021-03-27T12:05:24Z</time>
      </trkpt>
      <trkpt lat="46.15872" lon="6.28464">
        <ele>479</ele>
        <time>2021-03-27T12:05:23Z</time>
      </trkpt>
      <trkpt lat="46.15875" lon="6.28452">
        <ele>479.2</ele>
        <time>2021-03-27T12:05:22Z</time>
      </trkpt>
      <trkpt lat="46.15878" lon="6.28441">
        <ele>479.4</ele>
        <time>2021-03-27T12:05:21Z</time>
      </trkpt>
      <trkpt lat="46.15882" lon="6.2843">
        <ele>479.6</ele>
        <time>2021-03-27T12:05:20Z</time>
      </trkpt>
      <trkpt lat="46.15885" lon="6.28419">
        <ele>479.6</ele>
        <time>2021-03-27T12:05:19Z</time>
      </trkpt>
      <trkpt lat="46.15889" lon="6.28409">
        <ele>479.8</ele>
        <time>2021-03-27T12:05:18Z</time>
      </trkpt>
      <trkpt lat="46.15893" lon="6.28399">
        <ele>480</ele>
        <time>2021-03-27T12:05:17Z</time>
      </trkpt>
      <trkpt lat="46.15898" lon="6.2839">
        <ele>480.2</ele>
        <time>2021-03-27T12:05:16Z</time>
      </trkpt>
      <trkpt lat="46.15902" lon="6.28381">
        <ele>480.4</ele>
        <time>2021-03-27T12:05:15Z</time>
      </trkpt>
      <trkpt lat="46.15907" lon="6.28372">
        <ele>480.6</ele>
        <time>2021-03-27T12:05:14Z</time>
      </trkpt>
      <trkpt lat="46.15911" lon="6.28363">
        <ele>480.8</ele>
        <time>2021-03-27T12:05:13Z</time>
      </trkpt>
      <trkpt lat="46.15916" lon="6.28354">
        <ele>480.8</ele>
        <time>2021-03-27T12:05:12Z</time>
      </trkpt>
      <trkpt lat="46.15921" lon="6.28345">
        <ele>481</ele>
        <time>2021-03-27T12:05:11Z</time>
      </trkpt>
      <trkpt lat="46.15926" lon="6.28336">
        <ele>481.2</ele>
        <time>2021-03-27T12:05:10Z</time>
      </trkpt>
      <trkpt lat="46.15931" lon="6.28327">
        <ele>481.2</ele>
        <time>2021-03-27T12:05:09Z</time>
      </trkpt>
      <trkpt lat="46.15936" lon="6.28317">
        <ele>481.2</ele>
        <time>2021-03-27T12:05:08Z</time>
      </trkpt>
      <trkpt lat="46.15941" lon="6.28309">
        <ele>481.4</ele>
        <time>2021-03-27T12:05:07Z</time>
      </trkpt>
      <trkpt lat="46.15946" lon="6.283">
        <ele>481.2</ele>
        <time>2021-03-27T12:05:06Z</time>
      </trkpt>
      <trkpt lat="46.1595" lon="6.28291">
        <ele>481.2</ele>
        <time>2021-03-27T12:05:05Z</time>
      </trkpt>
      <trkpt lat="46.15955" lon="6.28282">
        <ele>481.2</ele>
        <time>2021-03-27T12:05:04Z</time>
      </trkpt>
      <trkpt lat="46.15959" lon="6.28273">
        <ele>481.4</ele>
        <time>2021-03-27T12:05:03Z</time>
      </trkpt>
      <trkpt lat="46.15964" lon="6.28265">
        <ele>481.2</ele>
        <time>2021-03-27T12:05:02Z</time>
      </trkpt>
      <trkpt lat="46.15969" lon="6.28256">
        <ele>481.2</ele>
        <time>2021-03-27T12:05:01Z</time>
      </trkpt>
      <trkpt lat="46.15975" lon="6.28247">
        <ele>481</ele>
        <time>2021-03-27T12:05:00Z</time>
      </trkpt>
      <trkpt lat="46.1598" lon="6.28237">
        <ele>481.2</ele>
        <time>2021-03-27T12:04:59Z</time>
      </trkpt>
      <trkpt lat="46.15985" lon="6.28228">
        <ele>481</ele>
        <time>2021-03-27T12:04:58Z</time>
      </trkpt>
      <trkpt lat="46.15989" lon="6.28218">
        <ele>481</ele>
        <time>2021-03-27T12:04:57Z</time>
      </trkpt>
      <trkpt lat="46.15993" lon="6.28208">
        <ele>481</ele>
        <time>2021-03-27T12:04:56Z</time>
      </trkpt>
      <trkpt lat="46.15998" lon="6.28199">
        <ele>481</ele>
        <time>2021-03-27T12:04:55Z</time>
      </trkpt>
      <trkpt lat="46.16002" lon="6.28189">
        <ele>480.8</ele>
        <time>2021-03-27T12:04:54Z</time>
      </trkpt>
      <trkpt lat="46.16006" lon="6.28179">
        <ele>480.8</ele>
        <time>2021-03-27T12:04:53Z</time>
      </trkpt>
      <trkpt lat="46.16009" lon="6.2817">
        <ele>480.6</ele>
        <time>2021-03-27T12:04:52Z</time>
      </trkpt>
      <trkpt lat="46.16013" lon="6.2816">
        <ele>480.6</ele>
        <time>2021-03-27T12:04:51Z</time>
      </trkpt>
      <trkpt lat="46.16016" lon="6.2815">
        <ele>480.4</ele>
        <time>2021-03-27T12:04:50Z</time>
      </trkpt>
      <trkpt lat="46.1602" lon="6.28141">
        <ele>480.4</ele>
        <time>2021-03-27T12:04:49Z</time>
      </trkpt>
      <trkpt lat="46.16024" lon="6.28131">
        <ele>480.4</ele>
        <time>2021-03-27T12:04:48Z</time>
      </trkpt>
      <trkpt lat="46.16027" lon="6.28122">
        <ele>480.4</ele>
        <time>2021-03-27T12:04:47Z</time>
      </trkpt>
      <trkpt lat="46.16031" lon="6.28112">
        <ele>480.2</ele>
        <time>2021-03-27T12:04:46Z</time>
      </trkpt>
      <trkpt lat="46.16034" lon="6.28103">
        <ele>480.4</ele>
        <time>2021-03-27T12:04:45Z</time>
      </trkpt>
      <trkpt lat="46.16038" lon="6.28094">
        <ele>480.2</ele>
        <time>2021-03-27T12:04:44Z</time>
      </trkpt>
      <trkpt lat="46.16041" lon="6.28085">
        <ele>480.4</ele>
        <time>2021-03-27T12:04:43Z</time>
      </trkpt>
      <trkpt lat="46.16045" lon="6.28075">
        <ele>480.2</ele>
        <time>2021-03-27T12:04:42Z</time>
      </trkpt>
      <trkpt lat="46.16048" lon="6.28066">
        <ele>480.2</ele>
        <time>2021-03-27T12:04:41Z</time>
      </trkpt>
      <trkpt lat="46.16052" lon="6.28057">
        <ele>480.2</ele>
        <time>2021-03-27T12:04:40Z</time>
      </trkpt>
      <trkpt lat="46.16056" lon="6.28047">
        <ele>480.2</ele>
        <time>2021-03-27T12:04:39Z</time>
      </trkpt>
      <trkpt lat="46.16059" lon="6.28038">
        <ele>480.2</ele>
        <time>2021-03-27T12:04:38Z</time>
      </trkpt>
      <trkpt lat="46.16063" lon="6.28029">
        <ele>480</ele>
        <time>2021-03-27T12:04:37Z</time>
      </trkpt>
      <trkpt lat="46.16066" lon="6.2802">
        <ele>480.2</ele>
        <time>2021-03-27T12:04:36Z</time>
      </trkpt>
      <trkpt lat="46.1607" lon="6.28011">
        <ele>480.2</ele>
        <time>2021-03-27T12:04:35Z</time>
      </trkpt>
      <trkpt lat="46.16074" lon="6.28002">
        <ele>480.2</ele>
        <time>2021-03-27T12:04:34Z</time>
      </trkpt>
      <trkpt lat="46.16077" lon="6.27993">
        <ele>480.2</ele>
        <time>2021-03-27T12:04:33Z</time>
      </trkpt>
      <trkpt lat="46.16081" lon="6.27984">
        <ele>480.2</ele>
        <time>2021-03-27T12:04:32Z</time>
      </trkpt>
      <trkpt lat="46.16084" lon="6.27975">
        <ele>480.4</ele>
        <time>2021-03-27T12:04:31Z</time>
      </trkpt>
      <trkpt lat="46.16088" lon="6.27965">
        <ele>480.6</ele>
        <time>2021-03-27T12:04:30Z</time>
      </trkpt>
      <trkpt lat="46.16091" lon="6.27956">
        <ele>480.6</ele>
        <time>2021-03-27T12:04:29Z</time>
      </trkpt>
      <trkpt lat="46.16095" lon="6.27947">
        <ele>480.6</ele>
        <time>2021-03-27T12:04:28Z</time>
      </trkpt>
      <trkpt lat="46.16098" lon="6.27937">
        <ele>480.6</ele>
        <time>2021-03-27T12:04:27Z</time>
      </trkpt>
      <trkpt lat="46.16102" lon="6.27928">
        <ele>481</ele>
        <time>2021-03-27T12:04:26Z</time>
      </trkpt>
      <trkpt lat="46.16105" lon="6.27919">
        <ele>481</ele>
        <time>2021-03-27T12:04:25Z</time>
      </trkpt>
      <trkpt lat="46.16109" lon="6.2791">
        <ele>481.2</ele>
        <time>2021-03-27T12:04:24Z</time>
      </trkpt>
      <trkpt lat="46.16112" lon="6.279">
        <ele>481.2</ele>
        <time>2021-03-27T12:04:23Z</time>
      </trkpt>
      <trkpt lat="46.16116" lon="6.27891">
        <ele>481.2</ele>
        <time>2021-03-27T12:04:22Z</time>
      </trkpt>
      <trkpt lat="46.16119" lon="6.27882">
        <ele>481.4</ele>
        <time>2021-03-27T12:04:21Z</time>
      </trkpt>
      <trkpt lat="46.16123" lon="6.27873">
        <ele>481.6</ele>
        <time>2021-03-27T12:04:20Z</time>
      </trkpt>
      <trkpt lat="46.16126" lon="6.27864">
        <ele>481.6</ele>
        <time>2021-03-27T12:04:19Z</time>
      </trkpt>
      <trkpt lat="46.1613" lon="6.27854">
        <ele>481.8</ele>
        <time>2021-03-27T12:04:18Z</time>
      </trkpt>
      <trkpt lat="46.16133" lon="6.27845">
        <ele>481.8</ele>
        <time>2021-03-27T12:04:17Z</time>
      </trkpt>
      <trkpt lat="46.16136" lon="6.27836">
        <ele>482</ele>
        <time>2021-03-27T12:04:16Z</time>
      </trkpt>
      <trkpt lat="46.1614" lon="6.27827">
        <ele>482</ele>
        <time>2021-03-27T12:04:15Z</time>
      </trkpt>
      <trkpt lat="46.16143" lon="6.27817">
        <ele>482</ele>
        <time>2021-03-27T12:04:14Z</time>
      </trkpt>
      <trkpt lat="46.16146" lon="6.27808">
        <ele>482.2</ele>
        <time>2021-03-27T12:04:13Z</time>
      </trkpt>
      <trkpt lat="46.1615" lon="6.27799">
        <ele>482.2</ele>
        <time>2021-03-27T12:04:12Z</time>
      </trkpt>
      <trkpt lat="46.16153" lon="6.2779">
        <ele>482.2</ele>
        <time>2021-03-27T12:04:11Z</time>
      </trkpt>
      <trkpt lat="46.16156" lon="6.27781">
        <ele>482.4</ele>
        <time>2021-03-27T12:04:10Z</time>
      </trkpt>
      <trkpt lat="46.1616" lon="6.27772">
        <ele>482.6</ele>
        <time>2021-03-27T12:04:09Z</time>
      </trkpt>
      <trkpt lat="46.16163" lon="6.27763">
        <ele>482.4</ele>
        <time>2021-03-27T12:04:08Z</time>
      </trkpt>
      <trkpt lat="46.16166" lon="6.27754">
        <ele>482.6</ele>
        <time>2021-03-27T12:04:07Z</time>
      </trkpt>
      <trkpt lat="46.1617" lon="6.27745">
        <ele>482.8</ele>
        <time>2021-03-27T12:04:06Z</time>
      </trkpt>
      <trkpt lat="46.16173" lon="6.27737">
        <ele>482.6</ele>
        <time>2021-03-27T12:04:05Z</time>
      </trkpt>
      <trkpt lat="46.16177" lon="6.27728">
        <ele>482.8</ele>
        <time>2021-03-27T12:04:04Z</time>
      </trkpt>
      <trkpt lat="46.1618" lon="6.27719">
        <ele>482.8</ele>
        <time>2021-03-27T12:04:03Z</time>
      </trkpt>
      <trkpt lat="46.16183" lon="6.2771">
        <ele>483.2</ele>
        <time>2021-03-27T12:04:02Z</time>
      </trkpt>
      <trkpt lat="46.16186" lon="6.27701">
        <ele>483.2</ele>
        <time>2021-03-27T12:04:01Z</time>
      </trkpt>
      <trkpt lat="46.1619" lon="6.27692">
        <ele>483.4</ele>
        <time>2021-03-27T12:04:00Z</time>
      </trkpt>
      <trkpt lat="46.16193" lon="6.27683">
        <ele>483.4</ele>
        <time>2021-03-27T12:03:59Z</time>
      </trkpt>
      <trkpt lat="46.16196" lon="6.27674">
        <ele>483.6</ele>
        <time>2021-03-27T12:03:58Z</time>
      </trkpt>
      <trkpt lat="46.16198" lon="6.27666">
        <ele>483.8</ele>
        <time>2021-03-27T12:03:57Z</time>
      </trkpt>
      <trkpt lat="46.16201" lon="6.27657">
        <ele>484</ele>
        <time>2021-03-27T12:03:56Z</time>
      </trkpt>
      <trkpt lat="46.16203" lon="6.27648">
        <ele>484.4</ele>
        <time>2021-03-27T12:03:55Z</time>
      </trkpt>
      <trkpt lat="46.16204" lon="6.27639">
        <ele>484.6</ele>
        <time>2021-03-27T12:03:54Z</time>
      </trkpt>
      <trkpt lat="46.16204" lon="6.27631">
        <ele>484.8</ele>
        <time>2021-03-27T12:03:53Z</time>
      </trkpt>
      <trkpt lat="46.16205" lon="6.27622">
        <ele>484.6</ele>
        <time>2021-03-27T12:03:52Z</time>
      </trkpt>
      <trkpt lat="46.16206" lon="6.27614">
        <ele>484.8</ele>
        <time>2021-03-27T12:03:51Z</time>
      </trkpt>
      <trkpt lat="46.1621" lon="6.27607">
        <ele>484.6</ele>
        <time>2021-03-27T12:03:50Z</time>
      </trkpt>
      <trkpt lat="46.16214" lon="6.27602">
        <ele>484.8</ele>
        <time>2021-03-27T12:03:49Z</time>
      </trkpt>
      <trkpt lat="46.16218" lon="6.27597">
        <ele>484.8</ele>
        <time>2021-03-27T12:03:48Z</time>
      </trkpt>
      <trkpt lat="46.16223" lon="6.27593">
        <ele>484.8</ele>
        <time>2021-03-27T12:03:47Z</time>
      </trkpt>
      <trkpt lat="46.16227" lon="6.27588">
        <ele>485</ele>
        <time>2021-03-27T12:03:46Z</time>
      </trkpt>
      <trkpt lat="46.16231" lon="6.27582">
        <ele>484.8</ele>
        <time>2021-03-27T12:03:45Z</time>
      </trkpt>
      <trkpt lat="46.16235" lon="6.27574">
        <ele>485</ele>
        <time>2021-03-27T12:03:44Z</time>
      </trkpt>
      <trkpt lat="46.16239" lon="6.27566">
        <ele>484.8</ele>
        <time>2021-03-27T12:03:43Z</time>
      </trkpt>
      <trkpt lat="46.16242" lon="6.27558">
        <ele>484.8</ele>
        <time>2021-03-27T12:03:42Z</time>
      </trkpt>
      <trkpt lat="46.16245" lon="6.2755">
        <ele>484.8</ele>
        <time>2021-03-27T12:03:41Z</time>
      </trkpt>
      <trkpt lat="46.16248" lon="6.27541">
        <ele>484.8</ele>
        <time>2021-03-27T12:03:40Z</time>
      </trkpt>
      <trkpt lat="46.16251" lon="6.27533">
        <ele>484.8</ele>
        <time>2021-03-27T12:03:39Z</time>
      </trkpt>
      <trkpt lat="46.16255" lon="6.27524">
        <ele>484.8</ele>
        <time>2021-03-27T12:03:38Z</time>
      </trkpt>
      <trkpt lat="46.16258" lon="6.27516">
        <ele>484.8</ele>
        <time>2021-03-27T12:03:37Z</time>
      </trkpt>
      <trkpt lat="46.16261" lon="6.27508">
        <ele>484.8</ele>
        <time>2021-03-27T12:03:36Z</time>
      </trkpt>
      <trkpt lat="46.16264" lon="6.27499">
        <ele>484.8</ele>
        <time>2021-03-27T12:03:35Z</time>
      </trkpt>
      <trkpt lat="46.16267" lon="6.27491">
        <ele>485</ele>
        <time>2021-03-27T12:03:34Z</time>
      </trkpt>
      <trkpt lat="46.1627" lon="6.27483">
        <ele>485</ele>
        <time>2021-03-27T12:03:33Z</time>
      </trkpt>
      <trkpt lat="46.16274" lon="6.27475">
        <ele>485</ele>
        <time>2021-03-27T12:03:32Z</time>
      </trkpt>
      <trkpt lat="46.16277" lon="6.27467">
        <ele>485</ele>
        <time>2021-03-27T12:03:31Z</time>
      </trkpt>
      <trkpt lat="46.1628" lon="6.27459">
        <ele>485</ele>
        <time>2021-03-27T12:03:30Z</time>
      </trkpt>
      <trkpt lat="46.16283" lon="6.27451">
        <ele>485</ele>
        <time>2021-03-27T12:03:29Z</time>
      </trkpt>
      <trkpt lat="46.16286" lon="6.27443">
        <ele>485</ele>
        <time>2021-03-27T12:03:28Z</time>
      </trkpt>
      <trkpt lat="46.16289" lon="6.27434">
        <ele>485.2</ele>
        <time>2021-03-27T12:03:27Z</time>
      </trkpt>
      <trkpt lat="46.16292" lon="6.27426">
        <ele>485.2</ele>
        <time>2021-03-27T12:03:26Z</time>
      </trkpt>
      <trkpt lat="46.16296" lon="6.27418">
        <ele>485.2</ele>
        <time>2021-03-27T12:03:25Z</time>
      </trkpt>
      <trkpt lat="46.16299" lon="6.2741">
        <ele>485.2</ele>
        <time>2021-03-27T12:03:24Z</time>
      </trkpt>
      <trkpt lat="46.16302" lon="6.27402">
        <ele>485.2</ele>
        <time>2021-03-27T12:03:23Z</time>
      </trkpt>
      <trkpt lat="46.16305" lon="6.27394">
        <ele>485.2</ele>
        <time>2021-03-27T12:03:22Z</time>
      </trkpt>
      <trkpt lat="46.16308" lon="6.27386">
        <ele>485.2</ele>
        <time>2021-03-27T12:03:21Z</time>
      </trkpt>
      <trkpt lat="46.16311" lon="6.27377">
        <ele>485</ele>
        <time>2021-03-27T12:03:20Z</time>
      </trkpt>
      <trkpt lat="46.16314" lon="6.27369">
        <ele>485</ele>
        <time>2021-03-27T12:03:19Z</time>
      </trkpt>
      <trkpt lat="46.16317" lon="6.27361">
        <ele>484.8</ele>
        <time>2021-03-27T12:03:18Z</time>
      </trkpt>
      <trkpt lat="46.1632" lon="6.27354">
        <ele>484.8</ele>
        <time>2021-03-27T12:03:17Z</time>
      </trkpt>
      <trkpt lat="46.16323" lon="6.27346">
        <ele>485</ele>
        <time>2021-03-27T12:03:16Z</time>
      </trkpt>
      <trkpt lat="46.16326" lon="6.27339">
        <ele>484.6</ele>
        <time>2021-03-27T12:03:15Z</time>
      </trkpt>
      <trkpt lat="46.16328" lon="6.27332">
        <ele>484.6</ele>
        <time>2021-03-27T12:03:14Z</time>
      </trkpt>
      <trkpt lat="46.1633" lon="6.27325">
        <ele>484.2</ele>
        <time>2021-03-27T12:03:13Z</time>
      </trkpt>
      <trkpt lat="46.16332" lon="6.27317">
        <ele>484</ele>
        <time>2021-03-27T12:03:12Z</time>
      </trkpt>
      <trkpt lat="46.16335" lon="6.2731">
        <ele>483.8</ele>
        <time>2021-03-27T12:03:11Z</time>
      </trkpt>
      <trkpt lat="46.16338" lon="6.27303">
        <ele>483.8</ele>
        <time>2021-03-27T12:03:10Z</time>
      </trkpt>
      <trkpt lat="46.1634" lon="6.27296">
        <ele>483.8</ele>
        <time>2021-03-27T12:03:09Z</time>
      </trkpt>
      <trkpt lat="46.16343" lon="6.2729">
        <ele>483.6</ele>
        <time>2021-03-27T12:03:08Z</time>
      </trkpt>
      <trkpt lat="46.16346" lon="6.27283">
        <ele>483.4</ele>
        <time>2021-03-27T12:03:07Z</time>
      </trkpt>
      <trkpt lat="46.16349" lon="6.27277">
        <ele>483.4</ele>
        <time>2021-03-27T12:03:06Z</time>
      </trkpt>
      <trkpt lat="46.16352" lon="6.27271">
        <ele>483</ele>
        <time>2021-03-27T12:03:05Z</time>
      </trkpt>
      <trkpt lat="46.16355" lon="6.27266">
        <ele>482.6</ele>
        <time>2021-03-27T12:03:04Z</time>
      </trkpt>
      <trkpt lat="46.16359" lon="6.27261">
        <ele>482.2</ele>
        <time>2021-03-27T12:03:03Z</time>
      </trkpt>
      <trkpt lat="46.16362" lon="6.27256">
        <ele>482.2</ele>
        <time>2021-03-27T12:03:02Z</time>
      </trkpt>
      <trkpt lat="46.16366" lon="6.27251">
        <ele>482</ele>
        <time>2021-03-27T12:03:01Z</time>
      </trkpt>
      <trkpt lat="46.1637" lon="6.27247">
        <ele>481.8</ele>
        <time>2021-03-27T12:03:00Z</time>
      </trkpt>
      <trkpt lat="46.16374" lon="6.27244">
        <ele>481.6</ele>
        <time>2021-03-27T12:02:59Z</time>
      </trkpt>
      <trkpt lat="46.16378" lon="6.27241">
        <ele>481.6</ele>
        <time>2021-03-27T12:02:58Z</time>
      </trkpt>
      <trkpt lat="46.16382" lon="6.27237">
        <ele>481.4</ele>
        <time>2021-03-27T12:02:57Z</time>
      </trkpt>
      <trkpt lat="46.16387" lon="6.27234">
        <ele>481.4</ele>
        <time>2021-03-27T12:02:56Z</time>
      </trkpt>
      <trkpt lat="46.16391" lon="6.27232">
        <ele>481.2</ele>
        <time>2021-03-27T12:02:55Z</time>
      </trkpt>
      <trkpt lat="46.16396" lon="6.27229">
        <ele>481.2</ele>
        <time>2021-03-27T12:02:54Z</time>
      </trkpt>
      <trkpt lat="46.164" lon="6.27227">
        <ele>481</ele>
        <time>2021-03-27T12:02:53Z</time>
      </trkpt>
      <trkpt lat="46.16405" lon="6.27226">
        <ele>481</ele>
        <time>2021-03-27T12:02:52Z</time>
      </trkpt>
      <trkpt lat="46.1641" lon="6.27225">
        <ele>480.8</ele>
        <time>2021-03-27T12:02:51Z</time>
      </trkpt>
      <trkpt lat="46.16415" lon="6.27224">
        <ele>480.6</ele>
        <time>2021-03-27T12:02:50Z</time>
      </trkpt>
      <trkpt lat="46.1642" lon="6.27224">
        <ele>480</ele>
        <time>2021-03-27T12:02:49Z</time>
      </trkpt>
      <trkpt lat="46.16425" lon="6.27224">
        <ele>479.6</ele>
        <time>2021-03-27T12:02:48Z</time>
      </trkpt>
      <trkpt lat="46.1643" lon="6.27225">
        <ele>479.4</ele>
        <time>2021-03-27T12:02:47Z</time>
      </trkpt>
      <trkpt lat="46.16435" lon="6.27226">
        <ele>479.2</ele>
        <time>2021-03-27T12:02:46Z</time>
      </trkpt>
      <trkpt lat="46.1644" lon="6.27227">
        <ele>479.2</ele>
        <time>2021-03-27T12:02:45Z</time>
      </trkpt>
      <trkpt lat="46.16444" lon="6.27228">
        <ele>478.8</ele>
        <time>2021-03-27T12:02:44Z</time>
      </trkpt>
      <trkpt lat="46.16449" lon="6.2723">
        <ele>478.4</ele>
        <time>2021-03-27T12:02:43Z</time>
      </trkpt>
      <trkpt lat="46.16453" lon="6.27232">
        <ele>478.4</ele>
        <time>2021-03-27T12:02:42Z</time>
      </trkpt>
      <trkpt lat="46.16458" lon="6.27233">
        <ele>478.2</ele>
        <time>2021-03-27T12:02:41Z</time>
      </trkpt>
      <trkpt lat="46.16463" lon="6.27235">
        <ele>478.2</ele>
        <time>2021-03-27T12:02:40Z</time>
      </trkpt>
      <trkpt lat="46.16468" lon="6.27237">
        <ele>478</ele>
        <time>2021-03-27T12:02:39Z</time>
      </trkpt>
      <trkpt lat="46.16473" lon="6.27239">
        <ele>477.8</ele>
        <time>2021-03-27T12:02:38Z</time>
      </trkpt>
      <trkpt lat="46.16478" lon="6.2724">
        <ele>477.4</ele>
        <time>2021-03-27T12:02:37Z</time>
      </trkpt>
      <trkpt lat="46.16483" lon="6.27242">
        <ele>477.4</ele>
        <time>2021-03-27T12:02:36Z</time>
      </trkpt>
      <trkpt lat="46.16488" lon="6.27244">
        <ele>477.2</ele>
        <time>2021-03-27T12:02:35Z</time>
      </trkpt>
      <trkpt lat="46.16494" lon="6.27246">
        <ele>477</ele>
        <time>2021-03-27T12:02:34Z</time>
      </trkpt>
      <trkpt lat="46.16499" lon="6.27248">
        <ele>477</ele>
        <time>2021-03-27T12:02:33Z</time>
      </trkpt>
      <trkpt lat="46.16504" lon="6.2725">
        <ele>476.8</ele>
        <time>2021-03-27T12:02:32Z</time>
      </trkpt>
      <trkpt lat="46.1651" lon="6.27252">
        <ele>476.6</ele>
        <time>2021-03-27T12:02:31Z</time>
      </trkpt>
      <trkpt lat="46.16515" lon="6.27254">
        <ele>476.2</ele>
        <time>2021-03-27T12:02:30Z</time>
      </trkpt>
      <trkpt lat="46.16521" lon="6.27256">
        <ele>476</ele>
        <time>2021-03-27T12:02:29Z</time>
      </trkpt>
      <trkpt lat="46.16526" lon="6.27258">
        <ele>475.4</ele>
        <time>2021-03-27T12:02:28Z</time>
      </trkpt>
      <trkpt lat="46.16531" lon="6.2726">
        <ele>475</ele>
        <time>2021-03-27T12:02:27Z</time>
      </trkpt>
      <trkpt lat="46.16536" lon="6.27262">
        <ele>474.8</ele>
        <time>2021-03-27T12:02:26Z</time>
      </trkpt>
      <trkpt lat="46.16541" lon="6.27264">
        <ele>474.6</ele>
        <time>2021-03-27T12:02:25Z</time>
      </trkpt>
      <trkpt lat="46.16546" lon="6.27266">
        <ele>474</ele>
        <time>2021-03-27T12:02:24Z</time>
      </trkpt>
      <trkpt lat="46.16551" lon="6.27268">
        <ele>474.2</ele>
        <time>2021-03-27T12:02:23Z</time>
      </trkpt>
      <trkpt lat="46.16556" lon="6.2727">
        <ele>473.8</ele>
        <time>2021-03-27T12:02:22Z</time>
      </trkpt>
      <trkpt lat="46.16562" lon="6.27272">
        <ele>473.6</ele>
        <time>2021-03-27T12:02:21Z</time>
      </trkpt>
      <trkpt lat="46.16567" lon="6.27275">
        <ele>473.4</ele>
        <time>2021-03-27T12:02:20Z</time>
      </trkpt>
      <trkpt lat="46.16572" lon="6.27279">
        <ele>473</ele>
        <time>2021-03-27T12:02:19Z</time>
      </trkpt>
      <trkpt lat="46.16577" lon="6.27282">
        <ele>472.8</ele>
        <time>2021-03-27T12:02:18Z</time>
      </trkpt>
      <trkpt lat="46.16582" lon="6.27286">
        <ele>472.4</ele>
        <time>2021-03-27T12:02:17Z</time>
      </trkpt>
      <trkpt lat="46.16587" lon="6.2729">
        <ele>472.4</ele>
        <time>2021-03-27T12:02:16Z</time>
      </trkpt>
      <trkpt lat="46.16591" lon="6.27295">
        <ele>472.4</ele>
        <time>2021-03-27T12:02:15Z</time>
      </trkpt>
      <trkpt lat="46.16596" lon="6.273">
        <ele>471.8</ele>
        <time>2021-03-27T12:02:14Z</time>
      </trkpt>
      <trkpt lat="46.16599" lon="6.27305">
        <ele>471.8</ele>
        <time>2021-03-27T12:02:13Z</time>
      </trkpt>
      <trkpt lat="46.16603" lon="6.2731">
        <ele>471.4</ele>
        <time>2021-03-27T12:02:12Z</time>
      </trkpt>
      <trkpt lat="46.16607" lon="6.27314">
        <ele>471.2</ele>
        <time>2021-03-27T12:02:11Z</time>
      </trkpt>
      <trkpt lat="46.16611" lon="6.27318">
        <ele>471</ele>
        <time>2021-03-27T12:02:10Z</time>
      </trkpt>
      <trkpt lat="46.16615" lon="6.27322">
        <ele>470.4</ele>
        <time>2021-03-27T12:02:09Z</time>
      </trkpt>
      <trkpt lat="46.16619" lon="6.27325">
        <ele>470.4</ele>
        <time>2021-03-27T12:02:08Z</time>
      </trkpt>
      <trkpt lat="46.16623" lon="6.27329">
        <ele>470.4</ele>
        <time>2021-03-27T12:02:07Z</time>
      </trkpt>
      <trkpt lat="46.16628" lon="6.27332">
        <ele>470</ele>
        <time>2021-03-27T12:02:06Z</time>
      </trkpt>
      <trkpt lat="46.16633" lon="6.27335">
        <ele>469.8</ele>
        <time>2021-03-27T12:02:05Z</time>
      </trkpt>
      <trkpt lat="46.16637" lon="6.27338">
        <ele>469.6</ele>
        <time>2021-03-27T12:02:04Z</time>
      </trkpt>
      <trkpt lat="46.16642" lon="6.27341">
        <ele>469.6</ele>
        <time>2021-03-27T12:02:03Z</time>
      </trkpt>
      <trkpt lat="46.16646" lon="6.27343">
        <ele>469.2</ele>
        <time>2021-03-27T12:02:02Z</time>
      </trkpt>
      <trkpt lat="46.16651" lon="6.27344">
        <ele>469.2</ele>
        <time>2021-03-27T12:02:01Z</time>
      </trkpt>
      <trkpt lat="46.16656" lon="6.27346">
        <ele>469</ele>
        <time>2021-03-27T12:02:00Z</time>
      </trkpt>
      <trkpt lat="46.16661" lon="6.27348">
        <ele>468.6</ele>
        <time>2021-03-27T12:01:59Z</time>
      </trkpt>
      <trkpt lat="46.16666" lon="6.27349">
        <ele>468</ele>
        <time>2021-03-27T12:01:58Z</time>
      </trkpt>
      <trkpt lat="46.16671" lon="6.2735">
        <ele>467.6</ele>
        <time>2021-03-27T12:01:57Z</time>
      </trkpt>
      <trkpt lat="46.16676" lon="6.27352">
        <ele>467</ele>
        <time>2021-03-27T12:01:56Z</time>
      </trkpt>
      <trkpt lat="46.16682" lon="6.27353">
        <ele>466.6</ele>
        <time>2021-03-27T12:01:55Z</time>
      </trkpt>
      <trkpt lat="46.16687" lon="6.27354">
        <ele>466.4</ele>
        <time>2021-03-27T12:01:54Z</time>
      </trkpt>
      <trkpt lat="46.16693" lon="6.27356">
        <ele>466.4</ele>
        <time>2021-03-27T12:01:53Z</time>
      </trkpt>
      <trkpt lat="46.16698" lon="6.27357">
        <ele>466.2</ele>
        <time>2021-03-27T12:01:52Z</time>
      </trkpt>
      <trkpt lat="46.16704" lon="6.27358">
        <ele>466.2</ele>
        <time>2021-03-27T12:01:51Z</time>
      </trkpt>
      <trkpt lat="46.16709" lon="6.27359">
        <ele>466</ele>
        <time>2021-03-27T12:01:50Z</time>
      </trkpt>
      <trkpt lat="46.16714" lon="6.27361">
        <ele>465.8</ele>
        <time>2021-03-27T12:01:49Z</time>
      </trkpt>
      <trkpt lat="46.1672" lon="6.27362">
        <ele>465.4</ele>
        <time>2021-03-27T12:01:48Z</time>
      </trkpt>
      <trkpt lat="46.16726" lon="6.27363">
        <ele>465.2</ele>
        <time>2021-03-27T12:01:47Z</time>
      </trkpt>
      <trkpt lat="46.16731" lon="6.27364">
        <ele>464.8</ele>
        <time>2021-03-27T12:01:46Z</time>
      </trkpt>
      <trkpt lat="46.16737" lon="6.27366">
        <ele>464.6</ele>
        <time>2021-03-27T12:01:45Z</time>
      </trkpt>
      <trkpt lat="46.16743" lon="6.27367">
        <ele>464</ele>
        <time>2021-03-27T12:01:44Z</time>
      </trkpt>
      <trkpt lat="46.16748" lon="6.27368">
        <ele>463.8</ele>
        <time>2021-03-27T12:01:43Z</time>
      </trkpt>
      <trkpt lat="46.16754" lon="6.27369">
        <ele>463.4</ele>
        <time>2021-03-27T12:01:42Z</time>
      </trkpt>
      <trkpt lat="46.1676" lon="6.27371">
        <ele>462.6</ele>
        <time>2021-03-27T12:01:41Z</time>
      </trkpt>
      <trkpt lat="46.16766" lon="6.27372">
        <ele>462.4</ele>
        <time>2021-03-27T12:01:40Z</time>
      </trkpt>
      <trkpt lat="46.16772" lon="6.27373">
        <ele>462</ele>
        <time>2021-03-27T12:01:39Z</time>
      </trkpt>
      <trkpt lat="46.16778" lon="6.27373">
        <ele>462</ele>
        <time>2021-03-27T12:01:38Z</time>
      </trkpt>
      <trkpt lat="46.16784" lon="6.27373">
        <ele>461.8</ele>
        <time>2021-03-27T12:01:37Z</time>
      </trkpt>
      <trkpt lat="46.16789" lon="6.27372">
        <ele>461.8</ele>
        <time>2021-03-27T12:01:36Z</time>
      </trkpt>
      <trkpt lat="46.16795" lon="6.2737">
        <ele>461.8</ele>
        <time>2021-03-27T12:01:35Z</time>
      </trkpt>
      <trkpt lat="46.16801" lon="6.27368">
        <ele>461.6</ele>
        <time>2021-03-27T12:01:34Z</time>
      </trkpt>
      <trkpt lat="46.16807" lon="6.27364">
        <ele>461.6</ele>
        <time>2021-03-27T12:01:33Z</time>
      </trkpt>
      <trkpt lat="46.16812" lon="6.2736">
        <ele>461.6</ele>
        <time>2021-03-27T12:01:32Z</time>
      </trkpt>
      <trkpt lat="46.16817" lon="6.27354">
        <ele>461.6</ele>
        <time>2021-03-27T12:01:31Z</time>
      </trkpt>
      <trkpt lat="46.16822" lon="6.27348">
        <ele>461.6</ele>
        <time>2021-03-27T12:01:30Z</time>
      </trkpt>
      <trkpt lat="46.16826" lon="6.27341">
        <ele>461.6</ele>
        <time>2021-03-27T12:01:29Z</time>
      </trkpt>
      <trkpt lat="46.1683" lon="6.27332">
        <ele>461.6</ele>
        <time>2021-03-27T12:01:28Z</time>
      </trkpt>
      <trkpt lat="46.16833" lon="6.27323">
        <ele>461.8</ele>
        <time>2021-03-27T12:01:27Z</time>
      </trkpt>
      <trkpt lat="46.16836" lon="6.27312">
        <ele>461.8</ele>
        <time>2021-03-27T12:01:26Z</time>
      </trkpt>
      <trkpt lat="46.16838" lon="6.27302">
        <ele>461.8</ele>
        <time>2021-03-27T12:01:25Z</time>
      </trkpt>
      <trkpt lat="46.1684" lon="6.27292">
        <ele>462</ele>
        <time>2021-03-27T12:01:24Z</time>
      </trkpt>
      <trkpt lat="46.16841" lon="6.27282">
        <ele>461.8</ele>
        <time>2021-03-27T12:01:23Z</time>
      </trkpt>
      <trkpt lat="46.16842" lon="6.27271">
        <ele>462</ele>
        <time>2021-03-27T12:01:22Z</time>
      </trkpt>
      <trkpt lat="46.16844" lon="6.27261">
        <ele>462</ele>
        <time>2021-03-27T12:01:21Z</time>
      </trkpt>
      <trkpt lat="46.16845" lon="6.2725">
        <ele>462</ele>
        <time>2021-03-27T12:01:20Z</time>
      </trkpt>
      <trkpt lat="46.16846" lon="6.2724">
        <ele>462</ele>
        <time>2021-03-27T12:01:19Z</time>
      </trkpt>
      <trkpt lat="46.16848" lon="6.2723">
        <ele>462</ele>
        <time>2021-03-27T12:01:18Z</time>
      </trkpt>
      <trkpt lat="46.16849" lon="6.2722">
        <ele>462</ele>
        <time>2021-03-27T12:01:17Z</time>
      </trkpt>
      <trkpt lat="46.16851" lon="6.2721">
        <ele>462</ele>
        <time>2021-03-27T12:01:16Z</time>
      </trkpt>
      <trkpt lat="46.16852" lon="6.272">
        <ele>462</ele>
        <time>2021-03-27T12:01:15Z</time>
      </trkpt>
      <trkpt lat="46.16853" lon="6.27191">
        <ele>462</ele>
        <time>2021-03-27T12:01:14Z</time>
      </trkpt>
      <trkpt lat="46.16853" lon="6.27182">
        <ele>462.2</ele>
        <time>2021-03-27T12:01:13Z</time>
      </trkpt>
      <trkpt lat="46.16852" lon="6.27173">
        <ele>462</ele>
        <time>2021-03-27T12:01:12Z</time>
      </trkpt>
      <trkpt lat="46.1685" lon="6.27166">
        <ele>462.2</ele>
        <time>2021-03-27T12:01:11Z</time>
      </trkpt>
      <trkpt lat="46.16846" lon="6.2716">
        <ele>462</ele>
        <time>2021-03-27T12:01:10Z</time>
      </trkpt>
      <trkpt lat="46.16841" lon="6.27155">
        <ele>462</ele>
        <time>2021-03-27T12:01:09Z</time>
      </trkpt>
      <trkpt lat="46.16836" lon="6.27152">
        <ele>462</ele>
        <time>2021-03-27T12:01:08Z</time>
      </trkpt>
      <trkpt lat="46.16831" lon="6.2715">
        <ele>462.2</ele>
        <time>2021-03-27T12:01:07Z</time>
      </trkpt>
      <trkpt lat="46.16827" lon="6.27149">
        <ele>462</ele>
        <time>2021-03-27T12:01:06Z</time>
      </trkpt>
      <trkpt lat="46.16822" lon="6.27148">
        <ele>462.2</ele>
        <time>2021-03-27T12:01:05Z</time>
      </trkpt>
      <trkpt lat="46.16819" lon="6.27147">
        <ele>462.2</ele>
        <time>2021-03-27T12:01:04Z</time>
      </trkpt>
      <trkpt lat="46.16817" lon="6.27145">
        <ele>462.2</ele>
        <time>2021-03-27T12:01:03Z</time>
      </trkpt>
      <trkpt lat="46.16816" lon="6.27143">
        <ele>462.2</ele>
        <time>2021-03-27T12:01:02Z</time>
      </trkpt>
      <trkpt lat="46.16815" lon="6.27141">
        <ele>462.4</ele>
        <time>2021-03-27T12:01:01Z</time>
      </trkpt>
      <trkpt lat="46.16814" lon="6.27139">
        <ele>462.4</ele>
        <time>2021-03-27T12:01:00Z</time>
      </trkpt>
      <trkpt lat="46.16814" lon="6.27139">
        <ele>462.8</ele>
        <time>2021-03-27T12:00:59Z</time>
      </trkpt>
      <trkpt lat="46.16813" lon="6.2714">
        <ele>463.6</ele>
        <time>2021-03-27T12:00:58Z</time>
      </trkpt>
      <trkpt lat="46.16811" lon="6.27141">
        <ele>464.8</ele>
        <time>2021-03-27T12:00:57Z</time>
      </trkpt>
      <trkpt lat="46.16809" lon="6.2714">
        <ele>466.2</ele>
        <time>2021-03-27T12:00:56Z</time>
      </trkpt>
      <trkpt lat="46.16803" lon="6.27139">
        <ele>467.6</ele>
        <time>2021-03-27T12:00:55Z</time>
      </trkpt>
      <trkpt lat="46.16797" lon="6.27137">
        <ele>468.8</ele>
        <time>2021-03-27T12:00:54Z</time>
      </trkpt>
      <trkpt lat="46.16788" lon="6.27135">
        <ele>469.8</ele>
        <time>2021-03-27T12:00:53Z</time>
      </trkpt>
      <trkpt lat="46.16777" lon="6.27132">
        <ele>470.8</ele>
        <time>2021-03-27T12:00:52Z</time>
      </trkpt>
      <trkpt lat="46.16766" lon="6.27125">
        <ele>471.6</ele>
        <time>2021-03-27T12:00:51Z</time>
      </trkpt>
      <trkpt lat="46.16757" lon="6.27115">
        <ele>471.8</ele>
        <time>2021-03-27T12:00:50Z</time>
      </trkpt>
      <trkpt lat="46.16747" lon="6.27103">
        <ele>472.4</ele>
        <time>2021-03-27T12:00:49Z</time>
      </trkpt>
      <trkpt lat="46.16739" lon="6.27091">
        <ele>473</ele>
        <time>2021-03-27T12:00:48Z</time>
      </trkpt>
      <trkpt lat="46.16731" lon="6.27078">
        <ele>473.4</ele>
        <time>2021-03-27T12:00:47Z</time>
      </trkpt>
      <trkpt lat="46.16725" lon="6.27065">
        <ele>474.4</ele>
        <time>2021-03-27T12:00:46Z</time>
      </trkpt>
      <trkpt lat="46.16723" lon="6.2705">
        <ele>475.4</ele>
        <time>2021-03-27T12:00:45Z</time>
      </trkpt>
      <trkpt lat="46.1672" lon="6.27034">
        <ele>476.8</ele>
        <time>2021-03-27T12:00:44Z</time>
      </trkpt>
      <trkpt lat="46.16722" lon="6.27018">
        <ele>477.8</ele>
        <time>2021-03-27T12:00:43Z</time>
      </trkpt>
      <trkpt lat="46.16726" lon="6.27004">
        <ele>478.6</ele>
        <time>2021-03-27T12:00:42Z</time>
      </trkpt>
      <trkpt lat="46.16732" lon="6.26991">
        <ele>479.2</ele>
        <time>2021-03-27T12:00:41Z</time>
      </trkpt>
      <trkpt lat="46.1674" lon="6.2698">
        <ele>480.2</ele>
        <time>2021-03-27T12:00:40Z</time>
      </trkpt>
      <trkpt lat="46.16748" lon="6.26969">
        <ele>481.4</ele>
        <time>2021-03-27T12:00:39Z</time>
      </trkpt>
      <trkpt lat="46.16756" lon="6.2696">
        <ele>482.2</ele>
        <time>2021-03-27T12:00:38Z</time>
      </trkpt>
      <trkpt lat="46.16765" lon="6.2695">
        <ele>483.2</ele>
        <time>2021-03-27T12:00:37Z</time>
      </trkpt>
      <trkpt lat="46.16774" lon="6.26942">
        <ele>483.6</ele>
        <time>2021-03-27T12:00:36Z</time>
      </trkpt>
      <trkpt lat="46.16784" lon="6.26934">
        <ele>484</ele>
        <time>2021-03-27T12:00:35Z</time>
      </trkpt>
      <trkpt lat="46.16794" lon="6.26927">
        <ele>484.4</ele>
        <time>2021-03-27T12:00:34Z</time>
      </trkpt>
      <trkpt lat="46.16803" lon="6.26921">
        <ele>485</ele>
        <time>2021-03-27T12:00:33Z</time>
      </trkpt>
      <trkpt lat="46.16813" lon="6.26915">
        <ele>485.2</ele>
        <time>2021-03-27T12:00:32Z</time>
      </trkpt>
      <trkpt lat="46.16822" lon="6.2691">
        <ele>485.2</ele>
        <time>2021-03-27T12:00:31Z</time>
      </trkpt>
      <trkpt lat="46.16832" lon="6.26904">
        <ele>485.2</ele>
        <time>2021-03-27T12:00:30Z</time>
      </trkpt>
      <trkpt lat="46.16841" lon="6.26897">
        <ele>485.6</ele>
        <time>2021-03-27T12:00:29Z</time>
      </trkpt>
      <trkpt lat="46.1685" lon="6.2689">
        <ele>486</ele>
        <time>2021-03-27T12:00:28Z</time>
      </trkpt>
      <trkpt lat="46.16858" lon="6.26882">
        <ele>486.2</ele>
        <time>2021-03-27T12:00:27Z</time>
      </trkpt>
      <trkpt lat="46.16865" lon="6.26874">
        <ele>486.6</ele>
        <time>2021-03-27T12:00:26Z</time>
      </trkpt>
      <trkpt lat="46.16871" lon="6.26864">
        <ele>487</ele>
        <time>2021-03-27T12:00:25Z</time>
      </trkpt>
      <trkpt lat="46.16877" lon="6.26855">
        <ele>487.2</ele>
        <time>2021-03-27T12:00:24Z</time>
      </trkpt>
      <trkpt lat="46.16882" lon="6.26845">
        <ele>487</ele>
        <time>2021-03-27T12:00:23Z</time>
      </trkpt>
      <trkpt lat="46.16887" lon="6.26835">
        <ele>487.4</ele>
        <time>2021-03-27T12:00:22Z</time>
      </trkpt>
      <trkpt lat="46.16891" lon="6.26825">
        <ele>487.4</ele>
        <time>2021-03-27T12:00:21Z</time>
      </trkpt>
      <trkpt lat="46.16894" lon="6.26814">
        <ele>487.6</ele>
        <time>2021-03-27T12:00:20Z</time>
      </trkpt>
      <trkpt lat="46.16897" lon="6.26803">
        <ele>487.6</ele>
        <time>2021-03-27T12:00:19Z</time>
      </trkpt>
      <trkpt lat="46.16899" lon="6.26792">
        <ele>487.6</ele>
        <time>2021-03-27T12:00:18Z</time>
      </trkpt>
      <trkpt lat="46.16901" lon="6.2678">
        <ele>487.6</ele>
        <time>2021-03-27T12:00:17Z</time>
      </trkpt>
      <trkpt lat="46.16901" lon="6.26769">
        <ele>487.8</ele>
        <time>2021-03-27T12:00:16Z</time>
      </trkpt>
      <trkpt lat="46.16901" lon="6.26757">
        <ele>487.8</ele>
        <time>2021-03-27T12:00:15Z</time>
      </trkpt>
      <trkpt lat="46.16902" lon="6.26745">
        <ele>487.8</ele>
        <time>2021-03-27T12:00:14Z</time>
      </trkpt>
      <trkpt lat="46.16903" lon="6.26733">
        <ele>487.8</ele>
        <time>2021-03-27T12:00:13Z</time>
      </trkpt>
      <trkpt lat="46.16905" lon="6.26721">
        <ele>487.8</ele>
        <time>2021-03-27T12:00:12Z</time>
      </trkpt>
      <trkpt lat="46.16908" lon="6.26709">
        <ele>487.8</ele>
        <time>2021-03-27T12:00:11Z</time>
      </trkpt>
      <trkpt lat="46.16911" lon="6.26698">
        <ele>488</ele>
        <time>2021-03-27T12:00:10Z</time>
      </trkpt>
      <trkpt lat="46.16916" lon="6.26688">
        <ele>487.8</ele>
        <time>2021-03-27T12:00:09Z</time>
      </trkpt>
      <trkpt lat="46.16921" lon="6.26678">
        <ele>488</ele>
        <time>2021-03-27T12:00:08Z</time>
      </trkpt>
      <trkpt lat="46.16926" lon="6.26669">
        <ele>488.4</ele>
        <time>2021-03-27T12:00:07Z</time>
      </trkpt>
      <trkpt lat="46.16932" lon="6.26659">
        <ele>488.8</ele>
        <time>2021-03-27T12:00:06Z</time>
      </trkpt>
      <trkpt lat="46.16938" lon="6.2665">
        <ele>489.8</ele>
        <time>2021-03-27T12:00:05Z</time>
      </trkpt>
      <trkpt lat="46.16944" lon="6.2664">
        <ele>491</ele>
        <time>2021-03-27T12:00:04Z</time>
      </trkpt>
      <trkpt lat="46.16949" lon="6.2663">
        <ele>492.6</ele>
        <time>2021-03-27T12:00:03Z</time>
      </trkpt>
      <trkpt lat="46.16956" lon="6.26619">
        <ele>493.6</ele>
        <time>2021-03-27T12:00:02Z</time>
      </trkpt>
      <trkpt lat="46.16962" lon="6.26609">
        <ele>494.8</ele>
        <time>2021-03-27T12:00:01Z</time>
      </trkpt>
      <trkpt lat="46.16968" lon="6.26598">
        <ele>495.6</ele>
        <time>2021-03-27T12:00:00Z</time>
      </trkpt>
      <trkpt lat="46.16975" lon="6.26586">
        <ele>496.6</ele>
        <time>2021-03-27T11:59:59Z</time>
      </trkpt>
      <trkpt lat="46.16982" lon="6.26575">
        <ele>497.2</ele>
        <time>2021-03-27T11:59:58Z</time>
      </trkpt>
      <trkpt lat="46.1699" lon="6.26563">
        <ele>498</ele>
        <time>2021-03-27T11:59:57Z</time>
      </trkpt>
      <trkpt lat="46.16997" lon="6.26551">
        <ele>498.6</ele>
        <time>2021-03-27T11:59:56Z</time>
      </trkpt>
      <trkpt lat="46.17004" lon="6.2654">
        <ele>498.8</ele>
        <time>2021-03-27T11:59:55Z</time>
      </trkpt>
      <trkpt lat="46.17011" lon="6.26528">
        <ele>498.8</ele>
        <time>2021-03-27T11:59:54Z</time>
      </trkpt>
      <trkpt lat="46.17017" lon="6.26517">
        <ele>499.6</ele>
        <time>2021-03-27T11:59:53Z</time>
      </trkpt>
      <trkpt lat="46.17024" lon="6.26506">
        <ele>499.6</ele>
        <time>2021-03-27T11:59:52Z</time>
      </trkpt>
      <trkpt lat="46.1703" lon="6.26496">
        <ele>500</ele>
        <time>2021-03-27T11:59:51Z</time>
      </trkpt>
      <trkpt lat="46.17036" lon="6.26486">
        <ele>500.4</ele>
        <time>2021-03-27T11:59:50Z</time>
      </trkpt>
      <trkpt lat="46.17042" lon="6.26476">
        <ele>500.6</ele>
        <time>2021-03-27T11:59:49Z</time>
      </trkpt>
      <trkpt lat="46.17047" lon="6.26467">
        <ele>500.6</ele>
        <time>2021-03-27T11:59:48Z</time>
      </trkpt>
      <trkpt lat="46.17052" lon="6.26458">
        <ele>500.6</ele>
        <time>2021-03-27T11:59:47Z</time>
      </trkpt>
      <trkpt lat="46.17057" lon="6.2645">
        <ele>500.6</ele>
        <time>2021-03-27T11:59:46Z</time>
      </trkpt>
      <trkpt lat="46.17062" lon="6.26443">
        <ele>500.6</ele>
        <time>2021-03-27T11:59:45Z</time>
      </trkpt>
      <trkpt lat="46.17066" lon="6.26436">
        <ele>500.6</ele>
        <time>2021-03-27T11:59:44Z</time>
      </trkpt>
      <trkpt lat="46.17071" lon="6.2643">
        <ele>500.8</ele>
        <time>2021-03-27T11:59:43Z</time>
      </trkpt>
      <trkpt lat="46.17074" lon="6.26423">
        <ele>500.8</ele>
        <time>2021-03-27T11:59:42Z</time>
      </trkpt>
      <trkpt lat="46.17078" lon="6.26417">
        <ele>500.8</ele>
        <time>2021-03-27T11:59:41Z</time>
      </trkpt>
      <trkpt lat="46.1708" lon="6.26412">
        <ele>500.8</ele>
        <time>2021-03-27T11:59:40Z</time>
      </trkpt>
      <trkpt lat="46.17082" lon="6.26408">
        <ele>500.8</ele>
        <time>2021-03-27T11:59:39Z</time>
      </trkpt>
      <trkpt lat="46.17084" lon="6.26405">
        <ele>500.8</ele>
        <time>2021-03-27T11:59:38Z</time>
      </trkpt>
      <trkpt lat="46.17087" lon="6.26401">
        <ele>501</ele>
        <time>2021-03-27T11:59:37Z</time>
      </trkpt>
      <trkpt lat="46.1709" lon="6.26397">
        <ele>500.8</ele>
        <time>2021-03-27T11:59:36Z</time>
      </trkpt>
      <trkpt lat="46.17093" lon="6.26391">
        <ele>501</ele>
        <time>2021-03-27T11:59:35Z</time>
      </trkpt>
      <trkpt lat="46.17096" lon="6.26385">
        <ele>501</ele>
        <time>2021-03-27T11:59:34Z</time>
      </trkpt>
      <trkpt lat="46.17101" lon="6.26378">
        <ele>501</ele>
        <time>2021-03-27T11:59:33Z</time>
      </trkpt>
      <trkpt lat="46.17106" lon="6.2637">
        <ele>501.2</ele>
        <time>2021-03-27T11:59:32Z</time>
      </trkpt>
      <trkpt lat="46.17111" lon="6.26362">
        <ele>501.2</ele>
        <time>2021-03-27T11:59:31Z</time>
      </trkpt>
      <trkpt lat="46.17116" lon="6.26354">
        <ele>501.4</ele>
        <time>2021-03-27T11:59:30Z</time>
      </trkpt>
      <trkpt lat="46.17121" lon="6.26346">
        <ele>501.2</ele>
        <time>2021-03-27T11:59:29Z</time>
      </trkpt>
      <trkpt lat="46.17126" lon="6.26338">
        <ele>501.4</ele>
        <time>2021-03-27T11:59:28Z</time>
      </trkpt>
      <trkpt lat="46.17131" lon="6.2633">
        <ele>501.4</ele>
        <time>2021-03-27T11:59:27Z</time>
      </trkpt>
      <trkpt lat="46.17136" lon="6.26322">
        <ele>501.4</ele>
        <time>2021-03-27T11:59:26Z</time>
      </trkpt>
      <trkpt lat="46.1714" lon="6.26314">
        <ele>501.6</ele>
        <time>2021-03-27T11:59:25Z</time>
      </trkpt>
      <trkpt lat="46.17145" lon="6.26306">
        <ele>502</ele>
        <time>2021-03-27T11:59:24Z</time>
      </trkpt>
      <trkpt lat="46.17149" lon="6.26299">
        <ele>502</ele>
        <time>2021-03-27T11:59:23Z</time>
      </trkpt>
      <trkpt lat="46.17154" lon="6.26292">
        <ele>502.2</ele>
        <time>2021-03-27T11:59:22Z</time>
      </trkpt>
      <trkpt lat="46.17159" lon="6.26284">
        <ele>502.2</ele>
        <time>2021-03-27T11:59:21Z</time>
      </trkpt>
      <trkpt lat="46.17163" lon="6.26277">
        <ele>502.2</ele>
        <time>2021-03-27T11:59:20Z</time>
      </trkpt>
      <trkpt lat="46.17168" lon="6.2627">
        <ele>502.4</ele>
        <time>2021-03-27T11:59:19Z</time>
      </trkpt>
      <trkpt lat="46.17173" lon="6.26263">
        <ele>502.4</ele>
        <time>2021-03-27T11:59:18Z</time>
      </trkpt>
      <trkpt lat="46.17177" lon="6.26256">
        <ele>502.4</ele>
        <time>2021-03-27T11:59:17Z</time>
      </trkpt>
      <trkpt lat="46.17181" lon="6.2625">
        <ele>502.4</ele>
        <time>2021-03-27T11:59:16Z</time>
      </trkpt>
      <trkpt lat="46.17185" lon="6.26244">
        <ele>502.4</ele>
        <time>2021-03-27T11:59:15Z</time>
      </trkpt>
      <trkpt lat="46.17189" lon="6.26237">
        <ele>502.6</ele>
        <time>2021-03-27T11:59:14Z</time>
      </trkpt>
      <trkpt lat="46.17194" lon="6.26231">
        <ele>502.4</ele>
        <time>2021-03-27T11:59:13Z</time>
      </trkpt>
      <trkpt lat="46.17198" lon="6.26224">
        <ele>502.2</ele>
        <time>2021-03-27T11:59:12Z</time>
      </trkpt>
      <trkpt lat="46.17201" lon="6.26218">
        <ele>502.2</ele>
        <time>2021-03-27T11:59:11Z</time>
      </trkpt>
      <trkpt lat="46.17205" lon="6.26212">
        <ele>502</ele>
        <time>2021-03-27T11:59:10Z</time>
      </trkpt>
      <trkpt lat="46.17209" lon="6.26206">
        <ele>502</ele>
        <time>2021-03-27T11:59:09Z</time>
      </trkpt>
      <trkpt lat="46.17213" lon="6.262">
        <ele>501.8</ele>
        <time>2021-03-27T11:59:08Z</time>
      </trkpt>
      <trkpt lat="46.17216" lon="6.26194">
        <ele>501.6</ele>
        <time>2021-03-27T11:59:07Z</time>
      </trkpt>
      <trkpt lat="46.1722" lon="6.26187">
        <ele>501.2</ele>
        <time>2021-03-27T11:59:06Z</time>
      </trkpt>
      <trkpt lat="46.17223" lon="6.26181">
        <ele>500.8</ele>
        <time>2021-03-27T11:59:05Z</time>
      </trkpt>
      <trkpt lat="46.17227" lon="6.26175">
        <ele>500.6</ele>
        <time>2021-03-27T11:59:04Z</time>
      </trkpt>
      <trkpt lat="46.1723" lon="6.26168">
        <ele>500</ele>
        <time>2021-03-27T11:59:03Z</time>
      </trkpt>
      <trkpt lat="46.17234" lon="6.26162">
        <ele>499.4</ele>
        <time>2021-03-27T11:59:02Z</time>
      </trkpt>
      <trkpt lat="46.17237" lon="6.26157">
        <ele>499.2</ele>
        <time>2021-03-27T11:59:01Z</time>
      </trkpt>
      <trkpt lat="46.1724" lon="6.26151">
        <ele>499</ele>
        <time>2021-03-27T11:59:00Z</time>
      </trkpt>
      <trkpt lat="46.17243" lon="6.26146">
        <ele>498.4</ele>
        <time>2021-03-27T11:58:59Z</time>
      </trkpt>
      <trkpt lat="46.17246" lon="6.2614">
        <ele>497.8</ele>
        <time>2021-03-27T11:58:58Z</time>
      </trkpt>
      <trkpt lat="46.17249" lon="6.26135">
        <ele>497.2</ele>
        <time>2021-03-27T11:58:57Z</time>
      </trkpt>
      <trkpt lat="46.17252" lon="6.2613">
        <ele>496.8</ele>
        <time>2021-03-27T11:58:56Z</time>
      </trkpt>
      <trkpt lat="46.17254" lon="6.26125">
        <ele>496.2</ele>
        <time>2021-03-27T11:58:55Z</time>
      </trkpt>
      <trkpt lat="46.17256" lon="6.26119">
        <ele>496</ele>
        <time>2021-03-27T11:58:54Z</time>
      </trkpt>
      <trkpt lat="46.17259" lon="6.26114">
        <ele>495.6</ele>
        <time>2021-03-27T11:58:53Z</time>
      </trkpt>
      <trkpt lat="46.17261" lon="6.26108">
        <ele>495.2</ele>
        <time>2021-03-27T11:58:52Z</time>
      </trkpt>
      <trkpt lat="46.17263" lon="6.26103">
        <ele>495.2</ele>
        <time>2021-03-27T11:58:51Z</time>
      </trkpt>
      <trkpt lat="46.17266" lon="6.26098">
        <ele>495.2</ele>
        <time>2021-03-27T11:58:50Z</time>
      </trkpt>
      <trkpt lat="46.1727" lon="6.26093">
        <ele>495</ele>
        <time>2021-03-27T11:58:49Z</time>
      </trkpt>
      <trkpt lat="46.17274" lon="6.26088">
        <ele>495.2</ele>
        <time>2021-03-27T11:58:48Z</time>
      </trkpt>
      <trkpt lat="46.17277" lon="6.26081">
        <ele>495</ele>
        <time>2021-03-27T11:58:47Z</time>
      </trkpt>
      <trkpt lat="46.1728" lon="6.26074">
        <ele>495</ele>
        <time>2021-03-27T11:58:46Z</time>
      </trkpt>
      <trkpt lat="46.17283" lon="6.26068">
        <ele>495</ele>
        <time>2021-03-27T11:58:45Z</time>
      </trkpt>
      <trkpt lat="46.17288" lon="6.26061">
        <ele>495</ele>
        <time>2021-03-27T11:58:44Z</time>
      </trkpt>
      <trkpt lat="46.17293" lon="6.26054">
        <ele>495</ele>
        <time>2021-03-27T11:58:43Z</time>
      </trkpt>
      <trkpt lat="46.17297" lon="6.26046">
        <ele>495</ele>
        <time>2021-03-27T11:58:42Z</time>
      </trkpt>
      <trkpt lat="46.17301" lon="6.26037">
        <ele>495.2</ele>
        <time>2021-03-27T11:58:41Z</time>
      </trkpt>
      <trkpt lat="46.17305" lon="6.26028">
        <ele>495.4</ele>
        <time>2021-03-27T11:58:40Z</time>
      </trkpt>
      <trkpt lat="46.17309" lon="6.26019">
        <ele>495.6</ele>
        <time>2021-03-27T11:58:39Z</time>
      </trkpt>
      <trkpt lat="46.17313" lon="6.2601">
        <ele>496</ele>
        <time>2021-03-27T11:58:38Z</time>
      </trkpt>
      <trkpt lat="46.17317" lon="6.26001">
        <ele>496.2</ele>
        <time>2021-03-27T11:58:37Z</time>
      </trkpt>
      <trkpt lat="46.17322" lon="6.25991">
        <ele>496.8</ele>
        <time>2021-03-27T11:58:36Z</time>
      </trkpt>
      <trkpt lat="46.17326" lon="6.25982">
        <ele>497.4</ele>
        <time>2021-03-27T11:58:35Z</time>
      </trkpt>
      <trkpt lat="46.17331" lon="6.25972">
        <ele>497.8</ele>
        <time>2021-03-27T11:58:34Z</time>
      </trkpt>
      <trkpt lat="46.17336" lon="6.25962">
        <ele>497.8</ele>
        <time>2021-03-27T11:58:33Z</time>
      </trkpt>
      <trkpt lat="46.17344" lon="6.25941">
        <ele>498.8</ele>
        <time>2021-03-27T11:58:31Z</time>
      </trkpt>
      <trkpt lat="46.17348" lon="6.2593">
        <ele>499</ele>
        <time>2021-03-27T11:58:30Z</time>
      </trkpt>
      <trkpt lat="46.17353" lon="6.25919">
        <ele>499.2</ele>
        <time>2021-03-27T11:58:29Z</time>
      </trkpt>
      <trkpt lat="46.17357" lon="6.25909">
        <ele>499.4</ele>
        <time>2021-03-27T11:58:28Z</time>
      </trkpt>
      <trkpt lat="46.17362" lon="6.25898">
        <ele>499.6</ele>
        <time>2021-03-27T11:58:27Z</time>
      </trkpt>
      <trkpt lat="46.17367" lon="6.25889">
        <ele>499.6</ele>
        <time>2021-03-27T11:58:26Z</time>
      </trkpt>
      <trkpt lat="46.17372" lon="6.2588">
        <ele>499.6</ele>
        <time>2021-03-27T11:58:25Z</time>
      </trkpt>
      <trkpt lat="46.17378" lon="6.25873">
        <ele>499.6</ele>
        <time>2021-03-27T11:58:24Z</time>
      </trkpt>
      <trkpt lat="46.17383" lon="6.25866">
        <ele>499.6</ele>
        <time>2021-03-27T11:58:23Z</time>
      </trkpt>
      <trkpt lat="46.17394" lon="6.25853">
        <ele>499.6</ele>
        <time>2021-03-27T11:58:21Z</time>
      </trkpt>
      <trkpt lat="46.17399" lon="6.25848">
        <ele>499.6</ele>
        <time>2021-03-27T11:58:20Z</time>
      </trkpt>
      <trkpt lat="46.17403" lon="6.25843">
        <ele>499.6</ele>
        <time>2021-03-27T11:58:19Z</time>
      </trkpt>
      <trkpt lat="46.17411" lon="6.25832">
        <ele>499.6</ele>
        <time>2021-03-27T11:58:17Z</time>
      </trkpt>
      <trkpt lat="46.17414" lon="6.25826">
        <ele>499.4</ele>
        <time>2021-03-27T11:58:16Z</time>
      </trkpt>
      <trkpt lat="46.17416" lon="6.2582">
        <ele>499.6</ele>
        <time>2021-03-27T11:58:15Z</time>
      </trkpt>
      <trkpt lat="46.17417" lon="6.25814">
        <ele>499.6</ele>
        <time>2021-03-27T11:58:14Z</time>
      </trkpt>
      <trkpt lat="46.17418" lon="6.25808">
        <ele>499.6</ele>
        <time>2021-03-27T11:58:13Z</time>
      </trkpt>
      <trkpt lat="46.17419" lon="6.25802">
        <ele>499.6</ele>
        <time>2021-03-27T11:58:12Z</time>
      </trkpt>
      <trkpt lat="46.17419" lon="6.25796">
        <ele>499.6</ele>
        <time>2021-03-27T11:58:11Z</time>
      </trkpt>
      <trkpt lat="46.17419" lon="6.2579">
        <ele>499.6</ele>
        <time>2021-03-27T11:58:10Z</time>
      </trkpt>
      <trkpt lat="46.17418" lon="6.2578">
        <ele>499.6</ele>
        <time>2021-03-27T11:58:08Z</time>
      </trkpt>
      <trkpt lat="46.17416" lon="6.25776">
        <ele>499.6</ele>
        <time>2021-03-27T11:58:07Z</time>
      </trkpt>
      <trkpt lat="46.17415" lon="6.25772">
        <ele>499.6</ele>
        <time>2021-03-27T11:58:06Z</time>
      </trkpt>
      <trkpt lat="46.17414" lon="6.25768">
        <ele>499.6</ele>
        <time>2021-03-27T11:58:05Z</time>
      </trkpt>
      <trkpt lat="46.17412" lon="6.25766">
        <ele>499.8</ele>
        <time>2021-03-27T11:58:04Z</time>
      </trkpt>
      <trkpt lat="46.17409" lon="6.25765">
        <ele>499.6</ele>
        <time>2021-03-27T11:58:03Z</time>
      </trkpt>
      <trkpt lat="46.17407" lon="6.25768">
        <ele>499.6</ele>
        <time>2021-03-27T11:58:02Z</time>
      </trkpt>
      <trkpt lat="46.17405" lon="6.25772">
        <ele>499.6</ele>
        <time>2021-03-27T11:58:01Z</time>
      </trkpt>
      <trkpt lat="46.17405" lon="6.25775">
        <ele>499.6</ele>
        <time>2021-03-27T11:58:00Z</time>
      </trkpt>
      <trkpt lat="46.17405" lon="6.25777">
        <ele>499.6</ele>
        <time>2021-03-27T11:57:59Z</time>
      </trkpt>
      <trkpt lat="46.17405" lon="6.25779">
        <ele>499.6</ele>
        <time>2021-03-27T11:57:58Z</time>
      </trkpt>
      <trkpt lat="46.17405" lon="6.2578">
        <ele>499.8</ele>
        <time>2021-03-27T11:57:57Z</time>
      </trkpt>
      <trkpt lat="46.17405" lon="6.2578">
        <ele>499.6</ele>
        <time>2021-03-27T11:57:56Z</time>
      </trkpt>
      <trkpt lat="46.17405" lon="6.25781">
        <ele>499.6</ele>
        <time>2021-03-27T11:57:55Z</time>
      </trkpt>
      <trkpt lat="46.17405" lon="6.25781">
        <ele>499.6</ele>
        <time>2021-03-27T11:57:53Z</time>
      </trkpt>
      <trkpt lat="46.17405" lon="6.25781">
        <ele>499.6</ele>
        <time>2021-03-27T11:57:52Z</time>
      </trkpt>
      <trkpt lat="46.17405" lon="6.25781">
        <ele>499.8</ele>
        <time>2021-03-27T11:57:51Z</time>
      </trkpt>
      <trkpt lat="46.17405" lon="6.2578">
        <ele>499.8</ele>
        <time>2021-03-27T11:57:49Z</time>
      </trkpt>
      <trkpt lat="46.17405" lon="6.2578">
        <ele>499.8</ele>
        <time>2021-03-27T11:57:48Z</time>
      </trkpt>
      <trkpt lat="46.17405" lon="6.2578">
        <ele>499.8</ele>
        <time>2021-03-27T11:57:47Z</time>
      </trkpt>
      <trkpt lat="46.17405" lon="6.2578">
        <ele>499.6</ele>
        <time>2021-03-27T11:57:46Z</time>
      </trkpt>
      <trkpt lat="46.17405" lon="6.2578">
        <ele>499.6</ele>
        <time>2021-03-27T11:57:45Z</time>
      </trkpt>
      <trkpt lat="46.17405" lon="6.2578">
        <ele>499.8</ele>
        <time>2021-03-27T11:57:44Z</time>
      </trkpt>
      <trkpt lat="46.17404" lon="6.2578">
        <ele>499.6</ele>
        <time>2021-03-27T11:57:43Z</time>
      </trkpt>
      <trkpt lat="46.17405" lon="6.2578">
        <ele>499.8</ele>
        <time>2021-03-27T11:57:42Z</time>
      </trkpt>
      <trkpt lat="46.17404" lon="6.2578">
        <ele>499.6</ele>
        <time>2021-03-27T11:57:40Z</time>
      </trkpt>
      <trkpt lat="46.17404" lon="6.2578">
        <ele>499.6</ele>
        <time>2021-03-27T11:57:39Z</time>
      </trkpt>
      <trkpt lat="46.17404" lon="6.25781">
        <ele>499.8</ele>
        <time>2021-03-27T11:57:38Z</time>
      </trkpt>
      <trkpt lat="46.17404" lon="6.25781">
        <ele>499.8</ele>
        <time>2021-03-27T11:57:36Z</time>
      </trkpt>
      <trkpt lat="46.17404" lon="6.25781">
        <ele>499.6</ele>
        <time>2021-03-27T11:57:35Z</time>
      </trkpt>
      <trkpt lat="46.17404" lon="6.25781">
        <ele>499.6</ele>
        <time>2021-03-27T11:57:33Z</time>
      </trkpt>
      <trkpt lat="46.17404" lon="6.25781">
        <ele>499.6</ele>
        <time>2021-03-27T11:57:32Z</time>
      </trkpt>
      <trkpt lat="46.17404" lon="6.25781">
        <ele>499.6</ele>
        <time>2021-03-27T11:57:31Z</time>
      </trkpt>
      <trkpt lat="46.17404" lon="6.25781">
        <ele>499.6</ele>
        <time>2021-03-27T11:57:30Z</time>
      </trkpt>
      <trkpt lat="46.17404" lon="6.25781">
        <ele>499.6</ele>
        <time>2021-03-27T11:57:29Z</time>
      </trkpt>
      <trkpt lat="46.17404" lon="6.25781">
        <ele>499.4</ele>
        <time>2021-03-27T11:57:28Z</time>
      </trkpt>
      <trkpt lat="46.17404" lon="6.25781">
        <ele>499.4</ele>
        <time>2021-03-27T11:57:27Z</time>
      </trkpt>
      <trkpt lat="46.17404" lon="6.25781">
        <ele>499.4</ele>
        <time>2021-03-27T11:57:26Z</time>
      </trkpt>
      <trkpt lat="46.17404" lon="6.25782">
        <ele>499.4</ele>
        <time>2021-03-27T11:57:25Z</time>
      </trkpt>
      <trkpt lat="46.17404" lon="6.25782">
        <ele>499.4</ele>
        <time>2021-03-27T11:57:24Z</time>
      </trkpt>
      <trkpt lat="46.17404" lon="6.25782">
        <ele>499.4</ele>
        <time>2021-03-27T11:57:23Z</time>
      </trkpt>
      <trkpt lat="46.17404" lon="6.25782">
        <ele>499.4</ele>
        <time>2021-03-27T11:57:22Z</time>
      </trkpt>
      <trkpt lat="46.17404" lon="6.25782">
        <ele>499.4</ele>
        <time>2021-03-27T11:57:21Z</time>
      </trkpt>
      <trkpt lat="46.17404" lon="6.25782">
        <ele>499.4</ele>
        <time>2021-03-27T11:57:20Z</time>
      </trkpt>
      <trkpt lat="46.17404" lon="6.25782">
        <ele>499.4</ele>
        <time>2021-03-27T11:57:19Z</time>
      </trkpt>
      <trkpt lat="46.17404" lon="6.25782">
        <ele>499.4</ele>
        <time>2021-03-27T11:57:18Z</time>
      </trkpt>
      <trkpt lat="46.17404" lon="6.25782">
        <ele>499.4</ele>
        <time>2021-03-27T11:57:17Z</time>
      </trkpt>
      <trkpt lat="46.17404" lon="6.25782">
        <ele>499.4</ele>
        <time>2021-03-27T11:57:16Z</time>
      </trkpt>
      <trkpt lat="46.17404" lon="6.25782">
        <ele>499.4</ele>
        <time>2021-03-27T11:57:15Z</time>
      </trkpt>
      <trkpt lat="46.17404" lon="6.25782">
        <ele>499.4</ele>
        <time>2021-03-27T11:57:14Z</time>
      </trkpt>
      <trkpt lat="46.17404" lon="6.25783">
        <ele>499.4</ele>
        <time>2021-03-27T11:57:13Z</time>
      </trkpt>
      <trkpt lat="46.17404" lon="6.25783">
        <ele>499.4</ele>
        <time>2021-03-27T11:57:12Z</time>
      </trkpt>
      <trkpt lat="46.17404" lon="6.25783">
        <ele>499.4</ele>
        <time>2021-03-27T11:57:11Z</time>
      </trkpt>
      <trkpt lat="46.17405" lon="6.25783">
        <ele>499.4</ele>
        <time>2021-03-27T11:57:10Z</time>
      </trkpt>
      <trkpt lat="46.17405" lon="6.25783">
        <ele>499.4</ele>
        <time>2021-03-27T11:57:09Z</time>
      </trkpt>
      <trkpt lat="46.17405" lon="6.25784">
        <ele>499.4</ele>
        <time>2021-03-27T11:57:08Z</time>
      </trkpt>
      <trkpt lat="46.17405" lon="6.25784">
        <ele>499.4</ele>
        <time>2021-03-27T11:57:07Z</time>
      </trkpt>
      <trkpt lat="46.17405" lon="6.25784">
        <ele>499.4</ele>
        <time>2021-03-27T11:57:06Z</time>
      </trkpt>
      <trkpt lat="46.17405" lon="6.25784">
        <ele>499.4</ele>
        <time>2021-03-27T11:57:05Z</time>
      </trkpt>
      <trkpt lat="46.17405" lon="6.25784">
        <ele>499.4</ele>
        <time>2021-03-27T11:57:04Z</time>
      </trkpt>
      <trkpt lat="46.17405" lon="6.25784">
        <ele>499.4</ele>
        <time>2021-03-27T11:57:03Z</time>
      </trkpt>
      <trkpt lat="46.17405" lon="6.25784">
        <ele>499.4</ele>
        <time>2021-03-27T11:57:02Z</time>
      </trkpt>
      <trkpt lat="46.17405" lon="6.25785">
        <ele>499.4</ele>
        <time>2021-03-27T11:57:01Z</time>
      </trkpt>
      <trkpt lat="46.17405" lon="6.25785">
        <ele>499.4</ele>
        <time>2021-03-27T11:57:00Z</time>
      </trkpt>
      <trkpt lat="46.17405" lon="6.25785">
        <ele>499.4</ele>
        <time>2021-03-27T11:56:59Z</time>
      </trkpt>
      <trkpt lat="46.17405" lon="6.25785">
        <ele>499.2</ele>
        <time>2021-03-27T11:56:58Z</time>
      </trkpt>
      <trkpt lat="46.17405" lon="6.25785">
        <ele>499.2</ele>
        <time>2021-03-27T11:56:57Z</time>
      </trkpt>
      <trkpt lat="46.17405" lon="6.25785">
        <ele>499.4</ele>
        <time>2021-03-27T11:56:56Z</time>
      </trkpt>
      <trkpt lat="46.17405" lon="6.25785">
        <ele>499.4</ele>
        <time>2021-03-27T11:56:55Z</time>
      </trkpt>
      <trkpt lat="46.17405" lon="6.25785">
        <ele>499.4</ele>
        <time>2021-03-27T11:56:54Z</time>
      </trkpt>
      <trkpt lat="46.17405" lon="6.25786">
        <ele>499.4</ele>
        <time>2021-03-27T11:56:53Z</time>
      </trkpt>
      <trkpt lat="46.17405" lon="6.25786">
        <ele>499.4</ele>
        <time>2021-03-27T11:56:52Z</time>
      </trkpt>
      <trkpt lat="46.17405" lon="6.25786">
        <ele>499.4</ele>
        <time>2021-03-27T11:56:51Z</time>
      </trkpt>
      <trkpt lat="46.17405" lon="6.25786">
        <ele>499.4</ele>
        <time>2021-03-27T11:56:50Z</time>
      </trkpt>
      <trkpt lat="46.17405" lon="6.25786">
        <ele>499.4</ele>
        <time>2021-03-27T11:56:49Z</time>
      </trkpt>
      <trkpt lat="46.17405" lon="6.25786">
        <ele>499.4</ele>
        <time>2021-03-27T11:56:48Z</time>
      </trkpt>
      <trkpt lat="46.17404" lon="6.25786">
        <ele>499.4</ele>
        <time>2021-03-27T11:56:47Z</time>
      </trkpt>
      <trkpt lat="46.17404" lon="6.25786">
        <ele>499.4</ele>
        <time>2021-03-27T11:56:46Z</time>
      </trkpt>
      <trkpt lat="46.17403" lon="6.25785">
        <ele>499.4</ele>
        <time>2021-03-27T11:56:45Z</time>
      </trkpt>
      <trkpt lat="46.17403" lon="6.25785">
        <ele>499.4</ele>
        <time>2021-03-27T11:56:44Z</time>
      </trkpt>
      <trkpt lat="46.17403" lon="6.25785">
        <ele>499.4</ele>
        <time>2021-03-27T11:56:43Z</time>
      </trkpt>
      <trkpt lat="46.17403" lon="6.25785">
        <ele>499.4</ele>
        <time>2021-03-27T11:56:42Z</time>
      </trkpt>
      <trkpt lat="46.17403" lon="6.25785">
        <ele>499.2</ele>
        <time>2021-03-27T11:56:41Z</time>
      </trkpt>
      <trkpt lat="46.17403" lon="6.25785">
        <ele>499.2</ele>
        <time>2021-03-27T11:56:40Z</time>
      </trkpt>
      <trkpt lat="46.17403" lon="6.25785">
        <ele>499.4</ele>
        <time>2021-03-27T11:56:39Z</time>
      </trkpt>
      <trkpt lat="46.17403" lon="6.25785">
        <ele>499.2</ele>
        <time>2021-03-27T11:56:38Z</time>
      </trkpt>
      <trkpt lat="46.17403" lon="6.25785">
        <ele>499.2</ele>
        <time>2021-03-27T11:56:37Z</time>
      </trkpt>
      <trkpt lat="46.17403" lon="6.25785">
        <ele>499.4</ele>
        <time>2021-03-27T11:56:36Z</time>
      </trkpt>
      <trkpt lat="46.17403" lon="6.25785">
        <ele>499.2</ele>
        <time>2021-03-27T11:56:35Z</time>
      </trkpt>
      <trkpt lat="46.17403" lon="6.25785">
        <ele>499.4</ele>
        <time>2021-03-27T11:56:34Z</time>
      </trkpt>
      <trkpt lat="46.17403" lon="6.25785">
        <ele>499.2</ele>
        <time>2021-03-27T11:56:33Z</time>
      </trkpt>
      <trkpt lat="46.17403" lon="6.25785">
        <ele>499.2</ele>
        <time>2021-03-27T11:56:32Z</time>
      </trkpt>
      <trkpt lat="46.17403" lon="6.25785">
        <ele>499.2</ele>
        <time>2021-03-27T11:56:31Z</time>
      </trkpt>
      <trkpt lat="46.17403" lon="6.25785">
        <ele>499.2</ele>
        <time>2021-03-27T11:56:30Z</time>
      </trkpt>
      <trkpt lat="46.17403" lon="6.25785">
        <ele>499.2</ele>
        <time>2021-03-27T11:56:29Z</time>
      </trkpt>
      <trkpt lat="46.17403" lon="6.25785">
        <ele>499.2</ele>
        <time>2021-03-27T11:56:28Z</time>
      </trkpt>
      <trkpt lat="46.17403" lon="6.25785">
        <ele>499.2</ele>
        <time>2021-03-27T11:56:27Z</time>
      </trkpt>
      <trkpt lat="46.17403" lon="6.25785">
        <ele>499.2</ele>
        <time>2021-03-27T11:56:26Z</time>
      </trkpt>
      <trkpt lat="46.17403" lon="6.25785">
        <ele>499.4</ele>
        <time>2021-03-27T11:56:25Z</time>
      </trkpt>
      <trkpt lat="46.17403" lon="6.25785">
        <ele>499.4</ele>
        <time>2021-03-27T11:56:24Z</time>
      </trkpt>
      <trkpt lat="46.17403" lon="6.25785">
        <ele>499.4</ele>
        <time>2021-03-27T11:56:23Z</time>
      </trkpt>
      <trkpt lat="46.17403" lon="6.25785">
        <ele>499.4</ele>
        <time>2021-03-27T11:56:22Z</time>
      </trkpt>
      <trkpt lat="46.17403" lon="6.25785">
        <ele>499.4</ele>
        <time>2021-03-27T11:56:21Z</time>
      </trkpt>
      <trkpt lat="46.17403" lon="6.25785">
        <ele>499.4</ele>
        <time>2021-03-27T11:56:20Z</time>
      </trkpt>
      <trkpt lat="46.17403" lon="6.25785">
        <ele>499.4</ele>
        <time>2021-03-27T11:56:19Z</time>
      </trkpt>
      <trkpt lat="46.17403" lon="6.25785">
        <ele>499.4</ele>
        <time>2021-03-27T11:56:18Z</time>
      </trkpt>
      <trkpt lat="46.17403" lon="6.25785">
        <ele>499.4</ele>
        <time>2021-03-27T11:56:17Z</time>
      </trkpt>
      <trkpt lat="46.17403" lon="6.25785">
        <ele>499.4</ele>
        <time>2021-03-27T11:56:16Z</time>
      </trkpt>
      <trkpt lat="46.17403" lon="6.25785">
        <ele>499.4</ele>
        <time>2021-03-27T11:56:15Z</time>
      </trkpt>
      <trkpt lat="46.17403" lon="6.25785">
        <ele>499.4</ele>
        <time>2021-03-27T11:56:14Z</time>
      </trkpt>
      <trkpt lat="46.17403" lon="6.25785">
        <ele>499.4</ele>
        <time>2021-03-27T11:56:13Z</time>
      </trkpt>
      <trkpt lat="46.17403" lon="6.25785">
        <ele>499.4</ele>
        <time>2021-03-27T11:56:12Z</time>
      </trkpt>
      <trkpt lat="46.17403" lon="6.25785">
        <ele>499.4</ele>
        <time>2021-03-27T11:56:11Z</time>
      </trkpt>
      <trkpt lat="46.17403" lon="6.25785">
        <ele>499.4</ele>
        <time>2021-03-27T11:56:10Z</time>
      </trkpt>
      <trkpt lat="46.17403" lon="6.25785">
        <ele>499.6</ele>
        <time>2021-03-27T11:56:09Z</time>
      </trkpt>
      <trkpt lat="46.17403" lon="6.25785">
        <ele>499.6</ele>
        <time>2021-03-27T11:56:08Z</time>
      </trkpt>
      <trkpt lat="46.17403" lon="6.25785">
        <ele>499.6</ele>
        <time>2021-03-27T11:56:07Z</time>
      </trkpt>
      <trkpt lat="46.17403" lon="6.25785">
        <ele>499.6</ele>
        <time>2021-03-27T11:56:06Z</time>
      </trkpt>
      <trkpt lat="46.17403" lon="6.25785">
        <ele>499.6</ele>
        <time>2021-03-27T11:56:05Z</time>
      </trkpt>
      <trkpt lat="46.17403" lon="6.25785">
        <ele>499.6</ele>
        <time>2021-03-27T11:56:04Z</time>
      </trkpt>
      <trkpt lat="46.17403" lon="6.25785">
        <ele>499.6</ele>
        <time>2021-03-27T11:56:03Z</time>
      </trkpt>
      <trkpt lat="46.17403" lon="6.25785">
        <ele>499.6</ele>
        <time>2021-03-27T11:56:02Z</time>
      </trkpt>
      <trkpt lat="46.17403" lon="6.25785">
        <ele>499.6</ele>
        <time>2021-03-27T11:56:01Z</time>
      </trkpt>
      <trkpt lat="46.17403" lon="6.25785">
        <ele>499.6</ele>
        <time>2021-03-27T11:56:00Z</time>
      </trkpt>
      <trkpt lat="46.17403" lon="6.25785">
        <ele>499.6</ele>
        <time>2021-03-27T11:55:59Z</time>
      </trkpt>
      <trkpt lat="46.17403" lon="6.25785">
        <ele>499.6</ele>
        <time>2021-03-27T11:55:58Z</time>
      </trkpt>
      <trkpt lat="46.17403" lon="6.25785">
        <ele>499.6</ele>
        <time>2021-03-27T11:55:57Z</time>
      </trkpt>
      <trkpt lat="46.17403" lon="6.25785">
        <ele>499.4</ele>
        <time>2021-03-27T11:55:56Z</time>
      </trkpt>
      <trkpt lat="46.17403" lon="6.25785">
        <ele>499.6</ele>
        <time>2021-03-27T11:55:55Z</time>
      </trkpt>
      <trkpt lat="46.17403" lon="6.25785">
        <ele>499.6</ele>
        <time>2021-03-27T11:55:54Z</time>
      </trkpt>
      <trkpt lat="46.17403" lon="6.25785">
        <ele>499.6</ele>
        <time>2021-03-27T11:55:53Z</time>
      </trkpt>
      <trkpt lat="46.17403" lon="6.25785">
        <ele>499.4</ele>
        <time>2021-03-27T11:55:52Z</time>
      </trkpt>
      <trkpt lat="46.17403" lon="6.25785">
        <ele>499.6</ele>
        <time>2021-03-27T11:55:51Z</time>
      </trkpt>
      <trkpt lat="46.17403" lon="6.25785">
        <ele>499.4</ele>
        <time>2021-03-27T11:55:50Z</time>
      </trkpt>
      <trkpt lat="46.17403" lon="6.25785">
        <ele>499.4</ele>
        <time>2021-03-27T11:55:49Z</time>
      </trkpt>
      <trkpt lat="46.17403" lon="6.25785">
        <ele>499.4</ele>
        <time>2021-03-27T11:55:48Z</time>
      </trkpt>
      <trkpt lat="46.17403" lon="6.25785">
        <ele>499.4</ele>
        <time>2021-03-27T11:55:47Z</time>
      </trkpt>
      <trkpt lat="46.17403" lon="6.25785">
        <ele>499.2</ele>
        <time>2021-03-27T11:55:46Z</time>
      </trkpt>
      <trkpt lat="46.17403" lon="6.25785">
        <ele>499.4</ele>
        <time>2021-03-27T11:55:45Z</time>
      </trkpt>
      <trkpt lat="46.17403" lon="6.25785">
        <ele>499.4</ele>
        <time>2021-03-27T11:55:44Z</time>
      </trkpt>
      <trkpt lat="46.17403" lon="6.25785">
        <ele>499.2</ele>
        <time>2021-03-27T11:55:43Z</time>
      </trkpt>
      <trkpt lat="46.17403" lon="6.25785">
        <ele>499.4</ele>
        <time>2021-03-27T11:55:42Z</time>
      </trkpt>
      <trkpt lat="46.17403" lon="6.25785">
        <ele>499.4</ele>
        <time>2021-03-27T11:55:41Z</time>
      </trkpt>
      <trkpt lat="46.17403" lon="6.25785">
        <ele>499.4</ele>
        <time>2021-03-27T11:55:40Z</time>
      </trkpt>
      <trkpt lat="46.17403" lon="6.25785">
        <ele>499.2</ele>
        <time>2021-03-27T11:55:39Z</time>
      </trkpt>
      <trkpt lat="46.17403" lon="6.25785">
        <ele>499.4</ele>
        <time>2021-03-27T11:55:38Z</time>
      </trkpt>
      <trkpt lat="46.17403" lon="6.25785">
        <ele>499.2</ele>
        <time>2021-03-27T11:55:37Z</time>
      </trkpt>
      <trkpt lat="46.17403" lon="6.25785">
        <ele>499.4</ele>
        <time>2021-03-27T11:55:36Z</time>
      </trkpt>
      <trkpt lat="46.17403" lon="6.25785">
        <ele>499.4</ele>
        <time>2021-03-27T11:55:35Z</time>
      </trkpt>
      <trkpt lat="46.17403" lon="6.25785">
        <ele>499.4</ele>
        <time>2021-03-27T11:55:34Z</time>
      </trkpt>
      <trkpt lat="46.17403" lon="6.25785">
        <ele>499.4</ele>
        <time>2021-03-27T11:55:33Z</time>
      </trkpt>
      <trkpt lat="46.17403" lon="6.25785">
        <ele>499.4</ele>
        <time>2021-03-27T11:55:32Z</time>
      </trkpt>
      <trkpt lat="46.17403" lon="6.25785">
        <ele>499.4</ele>
        <time>2021-03-27T11:55:31Z</time>
      </trkpt>
      <trkpt lat="46.17403" lon="6.25785">
        <ele>499.2</ele>
        <time>2021-03-27T11:55:30Z</time>
      </trkpt>
      <trkpt lat="46.17403" lon="6.25785">
        <ele>499.2</ele>
        <time>2021-03-27T11:55:29Z</time>
      </trkpt>
      <trkpt lat="46.17403" lon="6.25785">
        <ele>499.4</ele>
        <time>2021-03-27T11:55:28Z</time>
      </trkpt>
      <trkpt lat="46.17403" lon="6.25785">
        <ele>499.4</ele>
        <time>2021-03-27T11:55:27Z</time>
      </trkpt>
      <trkpt lat="46.17403" lon="6.25785">
        <ele>499.4</ele>
        <time>2021-03-27T11:55:26Z</time>
      </trkpt>
      <trkpt lat="46.17403" lon="6.25785">
        <ele>499.4</ele>
        <time>2021-03-27T11:55:25Z</time>
      </trkpt>
      <trkpt lat="46.17403" lon="6.25785">
        <ele>499.4</ele>
        <time>2021-03-27T11:55:24Z</time>
      </trkpt>
      <trkpt lat="46.17403" lon="6.25785">
        <ele>499.4</ele>
        <time>2021-03-27T11:55:23Z</time>
      </trkpt>
      <trkpt lat="46.17403" lon="6.25785">
        <ele>499.6</ele>
        <time>2021-03-27T11:55:22Z</time>
      </trkpt>
      <trkpt lat="46.17403" lon="6.25785">
        <ele>499.6</ele>
        <time>2021-03-27T11:55:21Z</time>
      </trkpt>
      <trkpt lat="46.17403" lon="6.25785">
        <ele>499.4</ele>
        <time>2021-03-27T11:55:20Z</time>
      </trkpt>
      <trkpt lat="46.17403" lon="6.25785">
        <ele>499.6</ele>
        <time>2021-03-27T11:55:19Z</time>
      </trkpt>
      <trkpt lat="46.17403" lon="6.25785">
        <ele>499.4</ele>
        <time>2021-03-27T11:55:18Z</time>
      </trkpt>
      <trkpt lat="46.17403" lon="6.25785">
        <ele>499.6</ele>
        <time>2021-03-27T11:55:17Z</time>
      </trkpt>
      <trkpt lat="46.17403" lon="6.25785">
        <ele>499.6</ele>
        <time>2021-03-27T11:55:16Z</time>
      </trkpt>
      <trkpt lat="46.17403" lon="6.25785">
        <ele>499.4</ele>
        <time>2021-03-27T11:55:15Z</time>
      </trkpt>
      <trkpt lat="46.17403" lon="6.25785">
        <ele>499.6</ele>
        <time>2021-03-27T11:55:14Z</time>
      </trkpt>
      <trkpt lat="46.17403" lon="6.25785">
        <ele>499.4</ele>
        <time>2021-03-27T11:55:13Z</time>
      </trkpt>
      <trkpt lat="46.17403" lon="6.25785">
        <ele>499.6</ele>
        <time>2021-03-27T11:55:12Z</time>
      </trkpt>
      <trkpt lat="46.17403" lon="6.25785">
        <ele>499.4</ele>
        <time>2021-03-27T11:55:11Z</time>
      </trkpt>
      <trkpt lat="46.17403" lon="6.25785">
        <ele>499.6</ele>
        <time>2021-03-27T11:55:10Z</time>
      </trkpt>
      <trkpt lat="46.17403" lon="6.25785">
        <ele>499.6</ele>
        <time>2021-03-27T11:55:09Z</time>
      </trkpt>
      <trkpt lat="46.17403" lon="6.25785">
        <ele>499.4</ele>
        <time>2021-03-27T11:55:08Z</time>
      </trkpt>
      <trkpt lat="46.17403" lon="6.25785">
        <ele>499.6</ele>
        <time>2021-03-27T11:55:07Z</time>
      </trkpt>
      <trkpt lat="46.17403" lon="6.25785">
        <ele>499.6</ele>
        <time>2021-03-27T11:55:06Z</time>
      </trkpt>
      <trkpt lat="46.17403" lon="6.25785">
        <ele>499.6</ele>
        <time>2021-03-27T11:55:04Z</time>
      </trkpt>
      <trkpt lat="46.17403" lon="6.25785">
        <ele>499.4</ele>
        <time>2021-03-27T11:55:03Z</time>
      </trkpt>
      <trkpt lat="46.17403" lon="6.25785">
        <ele>499.6</ele>
        <time>2021-03-27T11:55:02Z</time>
      </trkpt>
      <trkpt lat="46.17403" lon="6.25785">
        <ele>499.4</ele>
        <time>2021-03-27T11:55:01Z</time>
      </trkpt>
      <trkpt lat="46.17403" lon="6.25785">
        <ele>499.6</ele>
        <time>2021-03-27T11:55:00Z</time>
      </trkpt>
      <trkpt lat="46.17403" lon="6.25785">
        <ele>499.6</ele>
        <time>2021-03-27T11:54:59Z</time>
      </trkpt>
      <trkpt lat="46.17403" lon="6.25785">
        <ele>499.4</ele>
        <time>2021-03-27T11:54:58Z</time>
      </trkpt>
      <trkpt lat="46.17403" lon="6.25785">
        <ele>499.6</ele>
        <time>2021-03-27T11:54:57Z</time>
      </trkpt>
      <trkpt lat="46.17403" lon="6.25785">
        <ele>499.6</ele>
        <time>2021-03-27T11:54:56Z</time>
      </trkpt>
      <trkpt lat="46.17403" lon="6.25785">
        <ele>499.6</ele>
        <time>2021-03-27T11:54:55Z</time>
      </trkpt>
      <trkpt lat="46.17403" lon="6.25785">
        <ele>499.6</ele>
        <time>2021-03-27T11:54:54Z</time>
      </trkpt>
      <trkpt lat="46.17403" lon="6.25785">
        <ele>499.6</ele>
        <time>2021-03-27T11:54:53Z</time>
      </trkpt>
      <trkpt lat="46.17403" lon="6.25785">
        <ele>499.4</ele>
        <time>2021-03-27T11:54:52Z</time>
      </trkpt>
      <trkpt lat="46.17403" lon="6.25785">
        <ele>499.6</ele>
        <time>2021-03-27T11:54:51Z</time>
      </trkpt>
      <trkpt lat="46.17403" lon="6.25785">
        <ele>499.6</ele>
        <time>2021-03-27T11:54:50Z</time>
      </trkpt>
      <trkpt lat="46.17403" lon="6.25785">
        <ele>499.4</ele>
        <time>2021-03-27T11:54:49Z</time>
      </trkpt>
      <trkpt lat="46.17403" lon="6.25785">
        <ele>499.6</ele>
        <time>2021-03-27T11:54:48Z</time>
      </trkpt>
      <trkpt lat="46.17403" lon="6.25785">
        <ele>499.6</ele>
        <time>2021-03-27T11:54:47Z</time>
      </trkpt>
      <trkpt lat="46.17403" lon="6.25785">
        <ele>499.4</ele>
        <time>2021-03-27T11:54:46Z</time>
      </trkpt>
      <trkpt lat="46.17403" lon="6.25785">
        <ele>499.6</ele>
        <time>2021-03-27T11:54:45Z</time>
      </trkpt>
      <trkpt lat="46.17403" lon="6.25785">
        <ele>499.4</ele>
        <time>2021-03-27T11:54:44Z</time>
      </trkpt>
      <trkpt lat="46.17403" lon="6.25785">
        <ele>499.6</ele>
        <time>2021-03-27T11:54:43Z</time>
      </trkpt>
      <trkpt lat="46.17403" lon="6.25785">
        <ele>499.4</ele>
        <time>2021-03-27T11:54:42Z</time>
      </trkpt>
      <trkpt lat="46.17403" lon="6.25785">
        <ele>499.4</ele>
        <time>2021-03-27T11:54:41Z</time>
      </trkpt>
      <trkpt lat="46.17403" lon="6.25785">
        <ele>499.4</ele>
        <time>2021-03-27T11:54:40Z</time>
      </trkpt>
      <trkpt lat="46.17403" lon="6.25785">
        <ele>499.6</ele>
        <time>2021-03-27T11:54:39Z</time>
      </trkpt>
      <trkpt lat="46.17403" lon="6.25785">
        <ele>499.4</ele>
        <time>2021-03-27T11:54:38Z</time>
      </trkpt>
      <trkpt lat="46.17403" lon="6.25785">
        <ele>499.4</ele>
        <time>2021-03-27T11:54:37Z</time>
      </trkpt>
      <trkpt lat="46.17403" lon="6.25785">
        <ele>499.4</ele>
        <time>2021-03-27T11:54:36Z</time>
      </trkpt>
      <trkpt lat="46.17403" lon="6.25785">
        <ele>499.4</ele>
        <time>2021-03-27T11:54:35Z</time>
      </trkpt>
      <trkpt lat="46.17403" lon="6.25785">
        <ele>499.4</ele>
        <time>2021-03-27T11:54:34Z</time>
      </trkpt>
      <trkpt lat="46.17403" lon="6.25785">
        <ele>499.4</ele>
        <time>2021-03-27T11:54:33Z</time>
      </trkpt>
      <trkpt lat="46.17403" lon="6.25785">
        <ele>499.4</ele>
        <time>2021-03-27T11:54:32Z</time>
      </trkpt>
      <trkpt lat="46.17403" lon="6.25785">
        <ele>499.6</ele>
        <time>2021-03-27T11:54:31Z</time>
      </trkpt>
      <trkpt lat="46.17403" lon="6.25785">
        <ele>499.4</ele>
        <time>2021-03-27T11:54:30Z</time>
      </trkpt>
      <trkpt lat="46.17403" lon="6.25785">
        <ele>499.4</ele>
        <time>2021-03-27T11:54:29Z</time>
      </trkpt>
      <trkpt lat="46.17403" lon="6.25785">
        <ele>499.6</ele>
        <time>2021-03-27T11:54:28Z</time>
      </trkpt>
      <trkpt lat="46.17403" lon="6.25785">
        <ele>499.6</ele>
        <time>2021-03-27T11:54:27Z</time>
      </trkpt>
      <trkpt lat="46.17403" lon="6.25785">
        <ele>499.6</ele>
        <time>2021-03-27T11:54:26Z</time>
      </trkpt>
      <trkpt lat="46.17403" lon="6.25785">
        <ele>499.4</ele>
        <time>2021-03-27T11:54:25Z</time>
      </trkpt>
      <trkpt lat="46.17403" lon="6.25785">
        <ele>499.6</ele>
        <time>2021-03-27T11:54:24Z</time>
      </trkpt>
      <trkpt lat="46.17403" lon="6.25785">
        <ele>499.6</ele>
        <time>2021-03-27T11:54:23Z</time>
      </trkpt>
      <trkpt lat="46.17403" lon="6.25785">
        <ele>499.6</ele>
        <time>2021-03-27T11:54:22Z</time>
      </trkpt>
      <trkpt lat="46.17403" lon="6.25785">
        <ele>499.6</ele>
        <time>2021-03-27T11:54:21Z</time>
      </trkpt>
      <trkpt lat="46.17403" lon="6.25785">
        <ele>499.6</ele>
        <time>2021-03-27T11:54:20Z</time>
      </trkpt>
      <trkpt lat="46.17403" lon="6.25785">
        <ele>499.6</ele>
        <time>2021-03-27T11:54:19Z</time>
      </trkpt>
      <trkpt lat="46.17403" lon="6.25785">
        <ele>499.6</ele>
        <time>2021-03-27T11:54:18Z</time>
      </trkpt>
      <trkpt lat="46.17403" lon="6.25785">
        <ele>499.8</ele>
        <time>2021-03-27T11:54:17Z</time>
      </trkpt>
      <trkpt lat="46.17403" lon="6.25785">
        <ele>499.8</ele>
        <time>2021-03-27T11:54:16Z</time>
      </trkpt>
      <trkpt lat="46.17403" lon="6.25785">
        <ele>499.6</ele>
        <time>2021-03-27T11:54:15Z</time>
      </trkpt>
      <trkpt lat="46.17403" lon="6.25785">
        <ele>499.8</ele>
        <time>2021-03-27T11:54:14Z</time>
      </trkpt>
      <trkpt lat="46.17403" lon="6.25785">
        <ele>500</ele>
        <time>2021-03-27T11:54:13Z</time>
      </trkpt>
      <trkpt lat="46.17403" lon="6.25785">
        <ele>499.8</ele>
        <time>2021-03-27T11:54:12Z</time>
      </trkpt>
      <trkpt lat="46.17403" lon="6.25785">
        <ele>499.8</ele>
        <time>2021-03-27T11:54:11Z</time>
      </trkpt>
      <trkpt lat="46.17403" lon="6.25785">
        <ele>500</ele>
        <time>2021-03-27T11:54:10Z</time>
      </trkpt>
      <trkpt lat="46.17403" lon="6.25785">
        <ele>500</ele>
        <time>2021-03-27T11:54:09Z</time>
      </trkpt>
      <trkpt lat="46.17403" lon="6.25785">
        <ele>500</ele>
        <time>2021-03-27T11:54:08Z</time>
      </trkpt>
      <trkpt lat="46.17403" lon="6.25785">
        <ele>500</ele>
        <time>2021-03-27T11:54:07Z</time>
      </trkpt>
      <trkpt lat="46.17403" lon="6.25785">
        <ele>500</ele>
        <time>2021-03-27T11:54:06Z</time>
      </trkpt>
      <trkpt lat="46.17403" lon="6.25785">
        <ele>500</ele>
        <time>2021-03-27T11:54:05Z</time>
      </trkpt>
      <trkpt lat="46.17403" lon="6.25785">
        <ele>499.8</ele>
        <time>2021-03-27T11:54:04Z</time>
      </trkpt>
      <trkpt lat="46.17403" lon="6.25785">
        <ele>499.8</ele>
        <time>2021-03-27T11:54:03Z</time>
      </trkpt>
      <trkpt lat="46.17403" lon="6.25785">
        <ele>500</ele>
        <time>2021-03-27T11:54:02Z</time>
      </trkpt>
      <trkpt lat="46.17403" lon="6.25785">
        <ele>499.8</ele>
        <time>2021-03-27T11:54:01Z</time>
      </trkpt>
      <trkpt lat="46.17403" lon="6.25785">
        <ele>499.8</ele>
        <time>2021-03-27T11:54:00Z</time>
      </trkpt>
      <trkpt lat="46.17403" lon="6.25785">
        <ele>499.8</ele>
        <time>2021-03-27T11:53:59Z</time>
      </trkpt>
      <trkpt lat="46.17403" lon="6.25785">
        <ele>500</ele>
        <time>2021-03-27T11:53:58Z</time>
      </trkpt>
      <trkpt lat="46.17403" lon="6.25785">
        <ele>500</ele>
        <time>2021-03-27T11:53:57Z</time>
      </trkpt>
      <trkpt lat="46.17403" lon="6.25785">
        <ele>499.8</ele>
        <time>2021-03-27T11:53:56Z</time>
      </trkpt>
      <trkpt lat="46.17403" lon="6.25785">
        <ele>499.8</ele>
        <time>2021-03-27T11:53:55Z</time>
      </trkpt>
      <trkpt lat="46.17403" lon="6.25785">
        <ele>499.8</ele>
        <time>2021-03-27T11:53:54Z</time>
      </trkpt>
      <trkpt lat="46.17403" lon="6.25785">
        <ele>499.8</ele>
        <time>2021-03-27T11:53:53Z</time>
      </trkpt>
      <trkpt lat="46.17403" lon="6.25785">
        <ele>499.8</ele>
        <time>2021-03-27T11:53:52Z</time>
      </trkpt>
      <trkpt lat="46.17403" lon="6.25785">
        <ele>499.8</ele>
        <time>2021-03-27T11:53:51Z</time>
      </trkpt>
      <trkpt lat="46.17403" lon="6.25785">
        <ele>499.8</ele>
        <time>2021-03-27T11:53:50Z</time>
      </trkpt>
      <trkpt lat="46.17403" lon="6.25785">
        <ele>499.8</ele>
        <time>2021-03-27T11:53:49Z</time>
      </trkpt>
      <trkpt lat="46.17403" lon="6.25785">
        <ele>499.8</ele>
        <time>2021-03-27T11:53:48Z</time>
      </trkpt>
      <trkpt lat="46.17403" lon="6.25785">
        <ele>499.8</ele>
        <time>2021-03-27T11:53:47Z</time>
      </trkpt>
      <trkpt lat="46.17403" lon="6.25785">
        <ele>499.8</ele>
        <time>2021-03-27T11:53:46Z</time>
      </trkpt>
      <trkpt lat="46.17403" lon="6.25785">
        <ele>499.8</ele>
        <time>2021-03-27T11:53:45Z</time>
      </trkpt>
      <trkpt lat="46.17403" lon="6.25785">
        <ele>499.8</ele>
        <time>2021-03-27T11:53:44Z</time>
      </trkpt>
      <trkpt lat="46.17403" lon="6.25785">
        <ele>499.8</ele>
        <time>2021-03-27T11:53:43Z</time>
      </trkpt>
      <trkpt lat="46.17403" lon="6.25785">
        <ele>499.8</ele>
        <time>2021-03-27T11:53:42Z</time>
      </trkpt>
      <trkpt lat="46.17403" lon="6.25785">
        <ele>499.8</ele>
        <time>2021-03-27T11:53:41Z</time>
      </trkpt>
      <trkpt lat="46.17403" lon="6.25785">
        <ele>500</ele>
        <time>2021-03-27T11:53:40Z</time>
      </trkpt>
      <trkpt lat="46.17403" lon="6.25785">
        <ele>499.8</ele>
        <time>2021-03-27T11:53:39Z</time>
      </trkpt>
      <trkpt lat="46.17403" lon="6.25785">
        <ele>499.8</ele>
        <time>2021-03-27T11:53:38Z</time>
      </trkpt>
      <trkpt lat="46.17403" lon="6.25785">
        <ele>500</ele>
        <time>2021-03-27T11:53:37Z</time>
      </trkpt>
      <trkpt lat="46.17403" lon="6.25785">
        <ele>499.8</ele>
        <time>2021-03-27T11:53:36Z</time>
      </trkpt>
      <trkpt lat="46.17403" lon="6.25785">
        <ele>499.8</ele>
        <time>2021-03-27T11:53:35Z</time>
      </trkpt>
      <trkpt lat="46.17403" lon="6.25785">
        <ele>500</ele>
        <time>2021-03-27T11:53:34Z</time>
      </trkpt>
      <trkpt lat="46.17403" lon="6.25785">
        <ele>500</ele>
        <time>2021-03-27T11:53:33Z</time>
      </trkpt>
      <trkpt lat="46.17403" lon="6.25786">
        <ele>500</ele>
        <time>2021-03-27T11:53:32Z</time>
      </trkpt>
      <trkpt lat="46.17403" lon="6.25786">
        <ele>500</ele>
        <time>2021-03-27T11:53:31Z</time>
      </trkpt>
      <trkpt lat="46.17403" lon="6.25785">
        <ele>500</ele>
        <time>2021-03-27T11:53:30Z</time>
      </trkpt>
      <trkpt lat="46.17403" lon="6.25786">
        <ele>500.2</ele>
        <time>2021-03-27T11:53:29Z</time>
      </trkpt>
      <trkpt lat="46.17403" lon="6.25786">
        <ele>500.2</ele>
        <time>2021-03-27T11:53:28Z</time>
      </trkpt>
      <trkpt lat="46.17403" lon="6.25787">
        <ele>500.2</ele>
        <time>2021-03-27T11:53:27Z</time>
      </trkpt>
      <trkpt lat="46.17403" lon="6.25788">
        <ele>500.2</ele>
        <time>2021-03-27T11:53:26Z</time>
      </trkpt>
      <trkpt lat="46.17403" lon="6.25788">
        <ele>500.4</ele>
        <time>2021-03-27T11:53:25Z</time>
      </trkpt>
      <trkpt lat="46.17403" lon="6.25789">
        <ele>500.6</ele>
        <time>2021-03-27T11:53:24Z</time>
      </trkpt>
      <trkpt lat="46.17402" lon="6.25791">
        <ele>500.4</ele>
        <time>2021-03-27T11:53:23Z</time>
      </trkpt>
      <trkpt lat="46.17402" lon="6.25792">
        <ele>500.4</ele>
        <time>2021-03-27T11:53:22Z</time>
      </trkpt>
      <trkpt lat="46.17402" lon="6.25793">
        <ele>500.6</ele>
        <time>2021-03-27T11:53:21Z</time>
      </trkpt>
      <trkpt lat="46.17402" lon="6.25794">
        <ele>500.6</ele>
        <time>2021-03-27T11:53:20Z</time>
      </trkpt>
      <trkpt lat="46.17402" lon="6.25795">
        <ele>500.6</ele>
        <time>2021-03-27T11:53:19Z</time>
      </trkpt>
      <trkpt lat="46.17401" lon="6.25797">
        <ele>500.6</ele>
        <time>2021-03-27T11:53:18Z</time>
      </trkpt>
      <trkpt lat="46.17401" lon="6.25798">
        <ele>500.6</ele>
        <time>2021-03-27T11:53:17Z</time>
      </trkpt>
      <trkpt lat="46.17402" lon="6.25799">
        <ele>500.8</ele>
        <time>2021-03-27T11:53:16Z</time>
      </trkpt>
      <trkpt lat="46.17402" lon="6.25801">
        <ele>500.8</ele>
        <time>2021-03-27T11:53:15Z</time>
      </trkpt>
      <trkpt lat="46.17402" lon="6.25801">
        <ele>500.8</ele>
        <time>2021-03-27T11:53:14Z</time>
      </trkpt>
      <trkpt lat="46.17403" lon="6.25802">
        <ele>500.8</ele>
        <time>2021-03-27T11:53:13Z</time>
      </trkpt>
      <trkpt lat="46.17403" lon="6.25803">
        <ele>501</ele>
        <time>2021-03-27T11:53:12Z</time>
      </trkpt>
      <trkpt lat="46.17404" lon="6.25804">
        <ele>500.8</ele>
        <time>2021-03-27T11:53:11Z</time>
      </trkpt>
      <trkpt lat="46.17405" lon="6.25804">
        <ele>501</ele>
        <time>2021-03-27T11:53:10Z</time>
      </trkpt>
      <trkpt lat="46.17406" lon="6.25804">
        <ele>501</ele>
        <time>2021-03-27T11:53:09Z</time>
      </trkpt>
      <trkpt lat="46.17407" lon="6.25804">
        <ele>501</ele>
        <time>2021-03-27T11:53:08Z</time>
      </trkpt>
      <trkpt lat="46.17408" lon="6.25805">
        <ele>501</ele>
        <time>2021-03-27T11:53:07Z</time>
      </trkpt>
      <trkpt lat="46.1741" lon="6.25805">
        <ele>501</ele>
        <time>2021-03-27T11:53:06Z</time>
      </trkpt>
      <trkpt lat="46.17411" lon="6.25806">
        <ele>501</ele>
        <time>2021-03-27T11:53:05Z</time>
      </trkpt>
      <trkpt lat="46.17412" lon="6.25806">
        <ele>501</ele>
        <time>2021-03-27T11:53:04Z</time>
      </trkpt>
      <trkpt lat="46.17414" lon="6.25806">
        <ele>501</ele>
        <time>2021-03-27T11:53:03Z</time>
      </trkpt>
      <trkpt lat="46.17415" lon="6.25807">
        <ele>501</ele>
        <time>2021-03-27T11:53:02Z</time>
      </trkpt>
      <trkpt lat="46.17416" lon="6.25807">
        <ele>501</ele>
        <time>2021-03-27T11:53:01Z</time>
      </trkpt>
      <trkpt lat="46.17418" lon="6.25807">
        <ele>501</ele>
        <time>2021-03-27T11:53:00Z</time>
      </trkpt>
      <trkpt lat="46.17419" lon="6.25808">
        <ele>501</ele>
        <time>2021-03-27T11:52:59Z</time>
      </trkpt>
      <trkpt lat="46.1742" lon="6.25808">
        <ele>501</ele>
        <time>2021-03-27T11:52:58Z</time>
      </trkpt>
      <trkpt lat="46.17421" lon="6.25808">
        <ele>501</ele>
        <time>2021-03-27T11:52:57Z</time>
      </trkpt>
      <trkpt lat="46.17422" lon="6.25808">
        <ele>501</ele>
        <time>2021-03-27T11:52:56Z</time>
      </trkpt>
      <trkpt lat="46.17422" lon="6.25808">
        <ele>501</ele>
        <time>2021-03-27T11:52:55Z</time>
      </trkpt>
      <trkpt lat="46.17423" lon="6.25808">
        <ele>501</ele>
        <time>2021-03-27T11:52:54Z</time>
      </trkpt>
      <trkpt lat="46.17423" lon="6.25808">
        <ele>501</ele>
        <time>2021-03-27T11:52:53Z</time>
      </trkpt>
      <trkpt lat="46.17423" lon="6.25808">
        <ele>501</ele>
        <time>2021-03-27T11:52:52Z</time>
      </trkpt>
      <trkpt lat="46.17422" lon="6.25808">
        <ele>501.2</ele>
        <time>2021-03-27T11:52:51Z</time>
      </trkpt>
      <trkpt lat="46.17422" lon="6.25808">
        <ele>501.2</ele>
        <time>2021-03-27T11:52:50Z</time>
      </trkpt>
      <trkpt lat="46.17422" lon="6.25808">
        <ele>501</ele>
        <time>2021-03-27T11:52:49Z</time>
      </trkpt>
      <trkpt lat="46.17422" lon="6.25808">
        <ele>501.2</ele>
        <time>2021-03-27T11:52:48Z</time>
      </trkpt>
      <trkpt lat="46.17422" lon="6.25808">
        <ele>501.2</ele>
        <time>2021-03-27T11:52:47Z</time>
      </trkpt>
      <trkpt lat="46.17422" lon="6.25808">
        <ele>501.2</ele>
        <time>2021-03-27T11:52:46Z</time>
      </trkpt>
      <trkpt lat="46.17422" lon="6.25808">
        <ele>501.2</ele>
        <time>2021-03-27T11:52:45Z</time>
      </trkpt>
      <trkpt lat="46.17422" lon="6.25808">
        <ele>501.2</ele>
        <time>2021-03-27T11:52:44Z</time>
      </trkpt>
      <trkpt lat="46.17422" lon="6.25808">
        <ele>501.2</ele>
        <time>2021-03-27T11:52:43Z</time>
      </trkpt>
      <trkpt lat="46.17422" lon="6.25808">
        <ele>501.2</ele>
        <time>2021-03-27T11:52:42Z</time>
      </trkpt>
      <trkpt lat="46.17422" lon="6.25808">
        <ele>501.4</ele>
        <time>2021-03-27T11:52:41Z</time>
      </trkpt>
      <trkpt lat="46.17422" lon="6.25808">
        <ele>501.2</ele>
        <time>2021-03-27T11:52:40Z</time>
      </trkpt>
      <trkpt lat="46.17422" lon="6.25808">
        <ele>501.4</ele>
        <time>2021-03-27T11:52:39Z</time>
      </trkpt>
      <trkpt lat="46.17422" lon="6.25808">
        <ele>501.2</ele>
        <time>2021-03-27T11:52:38Z</time>
      </trkpt>
      <trkpt lat="46.17422" lon="6.25808">
        <ele>501.2</ele>
        <time>2021-03-27T11:52:37Z</time>
      </trkpt>
      <trkpt lat="46.17423" lon="6.25808">
        <ele>501.2</ele>
        <time>2021-03-27T11:52:36Z</time>
      </trkpt>
      <trkpt lat="46.17423" lon="6.25808">
        <ele>501.2</ele>
        <time>2021-03-27T11:52:35Z</time>
      </trkpt>
      <trkpt lat="46.17423" lon="6.25808">
        <ele>501.4</ele>
        <time>2021-03-27T11:52:34Z</time>
      </trkpt>
      <trkpt lat="46.17423" lon="6.25808">
        <ele>501.4</ele>
        <time>2021-03-27T11:52:33Z</time>
      </trkpt>
      <trkpt lat="46.17423" lon="6.25808">
        <ele>501.4</ele>
        <time>2021-03-27T11:52:32Z</time>
      </trkpt>
      <trkpt lat="46.17423" lon="6.25808">
        <ele>501.4</ele>
        <time>2021-03-27T11:52:31Z</time>
      </trkpt>
      <trkpt lat="46.17423" lon="6.25808">
        <ele>501.4</ele>
        <time>2021-03-27T11:52:30Z</time>
      </trkpt>
      <trkpt lat="46.17422" lon="6.25808">
        <ele>501.4</ele>
        <time>2021-03-27T11:52:29Z</time>
      </trkpt>
      <trkpt lat="46.17422" lon="6.25808">
        <ele>501.4</ele>
        <time>2021-03-27T11:52:28Z</time>
      </trkpt>
      <trkpt lat="46.17422" lon="6.25808">
        <ele>501.2</ele>
        <time>2021-03-27T11:52:27Z</time>
      </trkpt>
      <trkpt lat="46.17422" lon="6.25808">
        <ele>501.4</ele>
        <time>2021-03-27T11:52:26Z</time>
      </trkpt>
      <trkpt lat="46.17422" lon="6.25808">
        <ele>501.2</ele>
        <time>2021-03-27T11:52:25Z</time>
      </trkpt>
      <trkpt lat="46.17422" lon="6.25808">
        <ele>501.4</ele>
        <time>2021-03-27T11:52:24Z</time>
      </trkpt>
      <trkpt lat="46.17422" lon="6.25809">
        <ele>501.6</ele>
        <time>2021-03-27T11:52:23Z</time>
      </trkpt>
      <trkpt lat="46.17422" lon="6.25809">
        <ele>501.4</ele>
        <time>2021-03-27T11:52:22Z</time>
      </trkpt>
      <trkpt lat="46.17423" lon="6.25809">
        <ele>501.6</ele>
        <time>2021-03-27T11:52:21Z</time>
      </trkpt>
      <trkpt lat="46.17423" lon="6.25808">
        <ele>501.6</ele>
        <time>2021-03-27T11:52:20Z</time>
      </trkpt>
      <trkpt lat="46.17423" lon="6.25808">
        <ele>501.6</ele>
        <time>2021-03-27T11:52:19Z</time>
      </trkpt>
      <trkpt lat="46.17424" lon="6.25808">
        <ele>501.6</ele>
        <time>2021-03-27T11:52:18Z</time>
      </trkpt>
      <trkpt lat="46.17425" lon="6.25808">
        <ele>501.6</ele>
        <time>2021-03-27T11:52:17Z</time>
      </trkpt>
      <trkpt lat="46.17425" lon="6.25809">
        <ele>501.8</ele>
        <time>2021-03-27T11:52:16Z</time>
      </trkpt>
      <trkpt lat="46.17426" lon="6.25809">
        <ele>501.8</ele>
        <time>2021-03-27T11:52:15Z</time>
      </trkpt>
      <trkpt lat="46.17426" lon="6.25809">
        <ele>502</ele>
        <time>2021-03-27T11:52:14Z</time>
      </trkpt>
      <trkpt lat="46.17426" lon="6.25809">
        <ele>502.2</ele>
        <time>2021-03-27T11:52:13Z</time>
      </trkpt>
      <trkpt lat="46.17426" lon="6.25809">
        <ele>502.4</ele>
        <time>2021-03-27T11:52:12Z</time>
      </trkpt>
      <trkpt lat="46.17427" lon="6.25808">
        <ele>502.4</ele>
        <time>2021-03-27T11:52:11Z</time>
      </trkpt>
      <trkpt lat="46.17427" lon="6.25808">
        <ele>502.4</ele>
        <time>2021-03-27T11:52:10Z</time>
      </trkpt>
      <trkpt lat="46.17427" lon="6.25808">
        <ele>502.4</ele>
        <time>2021-03-27T11:52:09Z</time>
      </trkpt>
      <trkpt lat="46.17427" lon="6.25809">
        <ele>502.6</ele>
        <time>2021-03-27T11:52:08Z</time>
      </trkpt>
      <trkpt lat="46.17427" lon="6.25809">
        <ele>502.6</ele>
        <time>2021-03-27T11:52:07Z</time>
      </trkpt>
      <trkpt lat="46.17428" lon="6.25809">
        <ele>502.6</ele>
        <time>2021-03-27T11:52:06Z</time>
      </trkpt>
      <trkpt lat="46.17428" lon="6.25809">
        <ele>502.6</ele>
        <time>2021-03-27T11:52:05Z</time>
      </trkpt>
      <trkpt lat="46.17429" lon="6.25809">
        <ele>502.6</ele>
        <time>2021-03-27T11:52:04Z</time>
      </trkpt>
      <trkpt lat="46.17428" lon="6.2581">
        <ele>502.6</ele>
        <time>2021-03-27T11:52:03Z</time>
      </trkpt>
      <trkpt lat="46.17428" lon="6.2581">
        <ele>502.8</ele>
        <time>2021-03-27T11:52:02Z</time>
      </trkpt>
      <trkpt lat="46.17429" lon="6.2581">
        <ele>502.8</ele>
        <time>2021-03-27T11:52:01Z</time>
      </trkpt>
      <trkpt lat="46.17429" lon="6.2581">
        <ele>502.8</ele>
        <time>2021-03-27T11:52:00Z</time>
      </trkpt>
      <trkpt lat="46.17429" lon="6.2581">
        <ele>502.6</ele>
        <time>2021-03-27T11:51:59Z</time>
      </trkpt>
      <trkpt lat="46.17429" lon="6.2581">
        <ele>502.6</ele>
        <time>2021-03-27T11:51:58Z</time>
      </trkpt>
      <trkpt lat="46.17429" lon="6.2581">
        <ele>502.6</ele>
        <time>2021-03-27T11:51:57Z</time>
      </trkpt>
      <trkpt lat="46.17429" lon="6.2581">
        <ele>502.8</ele>
        <time>2021-03-27T11:51:56Z</time>
      </trkpt>
      <trkpt lat="46.17429" lon="6.2581">
        <ele>502.8</ele>
        <time>2021-03-27T11:51:55Z</time>
      </trkpt>
      <trkpt lat="46.17429" lon="6.2581">
        <ele>502.8</ele>
        <time>2021-03-27T11:51:54Z</time>
      </trkpt>
      <trkpt lat="46.17429" lon="6.2581">
        <ele>502.6</ele>
        <time>2021-03-27T11:51:53Z</time>
      </trkpt>
      <trkpt lat="46.1743" lon="6.25811">
        <ele>502.6</ele>
        <time>2021-03-27T11:51:52Z</time>
      </trkpt>
      <trkpt lat="46.1743" lon="6.25812">
        <ele>502.6</ele>
        <time>2021-03-27T11:51:51Z</time>
      </trkpt>
      <trkpt lat="46.1743" lon="6.25813">
        <ele>502.6</ele>
        <time>2021-03-27T11:51:50Z</time>
      </trkpt>
      <trkpt lat="46.1743" lon="6.25815">
        <ele>502.8</ele>
        <time>2021-03-27T11:51:49Z</time>
      </trkpt>
      <trkpt lat="46.1743" lon="6.25816">
        <ele>502.8</ele>
        <time>2021-03-27T11:51:48Z</time>
      </trkpt>
      <trkpt lat="46.17431" lon="6.25817">
        <ele>502.6</ele>
        <time>2021-03-27T11:51:47Z</time>
      </trkpt>
      <trkpt lat="46.17431" lon="6.25818">
        <ele>502.6</ele>
        <time>2021-03-27T11:51:46Z</time>
      </trkpt>
      <trkpt lat="46.17431" lon="6.2582">
        <ele>502.8</ele>
        <time>2021-03-27T11:51:45Z</time>
      </trkpt>
      <trkpt lat="46.17432" lon="6.25821">
        <ele>502.6</ele>
        <time>2021-03-27T11:51:44Z</time>
      </trkpt>
      <trkpt lat="46.17432" lon="6.25822">
        <ele>502.6</ele>
        <time>2021-03-27T11:51:43Z</time>
      </trkpt>
      <trkpt lat="46.17432" lon="6.25824">
        <ele>502.8</ele>
        <time>2021-03-27T11:51:42Z</time>
      </trkpt>
      <trkpt lat="46.17433" lon="6.25825">
        <ele>502.8</ele>
        <time>2021-03-27T11:51:41Z</time>
      </trkpt>
      <trkpt lat="46.17433" lon="6.25827">
        <ele>502.6</ele>
        <time>2021-03-27T11:51:40Z</time>
      </trkpt>
      <trkpt lat="46.17433" lon="6.25829">
        <ele>502.8</ele>
        <time>2021-03-27T11:51:39Z</time>
      </trkpt>
      <trkpt lat="46.17433" lon="6.2583">
        <ele>502.6</ele>
        <time>2021-03-27T11:51:38Z</time>
      </trkpt>
      <trkpt lat="46.17433" lon="6.25831">
        <ele>502.6</ele>
        <time>2021-03-27T11:51:37Z</time>
      </trkpt>
      <trkpt lat="46.17433" lon="6.25833">
        <ele>502.6</ele>
        <time>2021-03-27T11:51:36Z</time>
      </trkpt>
      <trkpt lat="46.17434" lon="6.25833">
        <ele>502.8</ele>
        <time>2021-03-27T11:51:35Z</time>
      </trkpt>
      <trkpt lat="46.17434" lon="6.25833">
        <ele>502.6</ele>
        <time>2021-03-27T11:51:34Z</time>
      </trkpt>
      <trkpt lat="46.17434" lon="6.25834">
        <ele>502.8</ele>
        <time>2021-03-27T11:51:33Z</time>
      </trkpt>
      <trkpt lat="46.17434" lon="6.25834">
        <ele>502.6</ele>
        <time>2021-03-27T11:51:32Z</time>
      </trkpt>
      <trkpt lat="46.17434" lon="6.25834">
        <ele>502.6</ele>
        <time>2021-03-27T11:51:31Z</time>
      </trkpt>
      <trkpt lat="46.17434" lon="6.25834">
        <ele>502.8</ele>
        <time>2021-03-27T11:51:30Z</time>
      </trkpt>
      <trkpt lat="46.17434" lon="6.25834">
        <ele>502.6</ele>
        <time>2021-03-27T11:51:29Z</time>
      </trkpt>
      <trkpt lat="46.17434" lon="6.25834">
        <ele>502.6</ele>
        <time>2021-03-27T11:51:28Z</time>
      </trkpt>
      <trkpt lat="46.17434" lon="6.25834">
        <ele>502.6</ele>
        <time>2021-03-27T11:51:27Z</time>
      </trkpt>
      <trkpt lat="46.17434" lon="6.25834">
        <ele>502.6</ele>
        <time>2021-03-27T11:51:26Z</time>
      </trkpt>
      <trkpt lat="46.17434" lon="6.25834">
        <ele>502.6</ele>
        <time>2021-03-27T11:51:25Z</time>
      </trkpt>
      <trkpt lat="46.17434" lon="6.25834">
        <ele>502.6</ele>
        <time>2021-03-27T11:51:24Z</time>
      </trkpt>
      <trkpt lat="46.17434" lon="6.25834">
        <ele>502.6</ele>
        <time>2021-03-27T11:51:23Z</time>
      </trkpt>
      <trkpt lat="46.17434" lon="6.25834">
        <ele>502.6</ele>
        <time>2021-03-27T11:51:22Z</time>
      </trkpt>
      <trkpt lat="46.17434" lon="6.25834">
        <ele>502.4</ele>
        <time>2021-03-27T11:51:21Z</time>
      </trkpt>
      <trkpt lat="46.17434" lon="6.25834">
        <ele>502.4</ele>
        <time>2021-03-27T11:51:20Z</time>
      </trkpt>
      <trkpt lat="46.17434" lon="6.25834">
        <ele>502.6</ele>
        <time>2021-03-27T11:51:19Z</time>
      </trkpt>
      <trkpt lat="46.17434" lon="6.25834">
        <ele>502.4</ele>
        <time>2021-03-27T11:51:18Z</time>
      </trkpt>
      <trkpt lat="46.17434" lon="6.25834">
        <ele>502.4</ele>
        <time>2021-03-27T11:51:17Z</time>
      </trkpt>
      <trkpt lat="46.17434" lon="6.25834">
        <ele>502.2</ele>
        <time>2021-03-27T11:51:16Z</time>
      </trkpt>
      <trkpt lat="46.17434" lon="6.25834">
        <ele>502.4</ele>
        <time>2021-03-27T11:51:15Z</time>
      </trkpt>
      <trkpt lat="46.17434" lon="6.25834">
        <ele>502.4</ele>
        <time>2021-03-27T11:51:14Z</time>
      </trkpt>
      <trkpt lat="46.17434" lon="6.25834">
        <ele>502.4</ele>
        <time>2021-03-27T11:51:13Z</time>
      </trkpt>
      <trkpt lat="46.17434" lon="6.25834">
        <ele>502.6</ele>
        <time>2021-03-27T11:51:12Z</time>
      </trkpt>
      <trkpt lat="46.17434" lon="6.25834">
        <ele>502.4</ele>
        <time>2021-03-27T11:51:11Z</time>
      </trkpt>
      <trkpt lat="46.17435" lon="6.25834">
        <ele>502.4</ele>
        <time>2021-03-27T11:51:10Z</time>
      </trkpt>
      <trkpt lat="46.17435" lon="6.25835">
        <ele>502.4</ele>
        <time>2021-03-27T11:51:09Z</time>
      </trkpt>
      <trkpt lat="46.17435" lon="6.25835">
        <ele>502.4</ele>
        <time>2021-03-27T11:51:08Z</time>
      </trkpt>
      <trkpt lat="46.17435" lon="6.25835">
        <ele>502.4</ele>
        <time>2021-03-27T11:51:07Z</time>
      </trkpt>
      <trkpt lat="46.17435" lon="6.25835">
        <ele>502.4</ele>
        <time>2021-03-27T11:51:06Z</time>
      </trkpt>
      <trkpt lat="46.17435" lon="6.25835">
        <ele>502.4</ele>
        <time>2021-03-27T11:51:05Z</time>
      </trkpt>
      <trkpt lat="46.17435" lon="6.25834">
        <ele>502.6</ele>
        <time>2021-03-27T11:51:04Z</time>
      </trkpt>
      <trkpt lat="46.17435" lon="6.25834">
        <ele>502.4</ele>
        <time>2021-03-27T11:51:03Z</time>
      </trkpt>
      <trkpt lat="46.17435" lon="6.25834">
        <ele>502.4</ele>
        <time>2021-03-27T11:51:02Z</time>
      </trkpt>
      <trkpt lat="46.17435" lon="6.25834">
        <ele>502.4</ele>
        <time>2021-03-27T11:51:01Z</time>
      </trkpt>
      <trkpt lat="46.17435" lon="6.25834">
        <ele>502.6</ele>
        <time>2021-03-27T11:51:00Z</time>
      </trkpt>
      <trkpt lat="46.17435" lon="6.25834">
        <ele>502.4</ele>
        <time>2021-03-27T11:50:59Z</time>
      </trkpt>
      <trkpt lat="46.17435" lon="6.25834">
        <ele>502.4</ele>
        <time>2021-03-27T11:50:58Z</time>
      </trkpt>
      <trkpt lat="46.17435" lon="6.25834">
        <ele>502.4</ele>
        <time>2021-03-27T11:50:57Z</time>
      </trkpt>
      <trkpt lat="46.17435" lon="6.25834">
        <ele>502.4</ele>
        <time>2021-03-27T11:50:56Z</time>
      </trkpt>
      <trkpt lat="46.17435" lon="6.25834">
        <ele>502.4</ele>
        <time>2021-03-27T11:50:55Z</time>
      </trkpt>
      <trkpt lat="46.17435" lon="6.25834">
        <ele>502.4</ele>
        <time>2021-03-27T11:50:54Z</time>
      </trkpt>
      <trkpt lat="46.17435" lon="6.25834">
        <ele>502.2</ele>
        <time>2021-03-27T11:50:53Z</time>
      </trkpt>
      <trkpt lat="46.17435" lon="6.25834">
        <ele>502.4</ele>
        <time>2021-03-27T11:50:52Z</time>
      </trkpt>
      <trkpt lat="46.17435" lon="6.25834">
        <ele>502.4</ele>
        <time>2021-03-27T11:50:51Z</time>
      </trkpt>
      <trkpt lat="46.17435" lon="6.25834">
        <ele>502.4</ele>
        <time>2021-03-27T11:50:50Z</time>
      </trkpt>
      <trkpt lat="46.17435" lon="6.25834">
        <ele>502.2</ele>
        <time>2021-03-27T11:50:49Z</time>
      </trkpt>
      <trkpt lat="46.17435" lon="6.25833">
        <ele>502.2</ele>
        <time>2021-03-27T11:50:48Z</time>
      </trkpt>
      <trkpt lat="46.17434" lon="6.25833">
        <ele>502.2</ele>
        <time>2021-03-27T11:50:47Z</time>
      </trkpt>
      <trkpt lat="46.17434" lon="6.25832">
        <ele>502.2</ele>
        <time>2021-03-27T11:50:46Z</time>
      </trkpt>
      <trkpt lat="46.17434" lon="6.25831">
        <ele>502.2</ele>
        <time>2021-03-27T11:50:45Z</time>
      </trkpt>
      <trkpt lat="46.17434" lon="6.25831">
        <ele>502.2</ele>
        <time>2021-03-27T11:50:44Z</time>
      </trkpt>
      <trkpt lat="46.17433" lon="6.2583">
        <ele>502.2</ele>
        <time>2021-03-27T11:50:43Z</time>
      </trkpt>
      <trkpt lat="46.17433" lon="6.25831">
        <ele>502.2</ele>
        <time>2021-03-27T11:50:42Z</time>
      </trkpt>
      <trkpt lat="46.17433" lon="6.25831">
        <ele>502.2</ele>
        <time>2021-03-27T11:50:41Z</time>
      </trkpt>
      <trkpt lat="46.17433" lon="6.25831">
        <ele>502.2</ele>
        <time>2021-03-27T11:50:39Z</time>
      </trkpt>
      <trkpt lat="46.17433" lon="6.25831">
        <ele>502.2</ele>
        <time>2021-03-27T11:50:38Z</time>
      </trkpt>
      <trkpt lat="46.17433" lon="6.25831">
        <ele>502.2</ele>
        <time>2021-03-27T11:50:37Z</time>
      </trkpt>
      <trkpt lat="46.17433" lon="6.25832">
        <ele>502.2</ele>
        <time>2021-03-27T11:50:36Z</time>
      </trkpt>
      <trkpt lat="46.17433" lon="6.25832">
        <ele>502.2</ele>
        <time>2021-03-27T11:50:35Z</time>
      </trkpt>
      <trkpt lat="46.17433" lon="6.25833">
        <ele>502.2</ele>
        <time>2021-03-27T11:50:34Z</time>
      </trkpt>
      <trkpt lat="46.17433" lon="6.25833">
        <ele>502.2</ele>
        <time>2021-03-27T11:50:33Z</time>
      </trkpt>
      <trkpt lat="46.17434" lon="6.25833">
        <ele>502.2</ele>
        <time>2021-03-27T11:50:32Z</time>
      </trkpt>
      <trkpt lat="46.17434" lon="6.25833">
        <ele>502.2</ele>
        <time>2021-03-27T11:50:31Z</time>
      </trkpt>
      <trkpt lat="46.17434" lon="6.25834">
        <ele>502.2</ele>
        <time>2021-03-27T11:50:30Z</time>
      </trkpt>
      <trkpt lat="46.17434" lon="6.25834">
        <ele>502.2</ele>
        <time>2021-03-27T11:50:29Z</time>
      </trkpt>
      <trkpt lat="46.17434" lon="6.25834">
        <ele>502</ele>
        <time>2021-03-27T11:50:28Z</time>
      </trkpt>
      <trkpt lat="46.17434" lon="6.25834">
        <ele>502.2</ele>
        <time>2021-03-27T11:50:27Z</time>
      </trkpt>
      <trkpt lat="46.17434" lon="6.25834">
        <ele>502.2</ele>
        <time>2021-03-27T11:50:26Z</time>
      </trkpt>
      <trkpt lat="46.17434" lon="6.25834">
        <ele>502.2</ele>
        <time>2021-03-27T11:50:25Z</time>
      </trkpt>
      <trkpt lat="46.17434" lon="6.25834">
        <ele>502</ele>
        <time>2021-03-27T11:50:24Z</time>
      </trkpt>
      <trkpt lat="46.17433" lon="6.25834">
        <ele>502.2</ele>
        <time>2021-03-27T11:50:23Z</time>
      </trkpt>
      <trkpt lat="46.17433" lon="6.25834">
        <ele>502.2</ele>
        <time>2021-03-27T11:50:22Z</time>
      </trkpt>
      <trkpt lat="46.17433" lon="6.25834">
        <ele>502.2</ele>
        <time>2021-03-27T11:50:21Z</time>
      </trkpt>
      <trkpt lat="46.17433" lon="6.25834">
        <ele>502.2</ele>
        <time>2021-03-27T11:50:20Z</time>
      </trkpt>
      <trkpt lat="46.17433" lon="6.25835">
        <ele>502.2</ele>
        <time>2021-03-27T11:50:19Z</time>
      </trkpt>
      <trkpt lat="46.17433" lon="6.25835">
        <ele>502.4</ele>
        <time>2021-03-27T11:50:18Z</time>
      </trkpt>
      <trkpt lat="46.17433" lon="6.25835">
        <ele>502.2</ele>
        <time>2021-03-27T11:50:17Z</time>
      </trkpt>
      <trkpt lat="46.17433" lon="6.25835">
        <ele>502.4</ele>
        <time>2021-03-27T11:50:16Z</time>
      </trkpt>
      <trkpt lat="46.17433" lon="6.25835">
        <ele>502.2</ele>
        <time>2021-03-27T11:50:15Z</time>
      </trkpt>
      <trkpt lat="46.17433" lon="6.25835">
        <ele>502.2</ele>
        <time>2021-03-27T11:50:14Z</time>
      </trkpt>
      <trkpt lat="46.17433" lon="6.25835">
        <ele>502.4</ele>
        <time>2021-03-27T11:50:13Z</time>
      </trkpt>
      <trkpt lat="46.17433" lon="6.25835">
        <ele>502.2</ele>
        <time>2021-03-27T11:50:12Z</time>
      </trkpt>
      <trkpt lat="46.17433" lon="6.25835">
        <ele>502.2</ele>
        <time>2021-03-27T11:50:11Z</time>
      </trkpt>
      <trkpt lat="46.17433" lon="6.25835">
        <ele>502.2</ele>
        <time>2021-03-27T11:50:10Z</time>
      </trkpt>
      <trkpt lat="46.17433" lon="6.25835">
        <ele>502.4</ele>
        <time>2021-03-27T11:50:09Z</time>
      </trkpt>
      <trkpt lat="46.17433" lon="6.25835">
        <ele>502.4</ele>
        <time>2021-03-27T11:50:08Z</time>
      </trkpt>
      <trkpt lat="46.17433" lon="6.25835">
        <ele>502.4</ele>
        <time>2021-03-27T11:50:07Z</time>
      </trkpt>
      <trkpt lat="46.17433" lon="6.25835">
        <ele>502.2</ele>
        <time>2021-03-27T11:50:06Z</time>
      </trkpt>
      <trkpt lat="46.17433" lon="6.25835">
        <ele>502.2</ele>
        <time>2021-03-27T11:50:05Z</time>
      </trkpt>
      <trkpt lat="46.17433" lon="6.25835">
        <ele>502.2</ele>
        <time>2021-03-27T11:50:04Z</time>
      </trkpt>
      <trkpt lat="46.17433" lon="6.25835">
        <ele>502.2</ele>
        <time>2021-03-27T11:50:03Z</time>
      </trkpt>
      <trkpt lat="46.17433" lon="6.25835">
        <ele>502.2</ele>
        <time>2021-03-27T11:50:02Z</time>
      </trkpt>
      <trkpt lat="46.17433" lon="6.25835">
        <ele>502.2</ele>
        <time>2021-03-27T11:50:01Z</time>
      </trkpt>
      <trkpt lat="46.17433" lon="6.25835">
        <ele>502.2</ele>
        <time>2021-03-27T11:50:00Z</time>
      </trkpt>
      <trkpt lat="46.17433" lon="6.25835">
        <ele>502.2</ele>
        <time>2021-03-27T11:49:59Z</time>
      </trkpt>
      <trkpt lat="46.17433" lon="6.25835">
        <ele>502.2</ele>
        <time>2021-03-27T11:49:58Z</time>
      </trkpt>
      <trkpt lat="46.17433" lon="6.25835">
        <ele>502.4</ele>
        <time>2021-03-27T11:49:57Z</time>
      </trkpt>
      <trkpt lat="46.17433" lon="6.25835">
        <ele>502.4</ele>
        <time>2021-03-27T11:49:56Z</time>
      </trkpt>
      <trkpt lat="46.17433" lon="6.25835">
        <ele>502.4</ele>
        <time>2021-03-27T11:49:55Z</time>
      </trkpt>
      <trkpt lat="46.17433" lon="6.25835">
        <ele>502.4</ele>
        <time>2021-03-27T11:49:54Z</time>
      </trkpt>
      <trkpt lat="46.17433" lon="6.25835">
        <ele>502.4</ele>
        <time>2021-03-27T11:49:53Z</time>
      </trkpt>
      <trkpt lat="46.17433" lon="6.25835">
        <ele>502.4</ele>
        <time>2021-03-27T11:49:52Z</time>
      </trkpt>
      <trkpt lat="46.17433" lon="6.25835">
        <ele>502.4</ele>
        <time>2021-03-27T11:49:51Z</time>
      </trkpt>
      <trkpt lat="46.17433" lon="6.25835">
        <ele>502.2</ele>
        <time>2021-03-27T11:49:50Z</time>
      </trkpt>
      <trkpt lat="46.17433" lon="6.25835">
        <ele>502.2</ele>
        <time>2021-03-27T11:49:49Z</time>
      </trkpt>
      <trkpt lat="46.17433" lon="6.25835">
        <ele>502.2</ele>
        <time>2021-03-27T11:49:48Z</time>
      </trkpt>
      <trkpt lat="46.17433" lon="6.25835">
        <ele>502.2</ele>
        <time>2021-03-27T11:49:47Z</time>
      </trkpt>
      <trkpt lat="46.17433" lon="6.25835">
        <ele>502.2</ele>
        <time>2021-03-27T11:49:46Z</time>
      </trkpt>
      <trkpt lat="46.17433" lon="6.25835">
        <ele>502.4</ele>
        <time>2021-03-27T11:49:45Z</time>
      </trkpt>
      <trkpt lat="46.17433" lon="6.25835">
        <ele>502.4</ele>
        <time>2021-03-27T11:49:44Z</time>
      </trkpt>
      <trkpt lat="46.17433" lon="6.25835">
        <ele>502.2</ele>
        <time>2021-03-27T11:49:43Z</time>
      </trkpt>
      <trkpt lat="46.17433" lon="6.25835">
        <ele>502.2</ele>
        <time>2021-03-27T11:49:42Z</time>
      </trkpt>
      <trkpt lat="46.17433" lon="6.25835">
        <ele>502.2</ele>
        <time>2021-03-27T11:49:41Z</time>
      </trkpt>
      <trkpt lat="46.17433" lon="6.25835">
        <ele>502.2</ele>
        <time>2021-03-27T11:49:40Z</time>
      </trkpt>
      <trkpt lat="46.17433" lon="6.25835">
        <ele>502.2</ele>
        <time>2021-03-27T11:49:39Z</time>
      </trkpt>
      <trkpt lat="46.17433" lon="6.25835">
        <ele>502.2</ele>
        <time>2021-03-27T11:49:38Z</time>
      </trkpt>
      <trkpt lat="46.17433" lon="6.25835">
        <ele>502.2</ele>
        <time>2021-03-27T11:49:37Z</time>
      </trkpt>
      <trkpt lat="46.17433" lon="6.25835">
        <ele>502.2</ele>
        <time>2021-03-27T11:49:36Z</time>
      </trkpt>
      <trkpt lat="46.17433" lon="6.25835">
        <ele>502.2</ele>
        <time>2021-03-27T11:49:35Z</time>
      </trkpt>
      <trkpt lat="46.17433" lon="6.25835">
        <ele>502.2</ele>
        <time>2021-03-27T11:49:34Z</time>
      </trkpt>
      <trkpt lat="46.17433" lon="6.25835">
        <ele>502.2</ele>
        <time>2021-03-27T11:49:33Z</time>
      </trkpt>
      <trkpt lat="46.17433" lon="6.25835">
        <ele>502.2</ele>
        <time>2021-03-27T11:49:32Z</time>
      </trkpt>
      <trkpt lat="46.17433" lon="6.25835">
        <ele>502.2</ele>
        <time>2021-03-27T11:49:31Z</time>
      </trkpt>
      <trkpt lat="46.17433" lon="6.25835">
        <ele>502.2</ele>
        <time>2021-03-27T11:49:30Z</time>
      </trkpt>
      <trkpt lat="46.17433" lon="6.25835">
        <ele>502.2</ele>
        <time>2021-03-27T11:49:29Z</time>
      </trkpt>
      <trkpt lat="46.17433" lon="6.25835">
        <ele>502.2</ele>
        <time>2021-03-27T11:49:28Z</time>
      </trkpt>
      <trkpt lat="46.17433" lon="6.25835">
        <ele>502.2</ele>
        <time>2021-03-27T11:49:27Z</time>
      </trkpt>
      <trkpt lat="46.17433" lon="6.25835">
        <ele>502.2</ele>
        <time>2021-03-27T11:49:26Z</time>
      </trkpt>
      <trkpt lat="46.17433" lon="6.25835">
        <ele>502.2</ele>
        <time>2021-03-27T11:49:25Z</time>
      </trkpt>
      <trkpt lat="46.17433" lon="6.25835">
        <ele>502.2</ele>
        <time>2021-03-27T11:49:24Z</time>
      </trkpt>
      <trkpt lat="46.17433" lon="6.25835">
        <ele>502.2</ele>
        <time>2021-03-27T11:49:23Z</time>
      </trkpt>
      <trkpt lat="46.17433" lon="6.25835">
        <ele>502.2</ele>
        <time>2021-03-27T11:49:22Z</time>
      </trkpt>
      <trkpt lat="46.17433" lon="6.25835">
        <ele>502</ele>
        <time>2021-03-27T11:49:21Z</time>
      </trkpt>
      <trkpt lat="46.17433" lon="6.25835">
        <ele>502.2</ele>
        <time>2021-03-27T11:49:20Z</time>
      </trkpt>
      <trkpt lat="46.17433" lon="6.25835">
        <ele>502.2</ele>
        <time>2021-03-27T11:49:19Z</time>
      </trkpt>
      <trkpt lat="46.17433" lon="6.25835">
        <ele>502</ele>
        <time>2021-03-27T11:49:18Z</time>
      </trkpt>
      <trkpt lat="46.17433" lon="6.25835">
        <ele>502</ele>
        <time>2021-03-27T11:49:17Z</time>
      </trkpt>
      <trkpt lat="46.17433" lon="6.25835">
        <ele>502.2</ele>
        <time>2021-03-27T11:49:16Z</time>
      </trkpt>
      <trkpt lat="46.17433" lon="6.25835">
        <ele>502.2</ele>
        <time>2021-03-27T11:49:15Z</time>
      </trkpt>
      <trkpt lat="46.17433" lon="6.25835">
        <ele>502</ele>
        <time>2021-03-27T11:49:14Z</time>
      </trkpt>
      <trkpt lat="46.17433" lon="6.25835">
        <ele>502.2</ele>
        <time>2021-03-27T11:49:13Z</time>
      </trkpt>
      <trkpt lat="46.17433" lon="6.25835">
        <ele>502</ele>
        <time>2021-03-27T11:49:12Z</time>
      </trkpt>
      <trkpt lat="46.17433" lon="6.25835">
        <ele>502</ele>
        <time>2021-03-27T11:49:11Z</time>
      </trkpt>
      <trkpt lat="46.17433" lon="6.25835">
        <ele>502</ele>
        <time>2021-03-27T11:49:10Z</time>
      </trkpt>
      <trkpt lat="46.17433" lon="6.25835">
        <ele>502.2</ele>
        <time>2021-03-27T11:49:09Z</time>
      </trkpt>
      <trkpt lat="46.17433" lon="6.25835">
        <ele>502</ele>
        <time>2021-03-27T11:49:08Z</time>
      </trkpt>
      <trkpt lat="46.17433" lon="6.25835">
        <ele>502.2</ele>
        <time>2021-03-27T11:49:07Z</time>
      </trkpt>
      <trkpt lat="46.17433" lon="6.25835">
        <ele>502</ele>
        <time>2021-03-27T11:49:06Z</time>
      </trkpt>
      <trkpt lat="46.17433" lon="6.25835">
        <ele>502.2</ele>
        <time>2021-03-27T11:49:05Z</time>
      </trkpt>
      <trkpt lat="46.17433" lon="6.25835">
        <ele>502</ele>
        <time>2021-03-27T11:49:04Z</time>
      </trkpt>
      <trkpt lat="46.17433" lon="6.25835">
        <ele>502.2</ele>
        <time>2021-03-27T11:49:03Z</time>
      </trkpt>
      <trkpt lat="46.17433" lon="6.25835">
        <ele>502</ele>
        <time>2021-03-27T11:49:02Z</time>
      </trkpt>
      <trkpt lat="46.17433" lon="6.25835">
        <ele>502</ele>
        <time>2021-03-27T11:49:01Z</time>
      </trkpt>
      <trkpt lat="46.17433" lon="6.25835">
        <ele>502</ele>
        <time>2021-03-27T11:49:00Z</time>
      </trkpt>
      <trkpt lat="46.17433" lon="6.25835">
        <ele>502.2</ele>
        <time>2021-03-27T11:48:59Z</time>
      </trkpt>
      <trkpt lat="46.17433" lon="6.25835">
        <ele>502.2</ele>
        <time>2021-03-27T11:48:58Z</time>
      </trkpt>
      <trkpt lat="46.17433" lon="6.25835">
        <ele>502.2</ele>
        <time>2021-03-27T11:48:57Z</time>
      </trkpt>
      <trkpt lat="46.17433" lon="6.25835">
        <ele>502.2</ele>
        <time>2021-03-27T11:48:56Z</time>
      </trkpt>
      <trkpt lat="46.17433" lon="6.25835">
        <ele>502.2</ele>
        <time>2021-03-27T11:48:55Z</time>
      </trkpt>
      <trkpt lat="46.17433" lon="6.25835">
        <ele>502.2</ele>
        <time>2021-03-27T11:48:54Z</time>
      </trkpt>
      <trkpt lat="46.17433" lon="6.25835">
        <ele>502.2</ele>
        <time>2021-03-27T11:48:53Z</time>
      </trkpt>
      <trkpt lat="46.17433" lon="6.25835">
        <ele>502.2</ele>
        <time>2021-03-27T11:48:52Z</time>
      </trkpt>
      <trkpt lat="46.17433" lon="6.25835">
        <ele>502.2</ele>
        <time>2021-03-27T11:48:51Z</time>
      </trkpt>
      <trkpt lat="46.17433" lon="6.25835">
        <ele>502.2</ele>
        <time>2021-03-27T11:48:50Z</time>
      </trkpt>
      <trkpt lat="46.17433" lon="6.25835">
        <ele>502.2</ele>
        <time>2021-03-27T11:48:49Z</time>
      </trkpt>
      <trkpt lat="46.17433" lon="6.25835">
        <ele>502.4</ele>
        <time>2021-03-27T11:48:48Z</time>
      </trkpt>
      <trkpt lat="46.17433" lon="6.25835">
        <ele>502.4</ele>
        <time>2021-03-27T11:48:47Z</time>
      </trkpt>
      <trkpt lat="46.17433" lon="6.25835">
        <ele>502.2</ele>
        <time>2021-03-27T11:48:46Z</time>
      </trkpt>
      <trkpt lat="46.17433" lon="6.25835">
        <ele>502.2</ele>
        <time>2021-03-27T11:48:45Z</time>
      </trkpt>
      <trkpt lat="46.17433" lon="6.25835">
        <ele>502.2</ele>
        <time>2021-03-27T11:48:44Z</time>
      </trkpt>
      <trkpt lat="46.17433" lon="6.25835">
        <ele>502.4</ele>
        <time>2021-03-27T11:48:43Z</time>
      </trkpt>
      <trkpt lat="46.17433" lon="6.25835">
        <ele>502.4</ele>
        <time>2021-03-27T11:48:42Z</time>
      </trkpt>
      <trkpt lat="46.17433" lon="6.25835">
        <ele>502.4</ele>
        <time>2021-03-27T11:48:41Z</time>
      </trkpt>
      <trkpt lat="46.17433" lon="6.25835">
        <ele>502.4</ele>
        <time>2021-03-27T11:48:40Z</time>
      </trkpt>
      <trkpt lat="46.17433" lon="6.25835">
        <ele>502.4</ele>
        <time>2021-03-27T11:48:39Z</time>
      </trkpt>
      <trkpt lat="46.17433" lon="6.25835">
        <ele>502.2</ele>
        <time>2021-03-27T11:48:38Z</time>
      </trkpt>
      <trkpt lat="46.17433" lon="6.25835">
        <ele>502.4</ele>
        <time>2021-03-27T11:48:37Z</time>
      </trkpt>
      <trkpt lat="46.17433" lon="6.25835">
        <ele>502.4</ele>
        <time>2021-03-27T11:48:36Z</time>
      </trkpt>
      <trkpt lat="46.17433" lon="6.25835">
        <ele>502.4</ele>
        <time>2021-03-27T11:48:35Z</time>
      </trkpt>
      <trkpt lat="46.17433" lon="6.25835">
        <ele>502.4</ele>
        <time>2021-03-27T11:48:34Z</time>
      </trkpt>
      <trkpt lat="46.17433" lon="6.25835">
        <ele>502.4</ele>
        <time>2021-03-27T11:48:33Z</time>
      </trkpt>
      <trkpt lat="46.17433" lon="6.25835">
        <ele>502.2</ele>
        <time>2021-03-27T11:48:32Z</time>
      </trkpt>
      <trkpt lat="46.17433" lon="6.25835">
        <ele>502.2</ele>
        <time>2021-03-27T11:48:31Z</time>
      </trkpt>
      <trkpt lat="46.17433" lon="6.25835">
        <ele>502.2</ele>
        <time>2021-03-27T11:48:30Z</time>
      </trkpt>
      <trkpt lat="46.17433" lon="6.25835">
        <ele>502.4</ele>
        <time>2021-03-27T11:48:29Z</time>
      </trkpt>
      <trkpt lat="46.17433" lon="6.25835">
        <ele>502.4</ele>
        <time>2021-03-27T11:48:28Z</time>
      </trkpt>
      <trkpt lat="46.17433" lon="6.25835">
        <ele>502.4</ele>
        <time>2021-03-27T11:48:27Z</time>
      </trkpt>
      <trkpt lat="46.17433" lon="6.25835">
        <ele>502.4</ele>
        <time>2021-03-27T11:48:26Z</time>
      </trkpt>
      <trkpt lat="46.17433" lon="6.25835">
        <ele>502.2</ele>
        <time>2021-03-27T11:48:25Z</time>
      </trkpt>
      <trkpt lat="46.17433" lon="6.25835">
        <ele>502.4</ele>
        <time>2021-03-27T11:48:24Z</time>
      </trkpt>
      <trkpt lat="46.17433" lon="6.25835">
        <ele>502.4</ele>
        <time>2021-03-27T11:48:23Z</time>
      </trkpt>
      <trkpt lat="46.17433" lon="6.25836">
        <ele>502.4</ele>
        <time>2021-03-27T11:48:22Z</time>
      </trkpt>
      <trkpt lat="46.17433" lon="6.25836">
        <ele>502.4</ele>
        <time>2021-03-27T11:48:21Z</time>
      </trkpt>
      <trkpt lat="46.17433" lon="6.25836">
        <ele>502.4</ele>
        <time>2021-03-27T11:48:20Z</time>
      </trkpt>
      <trkpt lat="46.17433" lon="6.25836">
        <ele>502.4</ele>
        <time>2021-03-27T11:48:19Z</time>
      </trkpt>
      <trkpt lat="46.17433" lon="6.25836">
        <ele>502.6</ele>
        <time>2021-03-27T11:48:18Z</time>
      </trkpt>
      <trkpt lat="46.17433" lon="6.25836">
        <ele>502.4</ele>
        <time>2021-03-27T11:48:17Z</time>
      </trkpt>
      <trkpt lat="46.17433" lon="6.25836">
        <ele>502.4</ele>
        <time>2021-03-27T11:48:16Z</time>
      </trkpt>
      <trkpt lat="46.17433" lon="6.25836">
        <ele>502.6</ele>
        <time>2021-03-27T11:48:15Z</time>
      </trkpt>
      <trkpt lat="46.17433" lon="6.25836">
        <ele>502.4</ele>
        <time>2021-03-27T11:48:14Z</time>
      </trkpt>
      <trkpt lat="46.17433" lon="6.25836">
        <ele>502.6</ele>
        <time>2021-03-27T11:48:13Z</time>
      </trkpt>
      <trkpt lat="46.17433" lon="6.25836">
        <ele>502.6</ele>
        <time>2021-03-27T11:48:12Z</time>
      </trkpt>
      <trkpt lat="46.17433" lon="6.25836">
        <ele>502.4</ele>
        <time>2021-03-27T11:48:11Z</time>
      </trkpt>
      <trkpt lat="46.17433" lon="6.25836">
        <ele>502.6</ele>
        <time>2021-03-27T11:48:10Z</time>
      </trkpt>
      <trkpt lat="46.17433" lon="6.25836">
        <ele>502.4</ele>
        <time>2021-03-27T11:48:09Z</time>
      </trkpt>
      <trkpt lat="46.17433" lon="6.25836">
        <ele>502.4</ele>
        <time>2021-03-27T11:48:08Z</time>
      </trkpt>
      <trkpt lat="46.17433" lon="6.25836">
        <ele>502.4</ele>
        <time>2021-03-27T11:48:07Z</time>
      </trkpt>
      <trkpt lat="46.17433" lon="6.25836">
        <ele>502.4</ele>
        <time>2021-03-27T11:48:06Z</time>
      </trkpt>
      <trkpt lat="46.17433" lon="6.25836">
        <ele>502.6</ele>
        <time>2021-03-27T11:48:05Z</time>
      </trkpt>
      <trkpt lat="46.17433" lon="6.25836">
        <ele>502.4</ele>
        <time>2021-03-27T11:48:04Z</time>
      </trkpt>
      <trkpt lat="46.17433" lon="6.25836">
        <ele>502.6</ele>
        <time>2021-03-27T11:48:03Z</time>
      </trkpt>
      <trkpt lat="46.17433" lon="6.25836">
        <ele>502.6</ele>
        <time>2021-03-27T11:48:02Z</time>
      </trkpt>
      <trkpt lat="46.17433" lon="6.25836">
        <ele>502.6</ele>
        <time>2021-03-27T11:48:01Z</time>
      </trkpt>
      <trkpt lat="46.17433" lon="6.25836">
        <ele>502.6</ele>
        <time>2021-03-27T11:48:00Z</time>
      </trkpt>
      <trkpt lat="46.17433" lon="6.25836">
        <ele>502.4</ele>
        <time>2021-03-27T11:47:59Z</time>
      </trkpt>
      <trkpt lat="46.17433" lon="6.25836">
        <ele>502.4</ele>
        <time>2021-03-27T11:47:58Z</time>
      </trkpt>
      <trkpt lat="46.17433" lon="6.25836">
        <ele>502.4</ele>
        <time>2021-03-27T11:47:57Z</time>
      </trkpt>
      <trkpt lat="46.17433" lon="6.25836">
        <ele>502.4</ele>
        <time>2021-03-27T11:47:56Z</time>
      </trkpt>
      <trkpt lat="46.17433" lon="6.25836">
        <ele>502.4</ele>
        <time>2021-03-27T11:47:55Z</time>
      </trkpt>
      <trkpt lat="46.17433" lon="6.25836">
        <ele>502.4</ele>
        <time>2021-03-27T11:47:54Z</time>
      </trkpt>
      <trkpt lat="46.17433" lon="6.25836">
        <ele>502.6</ele>
        <time>2021-03-27T11:47:53Z</time>
      </trkpt>
      <trkpt lat="46.17433" lon="6.25836">
        <ele>502.4</ele>
        <time>2021-03-27T11:47:52Z</time>
      </trkpt>
      <trkpt lat="46.17433" lon="6.25836">
        <ele>502.6</ele>
        <time>2021-03-27T11:47:51Z</time>
      </trkpt>
      <trkpt lat="46.17433" lon="6.25836">
        <ele>502.6</ele>
        <time>2021-03-27T11:47:50Z</time>
      </trkpt>
      <trkpt lat="46.17433" lon="6.25836">
        <ele>502.6</ele>
        <time>2021-03-27T11:47:49Z</time>
      </trkpt>
      <trkpt lat="46.17433" lon="6.25836">
        <ele>502.6</ele>
        <time>2021-03-27T11:47:48Z</time>
      </trkpt>
      <trkpt lat="46.17433" lon="6.25836">
        <ele>502.4</ele>
        <time>2021-03-27T11:47:47Z</time>
      </trkpt>
      <trkpt lat="46.17433" lon="6.25836">
        <ele>502.6</ele>
        <time>2021-03-27T11:47:46Z</time>
      </trkpt>
      <trkpt lat="46.17433" lon="6.25836">
        <ele>502.4</ele>
        <time>2021-03-27T11:47:45Z</time>
      </trkpt>
      <trkpt lat="46.17433" lon="6.25836">
        <ele>502.6</ele>
        <time>2021-03-27T11:47:44Z</time>
      </trkpt>
      <trkpt lat="46.17433" lon="6.25836">
        <ele>502.6</ele>
        <time>2021-03-27T11:47:43Z</time>
      </trkpt>
      <trkpt lat="46.17433" lon="6.25836">
        <ele>502.4</ele>
        <time>2021-03-27T11:47:42Z</time>
      </trkpt>
      <trkpt lat="46.17433" lon="6.25835">
        <ele>502.6</ele>
        <time>2021-03-27T11:47:41Z</time>
      </trkpt>
      <trkpt lat="46.17433" lon="6.25835">
        <ele>502.6</ele>
        <time>2021-03-27T11:47:40Z</time>
      </trkpt>
      <trkpt lat="46.17433" lon="6.25835">
        <ele>502.6</ele>
        <time>2021-03-27T11:47:39Z</time>
      </trkpt>
      <trkpt lat="46.17433" lon="6.25835">
        <ele>502.6</ele>
        <time>2021-03-27T11:47:38Z</time>
      </trkpt>
      <trkpt lat="46.17433" lon="6.25835">
        <ele>502.6</ele>
        <time>2021-03-27T11:47:37Z</time>
      </trkpt>
      <trkpt lat="46.17433" lon="6.25835">
        <ele>502.6</ele>
        <time>2021-03-27T11:47:36Z</time>
      </trkpt>
      <trkpt lat="46.17433" lon="6.25835">
        <ele>502.6</ele>
        <time>2021-03-27T11:47:35Z</time>
      </trkpt>
      <trkpt lat="46.17433" lon="6.25835">
        <ele>502.4</ele>
        <time>2021-03-27T11:47:34Z</time>
      </trkpt>
      <trkpt lat="46.17433" lon="6.25835">
        <ele>502.4</ele>
        <time>2021-03-27T11:47:33Z</time>
      </trkpt>
      <trkpt lat="46.17433" lon="6.25835">
        <ele>502.4</ele>
        <time>2021-03-27T11:47:32Z</time>
      </trkpt>
      <trkpt lat="46.17433" lon="6.25835">
        <ele>502.4</ele>
        <time>2021-03-27T11:47:31Z</time>
      </trkpt>
      <trkpt lat="46.17433" lon="6.25835">
        <ele>502.2</ele>
        <time>2021-03-27T11:47:30Z</time>
      </trkpt>
      <trkpt lat="46.17433" lon="6.25835">
        <ele>502.2</ele>
        <time>2021-03-27T11:47:29Z</time>
      </trkpt>
      <trkpt lat="46.17433" lon="6.25835">
        <ele>502.4</ele>
        <time>2021-03-27T11:47:28Z</time>
      </trkpt>
      <trkpt lat="46.17433" lon="6.25835">
        <ele>502.4</ele>
        <time>2021-03-27T11:47:27Z</time>
      </trkpt>
      <trkpt lat="46.17433" lon="6.25835">
        <ele>502.4</ele>
        <time>2021-03-27T11:47:26Z</time>
      </trkpt>
      <trkpt lat="46.17433" lon="6.25835">
        <ele>502.2</ele>
        <time>2021-03-27T11:47:25Z</time>
      </trkpt>
      <trkpt lat="46.17433" lon="6.25835">
        <ele>502.4</ele>
        <time>2021-03-27T11:47:24Z</time>
      </trkpt>
      <trkpt lat="46.17433" lon="6.25835">
        <ele>502.2</ele>
        <time>2021-03-27T11:47:23Z</time>
      </trkpt>
      <trkpt lat="46.17433" lon="6.25835">
        <ele>502.4</ele>
        <time>2021-03-27T11:47:22Z</time>
      </trkpt>
      <trkpt lat="46.17433" lon="6.25835">
        <ele>502.2</ele>
        <time>2021-03-27T11:47:21Z</time>
      </trkpt>
      <trkpt lat="46.17433" lon="6.25835">
        <ele>502.2</ele>
        <time>2021-03-27T11:47:20Z</time>
      </trkpt>
      <trkpt lat="46.17433" lon="6.25835">
        <ele>502.2</ele>
        <time>2021-03-27T11:47:19Z</time>
      </trkpt>
      <trkpt lat="46.17433" lon="6.25835">
        <ele>502.4</ele>
        <time>2021-03-27T11:47:18Z</time>
      </trkpt>
      <trkpt lat="46.17433" lon="6.25835">
        <ele>502.4</ele>
        <time>2021-03-27T11:47:17Z</time>
      </trkpt>
      <trkpt lat="46.17433" lon="6.25835">
        <ele>502.2</ele>
        <time>2021-03-27T11:47:16Z</time>
      </trkpt>
      <trkpt lat="46.17433" lon="6.25835">
        <ele>502.2</ele>
        <time>2021-03-27T11:47:15Z</time>
      </trkpt>
      <trkpt lat="46.17433" lon="6.25835">
        <ele>502.2</ele>
        <time>2021-03-27T11:47:14Z</time>
      </trkpt>
      <trkpt lat="46.17433" lon="6.25835">
        <ele>502.4</ele>
        <time>2021-03-27T11:47:13Z</time>
      </trkpt>
      <trkpt lat="46.17433" lon="6.25835">
        <ele>502.4</ele>
        <time>2021-03-27T11:47:12Z</time>
      </trkpt>
      <trkpt lat="46.17433" lon="6.25835">
        <ele>502.4</ele>
        <time>2021-03-27T11:47:11Z</time>
      </trkpt>
      <trkpt lat="46.17433" lon="6.25835">
        <ele>502.4</ele>
        <time>2021-03-27T11:47:10Z</time>
      </trkpt>
      <trkpt lat="46.17433" lon="6.25835">
        <ele>502.4</ele>
        <time>2021-03-27T11:47:09Z</time>
      </trkpt>
      <trkpt lat="46.17433" lon="6.25836">
        <ele>502.4</ele>
        <time>2021-03-27T11:47:08Z</time>
      </trkpt>
      <trkpt lat="46.17433" lon="6.25836">
        <ele>502.4</ele>
        <time>2021-03-27T11:47:07Z</time>
      </trkpt>
      <trkpt lat="46.17433" lon="6.25836">
        <ele>502.6</ele>
        <time>2021-03-27T11:47:06Z</time>
      </trkpt>
      <trkpt lat="46.17433" lon="6.25836">
        <ele>502.6</ele>
        <time>2021-03-27T11:47:05Z</time>
      </trkpt>
      <trkpt lat="46.17433" lon="6.25836">
        <ele>502.6</ele>
        <time>2021-03-27T11:47:04Z</time>
      </trkpt>
      <trkpt lat="46.17433" lon="6.25836">
        <ele>502.4</ele>
        <time>2021-03-27T11:47:03Z</time>
      </trkpt>
      <trkpt lat="46.17433" lon="6.25836">
        <ele>502.6</ele>
        <time>2021-03-27T11:47:02Z</time>
      </trkpt>
      <trkpt lat="46.17433" lon="6.25836">
        <ele>502.4</ele>
        <time>2021-03-27T11:47:01Z</time>
      </trkpt>
      <trkpt lat="46.17433" lon="6.25836">
        <ele>502.6</ele>
        <time>2021-03-27T11:47:00Z</time>
      </trkpt>
      <trkpt lat="46.17433" lon="6.25836">
        <ele>502.4</ele>
        <time>2021-03-27T11:46:59Z</time>
      </trkpt>
      <trkpt lat="46.17433" lon="6.25836">
        <ele>502.4</ele>
        <time>2021-03-27T11:46:58Z</time>
      </trkpt>
      <trkpt lat="46.17433" lon="6.25836">
        <ele>502.4</ele>
        <time>2021-03-27T11:46:57Z</time>
      </trkpt>
      <trkpt lat="46.17433" lon="6.25836">
        <ele>502.6</ele>
        <time>2021-03-27T11:46:56Z</time>
      </trkpt>
      <trkpt lat="46.17433" lon="6.25836">
        <ele>502.4</ele>
        <time>2021-03-27T11:46:55Z</time>
      </trkpt>
      <trkpt lat="46.17433" lon="6.25836">
        <ele>502.4</ele>
        <time>2021-03-27T11:46:54Z</time>
      </trkpt>
      <trkpt lat="46.17433" lon="6.25836">
        <ele>502.4</ele>
        <time>2021-03-27T11:46:53Z</time>
      </trkpt>
      <trkpt lat="46.17433" lon="6.25836">
        <ele>502.4</ele>
        <time>2021-03-27T11:46:52Z</time>
      </trkpt>
      <trkpt lat="46.17433" lon="6.25835">
        <ele>502.4</ele>
        <time>2021-03-27T11:46:51Z</time>
      </trkpt>
      <trkpt lat="46.17433" lon="6.25835">
        <ele>502.2</ele>
        <time>2021-03-27T11:46:50Z</time>
      </trkpt>
      <trkpt lat="46.17433" lon="6.25835">
        <ele>502.4</ele>
        <time>2021-03-27T11:46:49Z</time>
      </trkpt>
      <trkpt lat="46.17433" lon="6.25835">
        <ele>502.4</ele>
        <time>2021-03-27T11:46:48Z</time>
      </trkpt>
      <trkpt lat="46.17433" lon="6.25835">
        <ele>502.4</ele>
        <time>2021-03-27T11:46:47Z</time>
      </trkpt>
      <trkpt lat="46.17433" lon="6.25835">
        <ele>502.4</ele>
        <time>2021-03-27T11:46:46Z</time>
      </trkpt>
      <trkpt lat="46.17433" lon="6.25835">
        <ele>502.4</ele>
        <time>2021-03-27T11:46:45Z</time>
      </trkpt>
      <trkpt lat="46.17433" lon="6.25835">
        <ele>502.4</ele>
        <time>2021-03-27T11:46:44Z</time>
      </trkpt>
      <trkpt lat="46.17433" lon="6.25835">
        <ele>502.6</ele>
        <time>2021-03-27T11:46:43Z</time>
      </trkpt>
      <trkpt lat="46.17433" lon="6.25835">
        <ele>502.6</ele>
        <time>2021-03-27T11:46:42Z</time>
      </trkpt>
      <trkpt lat="46.17433" lon="6.25835">
        <ele>502.6</ele>
        <time>2021-03-27T11:46:41Z</time>
      </trkpt>
      <trkpt lat="46.17433" lon="6.25835">
        <ele>502.6</ele>
        <time>2021-03-27T11:46:40Z</time>
      </trkpt>
      <trkpt lat="46.17433" lon="6.25835">
        <ele>502.8</ele>
        <time>2021-03-27T11:46:39Z</time>
      </trkpt>
      <trkpt lat="46.17433" lon="6.25835">
        <ele>502.6</ele>
        <time>2021-03-27T11:46:38Z</time>
      </trkpt>
      <trkpt lat="46.17433" lon="6.25835">
        <ele>502.8</ele>
        <time>2021-03-27T11:46:37Z</time>
      </trkpt>
      <trkpt lat="46.17433" lon="6.25835">
        <ele>502.8</ele>
        <time>2021-03-27T11:46:36Z</time>
      </trkpt>
      <trkpt lat="46.17433" lon="6.25835">
        <ele>502.8</ele>
        <time>2021-03-27T11:46:35Z</time>
      </trkpt>
      <trkpt lat="46.17433" lon="6.25835">
        <ele>502.6</ele>
        <time>2021-03-27T11:46:34Z</time>
      </trkpt>
      <trkpt lat="46.17433" lon="6.25835">
        <ele>502.6</ele>
        <time>2021-03-27T11:46:33Z</time>
      </trkpt>
      <trkpt lat="46.17433" lon="6.25835">
        <ele>502.6</ele>
        <time>2021-03-27T11:46:32Z</time>
      </trkpt>
      <trkpt lat="46.17433" lon="6.25835">
        <ele>502.4</ele>
        <time>2021-03-27T11:46:31Z</time>
      </trkpt>
      <trkpt lat="46.17433" lon="6.25835">
        <ele>502.6</ele>
        <time>2021-03-27T11:46:30Z</time>
      </trkpt>
      <trkpt lat="46.17433" lon="6.25835">
        <ele>502.4</ele>
        <time>2021-03-27T11:46:29Z</time>
      </trkpt>
      <trkpt lat="46.17433" lon="6.25835">
        <ele>502.6</ele>
        <time>2021-03-27T11:46:28Z</time>
      </trkpt>
      <trkpt lat="46.17433" lon="6.25835">
        <ele>502.4</ele>
        <time>2021-03-27T11:46:27Z</time>
      </trkpt>
      <trkpt lat="46.17433" lon="6.25835">
        <ele>502.4</ele>
        <time>2021-03-27T11:46:26Z</time>
      </trkpt>
      <trkpt lat="46.17433" lon="6.25835">
        <ele>502.4</ele>
        <time>2021-03-27T11:46:25Z</time>
      </trkpt>
      <trkpt lat="46.17433" lon="6.25835">
        <ele>502.4</ele>
        <time>2021-03-27T11:46:24Z</time>
      </trkpt>
      <trkpt lat="46.17433" lon="6.25835">
        <ele>502.4</ele>
        <time>2021-03-27T11:46:23Z</time>
      </trkpt>
      <trkpt lat="46.17433" lon="6.25835">
        <ele>502.2</ele>
        <time>2021-03-27T11:46:22Z</time>
      </trkpt>
      <trkpt lat="46.17433" lon="6.25835">
        <ele>502.2</ele>
        <time>2021-03-27T11:46:21Z</time>
      </trkpt>
      <trkpt lat="46.17433" lon="6.25835">
        <ele>502.2</ele>
        <time>2021-03-27T11:46:20Z</time>
      </trkpt>
      <trkpt lat="46.17433" lon="6.25835">
        <ele>502.2</ele>
        <time>2021-03-27T11:46:19Z</time>
      </trkpt>
      <trkpt lat="46.17433" lon="6.25835">
        <ele>502.2</ele>
        <time>2021-03-27T11:46:18Z</time>
      </trkpt>
      <trkpt lat="46.17433" lon="6.25835">
        <ele>502.2</ele>
        <time>2021-03-27T11:46:17Z</time>
      </trkpt>
      <trkpt lat="46.17433" lon="6.25835">
        <ele>502.2</ele>
        <time>2021-03-27T11:46:16Z</time>
      </trkpt>
      <trkpt lat="46.17433" lon="6.25835">
        <ele>502.2</ele>
        <time>2021-03-27T11:46:15Z</time>
      </trkpt>
      <trkpt lat="46.17433" lon="6.25835">
        <ele>502.2</ele>
        <time>2021-03-27T11:46:14Z</time>
      </trkpt>
      <trkpt lat="46.17433" lon="6.25835">
        <ele>502.2</ele>
        <time>2021-03-27T11:46:13Z</time>
      </trkpt>
      <trkpt lat="46.17433" lon="6.25835">
        <ele>502.2</ele>
        <time>2021-03-27T11:46:12Z</time>
      </trkpt>
      <trkpt lat="46.17433" lon="6.25835">
        <ele>502.2</ele>
        <time>2021-03-27T11:46:11Z</time>
      </trkpt>
      <trkpt lat="46.17433" lon="6.25835">
        <ele>502.2</ele>
        <time>2021-03-27T11:46:10Z</time>
      </trkpt>
      <trkpt lat="46.17433" lon="6.25835">
        <ele>502.2</ele>
        <time>2021-03-27T11:46:09Z</time>
      </trkpt>
      <trkpt lat="46.17433" lon="6.25835">
        <ele>502.2</ele>
        <time>2021-03-27T11:46:08Z</time>
      </trkpt>
      <trkpt lat="46.17433" lon="6.25835">
        <ele>502.2</ele>
        <time>2021-03-27T11:46:07Z</time>
      </trkpt>
      <trkpt lat="46.17433" lon="6.25835">
        <ele>502.4</ele>
        <time>2021-03-27T11:46:06Z</time>
      </trkpt>
      <trkpt lat="46.17433" lon="6.25835">
        <ele>502.4</ele>
        <time>2021-03-27T11:46:05Z</time>
      </trkpt>
      <trkpt lat="46.17433" lon="6.25835">
        <ele>502.2</ele>
        <time>2021-03-27T11:46:04Z</time>
      </trkpt>
      <trkpt lat="46.17433" lon="6.25835">
        <ele>502.4</ele>
        <time>2021-03-27T11:46:03Z</time>
      </trkpt>
      <trkpt lat="46.17434" lon="6.25835">
        <ele>502.4</ele>
        <time>2021-03-27T11:46:02Z</time>
      </trkpt>
      <trkpt lat="46.17434" lon="6.25835">
        <ele>502.4</ele>
        <time>2021-03-27T11:46:01Z</time>
      </trkpt>
      <trkpt lat="46.17434" lon="6.25835">
        <ele>502.2</ele>
        <time>2021-03-27T11:46:00Z</time>
      </trkpt>
      <trkpt lat="46.17435" lon="6.25834">
        <ele>502.4</ele>
        <time>2021-03-27T11:45:59Z</time>
      </trkpt>
      <trkpt lat="46.17435" lon="6.25834">
        <ele>502.4</ele>
        <time>2021-03-27T11:45:58Z</time>
      </trkpt>
      <trkpt lat="46.17435" lon="6.25834">
        <ele>502.2</ele>
        <time>2021-03-27T11:45:57Z</time>
      </trkpt>
      <trkpt lat="46.17435" lon="6.25834">
        <ele>502.2</ele>
        <time>2021-03-27T11:45:56Z</time>
      </trkpt>
      <trkpt lat="46.17435" lon="6.25834">
        <ele>502.2</ele>
        <time>2021-03-27T11:45:55Z</time>
      </trkpt>
      <trkpt lat="46.17435" lon="6.25834">
        <ele>502.2</ele>
        <time>2021-03-27T11:45:54Z</time>
      </trkpt>
      <trkpt lat="46.17435" lon="6.25834">
        <ele>502.2</ele>
        <time>2021-03-27T11:45:53Z</time>
      </trkpt>
      <trkpt lat="46.17435" lon="6.25833">
        <ele>502.4</ele>
        <time>2021-03-27T11:45:52Z</time>
      </trkpt>
      <trkpt lat="46.17435" lon="6.25833">
        <ele>502.2</ele>
        <time>2021-03-27T11:45:51Z</time>
      </trkpt>
      <trkpt lat="46.17435" lon="6.25833">
        <ele>502.2</ele>
        <time>2021-03-27T11:45:50Z</time>
      </trkpt>
      <trkpt lat="46.17435" lon="6.25833">
        <ele>502.2</ele>
        <time>2021-03-27T11:45:49Z</time>
      </trkpt>
      <trkpt lat="46.17435" lon="6.25833">
        <ele>502.4</ele>
        <time>2021-03-27T11:45:48Z</time>
      </trkpt>
      <trkpt lat="46.17436" lon="6.25833">
        <ele>502.2</ele>
        <time>2021-03-27T11:45:47Z</time>
      </trkpt>
      <trkpt lat="46.17436" lon="6.25832">
        <ele>502.4</ele>
        <time>2021-03-27T11:45:46Z</time>
      </trkpt>
      <trkpt lat="46.17436" lon="6.25832">
        <ele>502.2</ele>
        <time>2021-03-27T11:45:45Z</time>
      </trkpt>
      <trkpt lat="46.17436" lon="6.25832">
        <ele>502.2</ele>
        <time>2021-03-27T11:45:44Z</time>
      </trkpt>
      <trkpt lat="46.17436" lon="6.25832">
        <ele>502.4</ele>
        <time>2021-03-27T11:45:43Z</time>
      </trkpt>
      <trkpt lat="46.17436" lon="6.25832">
        <ele>502.4</ele>
        <time>2021-03-27T11:45:42Z</time>
      </trkpt>
      <trkpt lat="46.17436" lon="6.25832">
        <ele>502.2</ele>
        <time>2021-03-27T11:45:41Z</time>
      </trkpt>
      <trkpt lat="46.17436" lon="6.25831">
        <ele>502.4</ele>
        <time>2021-03-27T11:45:40Z</time>
      </trkpt>
      <trkpt lat="46.17436" lon="6.25831">
        <ele>502.2</ele>
        <time>2021-03-27T11:45:39Z</time>
      </trkpt>
      <trkpt lat="46.17436" lon="6.25831">
        <ele>502.4</ele>
        <time>2021-03-27T11:45:38Z</time>
      </trkpt>
      <trkpt lat="46.17436" lon="6.25831">
        <ele>502.2</ele>
        <time>2021-03-27T11:45:37Z</time>
      </trkpt>
      <trkpt lat="46.17436" lon="6.25831">
        <ele>502.2</ele>
        <time>2021-03-27T11:45:36Z</time>
      </trkpt>
      <trkpt lat="46.17436" lon="6.25831">
        <ele>502.2</ele>
        <time>2021-03-27T11:45:35Z</time>
      </trkpt>
      <trkpt lat="46.17436" lon="6.25831">
        <ele>502.2</ele>
        <time>2021-03-27T11:45:34Z</time>
      </trkpt>
      <trkpt lat="46.17436" lon="6.25832">
        <ele>502.2</ele>
        <time>2021-03-27T11:45:33Z</time>
      </trkpt>
      <trkpt lat="46.17436" lon="6.25832">
        <ele>502.2</ele>
        <time>2021-03-27T11:45:32Z</time>
      </trkpt>
      <trkpt lat="46.17436" lon="6.25831">
        <ele>502.2</ele>
        <time>2021-03-27T11:45:31Z</time>
      </trkpt>
      <trkpt lat="46.17435" lon="6.25831">
        <ele>502.2</ele>
        <time>2021-03-27T11:45:30Z</time>
      </trkpt>
      <trkpt lat="46.17435" lon="6.25831">
        <ele>502.2</ele>
        <time>2021-03-27T11:45:29Z</time>
      </trkpt>
      <trkpt lat="46.17435" lon="6.25831">
        <ele>502.2</ele>
        <time>2021-03-27T11:45:28Z</time>
      </trkpt>
      <trkpt lat="46.17435" lon="6.25831">
        <ele>502.2</ele>
        <time>2021-03-27T11:45:27Z</time>
      </trkpt>
      <trkpt lat="46.17435" lon="6.25831">
        <ele>502.2</ele>
        <time>2021-03-27T11:45:26Z</time>
      </trkpt>
      <trkpt lat="46.17435" lon="6.25831">
        <ele>502.2</ele>
        <time>2021-03-27T11:45:25Z</time>
      </trkpt>
      <trkpt lat="46.17435" lon="6.25831">
        <ele>502.2</ele>
        <time>2021-03-27T11:45:24Z</time>
      </trkpt>
      <trkpt lat="46.17435" lon="6.25831">
        <ele>502.2</ele>
        <time>2021-03-27T11:45:23Z</time>
      </trkpt>
      <trkpt lat="46.17435" lon="6.25831">
        <ele>502.2</ele>
        <time>2021-03-27T11:45:22Z</time>
      </trkpt>
      <trkpt lat="46.17435" lon="6.25831">
        <ele>502.2</ele>
        <time>2021-03-27T11:45:21Z</time>
      </trkpt>
      <trkpt lat="46.17435" lon="6.25831">
        <ele>502.2</ele>
        <time>2021-03-27T11:45:20Z</time>
      </trkpt>
      <trkpt lat="46.17435" lon="6.25831">
        <ele>502.4</ele>
        <time>2021-03-27T11:45:19Z</time>
      </trkpt>
      <trkpt lat="46.17435" lon="6.25831">
        <ele>502.2</ele>
        <time>2021-03-27T11:45:18Z</time>
      </trkpt>
      <trkpt lat="46.17435" lon="6.25831">
        <ele>502.2</ele>
        <time>2021-03-27T11:45:17Z</time>
      </trkpt>
      <trkpt lat="46.17436" lon="6.25831">
        <ele>502.4</ele>
        <time>2021-03-27T11:45:16Z</time>
      </trkpt>
      <trkpt lat="46.17435" lon="6.25831">
        <ele>502.4</ele>
        <time>2021-03-27T11:45:15Z</time>
      </trkpt>
      <trkpt lat="46.17435" lon="6.25831">
        <ele>502.4</ele>
        <time>2021-03-27T11:45:14Z</time>
      </trkpt>
      <trkpt lat="46.17435" lon="6.25831">
        <ele>502.4</ele>
        <time>2021-03-27T11:45:13Z</time>
      </trkpt>
      <trkpt lat="46.17435" lon="6.25831">
        <ele>502.4</ele>
        <time>2021-03-27T11:45:12Z</time>
      </trkpt>
      <trkpt lat="46.17435" lon="6.25831">
        <ele>502.6</ele>
        <time>2021-03-27T11:45:11Z</time>
      </trkpt>
      <trkpt lat="46.17436" lon="6.25831">
        <ele>502.6</ele>
        <time>2021-03-27T11:45:10Z</time>
      </trkpt>
      <trkpt lat="46.17436" lon="6.25831">
        <ele>502.6</ele>
        <time>2021-03-27T11:45:09Z</time>
      </trkpt>
      <trkpt lat="46.17436" lon="6.25831">
        <ele>502.6</ele>
        <time>2021-03-27T11:45:08Z</time>
      </trkpt>
      <trkpt lat="46.17436" lon="6.25831">
        <ele>502.6</ele>
        <time>2021-03-27T11:45:07Z</time>
      </trkpt>
      <trkpt lat="46.17435" lon="6.25831">
        <ele>502.6</ele>
        <time>2021-03-27T11:45:06Z</time>
      </trkpt>
      <trkpt lat="46.17435" lon="6.25831">
        <ele>502.8</ele>
        <time>2021-03-27T11:45:05Z</time>
      </trkpt>
      <trkpt lat="46.17435" lon="6.25831">
        <ele>502.6</ele>
        <time>2021-03-27T11:45:04Z</time>
      </trkpt>
      <trkpt lat="46.17435" lon="6.25831">
        <ele>502.6</ele>
        <time>2021-03-27T11:45:03Z</time>
      </trkpt>
      <trkpt lat="46.17435" lon="6.25831">
        <ele>502.6</ele>
        <time>2021-03-27T11:45:02Z</time>
      </trkpt>
      <trkpt lat="46.17435" lon="6.25831">
        <ele>502.8</ele>
        <time>2021-03-27T11:45:01Z</time>
      </trkpt>
      <trkpt lat="46.17435" lon="6.25831">
        <ele>502.6</ele>
        <time>2021-03-27T11:45:00Z</time>
      </trkpt>
      <trkpt lat="46.17435" lon="6.25831">
        <ele>502.8</ele>
        <time>2021-03-27T11:44:59Z</time>
      </trkpt>
      <trkpt lat="46.17435" lon="6.25831">
        <ele>502.6</ele>
        <time>2021-03-27T11:44:58Z</time>
      </trkpt>
      <trkpt lat="46.17435" lon="6.25831">
        <ele>502.8</ele>
        <time>2021-03-27T11:44:57Z</time>
      </trkpt>
      <trkpt lat="46.17435" lon="6.25831">
        <ele>502.6</ele>
        <time>2021-03-27T11:44:56Z</time>
      </trkpt>
      <trkpt lat="46.17435" lon="6.25831">
        <ele>502.6</ele>
        <time>2021-03-27T11:44:55Z</time>
      </trkpt>
      <trkpt lat="46.17435" lon="6.25831">
        <ele>502.4</ele>
        <time>2021-03-27T11:44:54Z</time>
      </trkpt>
      <trkpt lat="46.17435" lon="6.25831">
        <ele>502.2</ele>
        <time>2021-03-27T11:44:53Z</time>
      </trkpt>
      <trkpt lat="46.17435" lon="6.25831">
        <ele>502.2</ele>
        <time>2021-03-27T11:44:52Z</time>
      </trkpt>
      <trkpt lat="46.17435" lon="6.25831">
        <ele>502.2</ele>
        <time>2021-03-27T11:44:51Z</time>
      </trkpt>
      <trkpt lat="46.17435" lon="6.25831">
        <ele>502.2</ele>
        <time>2021-03-27T11:44:50Z</time>
      </trkpt>
      <trkpt lat="46.17435" lon="6.25831">
        <ele>502.2</ele>
        <time>2021-03-27T11:44:49Z</time>
      </trkpt>
      <trkpt lat="46.17435" lon="6.25831">
        <ele>502.2</ele>
        <time>2021-03-27T11:44:48Z</time>
      </trkpt>
      <trkpt lat="46.17435" lon="6.25831">
        <ele>502.2</ele>
        <time>2021-03-27T11:44:47Z</time>
      </trkpt>
      <trkpt lat="46.17435" lon="6.25831">
        <ele>502.4</ele>
        <time>2021-03-27T11:44:46Z</time>
      </trkpt>
      <trkpt lat="46.17435" lon="6.25831">
        <ele>502.2</ele>
        <time>2021-03-27T11:44:45Z</time>
      </trkpt>
      <trkpt lat="46.17435" lon="6.25831">
        <ele>502.2</ele>
        <time>2021-03-27T11:44:44Z</time>
      </trkpt>
      <trkpt lat="46.17436" lon="6.25831">
        <ele>502.2</ele>
        <time>2021-03-27T11:44:43Z</time>
      </trkpt>
      <trkpt lat="46.17436" lon="6.25831">
        <ele>502.4</ele>
        <time>2021-03-27T11:44:42Z</time>
      </trkpt>
      <trkpt lat="46.17436" lon="6.25831">
        <ele>502.4</ele>
        <time>2021-03-27T11:44:41Z</time>
      </trkpt>
      <trkpt lat="46.17436" lon="6.25831">
        <ele>502.4</ele>
        <time>2021-03-27T11:44:40Z</time>
      </trkpt>
      <trkpt lat="46.17436" lon="6.25831">
        <ele>502.4</ele>
        <time>2021-03-27T11:44:39Z</time>
      </trkpt>
      <trkpt lat="46.17436" lon="6.25832">
        <ele>502.4</ele>
        <time>2021-03-27T11:44:38Z</time>
      </trkpt>
      <trkpt lat="46.17436" lon="6.25832">
        <ele>502.6</ele>
        <time>2021-03-27T11:44:37Z</time>
      </trkpt>
      <trkpt lat="46.17436" lon="6.25831">
        <ele>502.6</ele>
        <time>2021-03-27T11:44:36Z</time>
      </trkpt>
      <trkpt lat="46.17435" lon="6.25831">
        <ele>502.6</ele>
        <time>2021-03-27T11:44:35Z</time>
      </trkpt>
      <trkpt lat="46.17435" lon="6.25831">
        <ele>502.8</ele>
        <time>2021-03-27T11:44:34Z</time>
      </trkpt>
      <trkpt lat="46.17435" lon="6.25831">
        <ele>502.8</ele>
        <time>2021-03-27T11:44:33Z</time>
      </trkpt>
      <trkpt lat="46.17435" lon="6.25831">
        <ele>502.6</ele>
        <time>2021-03-27T11:44:32Z</time>
      </trkpt>
      <trkpt lat="46.17435" lon="6.25831">
        <ele>502.6</ele>
        <time>2021-03-27T11:44:31Z</time>
      </trkpt>
      <trkpt lat="46.17435" lon="6.25831">
        <ele>502.6</ele>
        <time>2021-03-27T11:44:30Z</time>
      </trkpt>
      <trkpt lat="46.17435" lon="6.25831">
        <ele>502.6</ele>
        <time>2021-03-27T11:44:29Z</time>
      </trkpt>
      <trkpt lat="46.17435" lon="6.25831">
        <ele>502.6</ele>
        <time>2021-03-27T11:44:28Z</time>
      </trkpt>
      <trkpt lat="46.17435" lon="6.25831">
        <ele>502.6</ele>
        <time>2021-03-27T11:44:26Z</time>
      </trkpt>
      <trkpt lat="46.17435" lon="6.25831">
        <ele>502.4</ele>
        <time>2021-03-27T11:44:24Z</time>
      </trkpt>
      <trkpt lat="46.17435" lon="6.25831">
        <ele>502.4</ele>
        <time>2021-03-27T11:44:23Z</time>
      </trkpt>
      <trkpt lat="46.17435" lon="6.25831">
        <ele>502.4</ele>
        <time>2021-03-27T11:44:22Z</time>
      </trkpt>
      <trkpt lat="46.17435" lon="6.25831">
        <ele>502.4</ele>
        <time>2021-03-27T11:44:21Z</time>
      </trkpt>
      <trkpt lat="46.17435" lon="6.25831">
        <ele>502.4</ele>
        <time>2021-03-27T11:44:20Z</time>
      </trkpt>
      <trkpt lat="46.17435" lon="6.25831">
        <ele>502.2</ele>
        <time>2021-03-27T11:44:19Z</time>
      </trkpt>
      <trkpt lat="46.17435" lon="6.25831">
        <ele>502.4</ele>
        <time>2021-03-27T11:44:18Z</time>
      </trkpt>
      <trkpt lat="46.17435" lon="6.25832">
        <ele>502.4</ele>
        <time>2021-03-27T11:44:17Z</time>
      </trkpt>
      <trkpt lat="46.17435" lon="6.25832">
        <ele>502.4</ele>
        <time>2021-03-27T11:44:16Z</time>
      </trkpt>
      <trkpt lat="46.17435" lon="6.25832">
        <ele>502.2</ele>
        <time>2021-03-27T11:44:15Z</time>
      </trkpt>
      <trkpt lat="46.17435" lon="6.25832">
        <ele>502.2</ele>
        <time>2021-03-27T11:44:14Z</time>
      </trkpt>
      <trkpt lat="46.17435" lon="6.25832">
        <ele>502.4</ele>
        <time>2021-03-27T11:44:13Z</time>
      </trkpt>
      <trkpt lat="46.17435" lon="6.25832">
        <ele>502.4</ele>
        <time>2021-03-27T11:44:12Z</time>
      </trkpt>
      <trkpt lat="46.17435" lon="6.25832">
        <ele>502.4</ele>
        <time>2021-03-27T11:44:11Z</time>
      </trkpt>
      <trkpt lat="46.17435" lon="6.25832">
        <ele>502.4</ele>
        <time>2021-03-27T11:44:10Z</time>
      </trkpt>
      <trkpt lat="46.17435" lon="6.25832">
        <ele>502.2</ele>
        <time>2021-03-27T11:44:09Z</time>
      </trkpt>
      <trkpt lat="46.17435" lon="6.25832">
        <ele>502.2</ele>
        <time>2021-03-27T11:44:08Z</time>
      </trkpt>
      <trkpt lat="46.17435" lon="6.25832">
        <ele>502.4</ele>
        <time>2021-03-27T11:44:07Z</time>
      </trkpt>
      <trkpt lat="46.17435" lon="6.25832">
        <ele>502.4</ele>
        <time>2021-03-27T11:44:06Z</time>
      </trkpt>
      <trkpt lat="46.17435" lon="6.25832">
        <ele>502.4</ele>
        <time>2021-03-27T11:44:05Z</time>
      </trkpt>
      <trkpt lat="46.17435" lon="6.25832">
        <ele>502.6</ele>
        <time>2021-03-27T11:44:04Z</time>
      </trkpt>
      <trkpt lat="46.17435" lon="6.25832">
        <ele>502.6</ele>
        <time>2021-03-27T11:44:03Z</time>
      </trkpt>
      <trkpt lat="46.17435" lon="6.25832">
        <ele>502.4</ele>
        <time>2021-03-27T11:44:02Z</time>
      </trkpt>
      <trkpt lat="46.17435" lon="6.25832">
        <ele>502.6</ele>
        <time>2021-03-27T11:44:01Z</time>
      </trkpt>
      <trkpt lat="46.17435" lon="6.25832">
        <ele>502.4</ele>
        <time>2021-03-27T11:44:00Z</time>
      </trkpt>
      <trkpt lat="46.17435" lon="6.25832">
        <ele>502.6</ele>
        <time>2021-03-27T11:43:59Z</time>
      </trkpt>
      <trkpt lat="46.17435" lon="6.25831">
        <ele>502.6</ele>
        <time>2021-03-27T11:43:58Z</time>
      </trkpt>
      <trkpt lat="46.17435" lon="6.25831">
        <ele>502.4</ele>
        <time>2021-03-27T11:43:57Z</time>
      </trkpt>
      <trkpt lat="46.17435" lon="6.25831">
        <ele>502.4</ele>
        <time>2021-03-27T11:43:56Z</time>
      </trkpt>
      <trkpt lat="46.17435" lon="6.25831">
        <ele>502.4</ele>
        <time>2021-03-27T11:43:55Z</time>
      </trkpt>
      <trkpt lat="46.17435" lon="6.25832">
        <ele>502.4</ele>
        <time>2021-03-27T11:43:53Z</time>
      </trkpt>
      <trkpt lat="46.17435" lon="6.25832">
        <ele>502.4</ele>
        <time>2021-03-27T11:43:52Z</time>
      </trkpt>
      <trkpt lat="46.17435" lon="6.25832">
        <ele>502.6</ele>
        <time>2021-03-27T11:43:51Z</time>
      </trkpt>
      <trkpt lat="46.17435" lon="6.25831">
        <ele>502.6</ele>
        <time>2021-03-27T11:43:49Z</time>
      </trkpt>
      <trkpt lat="46.17435" lon="6.25832">
        <ele>502.6</ele>
        <time>2021-03-27T11:43:48Z</time>
      </trkpt>
      <trkpt lat="46.17435" lon="6.25832">
        <ele>502.6</ele>
        <time>2021-03-27T11:43:47Z</time>
      </trkpt>
      <trkpt lat="46.17435" lon="6.25832">
        <ele>502.6</ele>
        <time>2021-03-27T11:43:46Z</time>
      </trkpt>
      <trkpt lat="46.17435" lon="6.25831">
        <ele>502.6</ele>
        <time>2021-03-27T11:43:45Z</time>
      </trkpt>
      <trkpt lat="46.17435" lon="6.25831">
        <ele>502.6</ele>
        <time>2021-03-27T11:43:44Z</time>
      </trkpt>
      <trkpt lat="46.17435" lon="6.25831">
        <ele>502.6</ele>
        <time>2021-03-27T11:43:43Z</time>
      </trkpt>
      <trkpt lat="46.17435" lon="6.25831">
        <ele>502.6</ele>
        <time>2021-03-27T11:43:42Z</time>
      </trkpt>
      <trkpt lat="46.17435" lon="6.25831">
        <ele>502.8</ele>
        <time>2021-03-27T11:43:41Z</time>
      </trkpt>
      <trkpt lat="46.17435" lon="6.25832">
        <ele>502.8</ele>
        <time>2021-03-27T11:43:40Z</time>
      </trkpt>
      <trkpt lat="46.17435" lon="6.25832">
        <ele>502.8</ele>
        <time>2021-03-27T11:43:39Z</time>
      </trkpt>
      <trkpt lat="46.17435" lon="6.25832">
        <ele>503.2</ele>
        <time>2021-03-27T11:43:38Z</time>
      </trkpt>
      <trkpt lat="46.17435" lon="6.25832">
        <ele>503.2</ele>
        <time>2021-03-27T11:43:37Z</time>
      </trkpt>
      <trkpt lat="46.17435" lon="6.25832">
        <ele>503.2</ele>
        <time>2021-03-27T11:43:36Z</time>
      </trkpt>
      <trkpt lat="46.17435" lon="6.25832">
        <ele>503.4</ele>
        <time>2021-03-27T11:43:35Z</time>
      </trkpt>
      <trkpt lat="46.17435" lon="6.25832">
        <ele>503.4</ele>
        <time>2021-03-27T11:43:34Z</time>
      </trkpt>
      <trkpt lat="46.17435" lon="6.25832">
        <ele>503.6</ele>
        <time>2021-03-27T11:43:33Z</time>
      </trkpt>
      <trkpt lat="46.17435" lon="6.25832">
        <ele>503.6</ele>
        <time>2021-03-27T11:43:32Z</time>
      </trkpt>
      <trkpt lat="46.17435" lon="6.25832">
        <ele>503.4</ele>
        <time>2021-03-27T11:43:31Z</time>
      </trkpt>
      <trkpt lat="46.17435" lon="6.25832">
        <ele>503.6</ele>
        <time>2021-03-27T11:43:30Z</time>
      </trkpt>
      <trkpt lat="46.17435" lon="6.25832">
        <ele>503.6</ele>
        <time>2021-03-27T11:43:29Z</time>
      </trkpt>
      <trkpt lat="46.17435" lon="6.25832">
        <ele>503.4</ele>
        <time>2021-03-27T11:43:28Z</time>
      </trkpt>
      <trkpt lat="46.17435" lon="6.25832">
        <ele>503.4</ele>
        <time>2021-03-27T11:43:27Z</time>
      </trkpt>
      <trkpt lat="46.17435" lon="6.25832">
        <ele>503.4</ele>
        <time>2021-03-27T11:43:26Z</time>
      </trkpt>
      <trkpt lat="46.17435" lon="6.25832">
        <ele>503.6</ele>
        <time>2021-03-27T11:43:25Z</time>
      </trkpt>
      <trkpt lat="46.17435" lon="6.25832">
        <ele>503.4</ele>
        <time>2021-03-27T11:43:24Z</time>
      </trkpt>
      <trkpt lat="46.17435" lon="6.25832">
        <ele>503.6</ele>
        <time>2021-03-27T11:43:23Z</time>
      </trkpt>
      <trkpt lat="46.17435" lon="6.25832">
        <ele>503.6</ele>
        <time>2021-03-27T11:43:22Z</time>
      </trkpt>
      <trkpt lat="46.17435" lon="6.25832">
        <ele>503.4</ele>
        <time>2021-03-27T11:43:21Z</time>
      </trkpt>
      <trkpt lat="46.17435" lon="6.25832">
        <ele>503.4</ele>
        <time>2021-03-27T11:43:20Z</time>
      </trkpt>
      <trkpt lat="46.17435" lon="6.25832">
        <ele>503.4</ele>
        <time>2021-03-27T11:43:19Z</time>
      </trkpt>
      <trkpt lat="46.17435" lon="6.25832">
        <ele>503.4</ele>
        <time>2021-03-27T11:43:18Z</time>
      </trkpt>
      <trkpt lat="46.17435" lon="6.25832">
        <ele>503.4</ele>
        <time>2021-03-27T11:43:17Z</time>
      </trkpt>
      <trkpt lat="46.17435" lon="6.25832">
        <ele>503.2</ele>
        <time>2021-03-27T11:43:16Z</time>
      </trkpt>
      <trkpt lat="46.17435" lon="6.25832">
        <ele>503.4</ele>
        <time>2021-03-27T11:43:15Z</time>
      </trkpt>
      <trkpt lat="46.17435" lon="6.25832">
        <ele>503.2</ele>
        <time>2021-03-27T11:43:14Z</time>
      </trkpt>
      <trkpt lat="46.17435" lon="6.25832">
        <ele>503.2</ele>
        <time>2021-03-27T11:43:13Z</time>
      </trkpt>
      <trkpt lat="46.17435" lon="6.25832">
        <ele>503.2</ele>
        <time>2021-03-27T11:43:12Z</time>
      </trkpt>
      <trkpt lat="46.17435" lon="6.25832">
        <ele>503</ele>
        <time>2021-03-27T11:43:11Z</time>
      </trkpt>
      <trkpt lat="46.17435" lon="6.25832">
        <ele>503</ele>
        <time>2021-03-27T11:43:10Z</time>
      </trkpt>
      <trkpt lat="46.17435" lon="6.25832">
        <ele>503</ele>
        <time>2021-03-27T11:43:09Z</time>
      </trkpt>
      <trkpt lat="46.17435" lon="6.25832">
        <ele>503.2</ele>
        <time>2021-03-27T11:43:08Z</time>
      </trkpt>
      <trkpt lat="46.17435" lon="6.25832">
        <ele>503</ele>
        <time>2021-03-27T11:43:07Z</time>
      </trkpt>
      <trkpt lat="46.17435" lon="6.25832">
        <ele>503</ele>
        <time>2021-03-27T11:43:06Z</time>
      </trkpt>
      <trkpt lat="46.17435" lon="6.25832">
        <ele>503</ele>
        <time>2021-03-27T11:43:05Z</time>
      </trkpt>
      <trkpt lat="46.17435" lon="6.25832">
        <ele>503.2</ele>
        <time>2021-03-27T11:43:04Z</time>
      </trkpt>
      <trkpt lat="46.17435" lon="6.25832">
        <ele>503.2</ele>
        <time>2021-03-27T11:43:03Z</time>
      </trkpt>
      <trkpt lat="46.17435" lon="6.25832">
        <ele>503.2</ele>
        <time>2021-03-27T11:43:02Z</time>
      </trkpt>
      <trkpt lat="46.17435" lon="6.25832">
        <ele>503.2</ele>
        <time>2021-03-27T11:43:01Z</time>
      </trkpt>
      <trkpt lat="46.17435" lon="6.25832">
        <ele>503.2</ele>
        <time>2021-03-27T11:43:00Z</time>
      </trkpt>
      <trkpt lat="46.17435" lon="6.25832">
        <ele>503.2</ele>
        <time>2021-03-27T11:42:59Z</time>
      </trkpt>
      <trkpt lat="46.17435" lon="6.25832">
        <ele>503</ele>
        <time>2021-03-27T11:42:58Z</time>
      </trkpt>
      <trkpt lat="46.17435" lon="6.25832">
        <ele>503</ele>
        <time>2021-03-27T11:42:57Z</time>
      </trkpt>
      <trkpt lat="46.17435" lon="6.25832">
        <ele>503.2</ele>
        <time>2021-03-27T11:42:56Z</time>
      </trkpt>
      <trkpt lat="46.17435" lon="6.25832">
        <ele>503.2</ele>
        <time>2021-03-27T11:42:55Z</time>
      </trkpt>
      <trkpt lat="46.17435" lon="6.25832">
        <ele>503.2</ele>
        <time>2021-03-27T11:42:54Z</time>
      </trkpt>
      <trkpt lat="46.17435" lon="6.25832">
        <ele>503.2</ele>
        <time>2021-03-27T11:42:53Z</time>
      </trkpt>
      <trkpt lat="46.17435" lon="6.25832">
        <ele>503</ele>
        <time>2021-03-27T11:42:52Z</time>
      </trkpt>
      <trkpt lat="46.17435" lon="6.25832">
        <ele>503.2</ele>
        <time>2021-03-27T11:42:51Z</time>
      </trkpt>
      <trkpt lat="46.17435" lon="6.25832">
        <ele>503</ele>
        <time>2021-03-27T11:42:50Z</time>
      </trkpt>
      <trkpt lat="46.17435" lon="6.25832">
        <ele>503.2</ele>
        <time>2021-03-27T11:42:49Z</time>
      </trkpt>
      <trkpt lat="46.17435" lon="6.25832">
        <ele>503.4</ele>
        <time>2021-03-27T11:42:48Z</time>
      </trkpt>
      <trkpt lat="46.17435" lon="6.25832">
        <ele>503.2</ele>
        <time>2021-03-27T11:42:47Z</time>
      </trkpt>
      <trkpt lat="46.17435" lon="6.25832">
        <ele>503.2</ele>
        <time>2021-03-27T11:42:46Z</time>
      </trkpt>
      <trkpt lat="46.17435" lon="6.25832">
        <ele>503.2</ele>
        <time>2021-03-27T11:42:45Z</time>
      </trkpt>
      <trkpt lat="46.17435" lon="6.25832">
        <ele>503.2</ele>
        <time>2021-03-27T11:42:44Z</time>
      </trkpt>
      <trkpt lat="46.17435" lon="6.25832">
        <ele>503.2</ele>
        <time>2021-03-27T11:42:43Z</time>
      </trkpt>
      <trkpt lat="46.17435" lon="6.25832">
        <ele>503.2</ele>
        <time>2021-03-27T11:42:42Z</time>
      </trkpt>
      <trkpt lat="46.17435" lon="6.25832">
        <ele>503.2</ele>
        <time>2021-03-27T11:42:41Z</time>
      </trkpt>
      <trkpt lat="46.17435" lon="6.25832">
        <ele>503.2</ele>
        <time>2021-03-27T11:42:40Z</time>
      </trkpt>
      <trkpt lat="46.17435" lon="6.25832">
        <ele>503.2</ele>
        <time>2021-03-27T11:42:39Z</time>
      </trkpt>
      <trkpt lat="46.17435" lon="6.25832">
        <ele>503.2</ele>
        <time>2021-03-27T11:42:38Z</time>
      </trkpt>
      <trkpt lat="46.17435" lon="6.25832">
        <ele>503.2</ele>
        <time>2021-03-27T11:42:37Z</time>
      </trkpt>
      <trkpt lat="46.17435" lon="6.25832">
        <ele>503.2</ele>
        <time>2021-03-27T11:42:36Z</time>
      </trkpt>
      <trkpt lat="46.17435" lon="6.25832">
        <ele>503.2</ele>
        <time>2021-03-27T11:42:35Z</time>
      </trkpt>
      <trkpt lat="46.17435" lon="6.25832">
        <ele>503.4</ele>
        <time>2021-03-27T11:42:34Z</time>
      </trkpt>
      <trkpt lat="46.17435" lon="6.25832">
        <ele>503.2</ele>
        <time>2021-03-27T11:42:33Z</time>
      </trkpt>
      <trkpt lat="46.17435" lon="6.25832">
        <ele>503.2</ele>
        <time>2021-03-27T11:42:32Z</time>
      </trkpt>
      <trkpt lat="46.17435" lon="6.25832">
        <ele>503.4</ele>
        <time>2021-03-27T11:42:31Z</time>
      </trkpt>
      <trkpt lat="46.17435" lon="6.25832">
        <ele>503.4</ele>
        <time>2021-03-27T11:42:30Z</time>
      </trkpt>
      <trkpt lat="46.17435" lon="6.25832">
        <ele>503.4</ele>
        <time>2021-03-27T11:42:29Z</time>
      </trkpt>
      <trkpt lat="46.17435" lon="6.25832">
        <ele>503.4</ele>
        <time>2021-03-27T11:42:28Z</time>
      </trkpt>
      <trkpt lat="46.17435" lon="6.25832">
        <ele>503.2</ele>
        <time>2021-03-27T11:42:27Z</time>
      </trkpt>
      <trkpt lat="46.17435" lon="6.25832">
        <ele>503.2</ele>
        <time>2021-03-27T11:42:26Z</time>
      </trkpt>
      <trkpt lat="46.17435" lon="6.25832">
        <ele>503.4</ele>
        <time>2021-03-27T11:42:25Z</time>
      </trkpt>
      <trkpt lat="46.17435" lon="6.25832">
        <ele>503.4</ele>
        <time>2021-03-27T11:42:24Z</time>
      </trkpt>
      <trkpt lat="46.17435" lon="6.25832">
        <ele>503.4</ele>
        <time>2021-03-27T11:42:23Z</time>
      </trkpt>
      <trkpt lat="46.17435" lon="6.25832">
        <ele>503.4</ele>
        <time>2021-03-27T11:42:22Z</time>
      </trkpt>
      <trkpt lat="46.17435" lon="6.25832">
        <ele>503.2</ele>
        <time>2021-03-27T11:42:21Z</time>
      </trkpt>
      <trkpt lat="46.17435" lon="6.25832">
        <ele>503.4</ele>
        <time>2021-03-27T11:42:20Z</time>
      </trkpt>
      <trkpt lat="46.17435" lon="6.25832">
        <ele>503.4</ele>
        <time>2021-03-27T11:42:19Z</time>
      </trkpt>
      <trkpt lat="46.17435" lon="6.25832">
        <ele>503.4</ele>
        <time>2021-03-27T11:42:18Z</time>
      </trkpt>
      <trkpt lat="46.17435" lon="6.25832">
        <ele>503.4</ele>
        <time>2021-03-27T11:42:17Z</time>
      </trkpt>
      <trkpt lat="46.17435" lon="6.25832">
        <ele>503.4</ele>
        <time>2021-03-27T11:42:16Z</time>
      </trkpt>
      <trkpt lat="46.17435" lon="6.25832">
        <ele>503.4</ele>
        <time>2021-03-27T11:42:15Z</time>
      </trkpt>
      <trkpt lat="46.17435" lon="6.25832">
        <ele>503.4</ele>
        <time>2021-03-27T11:42:14Z</time>
      </trkpt>
      <trkpt lat="46.17435" lon="6.25832">
        <ele>503.4</ele>
        <time>2021-03-27T11:42:13Z</time>
      </trkpt>
      <trkpt lat="46.17435" lon="6.25832">
        <ele>503.4</ele>
        <time>2021-03-27T11:42:12Z</time>
      </trkpt>
      <trkpt lat="46.17435" lon="6.25832">
        <ele>503.2</ele>
        <time>2021-03-27T11:42:11Z</time>
      </trkpt>
      <trkpt lat="46.17435" lon="6.25832">
        <ele>503.2</ele>
        <time>2021-03-27T11:42:10Z</time>
      </trkpt>
      <trkpt lat="46.17435" lon="6.25832">
        <ele>503</ele>
        <time>2021-03-27T11:42:09Z</time>
      </trkpt>
      <trkpt lat="46.17435" lon="6.25832">
        <ele>503.2</ele>
        <time>2021-03-27T11:42:08Z</time>
      </trkpt>
      <trkpt lat="46.17435" lon="6.25832">
        <ele>503</ele>
        <time>2021-03-27T11:42:07Z</time>
      </trkpt>
      <trkpt lat="46.17435" lon="6.25832">
        <ele>503</ele>
        <time>2021-03-27T11:42:06Z</time>
      </trkpt>
      <trkpt lat="46.17435" lon="6.25832">
        <ele>503</ele>
        <time>2021-03-27T11:42:05Z</time>
      </trkpt>
      <trkpt lat="46.17435" lon="6.25832">
        <ele>503.2</ele>
        <time>2021-03-27T11:42:04Z</time>
      </trkpt>
      <trkpt lat="46.17435" lon="6.25832">
        <ele>503</ele>
        <time>2021-03-27T11:42:03Z</time>
      </trkpt>
      <trkpt lat="46.17435" lon="6.25832">
        <ele>502.8</ele>
        <time>2021-03-27T11:42:02Z</time>
      </trkpt>
      <trkpt lat="46.17435" lon="6.25832">
        <ele>502.8</ele>
        <time>2021-03-27T11:42:01Z</time>
      </trkpt>
      <trkpt lat="46.17435" lon="6.25832">
        <ele>502.8</ele>
        <time>2021-03-27T11:42:00Z</time>
      </trkpt>
      <trkpt lat="46.17435" lon="6.25831">
        <ele>502.8</ele>
        <time>2021-03-27T11:41:59Z</time>
      </trkpt>
      <trkpt lat="46.17435" lon="6.25831">
        <ele>502.8</ele>
        <time>2021-03-27T11:41:58Z</time>
      </trkpt>
      <trkpt lat="46.17434" lon="6.25832">
        <ele>502.6</ele>
        <time>2021-03-27T11:41:57Z</time>
      </trkpt>
      <trkpt lat="46.17434" lon="6.25832">
        <ele>502.6</ele>
        <time>2021-03-27T11:41:56Z</time>
      </trkpt>
      <trkpt lat="46.17434" lon="6.25832">
        <ele>502.4</ele>
        <time>2021-03-27T11:41:55Z</time>
      </trkpt>
      <trkpt lat="46.17434" lon="6.25832">
        <ele>502.4</ele>
        <time>2021-03-27T11:41:54Z</time>
      </trkpt>
      <trkpt lat="46.17434" lon="6.25833">
        <ele>502.4</ele>
        <time>2021-03-27T11:41:53Z</time>
      </trkpt>
      <trkpt lat="46.17433" lon="6.25835">
        <ele>502.2</ele>
        <time>2021-03-27T11:41:52Z</time>
      </trkpt>
      <trkpt lat="46.17434" lon="6.25839">
        <ele>502</ele>
        <time>2021-03-27T11:41:51Z</time>
      </trkpt>
      <trkpt lat="46.17435" lon="6.25843">
        <ele>501.8</ele>
        <time>2021-03-27T11:41:50Z</time>
      </trkpt>
      <trkpt lat="46.17436" lon="6.25847">
        <ele>501.6</ele>
        <time>2021-03-27T11:41:49Z</time>
      </trkpt>
      <trkpt lat="46.17436" lon="6.2585">
        <ele>501.6</ele>
        <time>2021-03-27T11:41:48Z</time>
      </trkpt>
      <trkpt lat="46.17437" lon="6.25853">
        <ele>501.4</ele>
        <time>2021-03-27T11:41:47Z</time>
      </trkpt>
      <trkpt lat="46.17437" lon="6.25856">
        <ele>501.4</ele>
        <time>2021-03-27T11:41:46Z</time>
      </trkpt>
      <trkpt lat="46.17435" lon="6.25858">
        <ele>501.4</ele>
        <time>2021-03-27T11:41:45Z</time>
      </trkpt>
      <trkpt lat="46.17433" lon="6.25859">
        <ele>501.4</ele>
        <time>2021-03-27T11:41:44Z</time>
      </trkpt>
      <trkpt lat="46.1743" lon="6.2586">
        <ele>501.2</ele>
        <time>2021-03-27T11:41:43Z</time>
      </trkpt>
      <trkpt lat="46.17427" lon="6.25859">
        <ele>501.2</ele>
        <time>2021-03-27T11:41:42Z</time>
      </trkpt>
      <trkpt lat="46.17423" lon="6.25857">
        <ele>501.2</ele>
        <time>2021-03-27T11:41:41Z</time>
      </trkpt>
      <trkpt lat="46.1742" lon="6.25854">
        <ele>501</ele>
        <time>2021-03-27T11:41:40Z</time>
      </trkpt>
      <trkpt lat="46.17416" lon="6.25851">
        <ele>500.8</ele>
        <time>2021-03-27T11:41:39Z</time>
      </trkpt>
      <trkpt lat="46.17413" lon="6.25847">
        <ele>500.8</ele>
        <time>2021-03-27T11:41:38Z</time>
      </trkpt>
      <trkpt lat="46.17411" lon="6.25841">
        <ele>500.8</ele>
        <time>2021-03-27T11:41:37Z</time>
      </trkpt>
      <trkpt lat="46.1741" lon="6.25835">
        <ele>500.8</ele>
        <time>2021-03-27T11:41:36Z</time>
      </trkpt>
      <trkpt lat="46.17411" lon="6.2583">
        <ele>500.8</ele>
        <time>2021-03-27T11:41:35Z</time>
      </trkpt>
      <trkpt lat="46.17412" lon="6.25824">
        <ele>500.6</ele>
        <time>2021-03-27T11:41:34Z</time>
      </trkpt>
      <trkpt lat="46.17412" lon="6.25819">
        <ele>500.6</ele>
        <time>2021-03-27T11:41:33Z</time>
      </trkpt>
      <trkpt lat="46.17412" lon="6.25814">
        <ele>500.6</ele>
        <time>2021-03-27T11:41:32Z</time>
      </trkpt>
      <trkpt lat="46.17411" lon="6.2581">
        <ele>500.6</ele>
        <time>2021-03-27T11:41:31Z</time>
      </trkpt>
      <trkpt lat="46.17409" lon="6.25808">
        <ele>500.6</ele>
        <time>2021-03-27T11:41:30Z</time>
      </trkpt>
      <trkpt lat="46.17407" lon="6.25806">
        <ele>500.4</ele>
        <time>2021-03-27T11:41:29Z</time>
      </trkpt>
      <trkpt lat="46.17405" lon="6.25807">
        <ele>500.6</ele>
        <time>2021-03-27T11:41:28Z</time>
      </trkpt>
      <trkpt lat="46.17402" lon="6.25808">
        <ele>500.4</ele>
        <time>2021-03-27T11:41:27Z</time>
      </trkpt>
      <trkpt lat="46.174" lon="6.25808">
        <ele>500.6</ele>
        <time>2021-03-27T11:41:26Z</time>
      </trkpt>
      <trkpt lat="46.17398" lon="6.25808">
        <ele>500.4</ele>
        <time>2021-03-27T11:41:25Z</time>
      </trkpt>
      <trkpt lat="46.17397" lon="6.25806">
        <ele>500.4</ele>
        <time>2021-03-27T11:41:24Z</time>
      </trkpt>
      <trkpt lat="46.17397" lon="6.25803">
        <ele>500.6</ele>
        <time>2021-03-27T11:41:23Z</time>
      </trkpt>
      <trkpt lat="46.17397" lon="6.25799">
        <ele>500.6</ele>
        <time>2021-03-27T11:41:22Z</time>
      </trkpt>
      <trkpt lat="46.17398" lon="6.25795">
        <ele>500.6</ele>
        <time>2021-03-27T11:41:21Z</time>
      </trkpt>
      <trkpt lat="46.17398" lon="6.25791">
        <ele>500.6</ele>
        <time>2021-03-27T11:41:20Z</time>
      </trkpt>
      <trkpt lat="46.17398" lon="6.25786">
        <ele>500.6</ele>
        <time>2021-03-27T11:41:19Z</time>
      </trkpt>
      <trkpt lat="46.17399" lon="6.25782">
        <ele>500.6</ele>
        <time>2021-03-27T11:41:18Z</time>
      </trkpt>
      <trkpt lat="46.17399" lon="6.25778">
        <ele>500.6</ele>
        <time>2021-03-27T11:41:17Z</time>
      </trkpt>
      <trkpt lat="46.174" lon="6.25773">
        <ele>500.8</ele>
        <time>2021-03-27T11:41:16Z</time>
      </trkpt>
      <trkpt lat="46.174" lon="6.25769">
        <ele>501</ele>
        <time>2021-03-27T11:41:15Z</time>
      </trkpt>
      <trkpt lat="46.17401" lon="6.25765">
        <ele>500.8</ele>
        <time>2021-03-27T11:41:14Z</time>
      </trkpt>
      <trkpt lat="46.17403" lon="6.25762">
        <ele>500.8</ele>
        <time>2021-03-27T11:41:13Z</time>
      </trkpt>
      <trkpt lat="46.17406" lon="6.2576">
        <ele>501</ele>
        <time>2021-03-27T11:41:12Z</time>
      </trkpt>
      <trkpt lat="46.17408" lon="6.25761">
        <ele>501</ele>
        <time>2021-03-27T11:41:11Z</time>
      </trkpt>
      <trkpt lat="46.1741" lon="6.25764">
        <ele>500.8</ele>
        <time>2021-03-27T11:41:10Z</time>
      </trkpt>
      <trkpt lat="46.17411" lon="6.25767">
        <ele>500.8</ele>
        <time>2021-03-27T11:41:09Z</time>
      </trkpt>
      <trkpt lat="46.17412" lon="6.25771">
        <ele>501</ele>
        <time>2021-03-27T11:41:08Z</time>
      </trkpt>
      <trkpt lat="46.17414" lon="6.25775">
        <ele>500.8</ele>
        <time>2021-03-27T11:41:07Z</time>
      </trkpt>
      <trkpt lat="46.17415" lon="6.25779">
        <ele>500.8</ele>
        <time>2021-03-27T11:41:06Z</time>
      </trkpt>
      <trkpt lat="46.17418" lon="6.25783">
        <ele>500.6</ele>
        <time>2021-03-27T11:41:05Z</time>
      </trkpt>
      <trkpt lat="46.17421" lon="6.25784">
        <ele>500.4</ele>
        <time>2021-03-27T11:41:04Z</time>
      </trkpt>
      <trkpt lat="46.17423" lon="6.25784">
        <ele>500.2</ele>
        <time>2021-03-27T11:41:03Z</time>
      </trkpt>
      <trkpt lat="46.17426" lon="6.25783">
        <ele>500</ele>
        <time>2021-03-27T11:41:02Z</time>
      </trkpt>
      <trkpt lat="46.17429" lon="6.2578">
        <ele>499.6</ele>
        <time>2021-03-27T11:41:01Z</time>
      </trkpt>
      <trkpt lat="46.17431" lon="6.25777">
        <ele>499.4</ele>
        <time>2021-03-27T11:41:00Z</time>
      </trkpt>
      <trkpt lat="46.17434" lon="6.25773">
        <ele>499.2</ele>
        <time>2021-03-27T11:40:59Z</time>
      </trkpt>
      <trkpt lat="46.17436" lon="6.25769">
        <ele>499</ele>
        <time>2021-03-27T11:40:58Z</time>
      </trkpt>
      <trkpt lat="46.17439" lon="6.25765">
        <ele>498.8</ele>
        <time>2021-03-27T11:40:57Z</time>
      </trkpt>
      <trkpt lat="46.17442" lon="6.25761">
        <ele>498.8</ele>
        <time>2021-03-27T11:40:56Z</time>
      </trkpt>
      <trkpt lat="46.17445" lon="6.25758">
        <ele>498.4</ele>
        <time>2021-03-27T11:40:55Z</time>
      </trkpt>
      <trkpt lat="46.17448" lon="6.25755">
        <ele>498.2</ele>
        <time>2021-03-27T11:40:54Z</time>
      </trkpt>
      <trkpt lat="46.17452" lon="6.25752">
        <ele>498</ele>
        <time>2021-03-27T11:40:53Z</time>
      </trkpt>
      <trkpt lat="46.17455" lon="6.2575">
        <ele>497.6</ele>
        <time>2021-03-27T11:40:52Z</time>
      </trkpt>
      <trkpt lat="46.17459" lon="6.25747">
        <ele>497.4</ele>
        <time>2021-03-27T11:40:51Z</time>
      </trkpt>
      <trkpt lat="46.17462" lon="6.25744">
        <ele>497</ele>
        <time>2021-03-27T11:40:50Z</time>
      </trkpt>
      <trkpt lat="46.17465" lon="6.25741">
        <ele>496.6</ele>
        <time>2021-03-27T11:40:49Z</time>
      </trkpt>
      <trkpt lat="46.17469" lon="6.25738">
        <ele>496.2</ele>
        <time>2021-03-27T11:40:48Z</time>
      </trkpt>
      <trkpt lat="46.17472" lon="6.25736">
        <ele>495.8</ele>
        <time>2021-03-27T11:40:47Z</time>
      </trkpt>
      <trkpt lat="46.17476" lon="6.25733">
        <ele>495.4</ele>
        <time>2021-03-27T11:40:46Z</time>
      </trkpt>
      <trkpt lat="46.17479" lon="6.2573">
        <ele>495</ele>
        <time>2021-03-27T11:40:45Z</time>
      </trkpt>
      <trkpt lat="46.17482" lon="6.25727">
        <ele>494.8</ele>
        <time>2021-03-27T11:40:44Z</time>
      </trkpt>
      <trkpt lat="46.17485" lon="6.25725">
        <ele>494.4</ele>
        <time>2021-03-27T11:40:43Z</time>
      </trkpt>
      <trkpt lat="46.17489" lon="6.25722">
        <ele>494</ele>
        <time>2021-03-27T11:40:42Z</time>
      </trkpt>
      <trkpt lat="46.17492" lon="6.25719">
        <ele>493.6</ele>
        <time>2021-03-27T11:40:41Z</time>
      </trkpt>
      <trkpt lat="46.17495" lon="6.25716">
        <ele>493.4</ele>
        <time>2021-03-27T11:40:40Z</time>
      </trkpt>
      <trkpt lat="46.17498" lon="6.25713">
        <ele>493.4</ele>
        <time>2021-03-27T11:40:39Z</time>
      </trkpt>
      <trkpt lat="46.17502" lon="6.2571">
        <ele>492.8</ele>
        <time>2021-03-27T11:40:38Z</time>
      </trkpt>
      <trkpt lat="46.17505" lon="6.25707">
        <ele>492.6</ele>
        <time>2021-03-27T11:40:37Z</time>
      </trkpt>
      <trkpt lat="46.17508" lon="6.25703">
        <ele>492.2</ele>
        <time>2021-03-27T11:40:36Z</time>
      </trkpt>
      <trkpt lat="46.17512" lon="6.257">
        <ele>491.8</ele>
        <time>2021-03-27T11:40:35Z</time>
      </trkpt>
      <trkpt lat="46.17515" lon="6.25697">
        <ele>491.8</ele>
        <time>2021-03-27T11:40:34Z</time>
      </trkpt>
      <trkpt lat="46.17519" lon="6.25694">
        <ele>491.6</ele>
        <time>2021-03-27T11:40:33Z</time>
      </trkpt>
      <trkpt lat="46.17522" lon="6.25691">
        <ele>491.4</ele>
        <time>2021-03-27T11:40:32Z</time>
      </trkpt>
      <trkpt lat="46.17526" lon="6.25688">
        <ele>491.2</ele>
        <time>2021-03-27T11:40:31Z</time>
      </trkpt>
      <trkpt lat="46.1753" lon="6.25684">
        <ele>491.2</ele>
        <time>2021-03-27T11:40:30Z</time>
      </trkpt>
      <trkpt lat="46.17534" lon="6.25681">
        <ele>491</ele>
        <time>2021-03-27T11:40:29Z</time>
      </trkpt>
      <trkpt lat="46.17539" lon="6.25677">
        <ele>491</ele>
        <time>2021-03-27T11:40:28Z</time>
      </trkpt>
      <trkpt lat="46.17543" lon="6.25673">
        <ele>490.8</ele>
        <time>2021-03-27T11:40:27Z</time>
      </trkpt>
      <trkpt lat="46.17547" lon="6.25669">
        <ele>490.6</ele>
        <time>2021-03-27T11:40:26Z</time>
      </trkpt>
      <trkpt lat="46.17552" lon="6.25666">
        <ele>490.4</ele>
        <time>2021-03-27T11:40:25Z</time>
      </trkpt>
      <trkpt lat="46.17556" lon="6.25662">
        <ele>490.2</ele>
        <time>2021-03-27T11:40:24Z</time>
      </trkpt>
      <trkpt lat="46.17561" lon="6.25659">
        <ele>490.2</ele>
        <time>2021-03-27T11:40:23Z</time>
      </trkpt>
      <trkpt lat="46.17566" lon="6.25657">
        <ele>490</ele>
        <time>2021-03-27T11:40:22Z</time>
      </trkpt>
      <trkpt lat="46.17571" lon="6.25654">
        <ele>490</ele>
        <time>2021-03-27T11:40:21Z</time>
      </trkpt>
      <trkpt lat="46.17576" lon="6.25651">
        <ele>489.8</ele>
        <time>2021-03-27T11:40:20Z</time>
      </trkpt>
      <trkpt lat="46.17581" lon="6.25648">
        <ele>489.4</ele>
        <time>2021-03-27T11:40:19Z</time>
      </trkpt>
      <trkpt lat="46.17587" lon="6.25645">
        <ele>489.4</ele>
        <time>2021-03-27T11:40:18Z</time>
      </trkpt>
      <trkpt lat="46.17592" lon="6.25642">
        <ele>489.4</ele>
        <time>2021-03-27T11:40:17Z</time>
      </trkpt>
      <trkpt lat="46.17597" lon="6.25639">
        <ele>489</ele>
        <time>2021-03-27T11:40:16Z</time>
      </trkpt>
      <trkpt lat="46.17602" lon="6.25637">
        <ele>488.8</ele>
        <time>2021-03-27T11:40:15Z</time>
      </trkpt>
      <trkpt lat="46.17608" lon="6.25634">
        <ele>488.8</ele>
        <time>2021-03-27T11:40:14Z</time>
      </trkpt>
      <trkpt lat="46.17613" lon="6.25631">
        <ele>488.6</ele>
        <time>2021-03-27T11:40:13Z</time>
      </trkpt>
      <trkpt lat="46.17618" lon="6.25628">
        <ele>488.6</ele>
        <time>2021-03-27T11:40:12Z</time>
      </trkpt>
      <trkpt lat="46.17624" lon="6.25625">
        <ele>488.2</ele>
        <time>2021-03-27T11:40:11Z</time>
      </trkpt>
      <trkpt lat="46.17629" lon="6.25622">
        <ele>488.2</ele>
        <time>2021-03-27T11:40:10Z</time>
      </trkpt>
      <trkpt lat="46.17635" lon="6.25618">
        <ele>488</ele>
        <time>2021-03-27T11:40:09Z</time>
      </trkpt>
      <trkpt lat="46.17641" lon="6.25615">
        <ele>488</ele>
        <time>2021-03-27T11:40:08Z</time>
      </trkpt>
      <trkpt lat="46.17646" lon="6.25612">
        <ele>488</ele>
        <time>2021-03-27T11:40:07Z</time>
      </trkpt>
      <trkpt lat="46.17652" lon="6.25609">
        <ele>488</ele>
        <time>2021-03-27T11:40:06Z</time>
      </trkpt>
      <trkpt lat="46.17658" lon="6.25606">
        <ele>488</ele>
        <time>2021-03-27T11:40:05Z</time>
      </trkpt>
      <trkpt lat="46.17664" lon="6.25603">
        <ele>488</ele>
        <time>2021-03-27T11:40:04Z</time>
      </trkpt>
      <trkpt lat="46.1767" lon="6.256">
        <ele>488</ele>
        <time>2021-03-27T11:40:03Z</time>
      </trkpt>
      <trkpt lat="46.17676" lon="6.25596">
        <ele>487.8</ele>
        <time>2021-03-27T11:40:02Z</time>
      </trkpt>
      <trkpt lat="46.17682" lon="6.25593">
        <ele>487.8</ele>
        <time>2021-03-27T11:40:01Z</time>
      </trkpt>
      <trkpt lat="46.17688" lon="6.25589">
        <ele>488</ele>
        <time>2021-03-27T11:40:00Z</time>
      </trkpt>
      <trkpt lat="46.17694" lon="6.25586">
        <ele>488</ele>
        <time>2021-03-27T11:39:59Z</time>
      </trkpt>
      <trkpt lat="46.17701" lon="6.25582">
        <ele>488</ele>
        <time>2021-03-27T11:39:58Z</time>
      </trkpt>
      <trkpt lat="46.17708" lon="6.25578">
        <ele>488</ele>
        <time>2021-03-27T11:39:57Z</time>
      </trkpt>
      <trkpt lat="46.17715" lon="6.25575">
        <ele>488</ele>
        <time>2021-03-27T11:39:56Z</time>
      </trkpt>
      <trkpt lat="46.17722" lon="6.25571">
        <ele>488</ele>
        <time>2021-03-27T11:39:55Z</time>
      </trkpt>
      <trkpt lat="46.1773" lon="6.25567">
        <ele>488.2</ele>
        <time>2021-03-27T11:39:54Z</time>
      </trkpt>
      <trkpt lat="46.17738" lon="6.25563">
        <ele>488.2</ele>
        <time>2021-03-27T11:39:53Z</time>
      </trkpt>
      <trkpt lat="46.17745" lon="6.2556">
        <ele>488.4</ele>
        <time>2021-03-27T11:39:52Z</time>
      </trkpt>
      <trkpt lat="46.17754" lon="6.25557">
        <ele>488.4</ele>
        <time>2021-03-27T11:39:51Z</time>
      </trkpt>
      <trkpt lat="46.17762" lon="6.25554">
        <ele>488.6</ele>
        <time>2021-03-27T11:39:50Z</time>
      </trkpt>
      <trkpt lat="46.17771" lon="6.25552">
        <ele>488.6</ele>
        <time>2021-03-27T11:39:49Z</time>
      </trkpt>
      <trkpt lat="46.17781" lon="6.25551">
        <ele>489.2</ele>
        <time>2021-03-27T11:39:48Z</time>
      </trkpt>
      <trkpt lat="46.1779" lon="6.2555">
        <ele>489.4</ele>
        <time>2021-03-27T11:39:47Z</time>
      </trkpt>
      <trkpt lat="46.178" lon="6.25549">
        <ele>490.4</ele>
        <time>2021-03-27T11:39:46Z</time>
      </trkpt>
      <trkpt lat="46.17809" lon="6.25548">
        <ele>490.8</ele>
        <time>2021-03-27T11:39:45Z</time>
      </trkpt>
      <trkpt lat="46.17818" lon="6.25548">
        <ele>491.2</ele>
        <time>2021-03-27T11:39:44Z</time>
      </trkpt>
      <trkpt lat="46.17827" lon="6.25548">
        <ele>491.6</ele>
        <time>2021-03-27T11:39:43Z</time>
      </trkpt>
      <trkpt lat="46.17837" lon="6.25549">
        <ele>492.6</ele>
        <time>2021-03-27T11:39:42Z</time>
      </trkpt>
      <trkpt lat="46.17847" lon="6.25551">
        <ele>493</ele>
        <time>2021-03-27T11:39:41Z</time>
      </trkpt>
      <trkpt lat="46.17856" lon="6.25553">
        <ele>493.8</ele>
        <time>2021-03-27T11:39:40Z</time>
      </trkpt>
      <trkpt lat="46.17865" lon="6.25554">
        <ele>494</ele>
        <time>2021-03-27T11:39:39Z</time>
      </trkpt>
      <trkpt lat="46.17875" lon="6.25555">
        <ele>494.2</ele>
        <time>2021-03-27T11:39:38Z</time>
      </trkpt>
      <trkpt lat="46.17884" lon="6.25555">
        <ele>494.2</ele>
        <time>2021-03-27T11:39:37Z</time>
      </trkpt>
      <trkpt lat="46.17892" lon="6.25555">
        <ele>494</ele>
        <time>2021-03-27T11:39:36Z</time>
      </trkpt>
      <trkpt lat="46.17901" lon="6.25554">
        <ele>494.2</ele>
        <time>2021-03-27T11:39:35Z</time>
      </trkpt>
      <trkpt lat="46.17909" lon="6.25553">
        <ele>494.2</ele>
        <time>2021-03-27T11:39:34Z</time>
      </trkpt>
      <trkpt lat="46.17917" lon="6.25551">
        <ele>494.2</ele>
        <time>2021-03-27T11:39:33Z</time>
      </trkpt>
      <trkpt lat="46.17925" lon="6.25549">
        <ele>494.2</ele>
        <time>2021-03-27T11:39:32Z</time>
      </trkpt>
      <trkpt lat="46.17933" lon="6.25548">
        <ele>494.2</ele>
        <time>2021-03-27T11:39:31Z</time>
      </trkpt>
      <trkpt lat="46.17939" lon="6.25546">
        <ele>494</ele>
        <time>2021-03-27T11:39:30Z</time>
      </trkpt>
      <trkpt lat="46.17946" lon="6.25544">
        <ele>494</ele>
        <time>2021-03-27T11:39:29Z</time>
      </trkpt>
      <trkpt lat="46.17953" lon="6.25542">
        <ele>493.8</ele>
        <time>2021-03-27T11:39:28Z</time>
      </trkpt>
      <trkpt lat="46.1796" lon="6.2554">
        <ele>493.6</ele>
        <time>2021-03-27T11:39:27Z</time>
      </trkpt>
      <trkpt lat="46.17966" lon="6.25537">
        <ele>493.4</ele>
        <time>2021-03-27T11:39:26Z</time>
      </trkpt>
      <trkpt lat="46.17972" lon="6.25535">
        <ele>493.2</ele>
        <time>2021-03-27T11:39:25Z</time>
      </trkpt>
      <trkpt lat="46.17978" lon="6.25532">
        <ele>492.8</ele>
        <time>2021-03-27T11:39:24Z</time>
      </trkpt>
      <trkpt lat="46.17983" lon="6.25529">
        <ele>492.8</ele>
        <time>2021-03-27T11:39:23Z</time>
      </trkpt>
      <trkpt lat="46.17989" lon="6.25526">
        <ele>492.6</ele>
        <time>2021-03-27T11:39:22Z</time>
      </trkpt>
      <trkpt lat="46.17994" lon="6.25523">
        <ele>492.4</ele>
        <time>2021-03-27T11:39:21Z</time>
      </trkpt>
      <trkpt lat="46.17999" lon="6.2552">
        <ele>492.2</ele>
        <time>2021-03-27T11:39:20Z</time>
      </trkpt>
      <trkpt lat="46.18004" lon="6.25516">
        <ele>492</ele>
        <time>2021-03-27T11:39:19Z</time>
      </trkpt>
      <trkpt lat="46.18008" lon="6.25513">
        <ele>491.8</ele>
        <time>2021-03-27T11:39:18Z</time>
      </trkpt>
      <trkpt lat="46.18012" lon="6.25509">
        <ele>491.8</ele>
        <time>2021-03-27T11:39:17Z</time>
      </trkpt>
      <trkpt lat="46.18016" lon="6.25505">
        <ele>491.4</ele>
        <time>2021-03-27T11:39:16Z</time>
      </trkpt>
      <trkpt lat="46.1802" lon="6.25501">
        <ele>491.2</ele>
        <time>2021-03-27T11:39:15Z</time>
      </trkpt>
      <trkpt lat="46.18024" lon="6.25497">
        <ele>490.8</ele>
        <time>2021-03-27T11:39:14Z</time>
      </trkpt>
      <trkpt lat="46.18027" lon="6.25492">
        <ele>490.4</ele>
        <time>2021-03-27T11:39:13Z</time>
      </trkpt>
      <trkpt lat="46.18031" lon="6.25488">
        <ele>490</ele>
        <time>2021-03-27T11:39:12Z</time>
      </trkpt>
      <trkpt lat="46.18034" lon="6.25484">
        <ele>489.6</ele>
        <time>2021-03-27T11:39:11Z</time>
      </trkpt>
      <trkpt lat="46.18038" lon="6.25479">
        <ele>489.2</ele>
        <time>2021-03-27T11:39:10Z</time>
      </trkpt>
      <trkpt lat="46.18041" lon="6.25474">
        <ele>488.8</ele>
        <time>2021-03-27T11:39:09Z</time>
      </trkpt>
      <trkpt lat="46.18044" lon="6.25469">
        <ele>488.4</ele>
        <time>2021-03-27T11:39:08Z</time>
      </trkpt>
      <trkpt lat="46.18047" lon="6.25464">
        <ele>488</ele>
        <time>2021-03-27T11:39:07Z</time>
      </trkpt>
      <trkpt lat="46.18051" lon="6.25459">
        <ele>487.4</ele>
        <time>2021-03-27T11:39:06Z</time>
      </trkpt>
      <trkpt lat="46.18055" lon="6.25454">
        <ele>487.4</ele>
        <time>2021-03-27T11:39:05Z</time>
      </trkpt>
      <trkpt lat="46.18058" lon="6.25449">
        <ele>487.4</ele>
        <time>2021-03-27T11:39:04Z</time>
      </trkpt>
      <trkpt lat="46.18061" lon="6.25444">
        <ele>487.2</ele>
        <time>2021-03-27T11:39:03Z</time>
      </trkpt>
      <trkpt lat="46.18064" lon="6.2544">
        <ele>487.2</ele>
        <time>2021-03-27T11:39:02Z</time>
      </trkpt>
      <trkpt lat="46.18068" lon="6.25435">
        <ele>487</ele>
        <time>2021-03-27T11:39:01Z</time>
      </trkpt>
      <trkpt lat="46.18072" lon="6.2543">
        <ele>487</ele>
        <time>2021-03-27T11:39:00Z</time>
      </trkpt>
      <trkpt lat="46.18076" lon="6.25426">
        <ele>486.6</ele>
        <time>2021-03-27T11:38:59Z</time>
      </trkpt>
      <trkpt lat="46.1808" lon="6.25421">
        <ele>486.4</ele>
        <time>2021-03-27T11:38:58Z</time>
      </trkpt>
      <trkpt lat="46.18085" lon="6.25417">
        <ele>486.2</ele>
        <time>2021-03-27T11:38:57Z</time>
      </trkpt>
      <trkpt lat="46.1809" lon="6.25413">
        <ele>486</ele>
        <time>2021-03-27T11:38:56Z</time>
      </trkpt>
      <trkpt lat="46.18094" lon="6.25409">
        <ele>485.8</ele>
        <time>2021-03-27T11:38:55Z</time>
      </trkpt>
      <trkpt lat="46.18099" lon="6.25405">
        <ele>486</ele>
        <time>2021-03-27T11:38:54Z</time>
      </trkpt>
      <trkpt lat="46.18104" lon="6.25401">
        <ele>485.8</ele>
        <time>2021-03-27T11:38:53Z</time>
      </trkpt>
      <trkpt lat="46.18109" lon="6.25397">
        <ele>485.6</ele>
        <time>2021-03-27T11:38:52Z</time>
      </trkpt>
      <trkpt lat="46.18114" lon="6.25394">
        <ele>485.6</ele>
        <time>2021-03-27T11:38:51Z</time>
      </trkpt>
      <trkpt lat="46.1812" lon="6.25391">
        <ele>485.4</ele>
        <time>2021-03-27T11:38:50Z</time>
      </trkpt>
      <trkpt lat="46.18125" lon="6.25387">
        <ele>485.2</ele>
        <time>2021-03-27T11:38:49Z</time>
      </trkpt>
      <trkpt lat="46.1813" lon="6.25384">
        <ele>485.2</ele>
        <time>2021-03-27T11:38:48Z</time>
      </trkpt>
      <trkpt lat="46.18135" lon="6.25381">
        <ele>485.2</ele>
        <time>2021-03-27T11:38:47Z</time>
      </trkpt>
      <trkpt lat="46.1814" lon="6.25379">
        <ele>485</ele>
        <time>2021-03-27T11:38:46Z</time>
      </trkpt>
      <trkpt lat="46.18145" lon="6.25376">
        <ele>485</ele>
        <time>2021-03-27T11:38:45Z</time>
      </trkpt>
      <trkpt lat="46.1815" lon="6.25373">
        <ele>484.6</ele>
        <time>2021-03-27T11:38:44Z</time>
      </trkpt>
      <trkpt lat="46.18155" lon="6.2537">
        <ele>484.6</ele>
        <time>2021-03-27T11:38:43Z</time>
      </trkpt>
      <trkpt lat="46.1816" lon="6.25367">
        <ele>484.4</ele>
        <time>2021-03-27T11:38:42Z</time>
      </trkpt>
      <trkpt lat="46.18165" lon="6.25364">
        <ele>484.6</ele>
        <time>2021-03-27T11:38:41Z</time>
      </trkpt>
      <trkpt lat="46.1817" lon="6.25361">
        <ele>484.4</ele>
        <time>2021-03-27T11:38:40Z</time>
      </trkpt>
      <trkpt lat="46.18175" lon="6.25358">
        <ele>484.2</ele>
        <time>2021-03-27T11:38:39Z</time>
      </trkpt>
      <trkpt lat="46.1818" lon="6.25355">
        <ele>484.4</ele>
        <time>2021-03-27T11:38:38Z</time>
      </trkpt>
      <trkpt lat="46.18184" lon="6.25352">
        <ele>484.2</ele>
        <time>2021-03-27T11:38:37Z</time>
      </trkpt>
      <trkpt lat="46.18189" lon="6.25349">
        <ele>484.2</ele>
        <time>2021-03-27T11:38:36Z</time>
      </trkpt>
      <trkpt lat="46.18194" lon="6.25346">
        <ele>484.2</ele>
        <time>2021-03-27T11:38:35Z</time>
      </trkpt>
      <trkpt lat="46.18199" lon="6.25343">
        <ele>484</ele>
        <time>2021-03-27T11:38:34Z</time>
      </trkpt>
      <trkpt lat="46.18204" lon="6.2534">
        <ele>484</ele>
        <time>2021-03-27T11:38:33Z</time>
      </trkpt>
      <trkpt lat="46.18209" lon="6.25337">
        <ele>483.8</ele>
        <time>2021-03-27T11:38:32Z</time>
      </trkpt>
      <trkpt lat="46.18213" lon="6.25334">
        <ele>483.8</ele>
        <time>2021-03-27T11:38:31Z</time>
      </trkpt>
      <trkpt lat="46.18218" lon="6.2533">
        <ele>483.6</ele>
        <time>2021-03-27T11:38:30Z</time>
      </trkpt>
      <trkpt lat="46.18223" lon="6.25327">
        <ele>483.6</ele>
        <time>2021-03-27T11:38:29Z</time>
      </trkpt>
      <trkpt lat="46.18228" lon="6.25324">
        <ele>483.6</ele>
        <time>2021-03-27T11:38:28Z</time>
      </trkpt>
      <trkpt lat="46.18233" lon="6.25322">
        <ele>483.4</ele>
        <time>2021-03-27T11:38:27Z</time>
      </trkpt>
      <trkpt lat="46.18238" lon="6.25319">
        <ele>483</ele>
        <time>2021-03-27T11:38:26Z</time>
      </trkpt>
      <trkpt lat="46.18243" lon="6.25316">
        <ele>483</ele>
        <time>2021-03-27T11:38:25Z</time>
      </trkpt>
      <trkpt lat="46.18248" lon="6.25314">
        <ele>482.6</ele>
        <time>2021-03-27T11:38:24Z</time>
      </trkpt>
      <trkpt lat="46.18252" lon="6.25311">
        <ele>482.4</ele>
        <time>2021-03-27T11:38:23Z</time>
      </trkpt>
      <trkpt lat="46.18256" lon="6.25308">
        <ele>482</ele>
        <time>2021-03-27T11:38:22Z</time>
      </trkpt>
      <trkpt lat="46.18261" lon="6.25305">
        <ele>481.8</ele>
        <time>2021-03-27T11:38:21Z</time>
      </trkpt>
      <trkpt lat="46.18265" lon="6.25301">
        <ele>481.6</ele>
        <time>2021-03-27T11:38:20Z</time>
      </trkpt>
      <trkpt lat="46.18268" lon="6.25298">
        <ele>481.4</ele>
        <time>2021-03-27T11:38:19Z</time>
      </trkpt>
      <trkpt lat="46.18273" lon="6.25295">
        <ele>481.2</ele>
        <time>2021-03-27T11:38:18Z</time>
      </trkpt>
      <trkpt lat="46.18277" lon="6.25292">
        <ele>481</ele>
        <time>2021-03-27T11:38:17Z</time>
      </trkpt>
      <trkpt lat="46.18281" lon="6.2529">
        <ele>480.6</ele>
        <time>2021-03-27T11:38:16Z</time>
      </trkpt>
      <trkpt lat="46.18285" lon="6.25287">
        <ele>480</ele>
        <time>2021-03-27T11:38:15Z</time>
      </trkpt>
      <trkpt lat="46.1829" lon="6.25284">
        <ele>480</ele>
        <time>2021-03-27T11:38:14Z</time>
      </trkpt>
      <trkpt lat="46.18294" lon="6.25281">
        <ele>480</ele>
        <time>2021-03-27T11:38:13Z</time>
      </trkpt>
      <trkpt lat="46.18299" lon="6.25278">
        <ele>479.8</ele>
        <time>2021-03-27T11:38:12Z</time>
      </trkpt>
      <trkpt lat="46.18303" lon="6.25275">
        <ele>479.6</ele>
        <time>2021-03-27T11:38:11Z</time>
      </trkpt>
      <trkpt lat="46.18308" lon="6.25273">
        <ele>479.2</ele>
        <time>2021-03-27T11:38:10Z</time>
      </trkpt>
      <trkpt lat="46.18312" lon="6.2527">
        <ele>479.2</ele>
        <time>2021-03-27T11:38:09Z</time>
      </trkpt>
      <trkpt lat="46.18316" lon="6.25267">
        <ele>479</ele>
        <time>2021-03-27T11:38:08Z</time>
      </trkpt>
      <trkpt lat="46.18319" lon="6.25265">
        <ele>479</ele>
        <time>2021-03-27T11:38:07Z</time>
      </trkpt>
      <trkpt lat="46.18323" lon="6.25262">
        <ele>478.6</ele>
        <time>2021-03-27T11:38:06Z</time>
      </trkpt>
      <trkpt lat="46.18327" lon="6.25259">
        <ele>478.4</ele>
        <time>2021-03-27T11:38:05Z</time>
      </trkpt>
      <trkpt lat="46.18331" lon="6.25257">
        <ele>478</ele>
        <time>2021-03-27T11:38:04Z</time>
      </trkpt>
      <trkpt lat="46.18335" lon="6.25254">
        <ele>477.8</ele>
        <time>2021-03-27T11:38:03Z</time>
      </trkpt>
      <trkpt lat="46.18339" lon="6.25251">
        <ele>477.6</ele>
        <time>2021-03-27T11:38:02Z</time>
      </trkpt>
      <trkpt lat="46.18344" lon="6.25248">
        <ele>477.4</ele>
        <time>2021-03-27T11:38:01Z</time>
      </trkpt>
      <trkpt lat="46.18348" lon="6.25245">
        <ele>477</ele>
        <time>2021-03-27T11:38:00Z</time>
      </trkpt>
      <trkpt lat="46.18352" lon="6.25242">
        <ele>476.8</ele>
        <time>2021-03-27T11:37:59Z</time>
      </trkpt>
      <trkpt lat="46.18357" lon="6.25239">
        <ele>476.8</ele>
        <time>2021-03-27T11:37:58Z</time>
      </trkpt>
      <trkpt lat="46.18361" lon="6.25236">
        <ele>476.4</ele>
        <time>2021-03-27T11:37:57Z</time>
      </trkpt>
      <trkpt lat="46.18365" lon="6.25233">
        <ele>476.4</ele>
        <time>2021-03-27T11:37:56Z</time>
      </trkpt>
      <trkpt lat="46.1837" lon="6.25229">
        <ele>476.2</ele>
        <time>2021-03-27T11:37:55Z</time>
      </trkpt>
      <trkpt lat="46.18375" lon="6.25225">
        <ele>476.2</ele>
        <time>2021-03-27T11:37:54Z</time>
      </trkpt>
      <trkpt lat="46.1838" lon="6.25222">
        <ele>476</ele>
        <time>2021-03-27T11:37:53Z</time>
      </trkpt>
      <trkpt lat="46.18384" lon="6.25219">
        <ele>476</ele>
        <time>2021-03-27T11:37:52Z</time>
      </trkpt>
      <trkpt lat="46.18389" lon="6.25216">
        <ele>475.8</ele>
        <time>2021-03-27T11:37:51Z</time>
      </trkpt>
      <trkpt lat="46.18395" lon="6.25212">
        <ele>475.6</ele>
        <time>2021-03-27T11:37:50Z</time>
      </trkpt>
      <trkpt lat="46.184" lon="6.25209">
        <ele>475.4</ele>
        <time>2021-03-27T11:37:49Z</time>
      </trkpt>
      <trkpt lat="46.18405" lon="6.25206">
        <ele>475.6</ele>
        <time>2021-03-27T11:37:48Z</time>
      </trkpt>
      <trkpt lat="46.1841" lon="6.25203">
        <ele>475.2</ele>
        <time>2021-03-27T11:37:47Z</time>
      </trkpt>
      <trkpt lat="46.18415" lon="6.252">
        <ele>475</ele>
        <time>2021-03-27T11:37:46Z</time>
      </trkpt>
      <trkpt lat="46.18421" lon="6.25198">
        <ele>475</ele>
        <time>2021-03-27T11:37:45Z</time>
      </trkpt>
      <trkpt lat="46.18426" lon="6.25196">
        <ele>475</ele>
        <time>2021-03-27T11:37:44Z</time>
      </trkpt>
      <trkpt lat="46.18431" lon="6.25194">
        <ele>474.8</ele>
        <time>2021-03-27T11:37:43Z</time>
      </trkpt>
      <trkpt lat="46.18437" lon="6.25192">
        <ele>474.6</ele>
        <time>2021-03-27T11:37:42Z</time>
      </trkpt>
      <trkpt lat="46.18442" lon="6.2519">
        <ele>474.4</ele>
        <time>2021-03-27T11:37:41Z</time>
      </trkpt>
      <trkpt lat="46.18447" lon="6.25188">
        <ele>474</ele>
        <time>2021-03-27T11:37:40Z</time>
      </trkpt>
      <trkpt lat="46.18452" lon="6.25186">
        <ele>473.8</ele>
        <time>2021-03-27T11:37:39Z</time>
      </trkpt>
      <trkpt lat="46.18457" lon="6.25184">
        <ele>473.8</ele>
        <time>2021-03-27T11:37:38Z</time>
      </trkpt>
      <trkpt lat="46.18462" lon="6.25182">
        <ele>473.8</ele>
        <time>2021-03-27T11:37:37Z</time>
      </trkpt>
      <trkpt lat="46.18467" lon="6.25181">
        <ele>473.8</ele>
        <time>2021-03-27T11:37:36Z</time>
      </trkpt>
      <trkpt lat="46.18472" lon="6.25179">
        <ele>473.8</ele>
        <time>2021-03-27T11:37:35Z</time>
      </trkpt>
      <trkpt lat="46.18477" lon="6.25178">
        <ele>473.8</ele>
        <time>2021-03-27T11:37:34Z</time>
      </trkpt>
      <trkpt lat="46.18482" lon="6.25177">
        <ele>473.8</ele>
        <time>2021-03-27T11:37:33Z</time>
      </trkpt>
      <trkpt lat="46.18487" lon="6.25176">
        <ele>473.6</ele>
        <time>2021-03-27T11:37:32Z</time>
      </trkpt>
      <trkpt lat="46.18492" lon="6.25174">
        <ele>473.6</ele>
        <time>2021-03-27T11:37:31Z</time>
      </trkpt>
      <trkpt lat="46.18497" lon="6.25173">
        <ele>473.4</ele>
        <time>2021-03-27T11:37:30Z</time>
      </trkpt>
      <trkpt lat="46.18502" lon="6.25172">
        <ele>473.6</ele>
        <time>2021-03-27T11:37:29Z</time>
      </trkpt>
      <trkpt lat="46.18507" lon="6.2517">
        <ele>473.4</ele>
        <time>2021-03-27T11:37:28Z</time>
      </trkpt>
      <trkpt lat="46.18513" lon="6.25169">
        <ele>473.4</ele>
        <time>2021-03-27T11:37:27Z</time>
      </trkpt>
      <trkpt lat="46.18518" lon="6.25168">
        <ele>473.4</ele>
        <time>2021-03-27T11:37:26Z</time>
      </trkpt>
      <trkpt lat="46.18523" lon="6.25166">
        <ele>473.4</ele>
        <time>2021-03-27T11:37:25Z</time>
      </trkpt>
      <trkpt lat="46.18528" lon="6.25165">
        <ele>473.4</ele>
        <time>2021-03-27T11:37:24Z</time>
      </trkpt>
      <trkpt lat="46.18534" lon="6.25164">
        <ele>473.2</ele>
        <time>2021-03-27T11:37:23Z</time>
      </trkpt>
      <trkpt lat="46.18539" lon="6.25162">
        <ele>473.2</ele>
        <time>2021-03-27T11:37:22Z</time>
      </trkpt>
      <trkpt lat="46.18544" lon="6.25161">
        <ele>473</ele>
        <time>2021-03-27T11:37:21Z</time>
      </trkpt>
      <trkpt lat="46.18549" lon="6.2516">
        <ele>473</ele>
        <time>2021-03-27T11:37:20Z</time>
      </trkpt>
      <trkpt lat="46.18554" lon="6.25158">
        <ele>472.8</ele>
        <time>2021-03-27T11:37:19Z</time>
      </trkpt>
      <trkpt lat="46.18559" lon="6.25156">
        <ele>472.4</ele>
        <time>2021-03-27T11:37:18Z</time>
      </trkpt>
      <trkpt lat="46.18564" lon="6.25154">
        <ele>472.2</ele>
        <time>2021-03-27T11:37:17Z</time>
      </trkpt>
      <trkpt lat="46.18568" lon="6.25152">
        <ele>472</ele>
        <time>2021-03-27T11:37:16Z</time>
      </trkpt>
      <trkpt lat="46.18571" lon="6.2515">
        <ele>471.6</ele>
        <time>2021-03-27T11:37:15Z</time>
      </trkpt>
      <trkpt lat="46.18574" lon="6.25148">
        <ele>471.6</ele>
        <time>2021-03-27T11:37:14Z</time>
      </trkpt>
      <trkpt lat="46.18577" lon="6.25148">
        <ele>471.4</ele>
        <time>2021-03-27T11:37:13Z</time>
      </trkpt>
      <trkpt lat="46.18579" lon="6.25148">
        <ele>471.4</ele>
        <time>2021-03-27T11:37:12Z</time>
      </trkpt>
      <trkpt lat="46.1858" lon="6.25148">
        <ele>471.2</ele>
        <time>2021-03-27T11:37:11Z</time>
      </trkpt>
      <trkpt lat="46.18583" lon="6.25149">
        <ele>471</ele>
        <time>2021-03-27T11:37:10Z</time>
      </trkpt>
      <trkpt lat="46.18587" lon="6.25148">
        <ele>470.6</ele>
        <time>2021-03-27T11:37:09Z</time>
      </trkpt>
      <trkpt lat="46.18593" lon="6.25148">
        <ele>470.6</ele>
        <time>2021-03-27T11:37:08Z</time>
      </trkpt>
      <trkpt lat="46.18598" lon="6.25146">
        <ele>470.4</ele>
        <time>2021-03-27T11:37:07Z</time>
      </trkpt>
      <trkpt lat="46.18604" lon="6.25144">
        <ele>470.4</ele>
        <time>2021-03-27T11:37:06Z</time>
      </trkpt>
      <trkpt lat="46.1861" lon="6.25143">
        <ele>470.2</ele>
        <time>2021-03-27T11:37:05Z</time>
      </trkpt>
      <trkpt lat="46.18615" lon="6.25142">
        <ele>470.4</ele>
        <time>2021-03-27T11:37:04Z</time>
      </trkpt>
      <trkpt lat="46.18621" lon="6.2514">
        <ele>470.2</ele>
        <time>2021-03-27T11:37:03Z</time>
      </trkpt>
      <trkpt lat="46.18627" lon="6.25138">
        <ele>470</ele>
        <time>2021-03-27T11:37:02Z</time>
      </trkpt>
      <trkpt lat="46.18632" lon="6.25136">
        <ele>469.8</ele>
        <time>2021-03-27T11:37:01Z</time>
      </trkpt>
      <trkpt lat="46.18638" lon="6.25134">
        <ele>469.4</ele>
        <time>2021-03-27T11:37:00Z</time>
      </trkpt>
      <trkpt lat="46.18643" lon="6.25132">
        <ele>469.2</ele>
        <time>2021-03-27T11:36:59Z</time>
      </trkpt>
      <trkpt lat="46.18649" lon="6.2513">
        <ele>469.4</ele>
        <time>2021-03-27T11:36:58Z</time>
      </trkpt>
      <trkpt lat="46.18654" lon="6.25128">
        <ele>469.4</ele>
        <time>2021-03-27T11:36:57Z</time>
      </trkpt>
      <trkpt lat="46.18658" lon="6.25126">
        <ele>469.2</ele>
        <time>2021-03-27T11:36:56Z</time>
      </trkpt>
      <trkpt lat="46.18663" lon="6.25124">
        <ele>469</ele>
        <time>2021-03-27T11:36:55Z</time>
      </trkpt>
      <trkpt lat="46.18668" lon="6.25122">
        <ele>468.8</ele>
        <time>2021-03-27T11:36:54Z</time>
      </trkpt>
      <trkpt lat="46.18673" lon="6.2512">
        <ele>468.6</ele>
        <time>2021-03-27T11:36:53Z</time>
      </trkpt>
      <trkpt lat="46.18677" lon="6.25118">
        <ele>468.6</ele>
        <time>2021-03-27T11:36:52Z</time>
      </trkpt>
      <trkpt lat="46.18682" lon="6.25116">
        <ele>468.4</ele>
        <time>2021-03-27T11:36:51Z</time>
      </trkpt>
      <trkpt lat="46.18687" lon="6.25115">
        <ele>468.2</ele>
        <time>2021-03-27T11:36:50Z</time>
      </trkpt>
      <trkpt lat="46.18691" lon="6.25113">
        <ele>468</ele>
        <time>2021-03-27T11:36:49Z</time>
      </trkpt>
      <trkpt lat="46.18695" lon="6.25111">
        <ele>468.2</ele>
        <time>2021-03-27T11:36:48Z</time>
      </trkpt>
      <trkpt lat="46.187" lon="6.25109">
        <ele>468</ele>
        <time>2021-03-27T11:36:47Z</time>
      </trkpt>
      <trkpt lat="46.18705" lon="6.25107">
        <ele>468</ele>
        <time>2021-03-27T11:36:46Z</time>
      </trkpt>
      <trkpt lat="46.1871" lon="6.25105">
        <ele>467.8</ele>
        <time>2021-03-27T11:36:45Z</time>
      </trkpt>
      <trkpt lat="46.18715" lon="6.25103">
        <ele>467.8</ele>
        <time>2021-03-27T11:36:44Z</time>
      </trkpt>
      <trkpt lat="46.18719" lon="6.25101">
        <ele>467.6</ele>
        <time>2021-03-27T11:36:43Z</time>
      </trkpt>
      <trkpt lat="46.18724" lon="6.25099">
        <ele>467.6</ele>
        <time>2021-03-27T11:36:42Z</time>
      </trkpt>
      <trkpt lat="46.18729" lon="6.25097">
        <ele>467.6</ele>
        <time>2021-03-27T11:36:41Z</time>
      </trkpt>
      <trkpt lat="46.18734" lon="6.25095">
        <ele>467.4</ele>
        <time>2021-03-27T11:36:40Z</time>
      </trkpt>
      <trkpt lat="46.1874" lon="6.25093">
        <ele>467.2</ele>
        <time>2021-03-27T11:36:39Z</time>
      </trkpt>
      <trkpt lat="46.18745" lon="6.25091">
        <ele>467</ele>
        <time>2021-03-27T11:36:38Z</time>
      </trkpt>
      <trkpt lat="46.18751" lon="6.25089">
        <ele>467.2</ele>
        <time>2021-03-27T11:36:37Z</time>
      </trkpt>
      <trkpt lat="46.18756" lon="6.25088">
        <ele>466.8</ele>
        <time>2021-03-27T11:36:36Z</time>
      </trkpt>
      <trkpt lat="46.18762" lon="6.25086">
        <ele>466.6</ele>
        <time>2021-03-27T11:36:35Z</time>
      </trkpt>
      <trkpt lat="46.18767" lon="6.25084">
        <ele>466</ele>
        <time>2021-03-27T11:36:34Z</time>
      </trkpt>
      <trkpt lat="46.18772" lon="6.25083">
        <ele>466</ele>
        <time>2021-03-27T11:36:33Z</time>
      </trkpt>
      <trkpt lat="46.18778" lon="6.25082">
        <ele>466</ele>
        <time>2021-03-27T11:36:32Z</time>
      </trkpt>
      <trkpt lat="46.18783" lon="6.25081">
        <ele>465.8</ele>
        <time>2021-03-27T11:36:31Z</time>
      </trkpt>
      <trkpt lat="46.18789" lon="6.2508">
        <ele>465.8</ele>
        <time>2021-03-27T11:36:30Z</time>
      </trkpt>
      <trkpt lat="46.18794" lon="6.2508">
        <ele>465.6</ele>
        <time>2021-03-27T11:36:29Z</time>
      </trkpt>
      <trkpt lat="46.18799" lon="6.25079">
        <ele>465.6</ele>
        <time>2021-03-27T11:36:28Z</time>
      </trkpt>
      <trkpt lat="46.18805" lon="6.25079">
        <ele>465.4</ele>
        <time>2021-03-27T11:36:27Z</time>
      </trkpt>
      <trkpt lat="46.1881" lon="6.25079">
        <ele>465.6</ele>
        <time>2021-03-27T11:36:26Z</time>
      </trkpt>
      <trkpt lat="46.18815" lon="6.25078">
        <ele>465.6</ele>
        <time>2021-03-27T11:36:25Z</time>
      </trkpt>
      <trkpt lat="46.1882" lon="6.25078">
        <ele>465.4</ele>
        <time>2021-03-27T11:36:24Z</time>
      </trkpt>
      <trkpt lat="46.18826" lon="6.25077">
        <ele>465.2</ele>
        <time>2021-03-27T11:36:23Z</time>
      </trkpt>
      <trkpt lat="46.18831" lon="6.25077">
        <ele>465.4</ele>
        <time>2021-03-27T11:36:22Z</time>
      </trkpt>
      <trkpt lat="46.18836" lon="6.25077">
        <ele>465.4</ele>
        <time>2021-03-27T11:36:21Z</time>
      </trkpt>
      <trkpt lat="46.18842" lon="6.25077">
        <ele>465.4</ele>
        <time>2021-03-27T11:36:20Z</time>
      </trkpt>
      <trkpt lat="46.18847" lon="6.25077">
        <ele>465.2</ele>
        <time>2021-03-27T11:36:19Z</time>
      </trkpt>
      <trkpt lat="46.18853" lon="6.25077">
        <ele>465.2</ele>
        <time>2021-03-27T11:36:18Z</time>
      </trkpt>
      <trkpt lat="46.18858" lon="6.25077">
        <ele>465.2</ele>
        <time>2021-03-27T11:36:17Z</time>
      </trkpt>
      <trkpt lat="46.18863" lon="6.25078">
        <ele>465</ele>
        <time>2021-03-27T11:36:16Z</time>
      </trkpt>
      <trkpt lat="46.18869" lon="6.25078">
        <ele>465</ele>
        <time>2021-03-27T11:36:15Z</time>
      </trkpt>
      <trkpt lat="46.18874" lon="6.25078">
        <ele>464.8</ele>
        <time>2021-03-27T11:36:14Z</time>
      </trkpt>
      <trkpt lat="46.18879" lon="6.25078">
        <ele>464.8</ele>
        <time>2021-03-27T11:36:13Z</time>
      </trkpt>
      <trkpt lat="46.18885" lon="6.25077">
        <ele>464.8</ele>
        <time>2021-03-27T11:36:12Z</time>
      </trkpt>
      <trkpt lat="46.1889" lon="6.25076">
        <ele>464.6</ele>
        <time>2021-03-27T11:36:11Z</time>
      </trkpt>
      <trkpt lat="46.18895" lon="6.25076">
        <ele>464.4</ele>
        <time>2021-03-27T11:36:10Z</time>
      </trkpt>
      <trkpt lat="46.18901" lon="6.25075">
        <ele>464.4</ele>
        <time>2021-03-27T11:36:09Z</time>
      </trkpt>
      <trkpt lat="46.18906" lon="6.25074">
        <ele>464</ele>
        <time>2021-03-27T11:36:08Z</time>
      </trkpt>
      <trkpt lat="46.18911" lon="6.25073">
        <ele>463.6</ele>
        <time>2021-03-27T11:36:07Z</time>
      </trkpt>
      <trkpt lat="46.18917" lon="6.25072">
        <ele>463.6</ele>
        <time>2021-03-27T11:36:06Z</time>
      </trkpt>
      <trkpt lat="46.18922" lon="6.25072">
        <ele>463.4</ele>
        <time>2021-03-27T11:36:05Z</time>
      </trkpt>
      <trkpt lat="46.18927" lon="6.2507">
        <ele>463.2</ele>
        <time>2021-03-27T11:36:04Z</time>
      </trkpt>
      <trkpt lat="46.18933" lon="6.2507">
        <ele>463</ele>
        <time>2021-03-27T11:36:03Z</time>
      </trkpt>
      <trkpt lat="46.18938" lon="6.25069">
        <ele>462.4</ele>
        <time>2021-03-27T11:36:02Z</time>
      </trkpt>
      <trkpt lat="46.18943" lon="6.25068">
        <ele>461.8</ele>
        <time>2021-03-27T11:36:01Z</time>
      </trkpt>
      <trkpt lat="46.18948" lon="6.25067">
        <ele>461.2</ele>
        <time>2021-03-27T11:36:00Z</time>
      </trkpt>
      <trkpt lat="46.18953" lon="6.25067">
        <ele>460.8</ele>
        <time>2021-03-27T11:35:59Z</time>
      </trkpt>
      <trkpt lat="46.18959" lon="6.25068">
        <ele>460.4</ele>
        <time>2021-03-27T11:35:58Z</time>
      </trkpt>
      <trkpt lat="46.18964" lon="6.25068">
        <ele>460.2</ele>
        <time>2021-03-27T11:35:57Z</time>
      </trkpt>
      <trkpt lat="46.18969" lon="6.25069">
        <ele>459.6</ele>
        <time>2021-03-27T11:35:56Z</time>
      </trkpt>
      <trkpt lat="46.18974" lon="6.2507">
        <ele>459.6</ele>
        <time>2021-03-27T11:35:55Z</time>
      </trkpt>
      <trkpt lat="46.18979" lon="6.25071">
        <ele>459.6</ele>
        <time>2021-03-27T11:35:54Z</time>
      </trkpt>
      <trkpt lat="46.18984" lon="6.25072">
        <ele>459.8</ele>
        <time>2021-03-27T11:35:53Z</time>
      </trkpt>
      <trkpt lat="46.18989" lon="6.25073">
        <ele>459.8</ele>
        <time>2021-03-27T11:35:52Z</time>
      </trkpt>
      <trkpt lat="46.18994" lon="6.25076">
        <ele>459.6</ele>
        <time>2021-03-27T11:35:51Z</time>
      </trkpt>
      <trkpt lat="46.18999" lon="6.25078">
        <ele>459.6</ele>
        <time>2021-03-27T11:35:50Z</time>
      </trkpt>
      <trkpt lat="46.19005" lon="6.2508">
        <ele>459.4</ele>
        <time>2021-03-27T11:35:49Z</time>
      </trkpt>
      <trkpt lat="46.1901" lon="6.25083">
        <ele>459.4</ele>
        <time>2021-03-27T11:35:48Z</time>
      </trkpt>
      <trkpt lat="46.19016" lon="6.25085">
        <ele>459.6</ele>
        <time>2021-03-27T11:35:47Z</time>
      </trkpt>
      <trkpt lat="46.19022" lon="6.25087">
        <ele>459.4</ele>
        <time>2021-03-27T11:35:46Z</time>
      </trkpt>
      <trkpt lat="46.19027" lon="6.2509">
        <ele>459.2</ele>
        <time>2021-03-27T11:35:45Z</time>
      </trkpt>
      <trkpt lat="46.19032" lon="6.25094">
        <ele>458</ele>
        <time>2021-03-27T11:35:44Z</time>
      </trkpt>
      <trkpt lat="46.19036" lon="6.25101">
        <ele>457.8</ele>
        <time>2021-03-27T11:35:43Z</time>
      </trkpt>
      <trkpt lat="46.19042" lon="6.25106">
        <ele>457.2</ele>
        <time>2021-03-27T11:35:42Z</time>
      </trkpt>
      <trkpt lat="46.19048" lon="6.25111">
        <ele>457.2</ele>
        <time>2021-03-27T11:35:41Z</time>
      </trkpt>
      <trkpt lat="46.19055" lon="6.25115">
        <ele>457.8</ele>
        <time>2021-03-27T11:35:40Z</time>
      </trkpt>
      <trkpt lat="46.19063" lon="6.25118">
        <ele>458.2</ele>
        <time>2021-03-27T11:35:39Z</time>
      </trkpt>
      <trkpt lat="46.19071" lon="6.2512">
        <ele>459</ele>
        <time>2021-03-27T11:35:38Z</time>
      </trkpt>
      <trkpt lat="46.1908" lon="6.2512">
        <ele>460</ele>
        <time>2021-03-27T11:35:37Z</time>
      </trkpt>
      <trkpt lat="46.19089" lon="6.25118">
        <ele>461.2</ele>
        <time>2021-03-27T11:35:36Z</time>
      </trkpt>
      <trkpt lat="46.19097" lon="6.25114">
        <ele>462</ele>
        <time>2021-03-27T11:35:35Z</time>
      </trkpt>
      <trkpt lat="46.19103" lon="6.2511">
        <ele>462.6</ele>
        <time>2021-03-27T11:35:34Z</time>
      </trkpt>
      <trkpt lat="46.19108" lon="6.25104">
        <ele>462.8</ele>
        <time>2021-03-27T11:35:33Z</time>
      </trkpt>
      <trkpt lat="46.19112" lon="6.25097">
        <ele>462.8</ele>
        <time>2021-03-27T11:35:32Z</time>
      </trkpt>
      <trkpt lat="46.19114" lon="6.25088">
        <ele>462.6</ele>
        <time>2021-03-27T11:35:31Z</time>
      </trkpt>
      <trkpt lat="46.19117" lon="6.2508">
        <ele>462.4</ele>
        <time>2021-03-27T11:35:30Z</time>
      </trkpt>
      <trkpt lat="46.1912" lon="6.25072">
        <ele>462</ele>
        <time>2021-03-27T11:35:29Z</time>
      </trkpt>
      <trkpt lat="46.19128" lon="6.25065">
        <ele>461.8</ele>
        <time>2021-03-27T11:35:28Z</time>
      </trkpt>
      <trkpt lat="46.19132" lon="6.25061">
        <ele>461.4</ele>
        <time>2021-03-27T11:35:27Z</time>
      </trkpt>
      <trkpt lat="46.19136" lon="6.25057">
        <ele>461.4</ele>
        <time>2021-03-27T11:35:26Z</time>
      </trkpt>
      <trkpt lat="46.19136" lon="6.25057">
        <ele>461.4</ele>
        <time>2021-03-27T11:35:25Z</time>
      </trkpt>
      <trkpt lat="46.19136" lon="6.25057">
        <ele>461.4</ele>
        <time>2021-03-27T11:35:24Z</time>
      </trkpt>
      <trkpt lat="46.19136" lon="6.25057">
        <ele>461.4</ele>
        <time>2021-03-27T11:35:23Z</time>
      </trkpt>
      <trkpt lat="46.19136" lon="6.25057">
        <ele>461.4</ele>
        <time>2021-03-27T11:35:22Z</time>
      </trkpt>
      <trkpt lat="46.19136" lon="6.25057">
        <ele>461.4</ele>
        <time>2021-03-27T11:35:21Z</time>
      </trkpt>
      <trkpt lat="46.19136" lon="6.25057">
        <ele>461.2</ele>
        <time>2021-03-27T11:35:20Z</time>
      </trkpt>
      <trkpt lat="46.19136" lon="6.25057">
        <ele>461</ele>
        <time>2021-03-27T11:35:19Z</time>
      </trkpt>
      <trkpt lat="46.19136" lon="6.25057">
        <ele>460.8</ele>
        <time>2021-03-27T11:35:18Z</time>
      </trkpt>
      <trkpt lat="46.19136" lon="6.25057">
        <ele>461</ele>
        <time>2021-03-27T11:35:17Z</time>
      </trkpt>
      <trkpt lat="46.19136" lon="6.25057">
        <ele>460.6</ele>
        <time>2021-03-27T11:35:16Z</time>
      </trkpt>
      <trkpt lat="46.19136" lon="6.25057">
        <ele>460.4</ele>
        <time>2021-03-27T11:35:15Z</time>
      </trkpt>
      <trkpt lat="46.19136" lon="6.25057">
        <ele>460.4</ele>
        <time>2021-03-27T11:35:14Z</time>
      </trkpt>
      <trkpt lat="46.19136" lon="6.25057">
        <ele>460.2</ele>
        <time>2021-03-27T11:35:13Z</time>
      </trkpt>
      <trkpt lat="46.19136" lon="6.25057">
        <ele>460.2</ele>
        <time>2021-03-27T11:35:12Z</time>
      </trkpt>
      <trkpt lat="46.19136" lon="6.25057">
        <ele>460.2</ele>
        <time>2021-03-27T11:35:11Z</time>
      </trkpt>
      <trkpt lat="46.19136" lon="6.25057">
        <ele>460</ele>
        <time>2021-03-27T11:35:10Z</time>
      </trkpt>
      <trkpt lat="46.19136" lon="6.25057">
        <ele>460</ele>
        <time>2021-03-27T11:35:09Z</time>
      </trkpt>
      <trkpt lat="46.19136" lon="6.25057">
        <ele>460</ele>
        <time>2021-03-27T11:35:08Z</time>
      </trkpt>
      <trkpt lat="46.19136" lon="6.25057">
        <ele>459.8</ele>
        <time>2021-03-27T11:35:07Z</time>
      </trkpt>
      <trkpt lat="46.19136" lon="6.25057">
        <ele>459.8</ele>
        <time>2021-03-27T11:35:06Z</time>
      </trkpt>
      <trkpt lat="46.19136" lon="6.25057">
        <ele>459.6</ele>
        <time>2021-03-27T11:35:05Z</time>
      </trkpt>
      <trkpt lat="46.19136" lon="6.25057">
        <ele>459.6</ele>
        <time>2021-03-27T11:35:04Z</time>
      </trkpt>
      <trkpt lat="46.19137" lon="6.25057">
        <ele>459.8</ele>
        <time>2021-03-27T11:35:03Z</time>
      </trkpt>
      <trkpt lat="46.19137" lon="6.25057">
        <ele>459.8</ele>
        <time>2021-03-27T11:35:02Z</time>
      </trkpt>
      <trkpt lat="46.19137" lon="6.25057">
        <ele>459.6</ele>
        <time>2021-03-27T11:35:01Z</time>
      </trkpt>
      <trkpt lat="46.19137" lon="6.25057">
        <ele>459.8</ele>
        <time>2021-03-27T11:35:00Z</time>
      </trkpt>
      <trkpt lat="46.19137" lon="6.25057">
        <ele>459.8</ele>
        <time>2021-03-27T11:34:59Z</time>
      </trkpt>
      <trkpt lat="46.19137" lon="6.25057">
        <ele>459.8</ele>
        <time>2021-03-27T11:34:58Z</time>
      </trkpt>
      <trkpt lat="46.19137" lon="6.25057">
        <ele>459.6</ele>
        <time>2021-03-27T11:34:57Z</time>
      </trkpt>
      <trkpt lat="46.19137" lon="6.25057">
        <ele>459.8</ele>
        <time>2021-03-27T11:34:56Z</time>
      </trkpt>
      <trkpt lat="46.19137" lon="6.25057">
        <ele>459.8</ele>
        <time>2021-03-27T11:34:55Z</time>
      </trkpt>
      <trkpt lat="46.19137" lon="6.25057">
        <ele>459.8</ele>
        <time>2021-03-27T11:34:54Z</time>
      </trkpt>
      <trkpt lat="46.19137" lon="6.25057">
        <ele>459.8</ele>
        <time>2021-03-27T11:34:53Z</time>
      </trkpt>
      <trkpt lat="46.19137" lon="6.25057">
        <ele>459.8</ele>
        <time>2021-03-27T11:34:52Z</time>
      </trkpt>
      <trkpt lat="46.19137" lon="6.25057">
        <ele>459.8</ele>
        <time>2021-03-27T11:34:51Z</time>
      </trkpt>
      <trkpt lat="46.19137" lon="6.25057">
        <ele>460</ele>
        <time>2021-03-27T11:34:50Z</time>
      </trkpt>
      <trkpt lat="46.19137" lon="6.25057">
        <ele>459.8</ele>
        <time>2021-03-27T11:34:49Z</time>
      </trkpt>
      <trkpt lat="46.19137" lon="6.25057">
        <ele>459.8</ele>
        <time>2021-03-27T11:34:48Z</time>
      </trkpt>
      <trkpt lat="46.19137" lon="6.25057">
        <ele>460</ele>
        <time>2021-03-27T11:34:47Z</time>
      </trkpt>
      <trkpt lat="46.19137" lon="6.25057">
        <ele>460</ele>
        <time>2021-03-27T11:34:46Z</time>
      </trkpt>
      <trkpt lat="46.19137" lon="6.25057">
        <ele>460</ele>
        <time>2021-03-27T11:34:45Z</time>
      </trkpt>
      <trkpt lat="46.19137" lon="6.25057">
        <ele>459.8</ele>
        <time>2021-03-27T11:34:44Z</time>
      </trkpt>
      <trkpt lat="46.19137" lon="6.25057">
        <ele>460</ele>
        <time>2021-03-27T11:34:43Z</time>
      </trkpt>
      <trkpt lat="46.19137" lon="6.25057">
        <ele>460</ele>
        <time>2021-03-27T11:34:42Z</time>
      </trkpt>
      <trkpt lat="46.19137" lon="6.25057">
        <ele>460</ele>
        <time>2021-03-27T11:34:41Z</time>
      </trkpt>
      <trkpt lat="46.19137" lon="6.25057">
        <ele>460</ele>
        <time>2021-03-27T11:34:40Z</time>
      </trkpt>
      <trkpt lat="46.19137" lon="6.25057">
        <ele>460</ele>
        <time>2021-03-27T11:34:39Z</time>
      </trkpt>
      <trkpt lat="46.19137" lon="6.25057">
        <ele>460</ele>
        <time>2021-03-27T11:34:38Z</time>
      </trkpt>
      <trkpt lat="46.19137" lon="6.25057">
        <ele>460</ele>
        <time>2021-03-27T11:34:37Z</time>
      </trkpt>
      <trkpt lat="46.19137" lon="6.25057">
        <ele>460</ele>
        <time>2021-03-27T11:34:36Z</time>
      </trkpt>
      <trkpt lat="46.19137" lon="6.25057">
        <ele>460</ele>
        <time>2021-03-27T11:34:35Z</time>
      </trkpt>
      <trkpt lat="46.19137" lon="6.25057">
        <ele>460</ele>
        <time>2021-03-27T11:34:34Z</time>
      </trkpt>
      <trkpt lat="46.19138" lon="6.25057">
        <ele>460.2</ele>
        <time>2021-03-27T11:34:33Z</time>
      </trkpt>
      <trkpt lat="46.19138" lon="6.25057">
        <ele>460</ele>
        <time>2021-03-27T11:34:32Z</time>
      </trkpt>
      <trkpt lat="46.19138" lon="6.25057">
        <ele>460</ele>
        <time>2021-03-27T11:34:31Z</time>
      </trkpt>
      <trkpt lat="46.19138" lon="6.25057">
        <ele>460</ele>
        <time>2021-03-27T11:34:30Z</time>
      </trkpt>
      <trkpt lat="46.19138" lon="6.25057">
        <ele>460</ele>
        <time>2021-03-27T11:34:29Z</time>
      </trkpt>
      <trkpt lat="46.19138" lon="6.25057">
        <ele>460</ele>
        <time>2021-03-27T11:34:28Z</time>
      </trkpt>
      <trkpt lat="46.19138" lon="6.25057">
        <ele>460</ele>
        <time>2021-03-27T11:34:27Z</time>
      </trkpt>
      <trkpt lat="46.19138" lon="6.25057">
        <ele>460</ele>
        <time>2021-03-27T11:34:26Z</time>
      </trkpt>
      <trkpt lat="46.19138" lon="6.25057">
        <ele>460</ele>
        <time>2021-03-27T11:34:25Z</time>
      </trkpt>
      <trkpt lat="46.19138" lon="6.25057">
        <ele>459.8</ele>
        <time>2021-03-27T11:34:24Z</time>
      </trkpt>
      <trkpt lat="46.19138" lon="6.25057">
        <ele>459.8</ele>
        <time>2021-03-27T11:34:23Z</time>
      </trkpt>
      <trkpt lat="46.19138" lon="6.25057">
        <ele>459.8</ele>
        <time>2021-03-27T11:34:22Z</time>
      </trkpt>
      <trkpt lat="46.19138" lon="6.25057">
        <ele>459.8</ele>
        <time>2021-03-27T11:34:21Z</time>
      </trkpt>
      <trkpt lat="46.19138" lon="6.25057">
        <ele>459.6</ele>
        <time>2021-03-27T11:34:20Z</time>
      </trkpt>
      <trkpt lat="46.19138" lon="6.25057">
        <ele>459.6</ele>
        <time>2021-03-27T11:34:19Z</time>
      </trkpt>
      <trkpt lat="46.19138" lon="6.25057">
        <ele>459.6</ele>
        <time>2021-03-27T11:34:18Z</time>
      </trkpt>
      <trkpt lat="46.19138" lon="6.25057">
        <ele>459.6</ele>
        <time>2021-03-27T11:34:17Z</time>
      </trkpt>
      <trkpt lat="46.19138" lon="6.25057">
        <ele>459.4</ele>
        <time>2021-03-27T11:34:16Z</time>
      </trkpt>
      <trkpt lat="46.19138" lon="6.25057">
        <ele>459.2</ele>
        <time>2021-03-27T11:34:15Z</time>
      </trkpt>
      <trkpt lat="46.19138" lon="6.25057">
        <ele>459</ele>
        <time>2021-03-27T11:34:14Z</time>
      </trkpt>
      <trkpt lat="46.19138" lon="6.25057">
        <ele>459</ele>
        <time>2021-03-27T11:34:13Z</time>
      </trkpt>
      <trkpt lat="46.19138" lon="6.25057">
        <ele>459</ele>
        <time>2021-03-27T11:34:12Z</time>
      </trkpt>
      <trkpt lat="46.19138" lon="6.25057">
        <ele>458.8</ele>
        <time>2021-03-27T11:34:11Z</time>
      </trkpt>
      <trkpt lat="46.19138" lon="6.25057">
        <ele>458.6</ele>
        <time>2021-03-27T11:34:10Z</time>
      </trkpt>
      <trkpt lat="46.19138" lon="6.25057">
        <ele>458.6</ele>
        <time>2021-03-27T11:34:09Z</time>
      </trkpt>
      <trkpt lat="46.19138" lon="6.25057">
        <ele>458.4</ele>
        <time>2021-03-27T11:34:08Z</time>
      </trkpt>
      <trkpt lat="46.19138" lon="6.25057">
        <ele>458.4</ele>
        <time>2021-03-27T11:34:07Z</time>
      </trkpt>
      <trkpt lat="46.19138" lon="6.25057">
        <ele>458.4</ele>
        <time>2021-03-27T11:34:06Z</time>
      </trkpt>
      <trkpt lat="46.19138" lon="6.25057">
        <ele>458.2</ele>
        <time>2021-03-27T11:34:05Z</time>
      </trkpt>
      <trkpt lat="46.19138" lon="6.25057">
        <ele>458</ele>
        <time>2021-03-27T11:34:04Z</time>
      </trkpt>
      <trkpt lat="46.19139" lon="6.25057">
        <ele>458</ele>
        <time>2021-03-27T11:34:03Z</time>
      </trkpt>
      <trkpt lat="46.19139" lon="6.25057">
        <ele>458</ele>
        <time>2021-03-27T11:34:02Z</time>
      </trkpt>
      <trkpt lat="46.19139" lon="6.25057">
        <ele>457.8</ele>
        <time>2021-03-27T11:34:01Z</time>
      </trkpt>
      <trkpt lat="46.19139" lon="6.25057">
        <ele>457.8</ele>
        <time>2021-03-27T11:34:00Z</time>
      </trkpt>
      <trkpt lat="46.19139" lon="6.25057">
        <ele>457.6</ele>
        <time>2021-03-27T11:33:59Z</time>
      </trkpt>
      <trkpt lat="46.19139" lon="6.25057">
        <ele>457.8</ele>
        <time>2021-03-27T11:33:58Z</time>
      </trkpt>
      <trkpt lat="46.19139" lon="6.25057">
        <ele>457.8</ele>
        <time>2021-03-27T11:33:57Z</time>
      </trkpt>
      <trkpt lat="46.19139" lon="6.25057">
        <ele>457.8</ele>
        <time>2021-03-27T11:33:56Z</time>
      </trkpt>
      <trkpt lat="46.19139" lon="6.25057">
        <ele>457.6</ele>
        <time>2021-03-27T11:33:55Z</time>
      </trkpt>
      <trkpt lat="46.19139" lon="6.25057">
        <ele>457.6</ele>
        <time>2021-03-27T11:33:54Z</time>
      </trkpt>
      <trkpt lat="46.19139" lon="6.25057">
        <ele>457.6</ele>
        <time>2021-03-27T11:33:53Z</time>
      </trkpt>
      <trkpt lat="46.19139" lon="6.25057">
        <ele>457.6</ele>
        <time>2021-03-27T11:33:52Z</time>
      </trkpt>
      <trkpt lat="46.19139" lon="6.25057">
        <ele>457.6</ele>
        <time>2021-03-27T11:33:51Z</time>
      </trkpt>
      <trkpt lat="46.19139" lon="6.25057">
        <ele>457.4</ele>
        <time>2021-03-27T11:33:50Z</time>
      </trkpt>
      <trkpt lat="46.19139" lon="6.25057">
        <ele>457.4</ele>
        <time>2021-03-27T11:33:49Z</time>
      </trkpt>
      <trkpt lat="46.19139" lon="6.25057">
        <ele>457.4</ele>
        <time>2021-03-27T11:33:48Z</time>
      </trkpt>
      <trkpt lat="46.19139" lon="6.25057">
        <ele>457.4</ele>
        <time>2021-03-27T11:33:47Z</time>
      </trkpt>
      <trkpt lat="46.19139" lon="6.25057">
        <ele>457.4</ele>
        <time>2021-03-27T11:33:46Z</time>
      </trkpt>
      <trkpt lat="46.19139" lon="6.25057">
        <ele>457.4</ele>
        <time>2021-03-27T11:33:45Z</time>
      </trkpt>
      <trkpt lat="46.19139" lon="6.25057">
        <ele>457.6</ele>
        <time>2021-03-27T11:33:44Z</time>
      </trkpt>
      <trkpt lat="46.19139" lon="6.25057">
        <ele>457.4</ele>
        <time>2021-03-27T11:33:43Z</time>
      </trkpt>
      <trkpt lat="46.19139" lon="6.25057">
        <ele>457.4</ele>
        <time>2021-03-27T11:33:42Z</time>
      </trkpt>
      <trkpt lat="46.19139" lon="6.25057">
        <ele>457.6</ele>
        <time>2021-03-27T11:33:41Z</time>
      </trkpt>
      <trkpt lat="46.19139" lon="6.25057">
        <ele>457.6</ele>
        <time>2021-03-27T11:33:40Z</time>
      </trkpt>
      <trkpt lat="46.19139" lon="6.25057">
        <ele>457.4</ele>
        <time>2021-03-27T11:33:39Z</time>
      </trkpt>
      <trkpt lat="46.19139" lon="6.25057">
        <ele>457.6</ele>
        <time>2021-03-27T11:33:38Z</time>
      </trkpt>
      <trkpt lat="46.19139" lon="6.25057">
        <ele>457.4</ele>
        <time>2021-03-27T11:33:37Z</time>
      </trkpt>
      <trkpt lat="46.19139" lon="6.25057">
        <ele>457.6</ele>
        <time>2021-03-27T11:33:36Z</time>
      </trkpt>
      <trkpt lat="46.19139" lon="6.25057">
        <ele>457.4</ele>
        <time>2021-03-27T11:33:35Z</time>
      </trkpt>
      <trkpt lat="46.19139" lon="6.25057">
        <ele>457.4</ele>
        <time>2021-03-27T11:33:34Z</time>
      </trkpt>
      <trkpt lat="46.19139" lon="6.25057">
        <ele>457.4</ele>
        <time>2021-03-27T11:33:33Z</time>
      </trkpt>
      <trkpt lat="46.1914" lon="6.25057">
        <ele>457.6</ele>
        <time>2021-03-27T11:33:32Z</time>
      </trkpt>
      <trkpt lat="46.1914" lon="6.25057">
        <ele>457.6</ele>
        <time>2021-03-27T11:33:31Z</time>
      </trkpt>
      <trkpt lat="46.1914" lon="6.25057">
        <ele>457.4</ele>
        <time>2021-03-27T11:33:30Z</time>
      </trkpt>
      <trkpt lat="46.1914" lon="6.25057">
        <ele>457.4</ele>
        <time>2021-03-27T11:33:29Z</time>
      </trkpt>
      <trkpt lat="46.1914" lon="6.25057">
        <ele>457.4</ele>
        <time>2021-03-27T11:33:28Z</time>
      </trkpt>
      <trkpt lat="46.1914" lon="6.25057">
        <ele>457.4</ele>
        <time>2021-03-27T11:33:27Z</time>
      </trkpt>
      <trkpt lat="46.1914" lon="6.25057">
        <ele>457.2</ele>
        <time>2021-03-27T11:33:26Z</time>
      </trkpt>
      <trkpt lat="46.1914" lon="6.25057">
        <ele>457.2</ele>
        <time>2021-03-27T11:33:25Z</time>
      </trkpt>
      <trkpt lat="46.1914" lon="6.25057">
        <ele>457.2</ele>
        <time>2021-03-27T11:33:24Z</time>
      </trkpt>
      <trkpt lat="46.1914" lon="6.25057">
        <ele>457.4</ele>
        <time>2021-03-27T11:33:23Z</time>
      </trkpt>
      <trkpt lat="46.1914" lon="6.25057">
        <ele>457.2</ele>
        <time>2021-03-27T11:33:22Z</time>
      </trkpt>
      <trkpt lat="46.1914" lon="6.25057">
        <ele>457.2</ele>
        <time>2021-03-27T11:33:21Z</time>
      </trkpt>
      <trkpt lat="46.1914" lon="6.25057">
        <ele>457.2</ele>
        <time>2021-03-27T11:33:20Z</time>
      </trkpt>
      <trkpt lat="46.1914" lon="6.25057">
        <ele>457.2</ele>
        <time>2021-03-27T11:33:19Z</time>
      </trkpt>
      <trkpt lat="46.1914" lon="6.25057">
        <ele>457.2</ele>
        <time>2021-03-27T11:33:18Z</time>
      </trkpt>
      <trkpt lat="46.1914" lon="6.25057">
        <ele>457.2</ele>
        <time>2021-03-27T11:33:17Z</time>
      </trkpt>
      <trkpt lat="46.1914" lon="6.25057">
        <ele>457.2</ele>
        <time>2021-03-27T11:33:16Z</time>
      </trkpt>
      <trkpt lat="46.1914" lon="6.25057">
        <ele>457.2</ele>
        <time>2021-03-27T11:33:15Z</time>
      </trkpt>
      <trkpt lat="46.1914" lon="6.25057">
        <ele>457.2</ele>
        <time>2021-03-27T11:33:14Z</time>
      </trkpt>
      <trkpt lat="46.1914" lon="6.25057">
        <ele>457.2</ele>
        <time>2021-03-27T11:33:13Z</time>
      </trkpt>
      <trkpt lat="46.1914" lon="6.25057">
        <ele>457.2</ele>
        <time>2021-03-27T11:33:12Z</time>
      </trkpt>
      <trkpt lat="46.1914" lon="6.25057">
        <ele>457</ele>
        <time>2021-03-27T11:33:11Z</time>
      </trkpt>
      <trkpt lat="46.1914" lon="6.25057">
        <ele>457</ele>
        <time>2021-03-27T11:33:10Z</time>
      </trkpt>
      <trkpt lat="46.1914" lon="6.25057">
        <ele>457</ele>
        <time>2021-03-27T11:33:09Z</time>
      </trkpt>
      <trkpt lat="46.1914" lon="6.25057">
        <ele>457</ele>
        <time>2021-03-27T11:33:08Z</time>
      </trkpt>
      <trkpt lat="46.1914" lon="6.25057">
        <ele>457</ele>
        <time>2021-03-27T11:33:07Z</time>
      </trkpt>
      <trkpt lat="46.1914" lon="6.25057">
        <ele>457.2</ele>
        <time>2021-03-27T11:33:06Z</time>
      </trkpt>
      <trkpt lat="46.1914" lon="6.25057">
        <ele>457</ele>
        <time>2021-03-27T11:33:05Z</time>
      </trkpt>
      <trkpt lat="46.1914" lon="6.25057">
        <ele>457</ele>
        <time>2021-03-27T11:33:04Z</time>
      </trkpt>
      <trkpt lat="46.1914" lon="6.25057">
        <ele>457</ele>
        <time>2021-03-27T11:33:03Z</time>
      </trkpt>
      <trkpt lat="46.19141" lon="6.25057">
        <ele>457.2</ele>
        <time>2021-03-27T11:33:02Z</time>
      </trkpt>
      <trkpt lat="46.19141" lon="6.25057">
        <ele>457</ele>
        <time>2021-03-27T11:33:01Z</time>
      </trkpt>
      <trkpt lat="46.19141" lon="6.25057">
        <ele>457.2</ele>
        <time>2021-03-27T11:33:00Z</time>
      </trkpt>
      <trkpt lat="46.19141" lon="6.25057">
        <ele>457.2</ele>
        <time>2021-03-27T11:32:59Z</time>
      </trkpt>
      <trkpt lat="46.19141" lon="6.25057">
        <ele>457</ele>
        <time>2021-03-27T11:32:58Z</time>
      </trkpt>
      <trkpt lat="46.19141" lon="6.25057">
        <ele>457</ele>
        <time>2021-03-27T11:32:57Z</time>
      </trkpt>
      <trkpt lat="46.19141" lon="6.25057">
        <ele>457.2</ele>
        <time>2021-03-27T11:32:56Z</time>
      </trkpt>
      <trkpt lat="46.19141" lon="6.25057">
        <ele>457.2</ele>
        <time>2021-03-27T11:32:55Z</time>
      </trkpt>
      <trkpt lat="46.19141" lon="6.25057">
        <ele>457.2</ele>
        <time>2021-03-27T11:32:54Z</time>
      </trkpt>
      <trkpt lat="46.19141" lon="6.25057">
        <ele>457.2</ele>
        <time>2021-03-27T11:32:53Z</time>
      </trkpt>
      <trkpt lat="46.19141" lon="6.25057">
        <ele>457.2</ele>
        <time>2021-03-27T11:32:52Z</time>
      </trkpt>
      <trkpt lat="46.19141" lon="6.25057">
        <ele>457.2</ele>
        <time>2021-03-27T11:32:51Z</time>
      </trkpt>
      <trkpt lat="46.19141" lon="6.25057">
        <ele>457.4</ele>
        <time>2021-03-27T11:32:50Z</time>
      </trkpt>
      <trkpt lat="46.19141" lon="6.25057">
        <ele>457.4</ele>
        <time>2021-03-27T11:32:49Z</time>
      </trkpt>
      <trkpt lat="46.19141" lon="6.25057">
        <ele>457.2</ele>
        <time>2021-03-27T11:32:48Z</time>
      </trkpt>
      <trkpt lat="46.19141" lon="6.25057">
        <ele>457.2</ele>
        <time>2021-03-27T11:32:47Z</time>
      </trkpt>
      <trkpt lat="46.19141" lon="6.25057">
        <ele>457.4</ele>
        <time>2021-03-27T11:32:46Z</time>
      </trkpt>
      <trkpt lat="46.19141" lon="6.25057">
        <ele>457.2</ele>
        <time>2021-03-27T11:32:45Z</time>
      </trkpt>
      <trkpt lat="46.19141" lon="6.25057">
        <ele>457.4</ele>
        <time>2021-03-27T11:32:44Z</time>
      </trkpt>
      <trkpt lat="46.19141" lon="6.25057">
        <ele>457.2</ele>
        <time>2021-03-27T11:32:43Z</time>
      </trkpt>
      <trkpt lat="46.19141" lon="6.25057">
        <ele>457.2</ele>
        <time>2021-03-27T11:32:42Z</time>
      </trkpt>
      <trkpt lat="46.19141" lon="6.25057">
        <ele>457.4</ele>
        <time>2021-03-27T11:32:41Z</time>
      </trkpt>
      <trkpt lat="46.19141" lon="6.25057">
        <ele>457.2</ele>
        <time>2021-03-27T11:32:40Z</time>
      </trkpt>
      <trkpt lat="46.19141" lon="6.25057">
        <ele>457.2</ele>
        <time>2021-03-27T11:32:39Z</time>
      </trkpt>
      <trkpt lat="46.19141" lon="6.25057">
        <ele>457.4</ele>
        <time>2021-03-27T11:32:38Z</time>
      </trkpt>
      <trkpt lat="46.19141" lon="6.25057">
        <ele>457.2</ele>
        <time>2021-03-27T11:32:37Z</time>
      </trkpt>
      <trkpt lat="46.19141" lon="6.25056">
        <ele>457.2</ele>
        <time>2021-03-27T11:32:36Z</time>
      </trkpt>
      <trkpt lat="46.19141" lon="6.25056">
        <ele>457.2</ele>
        <time>2021-03-27T11:32:35Z</time>
      </trkpt>
      <trkpt lat="46.19141" lon="6.25056">
        <ele>457.2</ele>
        <time>2021-03-27T11:32:34Z</time>
      </trkpt>
      <trkpt lat="46.19141" lon="6.25056">
        <ele>457</ele>
        <time>2021-03-27T11:32:33Z</time>
      </trkpt>
      <trkpt lat="46.19142" lon="6.25056">
        <ele>457</ele>
        <time>2021-03-27T11:32:31Z</time>
      </trkpt>
      <trkpt lat="46.19142" lon="6.25056">
        <ele>456.8</ele>
        <time>2021-03-27T11:32:30Z</time>
      </trkpt>
      <trkpt lat="46.19142" lon="6.25056">
        <ele>456.8</ele>
        <time>2021-03-27T11:32:29Z</time>
      </trkpt>
      <trkpt lat="46.19142" lon="6.25056">
        <ele>456.8</ele>
        <time>2021-03-27T11:32:27Z</time>
      </trkpt>
      <trkpt lat="46.19142" lon="6.25056">
        <ele>456.8</ele>
        <time>2021-03-27T11:32:26Z</time>
      </trkpt>
      <trkpt lat="46.19142" lon="6.25056">
        <ele>456.8</ele>
        <time>2021-03-27T11:32:25Z</time>
      </trkpt>
      <trkpt lat="46.19142" lon="6.25056">
        <ele>456.8</ele>
        <time>2021-03-27T11:32:24Z</time>
      </trkpt>
      <trkpt lat="46.19142" lon="6.25056">
        <ele>456.8</ele>
        <time>2021-03-27T11:32:23Z</time>
      </trkpt>
      <trkpt lat="46.19142" lon="6.25056">
        <ele>456.8</ele>
        <time>2021-03-27T11:32:23Z</time>
      </trkpt>
      <trkpt lat="46.19142" lon="6.25056">
        <ele>456.8</ele>
        <time>2021-03-27T11:32:23Z</time>
      </trkpt>
      <trkpt lat="46.19142" lon="6.25056">
        <ele>456.8</ele>
        <time>2021-03-27T11:32:23Z</time>
      </trkpt>
    </trkseg>
  </trk>
</gpx>